<?xml version='1.0' encoding='UTF-8'?><gpx version="1.1" creator="JPX - https://github.com/jenetics/jpx" xmlns="http://www.topografix.com/GPX/1/1"><trk><trkseg><trkpt lat="42.214302468136026" lon="12.973314896654218"><ele>552.0</ele><time>2026-04-19T12:06:47.999Z</time></trkpt><trkpt lat="42.21423860682462" lon="12.973333108357627"><ele>552.0</ele><time>2026-04-19T12:06:59.998Z</time></trkpt><trkpt lat="42.21415480021757" lon="12.97333471468216"><ele>552.0</ele><time>2026-04-19T12:09:49.999Z</time></trkpt><trkpt lat="42.214076308831686" lon="12.973293303290244"><ele>552.0</ele><time>2026-04-19T12:09:51.999Z</time></trkpt><trkpt lat="42.21401903505211" lon="12.973249475973"><ele>552.0</ele><time>2026-04-19T12:09:55.999Z</time></trkpt><trkpt lat="42.21399441010584" lon="12.973139081667169"><ele>552.0</ele><time>2026-04-19T12:10:06.999Z</time></trkpt><trkpt lat="42.21400648509131" lon="12.97303778463969"><ele>552.0</ele><time>2026-04-19T12:10:10.999Z</time></trkpt><trkpt lat="42.21400272566546" lon="12.972943610383618"><ele>552.0</ele><time>2026-04-19T12:10:21.999Z</time></trkpt><trkpt lat="42.21397585021225" lon="12.9728400663005"><ele>552.0</ele><time>2026-04-19T12:12:28.999Z</time></trkpt><trkpt lat="42.21397972259885" lon="12.972748549880253"><ele>552.0</ele><time>2026-04-19T12:12:30.999Z</time></trkpt><trkpt lat="42.213989921059664" lon="12.972657557046952"><ele>552.0</ele><time>2026-04-19T12:12:33.999Z</time></trkpt><trkpt lat="42.21397277777946" lon="12.97255496761681"><ele>552.0</ele><time>2026-04-19T12:14:05.999Z</time></trkpt><trkpt lat="42.213964541264325" lon="12.972465920439959"><ele>552.0</ele><time>2026-04-19T12:14:06.999Z</time></trkpt><trkpt lat="42.21396006456249" lon="12.972368049846418"><ele>550.0</ele><time>2026-04-19T12:14:07.999Z</time></trkpt><trkpt lat="42.2139744985181" lon="12.972266204991277"><ele>548.0</ele><time>2026-04-19T12:14:08.999Z</time></trkpt><trkpt lat="42.21396969670694" lon="12.972165003848295"><ele>546.0</ele><time>2026-04-19T12:14:09.999Z</time></trkpt><trkpt lat="42.21396453251656" lon="12.972061244121768"><ele>544.0</ele><time>2026-04-19T12:14:10.999Z</time></trkpt><trkpt lat="42.2139583673039" lon="12.971963381287006"><ele>542.0</ele><time>2026-04-19T12:14:11.999Z</time></trkpt><trkpt lat="42.21395112659647" lon="12.971848446825954"><ele>540.0</ele><time>2026-04-19T12:14:12.999Z</time></trkpt><trkpt lat="42.21394397514108" lon="12.971734929310369"><ele>540.0</ele><time>2026-04-19T12:14:13.999Z</time></trkpt><trkpt lat="42.21392212942814" lon="12.97162773743555"><ele>540.0</ele><time>2026-04-19T12:14:14.999Z</time></trkpt><trkpt lat="42.21393169170197" lon="12.97152595559156"><ele>540.0</ele><time>2026-04-19T12:14:16Z</time></trkpt><trkpt lat="42.21392563427918" lon="12.971422031854404"><ele>540.0</ele><time>2026-04-19T12:14:17Z</time></trkpt><trkpt lat="42.21391968726352" lon="12.971312694107583"><ele>540.0</ele><time>2026-04-19T12:14:18Z</time></trkpt><trkpt lat="42.21391302470146" lon="12.971188687981263"><ele>540.0</ele><time>2026-04-19T12:14:19Z</time></trkpt><trkpt lat="42.21390375534619" lon="12.971040474733096"><ele>540.0</ele><time>2026-04-19T12:14:20Z</time></trkpt><trkpt lat="42.21389462567806" lon="12.970898133743413"><ele>540.0</ele><time>2026-04-19T12:14:21Z</time></trkpt><trkpt lat="42.21388568289108" lon="12.97075870642333"><ele>540.0</ele><time>2026-04-19T12:14:22Z</time></trkpt><trkpt lat="42.2138772793965" lon="12.970627687279785"><ele>540.0</ele><time>2026-04-19T12:14:23Z</time></trkpt><trkpt lat="42.21387114628877" lon="12.970502955237372"><ele>540.0</ele><time>2026-04-19T12:14:24Z</time></trkpt><trkpt lat="42.21386529710067" lon="12.970371297468837"><ele>540.0</ele><time>2026-04-19T12:14:25Z</time></trkpt><trkpt lat="42.213858952757846" lon="12.970224966768996"><ele>540.0</ele><time>2026-04-19T12:14:26Z</time></trkpt><trkpt lat="42.213851619608455" lon="12.97007532757263"><ele>540.0</ele><time>2026-04-19T12:14:27Z</time></trkpt><trkpt lat="42.213843277940164" lon="12.969928144707819"><ele>540.0</ele><time>2026-04-19T12:14:28Z</time></trkpt><trkpt lat="42.21383574499111" lon="12.969795231083102"><ele>540.0</ele><time>2026-04-19T12:14:29Z</time></trkpt><trkpt lat="42.21382814179058" lon="12.96966107800845"><ele>540.0</ele><time>2026-04-19T12:14:30Z</time></trkpt><trkpt lat="42.213820706347384" lon="12.969529882964597"><ele>540.0</ele><time>2026-04-19T12:14:31Z</time></trkpt><trkpt lat="42.21379347569834" lon="12.96939919967848"><ele>540.0</ele><time>2026-04-19T12:14:32Z</time></trkpt><trkpt lat="42.21379013328836" lon="12.96928307591563"><ele>540.0</ele><time>2026-04-19T12:14:33Z</time></trkpt><trkpt lat="42.213789387226484" lon="12.969176597362473"><ele>540.0</ele><time>2026-04-19T12:14:34Z</time></trkpt><trkpt lat="42.213793694762956" lon="12.969075661436856"><ele>540.0</ele><time>2026-04-19T12:14:35Z</time></trkpt><trkpt lat="42.21380920835409" lon="12.96896433919164"><ele>540.5</ele><time>2026-04-19T12:14:36Z</time></trkpt><trkpt lat="42.213844020767624" lon="12.968853186587571"><ele>541.0</ele><time>2026-04-19T12:14:37Z</time></trkpt><trkpt lat="42.213890890286955" lon="12.968754274507058"><ele>541.5</ele><time>2026-04-19T12:14:38Z</time></trkpt><trkpt lat="42.21394476711606" lon="12.968689960263013"><ele>542.0</ele><time>2026-04-19T12:14:39Z</time></trkpt><trkpt lat="42.214006924971564" lon="12.968643521510648"><ele>542.5</ele><time>2026-04-19T12:14:40Z</time></trkpt><trkpt lat="42.214074581972426" lon="12.968614598608589"><ele>543.0</ele><time>2026-04-19T12:14:41Z</time></trkpt><trkpt lat="42.21414842747489" lon="12.96860284038848"><ele>543.7142857142858</ele><time>2026-04-19T12:14:42Z</time></trkpt><trkpt lat="42.214221665652055" lon="12.968592866324947"><ele>544.4285714285714</ele><time>2026-04-19T12:14:43Z</time></trkpt><trkpt lat="42.21429078063865" lon="12.968579849826607"><ele>545.1428571428571</ele><time>2026-04-19T12:14:44Z</time></trkpt><trkpt lat="42.21436266723512" lon="12.968568648347109"><ele>545.8571428571429</ele><time>2026-04-19T12:14:45Z</time></trkpt><trkpt lat="42.21443345135692" lon="12.968559351476879"><ele>546.5714285714286</ele><time>2026-04-19T12:14:46Z</time></trkpt><trkpt lat="42.21449666489381" lon="12.968554457881574"><ele>547.2857142857143</ele><time>2026-04-19T12:14:47Z</time></trkpt><trkpt lat="42.21456050523265" lon="12.968552113382966"><ele>548.0</ele><time>2026-04-19T12:14:48Z</time></trkpt><trkpt lat="42.21463410523752" lon="12.968552323354201"><ele>548.0</ele><time>2026-04-19T12:14:49Z</time></trkpt><trkpt lat="42.21473000705653" lon="12.968551314033814"><ele>548.0</ele><time>2026-04-19T12:14:50Z</time></trkpt><trkpt lat="42.21483310312844" lon="12.968549547519276"><ele>548.0</ele><time>2026-04-19T12:14:51Z</time></trkpt><trkpt lat="42.21494615233672" lon="12.968546340434425"><ele>548.0</ele><time>2026-04-19T12:14:52Z</time></trkpt><trkpt lat="42.215091556927305" lon="12.968563409651473"><ele>548.0</ele><time>2026-04-19T12:14:53Z</time></trkpt><trkpt lat="42.215209572502424" lon="12.96854230724501"><ele>548.0</ele><time>2026-04-19T12:14:54Z</time></trkpt><trkpt lat="42.215313775467" lon="12.96854454130722"><ele>548.0</ele><time>2026-04-19T12:14:55Z</time></trkpt><trkpt lat="42.2154166607574" lon="12.968503481498324"><ele>548.0</ele><time>2026-04-19T12:14:56Z</time></trkpt><trkpt lat="42.215505580486145" lon="12.968418260006775"><ele>548.0</ele><time>2026-04-19T12:14:57Z</time></trkpt><trkpt lat="42.215609491674414" lon="12.968324839951041"><ele>549.75</ele><time>2026-04-19T12:14:58Z</time></trkpt><trkpt lat="42.21568630242056" lon="12.968198082841107"><ele>551.5</ele><time>2026-04-19T12:14:59Z</time></trkpt><trkpt lat="42.21572539332479" lon="12.968045096443555"><ele>553.25</ele><time>2026-04-19T12:15:00Z</time></trkpt><trkpt lat="42.215735577507225" lon="12.967875637341809"><ele>555.0</ele><time>2026-04-19T12:15:01Z</time></trkpt><trkpt lat="42.21571655449332" lon="12.967703573244087"><ele>555.0</ele><time>2026-04-19T12:15:02Z</time></trkpt><trkpt lat="42.21569615854389" lon="12.967534757567007"><ele>555.0</ele><time>2026-04-19T12:15:03Z</time></trkpt><trkpt lat="42.21567213180714" lon="12.96736035551743"><ele>555.0</ele><time>2026-04-19T12:15:04Z</time></trkpt><trkpt lat="42.21566425359135" lon="12.967196956002828"><ele>555.0</ele><time>2026-04-19T12:15:05Z</time></trkpt><trkpt lat="42.21566736866444" lon="12.967065240217057"><ele>555.2</ele><time>2026-04-19T12:15:06Z</time></trkpt><trkpt lat="42.215679915665994" lon="12.966937023214207"><ele>555.4</ele><time>2026-04-19T12:15:07Z</time></trkpt><trkpt lat="42.21568671814864" lon="12.96680844532931"><ele>555.6</ele><time>2026-04-19T12:15:08Z</time></trkpt><trkpt lat="42.215726139426174" lon="12.966685264849167"><ele>555.8</ele><time>2026-04-19T12:15:09Z</time></trkpt><trkpt lat="42.21579745881468" lon="12.966577642574824"><ele>556.0</ele><time>2026-04-19T12:15:10Z</time></trkpt><trkpt lat="42.21587260875104" lon="12.966478527226432"><ele>557.4</ele><time>2026-04-19T12:15:11Z</time></trkpt><trkpt lat="42.21594339096725" lon="12.966388152278338"><ele>558.8</ele><time>2026-04-19T12:15:12Z</time></trkpt><trkpt lat="42.21602694679643" lon="12.966322627354415"><ele>560.1999999999999</ele><time>2026-04-19T12:15:13Z</time></trkpt><trkpt lat="42.216106172727216" lon="12.966251821818082"><ele>561.6</ele><time>2026-04-19T12:15:14Z</time></trkpt><trkpt lat="42.21617608945824" lon="12.966185595883564"><ele>563.0</ele><time>2026-04-19T12:15:15Z</time></trkpt><trkpt lat="42.216267191425786" lon="12.966105734209094"><ele>563.0</ele><time>2026-04-19T12:15:17Z</time></trkpt><trkpt lat="42.21633082464041" lon="12.966066218457184"><ele>563.0</ele><time>2026-04-19T12:15:18.998Z</time></trkpt><trkpt lat="42.21643227446672" lon="12.966152924805309"><ele>563.0</ele><time>2026-04-19T12:15:21.998Z</time></trkpt><trkpt lat="42.21648523686506" lon="12.966322473111795"><ele>563.0</ele><time>2026-04-19T12:15:23.998Z</time></trkpt><trkpt lat="42.21652155771499" lon="12.966419840019556"><ele>563.0</ele><time>2026-04-19T12:15:24.998Z</time></trkpt><trkpt lat="42.21655854676204" lon="12.96651796452658"><ele>562.8333333333333</ele><time>2026-04-19T12:15:25.998Z</time></trkpt><trkpt lat="42.21659174280163" lon="12.966621378103778"><ele>562.6666666666666</ele><time>2026-04-19T12:15:26.998Z</time></trkpt><trkpt lat="42.21662170031854" lon="12.966712189921092"><ele>562.5</ele><time>2026-04-19T12:15:27.998Z</time></trkpt><trkpt lat="42.21664876649558" lon="12.96679233608"><ele>562.3333333333334</ele><time>2026-04-19T12:15:28.998Z</time></trkpt><trkpt lat="42.21668016171694" lon="12.96686734954784"><ele>562.1666666666667</ele><time>2026-04-19T12:15:31.999Z</time></trkpt><trkpt lat="42.2167323792754" lon="12.96696149485769"><ele>562.0</ele><time>2026-04-19T12:15:38.999Z</time></trkpt><trkpt lat="42.21683478797555" lon="12.96694161239491"><ele>562.0</ele><time>2026-04-19T12:15:39.999Z</time></trkpt><trkpt lat="42.21692100052298" lon="12.967019798065259"><ele>562.0</ele><time>2026-04-19T12:15:41.999Z</time></trkpt><trkpt lat="42.21693614835527" lon="12.967182844689738"><ele>562.0</ele><time>2026-04-19T12:15:43.999Z</time></trkpt><trkpt lat="42.21693348094599" lon="12.967346671237008"><ele>562.0</ele><time>2026-04-19T12:15:45.999Z</time></trkpt><trkpt lat="42.21693190139321" lon="12.967434199221037"><ele>562.0</ele><time>2026-04-19T12:15:46.999Z</time></trkpt><trkpt lat="42.21694457732458" lon="12.96752982205125"><ele>561.6</ele><time>2026-04-19T12:15:47.999Z</time></trkpt><trkpt lat="42.21696042755564" lon="12.967626376812241"><ele>561.2</ele><time>2026-04-19T12:15:48.999Z</time></trkpt><trkpt lat="42.216978306284325" lon="12.967715419106073"><ele>560.8</ele><time>2026-04-19T12:15:49.999Z</time></trkpt><trkpt lat="42.217008021689935" lon="12.967883554800023"><ele>560.4</ele><time>2026-04-19T12:15:51.999Z</time></trkpt><trkpt lat="42.21701748750753" lon="12.967968265390295"><ele>560.0</ele><time>2026-04-19T12:15:52.999Z</time></trkpt><trkpt lat="42.21702737204192" lon="12.968133364894245"><ele>560.0</ele><time>2026-04-19T12:15:54.999Z</time></trkpt><trkpt lat="42.21702652078472" lon="12.968222006131137"><ele>560.0</ele><time>2026-04-19T12:15:55.999Z</time></trkpt><trkpt lat="42.217013732145695" lon="12.968312093928335"><ele>560.0</ele><time>2026-04-19T12:15:57Z</time></trkpt><trkpt lat="42.21698449210792" lon="12.968472635652441"><ele>560.0</ele><time>2026-04-19T12:15:59Z</time></trkpt><trkpt lat="42.21699810223348" lon="12.968560447871832"><ele>560.0</ele><time>2026-04-19T12:16:00Z</time></trkpt><trkpt lat="42.21703407762808" lon="12.968648920508011"><ele>560.0</ele><time>2026-04-19T12:16:01Z</time></trkpt><trkpt lat="42.2170844669267" lon="12.968725478820309"><ele>560.0</ele><time>2026-04-19T12:16:02Z</time></trkpt><trkpt lat="42.21714352384016" lon="12.968787605566261"><ele>560.0</ele><time>2026-04-19T12:16:03Z</time></trkpt><trkpt lat="42.217201854996745" lon="12.968850254414916"><ele>560.0</ele><time>2026-04-19T12:16:04Z</time></trkpt><trkpt lat="42.2172628074594" lon="12.968909043307049"><ele>560.0</ele><time>2026-04-19T12:16:05Z</time></trkpt><trkpt lat="42.21731335421296" lon="12.96896131865071"><ele>560.0</ele><time>2026-04-19T12:16:06Z</time></trkpt><trkpt lat="42.21739461397648" lon="12.969047138416522"><ele>560.0</ele><time>2026-04-19T12:16:08Z</time></trkpt><trkpt lat="42.21747020706161" lon="12.969118761446719"><ele>559.0</ele><time>2026-04-19T12:16:10Z</time></trkpt><trkpt lat="42.217534481919884" lon="12.969160574134367"><ele>558.0</ele><time>2026-04-19T12:16:12Z</time></trkpt><trkpt lat="42.217619931274314" lon="12.969018677666808"><ele>557.0</ele><time>2026-04-19T12:16:14Z</time></trkpt><trkpt lat="42.217627483506455" lon="12.968919632722889"><ele>556.0</ele><time>2026-04-19T12:16:15Z</time></trkpt><trkpt lat="42.217633246600805" lon="12.968811341159745"><ele>555.0</ele><time>2026-04-19T12:16:16Z</time></trkpt><trkpt lat="42.21763405362449" lon="12.968717779299814"><ele>554.0</ele><time>2026-04-19T12:16:17Z</time></trkpt><trkpt lat="42.21763119301357" lon="12.968599085637855"><ele>554.0</ele><time>2026-04-19T12:16:19Z</time></trkpt><trkpt lat="42.21762594676089" lon="12.968483397861197"><ele>554.0</ele><time>2026-04-19T12:16:21Z</time></trkpt><trkpt lat="42.217617530343794" lon="12.968342458818276"><ele>554.0</ele><time>2026-04-19T12:16:23Z</time></trkpt><trkpt lat="42.21760489936854" lon="12.968257423933505"><ele>554.0</ele><time>2026-04-19T12:16:24Z</time></trkpt><trkpt lat="42.217582190630814" lon="12.96816345503499"><ele>554.0</ele><time>2026-04-19T12:16:25Z</time></trkpt><trkpt lat="42.21755160640327" lon="12.968071563867433"><ele>554.0</ele><time>2026-04-19T12:16:26Z</time></trkpt><trkpt lat="42.21750209837791" lon="12.967944282572162"><ele>554.3333333333333</ele><time>2026-04-19T12:16:28Z</time></trkpt><trkpt lat="42.21746444376159" lon="12.96781760910962"><ele>554.6666666666666</ele><time>2026-04-19T12:16:30Z</time></trkpt><trkpt lat="42.21746170525375" lon="12.967653356287046"><ele>555.0</ele><time>2026-04-19T12:16:32Z</time></trkpt><trkpt lat="42.217471458274716" lon="12.967552027938607"><ele>555.3333333333334</ele><time>2026-04-19T12:16:33Z</time></trkpt><trkpt lat="42.21748945446187" lon="12.967457938061976"><ele>555.6666666666667</ele><time>2026-04-19T12:16:34Z</time></trkpt><trkpt lat="42.21751254280673" lon="12.967366413846284"><ele>556.0</ele><time>2026-04-19T12:16:35Z</time></trkpt><trkpt lat="42.217530400869215" lon="12.967276105947182"><ele>556.1666666666667</ele><time>2026-04-19T12:16:36Z</time></trkpt><trkpt lat="42.21754715206367" lon="12.967182521728503"><ele>556.3333333333334</ele><time>2026-04-19T12:16:37Z</time></trkpt><trkpt lat="42.21755859573731" lon="12.967090682749964"><ele>556.5</ele><time>2026-04-19T12:16:38Z</time></trkpt><trkpt lat="42.21756286264821" lon="12.966993198186254"><ele>556.6666666666666</ele><time>2026-04-19T12:16:39Z</time></trkpt><trkpt lat="42.21755982400522" lon="12.966889185979506"><ele>556.8333333333333</ele><time>2026-04-19T12:16:40Z</time></trkpt><trkpt lat="42.21756299178598" lon="12.966783679831526"><ele>557.0</ele><time>2026-04-19T12:16:41Z</time></trkpt><trkpt lat="42.21758483343009" lon="12.966674065276074"><ele>556.6</ele><time>2026-04-19T12:16:42Z</time></trkpt><trkpt lat="42.217615462728816" lon="12.96655886062605"><ele>556.2</ele><time>2026-04-19T12:16:43Z</time></trkpt><trkpt lat="42.21764651883455" lon="12.966445691323806"><ele>555.8</ele><time>2026-04-19T12:16:44Z</time></trkpt><trkpt lat="42.21767873151413" lon="12.966330049857827"><ele>555.4</ele><time>2026-04-19T12:16:45Z</time></trkpt><trkpt lat="42.21771079463391" lon="12.966214945377244"><ele>555.0</ele><time>2026-04-19T12:16:46Z</time></trkpt><trkpt lat="42.21774239206293" lon="12.966099503234137"><ele>555.0</ele><time>2026-04-19T12:16:47Z</time></trkpt><trkpt lat="42.21777244437454" lon="12.965985606714565"><ele>555.0</ele><time>2026-04-19T12:16:48Z</time></trkpt><trkpt lat="42.217804053477664" lon="12.96586401356596"><ele>555.0</ele><time>2026-04-19T12:16:49Z</time></trkpt><trkpt lat="42.217830404212584" lon="12.96574874859817"><ele>555.0</ele><time>2026-04-19T12:16:50Z</time></trkpt><trkpt lat="42.217854158890084" lon="12.965635386129096"><ele>555.0</ele><time>2026-04-19T12:16:51Z</time></trkpt><trkpt lat="42.21787460567082" lon="12.965522363415712"><ele>555.0</ele><time>2026-04-19T12:16:52Z</time></trkpt><trkpt lat="42.21788661479266" lon="12.965401561764034"><ele>554.3333333333334</ele><time>2026-04-19T12:16:53Z</time></trkpt><trkpt lat="42.217893231303115" lon="12.965281835033682"><ele>553.6666666666666</ele><time>2026-04-19T12:16:54Z</time></trkpt><trkpt lat="42.21789639752933" lon="12.965162072950989"><ele>553.0</ele><time>2026-04-19T12:16:55Z</time></trkpt><trkpt lat="42.21789468765933" lon="12.965045308344655"><ele>552.3333333333333</ele><time>2026-04-19T12:16:56Z</time></trkpt><trkpt lat="42.21787999262091" lon="12.964933974710316"><ele>551.6666666666666</ele><time>2026-04-19T12:16:57Z</time></trkpt><trkpt lat="42.217865343600124" lon="12.964835373373027"><ele>551.0</ele><time>2026-04-19T12:16:58Z</time></trkpt><trkpt lat="42.21785007693171" lon="12.964746377180678"><ele>551.0</ele><time>2026-04-19T12:16:59Z</time></trkpt><trkpt lat="42.217828569620615" lon="12.964652096667617"><ele>551.0</ele><time>2026-04-19T12:17:00.001Z</time></trkpt><trkpt lat="42.217785214140264" lon="12.964529818870883"><ele>551.0</ele><time>2026-04-19T12:17:01.001Z</time></trkpt><trkpt lat="42.21770636015695" lon="12.964379454712423"><ele>551.0</ele><time>2026-04-19T12:17:02.001Z</time></trkpt><trkpt lat="42.21761960722182" lon="12.964221475044113"><ele>550.75</ele><time>2026-04-19T12:17:03.001Z</time></trkpt><trkpt lat="42.217550096965965" lon="12.964072229538129"><ele>550.5</ele><time>2026-04-19T12:17:04.001Z</time></trkpt><trkpt lat="42.217494766705784" lon="12.96390951653175"><ele>550.25</ele><time>2026-04-19T12:17:05.001Z</time></trkpt><trkpt lat="42.21744280683427" lon="12.963762210833941"><ele>550.0</ele><time>2026-04-19T12:17:06.001Z</time></trkpt><trkpt lat="42.217389339855565" lon="12.963624741019038"><ele>550.0</ele><time>2026-04-19T12:17:07.001Z</time></trkpt><trkpt lat="42.217326707780146" lon="12.96349797541934"><ele>550.0</ele><time>2026-04-19T12:17:08.001Z</time></trkpt><trkpt lat="42.21724847525586" lon="12.963399497365057"><ele>550.0</ele><time>2026-04-19T12:17:09.001Z</time></trkpt><trkpt lat="42.217183715324595" lon="12.963307637773884"><ele>550.0</ele><time>2026-04-19T12:17:10.001Z</time></trkpt><trkpt lat="42.21714187423058" lon="12.96322098899225"><ele>550.0</ele><time>2026-04-19T12:17:11.001Z</time></trkpt><trkpt lat="42.21712083689889" lon="12.963129877750038"><ele>551.0</ele><time>2026-04-19T12:17:12.001Z</time></trkpt><trkpt lat="42.21712017773125" lon="12.963029885969286"><ele>552.0</ele><time>2026-04-19T12:17:13.001Z</time></trkpt><trkpt lat="42.21714240010739" lon="12.962936843362083"><ele>553.0</ele><time>2026-04-19T12:17:14.001Z</time></trkpt><trkpt lat="42.21718344534268" lon="12.962837180935734"><ele>554.0</ele><time>2026-04-19T12:17:16.001Z</time></trkpt><trkpt lat="42.217203333045966" lon="12.962749253689799"><ele>555.0</ele><time>2026-04-19T12:17:18.001Z</time></trkpt><trkpt lat="42.21726063316664" lon="12.962663954781863"><ele>556.0</ele><time>2026-04-19T12:17:20.001Z</time></trkpt><trkpt lat="42.21732623553558" lon="12.962615163307063"><ele>557.6666666666667</ele><time>2026-04-19T12:17:22.001Z</time></trkpt><trkpt lat="42.217341953600865" lon="12.962481473682635"><ele>559.3333333333334</ele><time>2026-04-19T12:17:23.999Z</time></trkpt><trkpt lat="42.21728393348924" lon="12.962354231504982"><ele>561.0</ele><time>2026-04-19T12:17:25.999Z</time></trkpt><trkpt lat="42.21719915887434" lon="12.96231197909258"><ele>562.6666666666666</ele><time>2026-04-19T12:17:27.999Z</time></trkpt><trkpt lat="42.21714427472916" lon="12.962246562556661"><ele>564.3333333333333</ele><time>2026-04-19T12:17:29.999Z</time></trkpt><trkpt lat="42.21708405335681" lon="12.962187754083777"><ele>566.0</ele><time>2026-04-19T12:17:31.999Z</time></trkpt><trkpt lat="42.2170607700382" lon="12.962107226144665"><ele>564.0</ele><time>2026-04-19T12:17:32.999Z</time></trkpt><trkpt lat="42.21699503501984" lon="12.962033665083906"><ele>562.0</ele><time>2026-04-19T12:17:34.999Z</time></trkpt><trkpt lat="42.216949220786056" lon="12.96196073697676"><ele>560.0</ele><time>2026-04-19T12:17:36.999Z</time></trkpt><trkpt lat="42.21689734649277" lon="12.961831764424879"><ele>558.0</ele><time>2026-04-19T12:17:38.999Z</time></trkpt><trkpt lat="42.216868591443976" lon="12.961741868367014"><ele>556.0</ele><time>2026-04-19T12:17:39.999Z</time></trkpt><trkpt lat="42.21683913650687" lon="12.961632514100618"><ele>554.0</ele><time>2026-04-19T12:17:40.999Z</time></trkpt><trkpt lat="42.216817825513374" lon="12.961531465028227"><ele>554.0</ele><time>2026-04-19T12:17:41.999Z</time></trkpt><trkpt lat="42.216801607353204" lon="12.961437917335367"><ele>554.0</ele><time>2026-04-19T12:17:42.999Z</time></trkpt><trkpt lat="42.21678532082942" lon="12.96133443440485"><ele>554.0</ele><time>2026-04-19T12:17:43.999Z</time></trkpt><trkpt lat="42.216763523107645" lon="12.96122499332421"><ele>554.0</ele><time>2026-04-19T12:17:44.999Z</time></trkpt><trkpt lat="42.216734384588705" lon="12.961104557549868"><ele>554.0</ele><time>2026-04-19T12:17:46Z</time></trkpt><trkpt lat="42.216694492965" lon="12.960965232051482"><ele>554.0</ele><time>2026-04-19T12:17:47Z</time></trkpt><trkpt lat="42.21666811434462" lon="12.960871073984757"><ele>556.3333333333333</ele><time>2026-04-19T12:17:48Z</time></trkpt><trkpt lat="42.21664734232212" lon="12.96078201926315"><ele>558.6666666666666</ele><time>2026-04-19T12:17:49Z</time></trkpt><trkpt lat="42.216633762823044" lon="12.960680091549591"><ele>561.0</ele><time>2026-04-19T12:17:50Z</time></trkpt><trkpt lat="42.2166267570566" lon="12.960577382247576"><ele>563.3333333333334</ele><time>2026-04-19T12:17:51Z</time></trkpt><trkpt lat="42.216623027907296" lon="12.960475397611635"><ele>565.6666666666667</ele><time>2026-04-19T12:17:52Z</time></trkpt><trkpt lat="42.21663243618361" lon="12.96032198286001"><ele>568.0</ele><time>2026-04-19T12:17:54Z</time></trkpt><trkpt lat="42.21665499598094" lon="12.960240791944129"><ele>568.0</ele><time>2026-04-19T12:17:55Z</time></trkpt><trkpt lat="42.21668322495109" lon="12.960145023961823"><ele>568.0</ele><time>2026-04-19T12:17:56Z</time></trkpt><trkpt lat="42.21674870557495" lon="12.960056025126814"><ele>568.0</ele><time>2026-04-19T12:17:57Z</time></trkpt><trkpt lat="42.21685324475496" lon="12.959937685343915"><ele>568.0</ele><time>2026-04-19T12:17:58Z</time></trkpt><trkpt lat="42.216949028421844" lon="12.959796365636882"><ele>568.0</ele><time>2026-04-19T12:17:59Z</time></trkpt><trkpt lat="42.21704854149314" lon="12.959634897021166"><ele>568.8</ele><time>2026-04-19T12:18:00Z</time></trkpt><trkpt lat="42.21712083661984" lon="12.95950543633713"><ele>569.5999999999999</ele><time>2026-04-19T12:18:01Z</time></trkpt><trkpt lat="42.2171816160674" lon="12.959390806044917"><ele>570.4000000000001</ele><time>2026-04-19T12:18:02Z</time></trkpt><trkpt lat="42.21723074093241" lon="12.959288917380027"><ele>571.2</ele><time>2026-04-19T12:18:03Z</time></trkpt><trkpt lat="42.217251890596074" lon="12.95919972639567"><ele>572.0</ele><time>2026-04-19T12:18:04Z</time></trkpt><trkpt lat="42.21733062906127" lon="12.959060527455263"><ele>575.8000000000001</ele><time>2026-04-19T12:18:06Z</time></trkpt><trkpt lat="42.217368555352486" lon="12.958987145010642"><ele>579.6</ele><time>2026-04-19T12:18:07Z</time></trkpt><trkpt lat="42.21744364218467" lon="12.958859587813087"><ele>583.4000000000001</ele><time>2026-04-19T12:18:09Z</time></trkpt><trkpt lat="42.21752483427192" lon="12.958832828261006"><ele>587.2</ele><time>2026-04-19T12:18:10Z</time></trkpt><trkpt lat="42.2176391435646" lon="12.958826577697574"><ele>591.0</ele><time>2026-04-19T12:18:11Z</time></trkpt><trkpt lat="42.21775471754322" lon="12.958816718603497"><ele>591.0</ele><time>2026-04-19T12:18:12Z</time></trkpt><trkpt lat="42.2178622554861" lon="12.95881196370628"><ele>591.0</ele><time>2026-04-19T12:18:13Z</time></trkpt><trkpt lat="42.21796735622517" lon="12.958813075308246"><ele>591.0</ele><time>2026-04-19T12:18:14Z</time></trkpt><trkpt lat="42.218065963281525" lon="12.958810289999553"><ele>591.0</ele><time>2026-04-19T12:18:15Z</time></trkpt><trkpt lat="42.21817023465933" lon="12.958807904133607"><ele>591.0</ele><time>2026-04-19T12:18:16Z</time></trkpt><trkpt lat="42.21828294871122" lon="12.95880224174634"><ele>594.8</ele><time>2026-04-19T12:18:17Z</time></trkpt><trkpt lat="42.21839660524174" lon="12.958813498301696"><ele>598.6</ele><time>2026-04-19T12:18:18Z</time></trkpt><trkpt lat="42.21850390536139" lon="12.958794573589085"><ele>602.4</ele><time>2026-04-19T12:18:19Z</time></trkpt><trkpt lat="42.21860927329443" lon="12.958768958307388"><ele>606.2</ele><time>2026-04-19T12:18:20Z</time></trkpt><trkpt lat="42.218715684856086" lon="12.958708431741677"><ele>610.0</ele><time>2026-04-19T12:18:21Z</time></trkpt><trkpt lat="42.21879054974044" lon="12.958602789834305"><ele>610.0</ele><time>2026-04-19T12:18:22Z</time></trkpt><trkpt lat="42.218885186825595" lon="12.95855479928629"><ele>610.0</ele><time>2026-04-19T12:18:23Z</time></trkpt><trkpt lat="42.218995532628384" lon="12.958522029066167"><ele>610.0</ele><time>2026-04-19T12:18:24Z</time></trkpt><trkpt lat="42.219112752065165" lon="12.958488550776572"><ele>610.0</ele><time>2026-04-19T12:18:25Z</time></trkpt><trkpt lat="42.21923432960451" lon="12.958458703023199"><ele>608.25</ele><time>2026-04-19T12:18:26Z</time></trkpt><trkpt lat="42.21937069837628" lon="12.958388247799762"><ele>606.5</ele><time>2026-04-19T12:18:27Z</time></trkpt><trkpt lat="42.219487902091856" lon="12.958263444663332"><ele>604.75</ele><time>2026-04-19T12:18:28Z</time></trkpt><trkpt lat="42.219596384794656" lon="12.958168777129192"><ele>603.0</ele><time>2026-04-19T12:18:29.001Z</time></trkpt><trkpt lat="42.219698247341356" lon="12.958077581276394"><ele>603.0</ele><time>2026-04-19T12:18:30.001Z</time></trkpt><trkpt lat="42.21981212257369" lon="12.95799755406682"><ele>603.0</ele><time>2026-04-19T12:18:31.001Z</time></trkpt><trkpt lat="42.219943828530845" lon="12.957947994480305"><ele>603.0</ele><time>2026-04-19T12:18:32.001Z</time></trkpt><trkpt lat="42.22007684547472" lon="12.95792716420866"><ele>603.0</ele><time>2026-04-19T12:18:33.001Z</time></trkpt><trkpt lat="42.220194249957835" lon="12.957928127475961"><ele>605.4</ele><time>2026-04-19T12:18:34.001Z</time></trkpt><trkpt lat="42.22029429527541" lon="12.95795526060242"><ele>607.8</ele><time>2026-04-19T12:18:35.001Z</time></trkpt><trkpt lat="42.22038161685661" lon="12.95801783683357"><ele>610.2</ele><time>2026-04-19T12:18:36.001Z</time></trkpt><trkpt lat="42.22046257460632" lon="12.958104278094696"><ele>612.6</ele><time>2026-04-19T12:18:37.001Z</time></trkpt><trkpt lat="42.2205231062411" lon="12.958210200358014"><ele>615.0</ele><time>2026-04-19T12:18:38.001Z</time></trkpt><trkpt lat="42.22057314122451" lon="12.95832459954622"><ele>613.8</ele><time>2026-04-19T12:18:39.001Z</time></trkpt><trkpt lat="42.22062961779098" lon="12.958445177991255"><ele>612.6</ele><time>2026-04-19T12:18:40.001Z</time></trkpt><trkpt lat="42.22069120147757" lon="12.958540370660607"><ele>611.4</ele><time>2026-04-19T12:18:41.001Z</time></trkpt><trkpt lat="42.22076382525794" lon="12.958599366142419"><ele>610.2</ele><time>2026-04-19T12:18:42.001Z</time></trkpt><trkpt lat="42.220851262283425" lon="12.958629421440264"><ele>609.0</ele><time>2026-04-19T12:18:43.001Z</time></trkpt><trkpt lat="42.2209479648407" lon="12.958623087361321"><ele>609.0</ele><time>2026-04-19T12:18:44.001Z</time></trkpt><trkpt lat="42.22104986647566" lon="12.958599242050555"><ele>609.0</ele><time>2026-04-19T12:18:45.001Z</time></trkpt><trkpt lat="42.22115841242406" lon="12.958576039058787"><ele>609.0</ele><time>2026-04-19T12:18:46.001Z</time></trkpt><trkpt lat="42.22126952647598" lon="12.958551432320403"><ele>609.0</ele><time>2026-04-19T12:18:47.001Z</time></trkpt><trkpt lat="42.22140023888144" lon="12.958521597647973"><ele>607.0</ele><time>2026-04-19T12:18:48.001Z</time></trkpt><trkpt lat="42.22153003119098" lon="12.958494597656898"><ele>605.0</ele><time>2026-04-19T12:18:49.001Z</time></trkpt><trkpt lat="42.22164121818573" lon="12.958474863116715"><ele>603.0</ele><time>2026-04-19T12:18:50.001Z</time></trkpt><trkpt lat="42.22173771956749" lon="12.958463406444071"><ele>601.0</ele><time>2026-04-19T12:18:51.001Z</time></trkpt><trkpt lat="42.221824186113906" lon="12.958460442364801"><ele>599.0</ele><time>2026-04-19T12:18:52.001Z</time></trkpt><trkpt lat="42.221911418692876" lon="12.958475589195846"><ele>599.0</ele><time>2026-04-19T12:18:53.001Z</time></trkpt><trkpt lat="42.221985809383455" lon="12.958528382854915"><ele>599.0</ele><time>2026-04-19T12:18:54.001Z</time></trkpt><trkpt lat="42.22205308543636" lon="12.958621709959667"><ele>599.0</ele><time>2026-04-19T12:18:55.001Z</time></trkpt><trkpt lat="42.22211699408357" lon="12.958752114348723"><ele>599.0</ele><time>2026-04-19T12:18:56.001Z</time></trkpt><trkpt lat="42.222189355074114" lon="12.958868983513685"><ele>599.0</ele><time>2026-04-19T12:18:57.001Z</time></trkpt><trkpt lat="42.22226819976072" lon="12.958969438335949"><ele>598.8</ele><time>2026-04-19T12:18:58.001Z</time></trkpt><trkpt lat="42.22234657863154" lon="12.959058589975779"><ele>598.5999999999999</ele><time>2026-04-19T12:18:59.001Z</time></trkpt><trkpt lat="42.22242047502728" lon="12.959126689141192"><ele>598.4</ele><time>2026-04-19T12:19:00.001Z</time></trkpt><trkpt lat="42.22250369329353" lon="12.959189124036135"><ele>598.1999999999999</ele><time>2026-04-19T12:19:01.001Z</time></trkpt><trkpt lat="42.22259686716086" lon="12.959241765838286"><ele>598.0</ele><time>2026-04-19T12:19:02.001Z</time></trkpt><trkpt lat="42.222701662309056" lon="12.959282615220848"><ele>600.4</ele><time>2026-04-19T12:19:03.001Z</time></trkpt><trkpt lat="42.22281268802819" lon="12.959311320856415"><ele>602.8</ele><time>2026-04-19T12:19:04.001Z</time></trkpt><trkpt lat="42.22292177669181" lon="12.959328390752773"><ele>605.2</ele><time>2026-04-19T12:19:05.001Z</time></trkpt><trkpt lat="42.22302483911239" lon="12.959350192608536"><ele>607.6</ele><time>2026-04-19T12:19:06.001Z</time></trkpt><trkpt lat="42.22311744034215" lon="12.959387646697262"><ele>610.0</ele><time>2026-04-19T12:19:07.001Z</time></trkpt><trkpt lat="42.22321096413252" lon="12.959448053435606"><ele>610.0</ele><time>2026-04-19T12:19:08.001Z</time></trkpt><trkpt lat="42.22330233118159" lon="12.959523880534636"><ele>610.0</ele><time>2026-04-19T12:19:09.001Z</time></trkpt><trkpt lat="42.22339210381626" lon="12.959615223837886"><ele>610.0</ele><time>2026-04-19T12:19:10.001Z</time></trkpt><trkpt lat="42.22347864118458" lon="12.959719064228876"><ele>610.0</ele><time>2026-04-19T12:19:11.001Z</time></trkpt><trkpt lat="42.22356602865935" lon="12.95983074802399"><ele>610.0</ele><time>2026-04-19T12:19:12.001Z</time></trkpt><trkpt lat="42.22366031599764" lon="12.959944466764673"><ele>610.0</ele><time>2026-04-19T12:19:13.001Z</time></trkpt><trkpt lat="42.22376633292477" lon="12.960056559557273"><ele>610.0</ele><time>2026-04-19T12:19:14.001Z</time></trkpt><trkpt lat="42.223878495522904" lon="12.960164316010228"><ele>610.0</ele><time>2026-04-19T12:19:15.001Z</time></trkpt><trkpt lat="42.223987241303846" lon="12.960259386960976"><ele>609.75</ele><time>2026-04-19T12:19:16.001Z</time></trkpt><trkpt lat="42.224092865155995" lon="12.960350193664574"><ele>609.5</ele><time>2026-04-19T12:19:17.001Z</time></trkpt><trkpt lat="42.22420196367982" lon="12.960451220733928"><ele>609.25</ele><time>2026-04-19T12:19:18.001Z</time></trkpt><trkpt lat="42.224313074786025" lon="12.960559513373392"><ele>609.0</ele><time>2026-04-19T12:19:19.001Z</time></trkpt><trkpt lat="42.22441188548582" lon="12.960672130079228"><ele>609.0</ele><time>2026-04-19T12:19:20.001Z</time></trkpt><trkpt lat="42.224491979514" lon="12.960786665888508"><ele>609.0</ele><time>2026-04-19T12:19:21.001Z</time></trkpt><trkpt lat="42.22458254699823" lon="12.960891514047567"><ele>609.0</ele><time>2026-04-19T12:19:22.001Z</time></trkpt><trkpt lat="42.22467951902256" lon="12.961007995538209"><ele>609.0</ele><time>2026-04-19T12:19:23.001Z</time></trkpt><trkpt lat="42.2247791392163" lon="12.961110141911659"><ele>608.6</ele><time>2026-04-19T12:19:24.001Z</time></trkpt><trkpt lat="42.22485921687399" lon="12.961214089163489"><ele>608.2</ele><time>2026-04-19T12:19:25.001Z</time></trkpt><trkpt lat="42.2249435677951" lon="12.961322915665107"><ele>607.8000000000001</ele><time>2026-04-19T12:19:26.001Z</time></trkpt><trkpt lat="42.22502830470556" lon="12.96142902770524"><ele>607.4</ele><time>2026-04-19T12:19:27.001Z</time></trkpt><trkpt lat="42.225091223497" lon="12.961530378073231"><ele>607.0</ele><time>2026-04-19T12:19:28.001Z</time></trkpt><trkpt lat="42.225142223931165" lon="12.961645534402878"><ele>614.4000000000001</ele><time>2026-04-19T12:19:29.001Z</time></trkpt><trkpt lat="42.22518889708948" lon="12.961766193966895"><ele>621.8000000000001</ele><time>2026-04-19T12:19:30Z</time></trkpt><trkpt lat="42.22526393108135" lon="12.96186511462759"><ele>629.2</ele><time>2026-04-19T12:19:31Z</time></trkpt><trkpt lat="42.22535704514195" lon="12.961944758521506"><ele>636.6</ele><time>2026-04-19T12:19:32Z</time></trkpt><trkpt lat="42.22546293529894" lon="12.96199639385792"><ele>644.0</ele><time>2026-04-19T12:19:33Z</time></trkpt><trkpt lat="42.22558123389014" lon="12.96202289649646"><ele>637.2</ele><time>2026-04-19T12:19:34Z</time></trkpt><trkpt lat="42.22568193841126" lon="12.96204148260133"><ele>630.4000000000001</ele><time>2026-04-19T12:19:35Z</time></trkpt><trkpt lat="42.22579725982094" lon="12.962070796624838"><ele>623.6</ele><time>2026-04-19T12:19:36Z</time></trkpt><trkpt lat="42.225891531823294" lon="12.962139936898533"><ele>616.8</ele><time>2026-04-19T12:19:37Z</time></trkpt><trkpt lat="42.22599025200415" lon="12.962209368608708"><ele>610.0</ele><time>2026-04-19T12:19:38Z</time></trkpt><trkpt lat="42.22608442721493" lon="12.962300053883393"><ele>610.0</ele><time>2026-04-19T12:19:39Z</time></trkpt><trkpt lat="42.226190743372214" lon="12.962403676709878"><ele>610.0</ele><time>2026-04-19T12:19:40Z</time></trkpt><trkpt lat="42.22631471662956" lon="12.962527733446134"><ele>610.0</ele><time>2026-04-19T12:19:41Z</time></trkpt><trkpt lat="42.226459798773014" lon="12.962661812973861"><ele>611.25</ele><time>2026-04-19T12:19:42Z</time></trkpt><trkpt lat="42.22658433657553" lon="12.962753375666619"><ele>612.5</ele><time>2026-04-19T12:19:43Z</time></trkpt><trkpt lat="42.22669462458791" lon="12.962837346760589"><ele>613.75</ele><time>2026-04-19T12:19:44Z</time></trkpt><trkpt lat="42.226798270075996" lon="12.962926113357822"><ele>615.0</ele><time>2026-04-19T12:19:45Z</time></trkpt><trkpt lat="42.22688968594813" lon="12.96302749888806"><ele>615.0</ele><time>2026-04-19T12:19:46Z</time></trkpt><trkpt lat="42.22697318629918" lon="12.963141854855198"><ele>615.0</ele><time>2026-04-19T12:19:47Z</time></trkpt><trkpt lat="42.22705559187477" lon="12.96325643581935"><ele>615.0</ele><time>2026-04-19T12:19:48Z</time></trkpt><trkpt lat="42.22714528370181" lon="12.963364925678853"><ele>615.0</ele><time>2026-04-19T12:19:49Z</time></trkpt><trkpt lat="42.22723214648594" lon="12.96348611031275"><ele>617.75</ele><time>2026-04-19T12:19:50Z</time></trkpt><trkpt lat="42.227332504977625" lon="12.9635793174693"><ele>620.5</ele><time>2026-04-19T12:19:51Z</time></trkpt><trkpt lat="42.22744734756553" lon="12.963635887406745"><ele>623.25</ele><time>2026-04-19T12:19:52Z</time></trkpt><trkpt lat="42.22753319716672" lon="12.963732692321642"><ele>626.0</ele><time>2026-04-19T12:19:53Z</time></trkpt><trkpt lat="42.22761663109008" lon="12.963847280409325"><ele>626.0</ele><time>2026-04-19T12:19:54Z</time></trkpt><trkpt lat="42.227694356276935" lon="12.963988729552675"><ele>626.0</ele><time>2026-04-19T12:19:55Z</time></trkpt><trkpt lat="42.227796178403096" lon="12.964108668922814"><ele>626.0</ele><time>2026-04-19T12:19:56Z</time></trkpt><trkpt lat="42.22785274138331" lon="12.964244339937556"><ele>626.0</ele><time>2026-04-19T12:19:57Z</time></trkpt><trkpt lat="42.22792706579589" lon="12.964337310114683"><ele>626.8333333333333</ele><time>2026-04-19T12:19:58Z</time></trkpt><trkpt lat="42.22801383380054" lon="12.964393578076168"><ele>627.6666666666666</ele><time>2026-04-19T12:19:59Z</time></trkpt><trkpt lat="42.228082435561106" lon="12.964456931778837"><ele>628.5</ele><time>2026-04-19T12:20:00.001Z</time></trkpt><trkpt lat="42.22812622622675" lon="12.964535192382717"><ele>629.3333333333334</ele><time>2026-04-19T12:20:01.001Z</time></trkpt><trkpt lat="42.22818628478478" lon="12.96458272612727"><ele>630.1666666666667</ele><time>2026-04-19T12:20:02.001Z</time></trkpt><trkpt lat="42.228248555277744" lon="12.964618407105128"><ele>631.0</ele><time>2026-04-19T12:20:03.001Z</time></trkpt><trkpt lat="42.22832139333635" lon="12.9646379324766"><ele>631.0</ele><time>2026-04-19T12:20:04.001Z</time></trkpt><trkpt lat="42.22842865175102" lon="12.964643407219551"><ele>631.0</ele><time>2026-04-19T12:20:05.001Z</time></trkpt><trkpt lat="42.22856983695873" lon="12.964647510152522"><ele>631.0</ele><time>2026-04-19T12:20:06.001Z</time></trkpt><trkpt lat="42.2287214964779" lon="12.964662491931538"><ele>631.0</ele><time>2026-04-19T12:20:07.001Z</time></trkpt><trkpt lat="42.22887377802229" lon="12.964695049414356"><ele>632.75</ele><time>2026-04-19T12:20:08.001Z</time></trkpt><trkpt lat="42.229053373508975" lon="12.964739312928193"><ele>634.5</ele><time>2026-04-19T12:20:09.001Z</time></trkpt><trkpt lat="42.22917422556203" lon="12.964824448135102"><ele>636.25</ele><time>2026-04-19T12:20:10.001Z</time></trkpt><trkpt lat="42.229276970573885" lon="12.964858008492026"><ele>638.0</ele><time>2026-04-19T12:20:11.001Z</time></trkpt><trkpt lat="42.22937047852505" lon="12.96485080857629"><ele>638.0</ele><time>2026-04-19T12:20:12.001Z</time></trkpt><trkpt lat="42.22946472037708" lon="12.964789995529271"><ele>638.0</ele><time>2026-04-19T12:20:13.001Z</time></trkpt><trkpt lat="42.22955929666599" lon="12.964749256666606"><ele>638.0</ele><time>2026-04-19T12:20:14.001Z</time></trkpt><trkpt lat="42.22964148214945" lon="12.964691317849445"><ele>638.0</ele><time>2026-04-19T12:20:15.001Z</time></trkpt><trkpt lat="42.22972376791271" lon="12.96466177019951"><ele>638.0</ele><time>2026-04-19T12:20:16.001Z</time></trkpt><trkpt lat="42.22980024705464" lon="12.964670647000643"><ele>640.4</ele><time>2026-04-19T12:20:17.001Z</time></trkpt><trkpt lat="42.22987060833204" lon="12.964686342253163"><ele>642.8</ele><time>2026-04-19T12:20:18.001Z</time></trkpt><trkpt lat="42.22997041737038" lon="12.964675440455148"><ele>645.2</ele><time>2026-04-19T12:20:20.001Z</time></trkpt><trkpt lat="42.23007780055136" lon="12.964602885510688"><ele>647.6</ele><time>2026-04-19T12:20:22.001Z</time></trkpt><trkpt lat="42.230166364015304" lon="12.964573380278427"><ele>650.0</ele><time>2026-04-19T12:20:23.001Z</time></trkpt><trkpt lat="42.23027503576751" lon="12.964542598569073"><ele>650.0</ele><time>2026-04-19T12:20:24.001Z</time></trkpt><trkpt lat="42.230406874755964" lon="12.96452175454703"><ele>650.0</ele><time>2026-04-19T12:20:25.001Z</time></trkpt><trkpt lat="42.2305872349462" lon="12.964505623735631"><ele>650.0</ele><time>2026-04-19T12:20:26.001Z</time></trkpt><trkpt lat="42.2308002277886" lon="12.96445057797254"><ele>653.0</ele><time>2026-04-19T12:20:27.001Z</time></trkpt><trkpt lat="42.23097575387085" lon="12.96443232063143"><ele>656.0</ele><time>2026-04-19T12:20:28.001Z</time></trkpt><trkpt lat="42.23112586554891" lon="12.96441679864786"><ele>659.0</ele><time>2026-04-19T12:20:29.001Z</time></trkpt><trkpt lat="42.23122275537203" lon="12.964397060773264"><ele>662.0</ele><time>2026-04-19T12:20:30.001Z</time></trkpt><trkpt lat="42.23131429113058" lon="12.964385259413042"><ele>662.0</ele><time>2026-04-19T12:20:31.001Z</time></trkpt><trkpt lat="42.231409341844916" lon="12.964376176851736"><ele>662.0</ele><time>2026-04-19T12:20:32.001Z</time></trkpt><trkpt lat="42.23151950698727" lon="12.96437573206522"><ele>662.0</ele><time>2026-04-19T12:20:33.001Z</time></trkpt><trkpt lat="42.23165356399842" lon="12.964376081611798"><ele>662.0</ele><time>2026-04-19T12:20:34.001Z</time></trkpt><trkpt lat="42.231795748323314" lon="12.96438469200981"><ele>664.0</ele><time>2026-04-19T12:20:35.001Z</time></trkpt><trkpt lat="42.231932900570186" lon="12.96438963938008"><ele>666.0</ele><time>2026-04-19T12:20:36.001Z</time></trkpt><trkpt lat="42.2320364618063" lon="12.964395065390496"><ele>668.0</ele><time>2026-04-19T12:20:37.001Z</time></trkpt><trkpt lat="42.23212851933204" lon="12.964398134910413"><ele>670.0</ele><time>2026-04-19T12:20:38.001Z</time></trkpt><trkpt lat="42.23221723002571" lon="12.964401579944965"><ele>672.0</ele><time>2026-04-19T12:20:39.001Z</time></trkpt><trkpt lat="42.23230074589466" lon="12.964413282791245"><ele>673.75</ele><time>2026-04-19T12:20:40.001Z</time></trkpt><trkpt lat="42.232381140856866" lon="12.964453274374375"><ele>675.5</ele><time>2026-04-19T12:20:41.001Z</time></trkpt><trkpt lat="42.23247603464899" lon="12.96452923960937"><ele>677.25</ele><time>2026-04-19T12:20:42.001Z</time></trkpt><trkpt lat="42.23259194584976" lon="12.964636161964373"><ele>679.0</ele><time>2026-04-19T12:20:43.001Z</time></trkpt><trkpt lat="42.23271231005414" lon="12.964758289485491"><ele>679.0</ele><time>2026-04-19T12:20:44.001Z</time></trkpt><trkpt lat="42.23281261914272" lon="12.964869600049685"><ele>679.0</ele><time>2026-04-19T12:20:45.001Z</time></trkpt><trkpt lat="42.23289145948714" lon="12.964970120907909"><ele>679.0</ele><time>2026-04-19T12:20:46.001Z</time></trkpt><trkpt lat="42.23294728114079" lon="12.965049704806288"><ele>679.0</ele><time>2026-04-19T12:20:47.001Z</time></trkpt><trkpt lat="42.23300804230972" lon="12.96511594479491"><ele>679.0</ele><time>2026-04-19T12:20:48.001Z</time></trkpt><trkpt lat="42.233080927693564" lon="12.965176003994845"><ele>682.8000000000001</ele><time>2026-04-19T12:20:49.001Z</time></trkpt><trkpt lat="42.2331431377457" lon="12.965226638272723"><ele>686.6</ele><time>2026-04-19T12:20:50.001Z</time></trkpt><trkpt lat="42.233200750236065" lon="12.965386904494206"><ele>690.4</ele><time>2026-04-19T12:20:52.001Z</time></trkpt><trkpt lat="42.23326233179705" lon="12.965480152480584"><ele>694.2</ele><time>2026-04-19T12:20:54.001Z</time></trkpt><trkpt lat="42.23336715781361" lon="12.965476750102573"><ele>698.0</ele><time>2026-04-19T12:20:56.001Z</time></trkpt><trkpt lat="42.23345445375188" lon="12.965496931961798"><ele>698.0</ele><time>2026-04-19T12:20:58.001Z</time></trkpt><trkpt lat="42.233492138073196" lon="12.965575364165426"><ele>698.0</ele><time>2026-04-19T12:21:00.001Z</time></trkpt><trkpt lat="42.233470899290175" lon="12.965692803065245"><ele>698.0</ele><time>2026-04-19T12:21:02.002Z</time></trkpt><trkpt lat="42.23335018719964" lon="12.965817591113591"><ele>698.0</ele><time>2026-04-19T12:21:04.002Z</time></trkpt><trkpt lat="42.23326446357571" lon="12.965882061804592"><ele>698.0</ele><time>2026-04-19T12:21:05.002Z</time></trkpt><trkpt lat="42.23316865817767" lon="12.96592394437467"><ele>699.1666666666666</ele><time>2026-04-19T12:21:06.002Z</time></trkpt><trkpt lat="42.23307796819938" lon="12.965936322689615"><ele>700.3333333333333</ele><time>2026-04-19T12:21:07.002Z</time></trkpt><trkpt lat="42.23300775104369" lon="12.96592332019184"><ele>701.5</ele><time>2026-04-19T12:21:08.002Z</time></trkpt><trkpt lat="42.232948071682316" lon="12.965881853535553"><ele>702.6666666666666</ele><time>2026-04-19T12:21:09.002Z</time></trkpt><trkpt lat="42.23290217363089" lon="12.965785809560424"><ele>703.8333333333334</ele><time>2026-04-19T12:21:10.002Z</time></trkpt><trkpt lat="42.23282337597392" lon="12.965684565747623"><ele>705.0</ele><time>2026-04-19T12:21:11.002Z</time></trkpt><trkpt lat="42.23272843265042" lon="12.965579517573994"><ele>705.0</ele><time>2026-04-19T12:21:12.002Z</time></trkpt><trkpt lat="42.23261682031571" lon="12.965523371290473"><ele>705.0</ele><time>2026-04-19T12:21:13.002Z</time></trkpt><trkpt lat="42.23251038590993" lon="12.965483620056578"><ele>705.0</ele><time>2026-04-19T12:21:14.002Z</time></trkpt><trkpt lat="42.23240619011824" lon="12.965480980860056"><ele>705.0</ele><time>2026-04-19T12:21:15.002Z</time></trkpt><trkpt lat="42.23229472854403" lon="12.96549180709302"><ele>705.0</ele><time>2026-04-19T12:21:16.002Z</time></trkpt><trkpt lat="42.23218838958344" lon="12.965520048328662"><ele>703.8</ele><time>2026-04-19T12:21:17.002Z</time></trkpt><trkpt lat="42.23210487601835" lon="12.965565120191242"><ele>702.6</ele><time>2026-04-19T12:21:18.002Z</time></trkpt><trkpt lat="42.23202389867522" lon="12.965638670832249"><ele>701.4000000000001</ele><time>2026-04-19T12:21:19.002Z</time></trkpt><trkpt lat="42.23193528219418" lon="12.965743740568554"><ele>700.2</ele><time>2026-04-19T12:21:20.002Z</time></trkpt><trkpt lat="42.23184477771168" lon="12.965845760649488"><ele>699.0</ele><time>2026-04-19T12:21:21.002Z</time></trkpt><trkpt lat="42.23176807751102" lon="12.965926395472893"><ele>705.75</ele><time>2026-04-19T12:21:22.002Z</time></trkpt><trkpt lat="42.23170073328078" lon="12.966005916803079"><ele>712.5</ele><time>2026-04-19T12:21:23.002Z</time></trkpt><trkpt lat="42.23163444940865" lon="12.966126116539622"><ele>719.25</ele><time>2026-04-19T12:21:24.002Z</time></trkpt><trkpt lat="42.23156230835149" lon="12.966300883458612"><ele>726.0</ele><time>2026-04-19T12:21:25.002Z</time></trkpt><trkpt lat="42.23148386851371" lon="12.966485306968464"><ele>723.75</ele><time>2026-04-19T12:21:26.002Z</time></trkpt><trkpt lat="42.23140415377319" lon="12.966645112331609"><ele>721.5</ele><time>2026-04-19T12:21:27.002Z</time></trkpt><trkpt lat="42.23132985911462" lon="12.966810491421413"><ele>719.25</ele><time>2026-04-19T12:21:28.002Z</time></trkpt><trkpt lat="42.23126453512163" lon="12.96696016474576"><ele>717.0</ele><time>2026-04-19T12:21:29.002Z</time></trkpt><trkpt lat="42.23119343117898" lon="12.967092374001334"><ele>717.0</ele><time>2026-04-19T12:21:30.002Z</time></trkpt><trkpt lat="42.23112688130108" lon="12.967193433376615"><ele>717.0</ele><time>2026-04-19T12:21:31.002Z</time></trkpt><trkpt lat="42.231068722517094" lon="12.967280944359143"><ele>717.0</ele><time>2026-04-19T12:21:32.002Z</time></trkpt><trkpt lat="42.23101234113103" lon="12.967375883253325"><ele>717.0</ele><time>2026-04-19T12:21:33.002Z</time></trkpt><trkpt lat="42.23096323112057" lon="12.967482355937847"><ele>717.0</ele><time>2026-04-19T12:21:34.002Z</time></trkpt><trkpt lat="42.23092120954501" lon="12.96759736040497"><ele>718.2</ele><time>2026-04-19T12:21:35.002Z</time></trkpt><trkpt lat="42.23088884490787" lon="12.967718223124104"><ele>719.4000000000001</ele><time>2026-04-19T12:21:36.001Z</time></trkpt><trkpt lat="42.23087163147634" lon="12.967844384140017"><ele>720.5999999999999</ele><time>2026-04-19T12:21:37.001Z</time></trkpt><trkpt lat="42.230870380145596" lon="12.96797518000293"><ele>721.8</ele><time>2026-04-19T12:21:38.001Z</time></trkpt><trkpt lat="42.23087372681648" lon="12.968118761047991"><ele>723.0</ele><time>2026-04-19T12:21:39.001Z</time></trkpt><trkpt lat="42.23088200852673" lon="12.968282736858797"><ele>720.8</ele><time>2026-04-19T12:21:40.001Z</time></trkpt><trkpt lat="42.230899608514086" lon="12.968443222539667"><ele>718.5999999999999</ele><time>2026-04-19T12:21:41.001Z</time></trkpt><trkpt lat="42.23093123175162" lon="12.968583051630482"><ele>716.4000000000001</ele><time>2026-04-19T12:21:42.001Z</time></trkpt><trkpt lat="42.2309858004141" lon="12.968701679925847"><ele>714.2</ele><time>2026-04-19T12:21:43.001Z</time></trkpt><trkpt lat="42.23106598501016" lon="12.968799881583978"><ele>712.0</ele><time>2026-04-19T12:21:44.001Z</time></trkpt><trkpt lat="42.23116569981061" lon="12.968884869109857"><ele>712.0</ele><time>2026-04-19T12:21:45.001Z</time></trkpt><trkpt lat="42.23127513645524" lon="12.968955080937722"><ele>712.0</ele><time>2026-04-19T12:21:46.001Z</time></trkpt><trkpt lat="42.231376788148594" lon="12.968996183945691"><ele>712.0</ele><time>2026-04-19T12:21:47.001Z</time></trkpt><trkpt lat="42.231446137008795" lon="12.969024790662726"><ele>712.0</ele><time>2026-04-19T12:21:48.001Z</time></trkpt><trkpt lat="42.23153511839317" lon="12.96912958643909"><ele>712.0</ele><time>2026-04-19T12:21:50.001Z</time></trkpt><trkpt lat="42.2315586634886" lon="12.96928830042641"><ele>716.6666666666667</ele><time>2026-04-19T12:21:52.001Z</time></trkpt><trkpt lat="42.23154868632265" lon="12.969377746033425"><ele>721.3333333333334</ele><time>2026-04-19T12:21:53.001Z</time></trkpt><trkpt lat="42.23153346718209" lon="12.969468060098055"><ele>726.0</ele><time>2026-04-19T12:21:54.001Z</time></trkpt><trkpt lat="42.23152938541927" lon="12.969565640386547"><ele>730.6666666666666</ele><time>2026-04-19T12:21:55.001Z</time></trkpt><trkpt lat="42.23153520221296" lon="12.969656174353382"><ele>735.3333333333333</ele><time>2026-04-19T12:21:56.001Z</time></trkpt><trkpt lat="42.23158679268093" lon="12.969809243576734"><ele>740.0</ele><time>2026-04-19T12:21:58.001Z</time></trkpt><trkpt lat="42.2316427102846" lon="12.969865168573907"><ele>740.0</ele><time>2026-04-19T12:21:59.001Z</time></trkpt><trkpt lat="42.23172638654746" lon="12.969928917221978"><ele>740.0</ele><time>2026-04-19T12:22:00.001Z</time></trkpt><trkpt lat="42.23184565363898" lon="12.970024249528421"><ele>740.0</ele><time>2026-04-19T12:22:01.001Z</time></trkpt><trkpt lat="42.23198495078312" lon="12.970125505258379"><ele>740.0</ele><time>2026-04-19T12:22:02.001Z</time></trkpt><trkpt lat="42.23209879504657" lon="12.970270822102488"><ele>741.6666666666666</ele><time>2026-04-19T12:22:03.001Z</time></trkpt><trkpt lat="42.23223878466434" lon="12.970427090281413"><ele>743.3333333333334</ele><time>2026-04-19T12:22:04.001Z</time></trkpt><trkpt lat="42.232407384566535" lon="12.970570551280717"><ele>745.0</ele><time>2026-04-19T12:22:05.001Z</time></trkpt><trkpt lat="42.23255816471466" lon="12.970716382782532"><ele>748.1666666666667</ele><time>2026-04-19T12:22:06.001Z</time></trkpt><trkpt lat="42.232643274785005" lon="12.970798129512419"><ele>751.3333333333334</ele><time>2026-04-19T12:22:07.001Z</time></trkpt><trkpt lat="42.23270742001885" lon="12.970906977063501"><ele>754.5</ele><time>2026-04-19T12:22:09.001Z</time></trkpt><trkpt lat="42.23277218041704" lon="12.970975719702093"><ele>757.6666666666666</ele><time>2026-04-19T12:22:10.001Z</time></trkpt><trkpt lat="42.23280697532991" lon="12.971053497886388"><ele>760.8333333333333</ele><time>2026-04-19T12:22:11.001Z</time></trkpt><trkpt lat="42.23283255483185" lon="12.971133338554125"><ele>764.0</ele><time>2026-04-19T12:22:12.001Z</time></trkpt><trkpt lat="42.23282071424079" lon="12.971278246538512"><ele>766.4000000000001</ele><time>2026-04-19T12:22:15.001Z</time></trkpt><trkpt lat="42.23280209700139" lon="12.971371654230973"><ele>768.8</ele><time>2026-04-19T12:22:16.001Z</time></trkpt><trkpt lat="42.23276790467" lon="12.971468617338697"><ele>771.2</ele><time>2026-04-19T12:22:17.001Z</time></trkpt><trkpt lat="42.232692173893454" lon="12.971529349731323"><ele>773.5999999999999</ele><time>2026-04-19T12:22:18.001Z</time></trkpt><trkpt lat="42.23260731989699" lon="12.971602003341353"><ele>776.0</ele><time>2026-04-19T12:22:19.001Z</time></trkpt><trkpt lat="42.23249366284152" lon="12.971681924341317"><ele>786.0</ele><time>2026-04-19T12:22:20.001Z</time></trkpt><trkpt lat="42.232353670459425" lon="12.971760159162294"><ele>796.0</ele><time>2026-04-19T12:22:21.001Z</time></trkpt><trkpt lat="42.23218035755245" lon="12.971857404945004"><ele>806.0</ele><time>2026-04-19T12:22:22.001Z</time></trkpt><trkpt lat="42.23199338765317" lon="12.971988393902791"><ele>806.0</ele><time>2026-04-19T12:22:23.001Z</time></trkpt><trkpt lat="42.23181420673689" lon="12.972115959177618"><ele>806.0</ele><time>2026-04-19T12:22:24.001Z</time></trkpt><trkpt lat="42.23164720478994" lon="12.97225921961948"><ele>806.0</ele><time>2026-04-19T12:22:25.001Z</time></trkpt><trkpt lat="42.23149592311687" lon="12.97235883886452"><ele>805.3333333333334</ele><time>2026-04-19T12:22:26.001Z</time></trkpt><trkpt lat="42.23133218716572" lon="12.97241341714564"><ele>804.6666666666667</ele><time>2026-04-19T12:22:27.001Z</time></trkpt><trkpt lat="42.23119186965217" lon="12.972503511931652"><ele>804.0</ele><time>2026-04-19T12:22:28.001Z</time></trkpt><trkpt lat="42.231062410753786" lon="12.972567139982807"><ele>809.0</ele><time>2026-04-19T12:22:29.001Z</time></trkpt><trkpt lat="42.2309418840014" lon="12.972627883603053"><ele>814.0</ele><time>2026-04-19T12:22:30.001Z</time></trkpt><trkpt lat="42.23083725343789" lon="12.972671072308945"><ele>819.0</ele><time>2026-04-19T12:22:31.001Z</time></trkpt><trkpt lat="42.23073988128671" lon="12.972702554836868"><ele>824.0</ele><time>2026-04-19T12:22:32.001Z</time></trkpt><trkpt lat="42.230640194833846" lon="12.972730514044299"><ele>829.0</ele><time>2026-04-19T12:22:33.001Z</time></trkpt><trkpt lat="42.23053616746165" lon="12.97275874758025"><ele>829.0</ele><time>2026-04-19T12:22:34.001Z</time></trkpt><trkpt lat="42.23043030168849" lon="12.972786697288493"><ele>829.0</ele><time>2026-04-19T12:22:35.001Z</time></trkpt><trkpt lat="42.23031817295609" lon="12.972808039395595"><ele>829.0</ele><time>2026-04-19T12:22:36.001Z</time></trkpt><trkpt lat="42.23019209164076" lon="12.972896353554853"><ele>829.0</ele><time>2026-04-19T12:22:37.001Z</time></trkpt><trkpt lat="42.23002209726068" lon="12.972976415785475"><ele>829.0</ele><time>2026-04-19T12:22:38.001Z</time></trkpt><trkpt lat="42.229862221382845" lon="12.973018094834405"><ele>829.0</ele><time>2026-04-19T12:22:39.001Z</time></trkpt><trkpt lat="42.22972269779521" lon="12.973081950453945"><ele>829.0</ele><time>2026-04-19T12:22:40.001Z</time></trkpt><trkpt lat="42.22960959906047" lon="12.973159167520725"><ele>829.0</ele><time>2026-04-19T12:22:41.001Z</time></trkpt><trkpt lat="42.22949853189041" lon="12.97319592119757"><ele>828.8000000000001</ele><time>2026-04-19T12:22:42.001Z</time></trkpt><trkpt lat="42.22940414174971" lon="12.973259193003114"><ele>828.6</ele><time>2026-04-19T12:22:43.001Z</time></trkpt><trkpt lat="42.22930838730858" lon="12.973259228702855"><ele>828.4</ele><time>2026-04-19T12:22:44.001Z</time></trkpt><trkpt lat="42.229224625918825" lon="12.97327081897878"><ele>828.2</ele><time>2026-04-19T12:22:45.001Z</time></trkpt><trkpt lat="42.22915462596153" lon="12.97329261789356"><ele>828.0</ele><time>2026-04-19T12:22:46.001Z</time></trkpt><trkpt lat="42.229048711930716" lon="12.973274921023274"><ele>828.0</ele><time>2026-04-19T12:22:48.002Z</time></trkpt><trkpt lat="42.22897201569016" lon="12.973315706583048"><ele>828.0</ele><time>2026-04-19T12:22:50.002Z</time></trkpt><trkpt lat="42.228933460875524" lon="12.973441621331212"><ele>828.0</ele><time>2026-04-19T12:22:52.002Z</time></trkpt><trkpt lat="42.2289919235774" lon="12.97357660990983"><ele>828.0</ele><time>2026-04-19T12:22:54.002Z</time></trkpt><trkpt lat="42.22906077611611" lon="12.973622692435788"><ele>828.0</ele><time>2026-04-19T12:22:55.002Z</time></trkpt><trkpt lat="42.22914043219331" lon="12.973642496267592"><ele>826.75</ele><time>2026-04-19T12:22:56.002Z</time></trkpt><trkpt lat="42.22924692766018" lon="12.973662895106607"><ele>825.5</ele><time>2026-04-19T12:22:57.002Z</time></trkpt><trkpt lat="42.22940160120608" lon="12.973698378192905"><ele>824.25</ele><time>2026-04-19T12:22:58.002Z</time></trkpt><trkpt lat="42.22950808822825" lon="12.973756104895118"><ele>823.0</ele><time>2026-04-19T12:22:59.002Z</time></trkpt><trkpt lat="42.22960182622041" lon="12.973805978091029"><ele>823.0</ele><time>2026-04-19T12:23:00.002Z</time></trkpt><trkpt lat="42.22969343365845" lon="12.973867310477127"><ele>823.0</ele><time>2026-04-19T12:23:01.002Z</time></trkpt><trkpt lat="42.229781381819905" lon="12.97392349597322"><ele>823.0</ele><time>2026-04-19T12:23:02.002Z</time></trkpt><trkpt lat="42.22985838559673" lon="12.973946924983268"><ele>823.0</ele><time>2026-04-19T12:23:03.002Z</time></trkpt><trkpt lat="42.22995681414286" lon="12.974013843519707"><ele>823.0</ele><time>2026-04-19T12:23:05.002Z</time></trkpt><trkpt lat="42.230024455733655" lon="12.97405889970291"><ele>826.75</ele><time>2026-04-19T12:23:06.002Z</time></trkpt><trkpt lat="42.23011197137714" lon="12.974121871311851"><ele>830.5</ele><time>2026-04-19T12:23:07.002Z</time></trkpt><trkpt lat="42.230242037949274" lon="12.9742269095229"><ele>834.25</ele><time>2026-04-19T12:23:08.002Z</time></trkpt><trkpt lat="42.230351489539245" lon="12.974325020717615"><ele>838.0</ele><time>2026-04-19T12:23:09.002Z</time></trkpt><trkpt lat="42.23046653608974" lon="12.974459507392762"><ele>838.0</ele><time>2026-04-19T12:23:10.002Z</time></trkpt><trkpt lat="42.23060212841143" lon="12.974624355275168"><ele>838.0</ele><time>2026-04-19T12:23:11.002Z</time></trkpt><trkpt lat="42.23074720537466" lon="12.974789146525778"><ele>838.0</ele><time>2026-04-19T12:23:12.002Z</time></trkpt><trkpt lat="42.230884399944046" lon="12.974932312091704"><ele>845.75</ele><time>2026-04-19T12:23:13.002Z</time></trkpt><trkpt lat="42.23101125203509" lon="12.975062093115037"><ele>853.5</ele><time>2026-04-19T12:23:14.002Z</time></trkpt><trkpt lat="42.231119059653594" lon="12.975180147548414"><ele>861.25</ele><time>2026-04-19T12:23:15.002Z</time></trkpt><trkpt lat="42.23120438542956" lon="12.975290610038872"><ele>869.0</ele><time>2026-04-19T12:23:16.002Z</time></trkpt><trkpt lat="42.23127308881766" lon="12.975403917513505"><ele>869.0000000000001</ele><time>2026-04-19T12:23:17.002Z</time></trkpt><trkpt lat="42.23132594631556" lon="12.975515179168372"><ele>869.0</ele><time>2026-04-19T12:23:18.002Z</time></trkpt><trkpt lat="42.23136630759862" lon="12.97562817943102"><ele>869.0</ele><time>2026-04-19T12:23:19.002Z</time></trkpt><trkpt lat="42.231375659420486" lon="12.975748708552974"><ele>869.0</ele><time>2026-04-19T12:23:20.002Z</time></trkpt><trkpt lat="42.23136864155383" lon="12.975844319090893"><ele>869.0000000000001</ele><time>2026-04-19T12:23:21.002Z</time></trkpt><trkpt lat="42.23134368036998" lon="12.975925453387763"><ele>869.0</ele><time>2026-04-19T12:23:22.002Z</time></trkpt><trkpt lat="42.231295812147756" lon="12.9759999182526"><ele>872.6</ele><time>2026-04-19T12:23:23.002Z</time></trkpt><trkpt lat="42.23121652909963" lon="12.976091968470115"><ele>876.2</ele><time>2026-04-19T12:23:24.002Z</time></trkpt><trkpt lat="42.23113699577962" lon="12.976173175741327"><ele>879.8000000000001</ele><time>2026-04-19T12:23:25.002Z</time></trkpt><trkpt lat="42.23105748139595" lon="12.976247404044667"><ele>883.4000000000001</ele><time>2026-04-19T12:23:26.002Z</time></trkpt><trkpt lat="42.23097734885657" lon="12.976315191331183"><ele>887.0</ele><time>2026-04-19T12:23:27.002Z</time></trkpt><trkpt lat="42.23089020494074" lon="12.9763954445799"><ele>887.0</ele><time>2026-04-19T12:23:28.002Z</time></trkpt><trkpt lat="42.230795344376126" lon="12.976478635856086"><ele>887.0</ele><time>2026-04-19T12:23:29.002Z</time></trkpt><trkpt lat="42.23070386200686" lon="12.976567069658444"><ele>887.0</ele><time>2026-04-19T12:23:30.002Z</time></trkpt><trkpt lat="42.23062533531219" lon="12.976658237437102"><ele>887.0</ele><time>2026-04-19T12:23:31.002Z</time></trkpt><trkpt lat="42.230557582374146" lon="12.97674802839754"><ele>887.0</ele><time>2026-04-19T12:23:32.002Z</time></trkpt><trkpt lat="42.23051433474654" lon="12.976847340257196"><ele>887.8333333333334</ele><time>2026-04-19T12:23:33.002Z</time></trkpt><trkpt lat="42.23050264861455" lon="12.976942168872986"><ele>888.6666666666667</ele><time>2026-04-19T12:23:34.002Z</time></trkpt><trkpt lat="42.230513293475" lon="12.977027513981751"><ele>889.5</ele><time>2026-04-19T12:23:35.002Z</time></trkpt><trkpt lat="42.23055059357727" lon="12.977101321156054"><ele>890.3333333333333</ele><time>2026-04-19T12:23:36.002Z</time></trkpt><trkpt lat="42.23061825772981" lon="12.97717089275491"><ele>891.1666666666666</ele><time>2026-04-19T12:23:37.002Z</time></trkpt><trkpt lat="42.23070557317222" lon="12.977226054988435"><ele>892.0</ele><time>2026-04-19T12:23:38.002Z</time></trkpt><trkpt lat="42.230812717646444" lon="12.977272606063341"><ele>892.0</ele><time>2026-04-19T12:23:39.002Z</time></trkpt><trkpt lat="42.230940493622406" lon="12.977299650326573"><ele>892.0</ele><time>2026-04-19T12:23:40.002Z</time></trkpt><trkpt lat="42.23108591482581" lon="12.977317297651139"><ele>892.0</ele><time>2026-04-19T12:23:41.002Z</time></trkpt><trkpt lat="42.23122344117157" lon="12.97734400328793"><ele>892.0</ele><time>2026-04-19T12:23:42.001Z</time></trkpt><trkpt lat="42.23136444550102" lon="12.977374790534858"><ele>896.6666666666666</ele><time>2026-04-19T12:23:43.001Z</time></trkpt><trkpt lat="42.23150207496563" lon="12.977396966193933"><ele>901.3333333333333</ele><time>2026-04-19T12:23:44.001Z</time></trkpt><trkpt lat="42.23165738758199" lon="12.977430108859194"><ele>906.0</ele><time>2026-04-19T12:23:45.001Z</time></trkpt><trkpt lat="42.231834153339456" lon="12.977468132818823"><ele>906.0</ele><time>2026-04-19T12:23:46.001Z</time></trkpt><trkpt lat="42.23198535879525" lon="12.97750331950465"><ele>906.0</ele><time>2026-04-19T12:23:47.001Z</time></trkpt><trkpt lat="42.23213199737286" lon="12.977527465487524"><ele>906.0</ele><time>2026-04-19T12:23:48.001Z</time></trkpt><trkpt lat="42.23228334716172" lon="12.977549180302757"><ele>905.8</ele><time>2026-04-19T12:23:49.001Z</time></trkpt><trkpt lat="42.232402789815545" lon="12.977559782840945"><ele>905.5999999999999</ele><time>2026-04-19T12:23:50.001Z</time></trkpt><trkpt lat="42.2325145224047" lon="12.97755934650573"><ele>905.4</ele><time>2026-04-19T12:23:51.001Z</time></trkpt><trkpt lat="42.23261891530533" lon="12.977543156517724"><ele>905.2</ele><time>2026-04-19T12:23:52.001Z</time></trkpt><trkpt lat="42.232723869639905" lon="12.977514819555845"><ele>905.0</ele><time>2026-04-19T12:23:53.001Z</time></trkpt><trkpt lat="42.2328442512995" lon="12.977489686807239"><ele>908.5</ele><time>2026-04-19T12:23:54.001Z</time></trkpt><trkpt lat="42.232965338994944" lon="12.977396562215791"><ele>912.0</ele><time>2026-04-19T12:23:55.001Z</time></trkpt><trkpt lat="42.2330802042429" lon="12.977329829704576"><ele>915.5</ele><time>2026-04-19T12:23:56.001Z</time></trkpt><trkpt lat="42.23319557361133" lon="12.97726974360507"><ele>919.0</ele><time>2026-04-19T12:23:57.001Z</time></trkpt><trkpt lat="42.23330746794788" lon="12.977242896529006"><ele>922.0</ele><time>2026-04-19T12:23:58.001Z</time></trkpt><trkpt lat="42.23341780768931" lon="12.97723621269236"><ele>925.0000000000001</ele><time>2026-04-19T12:23:59.001Z</time></trkpt><trkpt lat="42.23352733461946" lon="12.97725450277949"><ele>928.0000000000001</ele><time>2026-04-19T12:24:00.001Z</time></trkpt><trkpt lat="42.23362779635205" lon="12.977295498271811"><ele>931.0</ele><time>2026-04-19T12:24:01.001Z</time></trkpt><trkpt lat="42.23371932202355" lon="12.97735634200366"><ele>934.0</ele><time>2026-04-19T12:24:02.001Z</time></trkpt><trkpt lat="42.233786535160164" lon="12.977421666021023"><ele>933.9999999999999</ele><time>2026-04-19T12:24:03.001Z</time></trkpt><trkpt lat="42.23383109072714" lon="12.977501598368493"><ele>934.0</ele><time>2026-04-19T12:24:04.001Z</time></trkpt><trkpt lat="42.23386378711806" lon="12.977604854069096"><ele>934.0</ele><time>2026-04-19T12:24:05.001Z</time></trkpt><trkpt lat="42.233877052227285" lon="12.977718639497411"><ele>934.0</ele><time>2026-04-19T12:24:06.001Z</time></trkpt><trkpt lat="42.23387620431415" lon="12.977843513449969"><ele>933.9999999999999</ele><time>2026-04-19T12:24:07.001Z</time></trkpt><trkpt lat="42.233874270031855" lon="12.977980605560251"><ele>934.0</ele><time>2026-04-19T12:24:08.001Z</time></trkpt><trkpt lat="42.233873288725654" lon="12.978107286339405"><ele>935.6</ele><time>2026-04-19T12:24:09.001Z</time></trkpt><trkpt lat="42.23389197368151" lon="12.978229822270789"><ele>937.2</ele><time>2026-04-19T12:24:10.001Z</time></trkpt><trkpt lat="42.23393715859974" lon="12.978361538855436"><ele>938.8000000000001</ele><time>2026-04-19T12:24:11.001Z</time></trkpt><trkpt lat="42.23399889422176" lon="12.97849204797134"><ele>940.4000000000001</ele><time>2026-04-19T12:24:12.001Z</time></trkpt><trkpt lat="42.234079529965555" lon="12.978609327823273"><ele>942.0</ele><time>2026-04-19T12:24:13.001Z</time></trkpt><trkpt lat="42.2341953125761" lon="12.978730311820279"><ele>942.0</ele><time>2026-04-19T12:24:14.001Z</time></trkpt><trkpt lat="42.234332456879045" lon="12.978858612390816"><ele>942.0</ele><time>2026-04-19T12:24:15.001Z</time></trkpt><trkpt lat="42.23444788623834" lon="12.978976363148904"><ele>942.0</ele><time>2026-04-19T12:24:16.001Z</time></trkpt><trkpt lat="42.234526555091314" lon="12.979079825843966"><ele>942.0</ele><time>2026-04-19T12:24:17.001Z</time></trkpt><trkpt lat="42.23457522673779" lon="12.979162144458854"><ele>942.0</ele><time>2026-04-19T12:24:18.001Z</time></trkpt><trkpt lat="42.23463471469085" lon="12.97925692439131"><ele>942.0</ele><time>2026-04-19T12:24:20.001Z</time></trkpt><trkpt lat="42.23470885038442" lon="12.979322481417332"><ele>942.0</ele><time>2026-04-19T12:24:22.001Z</time></trkpt><trkpt lat="42.234768312056914" lon="12.979282027062126"><ele>942.0</ele><time>2026-04-19T12:24:23.001Z</time></trkpt><trkpt lat="42.2348084842896" lon="12.97920374610677"><ele>942.0</ele><time>2026-04-19T12:24:24.001Z</time></trkpt><trkpt lat="42.23481017294113" lon="12.97908498351799"><ele>942.0</ele><time>2026-04-19T12:24:25.001Z</time></trkpt><trkpt lat="42.23477678293749" lon="12.978984320949738"><ele>942.0</ele><time>2026-04-19T12:24:26.001Z</time></trkpt><trkpt lat="42.23473642993662" lon="12.978902193105375"><ele>942.0</ele><time>2026-04-19T12:24:27.001Z</time></trkpt><trkpt lat="42.23467661876011" lon="12.978797258487452"><ele>942.0</ele><time>2026-04-19T12:24:28.001Z</time></trkpt><trkpt lat="42.234601970856666" lon="12.978680040381805"><ele>942.0</ele><time>2026-04-19T12:24:29.001Z</time></trkpt><trkpt lat="42.23451752901923" lon="12.978555576750967"><ele>942.0</ele><time>2026-04-19T12:24:30.001Z</time></trkpt><trkpt lat="42.234411441141276" lon="12.978404702529467"><ele>943.3333333333334</ele><time>2026-04-19T12:24:31.001Z</time></trkpt><trkpt lat="42.23434029610995" lon="12.978274150281198"><ele>944.6666666666667</ele><time>2026-04-19T12:24:32.001Z</time></trkpt><trkpt lat="42.23430007878328" lon="12.978160902104547"><ele>946.0</ele><time>2026-04-19T12:24:33.001Z</time></trkpt><trkpt lat="42.234279070205105" lon="12.978060897758066"><ele>947.3333333333334</ele><time>2026-04-19T12:24:34.001Z</time></trkpt><trkpt lat="42.23430855458855" lon="12.977975284466451"><ele>948.6666666666667</ele><time>2026-04-19T12:24:36.001Z</time></trkpt><trkpt lat="42.234388888177115" lon="12.978003484536346"><ele>950.0</ele><time>2026-04-19T12:24:38.001Z</time></trkpt><trkpt lat="42.234438946498855" lon="12.978083279250752"><ele>950.0</ele><time>2026-04-19T12:24:39.001Z</time></trkpt><trkpt lat="42.23449956808078" lon="12.978185689288498"><ele>950.0</ele><time>2026-04-19T12:24:40.001Z</time></trkpt><trkpt lat="42.234577902731225" lon="12.978260449175755"><ele>950.0</ele><time>2026-04-19T12:24:41.001Z</time></trkpt><trkpt lat="42.234699166894515" lon="12.978354612579272"><ele>950.0</ele><time>2026-04-19T12:24:42.001Z</time></trkpt><trkpt lat="42.23484617651916" lon="12.978456677284182"><ele>954.0</ele><time>2026-04-19T12:24:43.001Z</time></trkpt><trkpt lat="42.2349815996017" lon="12.978555470542421"><ele>958.0</ele><time>2026-04-19T12:24:44.001Z</time></trkpt><trkpt lat="42.235095011810664" lon="12.978659785919618"><ele>962.0</ele><time>2026-04-19T12:24:45.001Z</time></trkpt><trkpt lat="42.23518711712523" lon="12.978773919923714"><ele>966.0</ele><time>2026-04-19T12:24:46.001Z</time></trkpt><trkpt lat="42.235253455740974" lon="12.978884967818566"><ele>966.0</ele><time>2026-04-19T12:24:47.001Z</time></trkpt><trkpt lat="42.2353068915993" lon="12.978997537340236"><ele>965.9999999999999</ele><time>2026-04-19T12:24:48.001Z</time></trkpt><trkpt lat="42.23534217339127" lon="12.9791191307639"><ele>965.9999999999999</ele><time>2026-04-19T12:24:49.001Z</time></trkpt><trkpt lat="42.235363400504504" lon="12.97924231549995"><ele>966.0</ele><time>2026-04-19T12:24:50.001Z</time></trkpt><trkpt lat="42.23538059187437" lon="12.979368688013928"><ele>966.0</ele><time>2026-04-19T12:24:51.001Z</time></trkpt><trkpt lat="42.235400175847765" lon="12.979499417667009"><ele>967.0</ele><time>2026-04-19T12:24:52.001Z</time></trkpt><trkpt lat="42.23542331825876" lon="12.979629185663288"><ele>967.9999999999999</ele><time>2026-04-19T12:24:53.001Z</time></trkpt><trkpt lat="42.235446548111916" lon="12.979752329819206"><ele>968.9999999999999</ele><time>2026-04-19T12:24:54.001Z</time></trkpt><trkpt lat="42.23547016701879" lon="12.979864379198293"><ele>970.0</ele><time>2026-04-19T12:24:55.001Z</time></trkpt><trkpt lat="42.23549796898609" lon="12.979955871337289"><ele>971.0</ele><time>2026-04-19T12:24:56.001Z</time></trkpt><trkpt lat="42.235564682801744" lon="12.980058189582305"><ele>975.3333333333334</ele><time>2026-04-19T12:24:58.002Z</time></trkpt><trkpt lat="42.235640129211184" lon="12.980088108193884"><ele>979.6666666666667</ele><time>2026-04-19T12:25:00.002Z</time></trkpt><trkpt lat="42.2356982696305" lon="12.980037664770652"><ele>984.0</ele><time>2026-04-19T12:25:01.002Z</time></trkpt><trkpt lat="42.23570643962808" lon="12.979894151919636"><ele>988.3333333333333</ele><time>2026-04-19T12:25:02.002Z</time></trkpt><trkpt lat="42.23570727828776" lon="12.979789227302348"><ele>992.6666666666666</ele><time>2026-04-19T12:25:03.002Z</time></trkpt><trkpt lat="42.23570325240425" lon="12.97967147750559"><ele>997.0</ele><time>2026-04-19T12:25:04.002Z</time></trkpt><trkpt lat="42.23571114980556" lon="12.97955588376425"><ele>997.25</ele><time>2026-04-19T12:25:05.002Z</time></trkpt><trkpt lat="42.235754433113826" lon="12.979452711705312"><ele>997.5</ele><time>2026-04-19T12:25:06.002Z</time></trkpt><trkpt lat="42.23581908166137" lon="12.979306804057016"><ele>997.75</ele><time>2026-04-19T12:25:07.002Z</time></trkpt><trkpt lat="42.23590577782386" lon="12.97913015863816"><ele>998.0</ele><time>2026-04-19T12:25:08.002Z</time></trkpt><trkpt lat="42.235959514310665" lon="12.97891687304211"><ele>997.6666666666667</ele><time>2026-04-19T12:25:09.002Z</time></trkpt><trkpt lat="42.23598663456346" lon="12.978682403952563"><ele>997.3333333333333</ele><time>2026-04-19T12:25:10.002Z</time></trkpt><trkpt lat="42.23599823741484" lon="12.978424261266046"><ele>997.0</ele><time>2026-04-19T12:25:11.002Z</time></trkpt><trkpt lat="42.235990860610116" lon="12.978185016481929"><ele>997.0</ele><time>2026-04-19T12:25:12.002Z</time></trkpt><trkpt lat="42.235960369573675" lon="12.977958895110042"><ele>997.0</ele><time>2026-04-19T12:25:13.002Z</time></trkpt><trkpt lat="42.23591719160024" lon="12.977745636866997"><ele>997.0</ele><time>2026-04-19T12:25:14.002Z</time></trkpt><trkpt lat="42.23586111284881" lon="12.977554185769309"><ele>994.5</ele><time>2026-04-19T12:25:15.002Z</time></trkpt><trkpt lat="42.235795782329106" lon="12.977387430985262"><ele>992.0</ele><time>2026-04-19T12:25:16.002Z</time></trkpt><trkpt lat="42.235723629015844" lon="12.977255925746713"><ele>989.5</ele><time>2026-04-19T12:25:17.002Z</time></trkpt><trkpt lat="42.23564081222648" lon="12.977143335033073"><ele>987.0</ele><time>2026-04-19T12:25:18.002Z</time></trkpt><trkpt lat="42.23557753782407" lon="12.977050477535586"><ele>987.0</ele><time>2026-04-19T12:25:19.002Z</time></trkpt><trkpt lat="42.23554158213846" lon="12.97694733730604"><ele>987.0</ele><time>2026-04-19T12:25:20.002Z</time></trkpt><trkpt lat="42.23554311019455" lon="12.97681589183859"><ele>987.0</ele><time>2026-04-19T12:25:21.002Z</time></trkpt><trkpt lat="42.23552596267475" lon="12.976639673311496"><ele>987.0</ele><time>2026-04-19T12:25:22.002Z</time></trkpt><trkpt lat="42.23549252425347" lon="12.976466186788063"><ele>987.0</ele><time>2026-04-19T12:25:23.002Z</time></trkpt><trkpt lat="42.235454965302054" lon="12.976341828355292"><ele>989.0</ele><time>2026-04-19T12:25:24.002Z</time></trkpt><trkpt lat="42.23542076697819" lon="12.97624056940602"><ele>991.0</ele><time>2026-04-19T12:25:25.002Z</time></trkpt><trkpt lat="42.235392128246495" lon="12.976143324222706"><ele>993.0</ele><time>2026-04-19T12:25:26.002Z</time></trkpt><trkpt lat="42.23535767875732" lon="12.975992525105529"><ele>995.0</ele><time>2026-04-19T12:25:28.002Z</time></trkpt><trkpt lat="42.235384529661225" lon="12.975871067205382"><ele>997.0</ele><time>2026-04-19T12:25:30.002Z</time></trkpt><trkpt lat="42.23542686304715" lon="12.975800749356754"><ele>999.0</ele><time>2026-04-19T12:25:31.002Z</time></trkpt><trkpt lat="42.23548500216854" lon="12.975745861698059"><ele>1000.5</ele><time>2026-04-19T12:25:32.002Z</time></trkpt><trkpt lat="42.235550340015614" lon="12.975703951549205"><ele>1002.0</ele><time>2026-04-19T12:25:33.002Z</time></trkpt><trkpt lat="42.23563115307405" lon="12.975719319816656"><ele>1003.5</ele><time>2026-04-19T12:25:34.002Z</time></trkpt><trkpt lat="42.2357214584857" lon="12.97575810165461"><ele>1005.0</ele><time>2026-04-19T12:25:35.002Z</time></trkpt><trkpt lat="42.235815757816624" lon="12.975821174999771"><ele>1006.5</ele><time>2026-04-19T12:25:36.002Z</time></trkpt><trkpt lat="42.23588181475701" lon="12.975902734763103"><ele>1008.0</ele><time>2026-04-19T12:25:37.002Z</time></trkpt><trkpt lat="42.235941742239355" lon="12.975971178189068"><ele>1010.8333333333334</ele><time>2026-04-19T12:25:38.002Z</time></trkpt><trkpt lat="42.23596168522936" lon="12.976066041366304"><ele>1013.6666666666667</ele><time>2026-04-19T12:25:39.002Z</time></trkpt><trkpt lat="42.23594427879397" lon="12.976169661608465"><ele>1016.5</ele><time>2026-04-19T12:25:40.002Z</time></trkpt><trkpt lat="42.2359267480479" lon="12.976278249342561"><ele>1019.3333333333334</ele><time>2026-04-19T12:25:41.002Z</time></trkpt><trkpt lat="42.23589749194514" lon="12.976395335501955"><ele>1022.1666666666667</ele><time>2026-04-19T12:25:42.002Z</time></trkpt><trkpt lat="42.23587322790712" lon="12.976513964854446"><ele>1025.0</ele><time>2026-04-19T12:25:43.002Z</time></trkpt><trkpt lat="42.23587213913281" lon="12.976626703393002"><ele>1022.8</ele><time>2026-04-19T12:25:44.002Z</time></trkpt><trkpt lat="42.23589998118697" lon="12.976737352730925"><ele>1020.6</ele><time>2026-04-19T12:25:45.002Z</time></trkpt><trkpt lat="42.23595395721053" lon="12.976832735398522"><ele>1018.4000000000001</ele><time>2026-04-19T12:25:46.002Z</time></trkpt><trkpt lat="42.23604551726892" lon="12.976930935220373"><ele>1016.2</ele><time>2026-04-19T12:25:47.002Z</time></trkpt><trkpt lat="42.236171796686534" lon="12.977041917911325"><ele>1014.0</ele><time>2026-04-19T12:25:48.001Z</time></trkpt><trkpt lat="42.23629536271907" lon="12.97716615821456"><ele>1014.0</ele><time>2026-04-19T12:25:49.001Z</time></trkpt><trkpt lat="42.23640791211019" lon="12.977300621537644"><ele>1014.0</ele><time>2026-04-19T12:25:50.001Z</time></trkpt><trkpt lat="42.236518345661494" lon="12.977458480639248"><ele>1014.0</ele><time>2026-04-19T12:25:51.001Z</time></trkpt><trkpt lat="42.236612626369656" lon="12.977615730453968"><ele>1017.2</ele><time>2026-04-19T12:25:52.001Z</time></trkpt><trkpt lat="42.23669300505838" lon="12.977756978378824"><ele>1020.4000000000001</ele><time>2026-04-19T12:25:53.001Z</time></trkpt><trkpt lat="42.23674982421065" lon="12.97785527092168"><ele>1023.6</ele><time>2026-04-19T12:25:54.001Z</time></trkpt><trkpt lat="42.236794485130176" lon="12.977927871774774"><ele>1026.8</ele><time>2026-04-19T12:25:55.001Z</time></trkpt><trkpt lat="42.236848574228986" lon="12.978018103913284"><ele>1030.0</ele><time>2026-04-19T12:25:56.001Z</time></trkpt><trkpt lat="42.23691427867761" lon="12.978127508048985"><ele>1030.0</ele><time>2026-04-19T12:25:57.001Z</time></trkpt><trkpt lat="42.236987129034844" lon="12.978247489586266"><ele>1030.0</ele><time>2026-04-19T12:25:58.001Z</time></trkpt><trkpt lat="42.2370455156068" lon="12.9783581343344"><ele>1030.0</ele><time>2026-04-19T12:25:59.001Z</time></trkpt><trkpt lat="42.23709314866484" lon="12.978473605429231"><ele>1030.0</ele><time>2026-04-19T12:26:00.001Z</time></trkpt><trkpt lat="42.23712771635093" lon="12.978596692056989"><ele>1030.0</ele><time>2026-04-19T12:26:01.001Z</time></trkpt><trkpt lat="42.237156078547905" lon="12.97874756265641"><ele>1029.75</ele><time>2026-04-19T12:26:02.001Z</time></trkpt><trkpt lat="42.23717659491306" lon="12.978913968489556"><ele>1029.5</ele><time>2026-04-19T12:26:03.001Z</time></trkpt><trkpt lat="42.237191669787485" lon="12.979082520168095"><ele>1029.25</ele><time>2026-04-19T12:26:04.001Z</time></trkpt><trkpt lat="42.23720419054273" lon="12.979271454005149"><ele>1029.0</ele><time>2026-04-19T12:26:05.001Z</time></trkpt><trkpt lat="42.23721894376081" lon="12.97945508946073"><ele>1029.0</ele><time>2026-04-19T12:26:06.001Z</time></trkpt><trkpt lat="42.237241984810844" lon="12.979640652374671"><ele>1029.0</ele><time>2026-04-19T12:26:07.001Z</time></trkpt><trkpt lat="42.23727589167243" lon="12.979817914017525"><ele>1029.0</ele><time>2026-04-19T12:26:08.001Z</time></trkpt><trkpt lat="42.23731861962972" lon="12.979989206334354"><ele>1029.0</ele><time>2026-04-19T12:26:09.001Z</time></trkpt><trkpt lat="42.23736655542985" lon="12.980166103843482"><ele>1040.6666666666667</ele><time>2026-04-19T12:26:10.001Z</time></trkpt><trkpt lat="42.2374157556554" lon="12.980359214043833"><ele>1052.3333333333335</ele><time>2026-04-19T12:26:11.001Z</time></trkpt><trkpt lat="42.23745523672538" lon="12.980548905253965"><ele>1064.0</ele><time>2026-04-19T12:26:12.001Z</time></trkpt><trkpt lat="42.23749345066312" lon="12.980771240284648"><ele>1063.3333333333335</ele><time>2026-04-19T12:26:13.001Z</time></trkpt><trkpt lat="42.237533973001156" lon="12.980992331157971"><ele>1062.6666666666667</ele><time>2026-04-19T12:26:14.001Z</time></trkpt><trkpt lat="42.23757964971201" lon="12.981201085760858"><ele>1062.0</ele><time>2026-04-19T12:26:15.001Z</time></trkpt><trkpt lat="42.23763593382047" lon="12.981446176377636"><ele>1062.0</ele><time>2026-04-19T12:26:16.001Z</time></trkpt><trkpt lat="42.23768307334062" lon="12.981651728829316"><ele>1062.0</ele><time>2026-04-19T12:26:17.001Z</time></trkpt><trkpt lat="42.23772390138869" lon="12.981830308028986"><ele>1062.0</ele><time>2026-04-19T12:26:18.001Z</time></trkpt><trkpt lat="42.23776041064248" lon="12.981985730609868"><ele>1062.0</ele><time>2026-04-19T12:26:19.001Z</time></trkpt><trkpt lat="42.23779351930776" lon="12.982119921235025"><ele>1061.4</ele><time>2026-04-19T12:26:20.001Z</time></trkpt><trkpt lat="42.23783304569408" lon="12.982236689861146"><ele>1060.8000000000002</ele><time>2026-04-19T12:26:21.001Z</time></trkpt><trkpt lat="42.23788164630238" lon="12.982340815282233"><ele>1060.2</ele><time>2026-04-19T12:26:22.001Z</time></trkpt><trkpt lat="42.23793236542171" lon="12.982421114357509"><ele>1059.6000000000001</ele><time>2026-04-19T12:26:23.001Z</time></trkpt><trkpt lat="42.23798128021976" lon="12.98247489128968"><ele>1059.0</ele><time>2026-04-19T12:26:24.001Z</time></trkpt><trkpt lat="42.23812283551831" lon="12.982501225405331"><ele>1061.6000000000001</ele><time>2026-04-19T12:26:26.001Z</time></trkpt><trkpt lat="42.23821140467351" lon="12.98245237882276"><ele>1064.2</ele><time>2026-04-19T12:26:27.001Z</time></trkpt><trkpt lat="42.23830747931871" lon="12.98237983632817"><ele>1066.8000000000002</ele><time>2026-04-19T12:26:28.001Z</time></trkpt><trkpt lat="42.23842026734463" lon="12.982314533507981"><ele>1069.4</ele><time>2026-04-19T12:26:29.001Z</time></trkpt><trkpt lat="42.23852840997915" lon="12.98226544538239"><ele>1072.0</ele><time>2026-04-19T12:26:30.001Z</time></trkpt><trkpt lat="42.238630319331705" lon="12.982206211506208"><ele>1072.0</ele><time>2026-04-19T12:26:31.001Z</time></trkpt><trkpt lat="42.238739886359845" lon="12.982198985546365"><ele>1072.0</ele><time>2026-04-19T12:26:32.001Z</time></trkpt><trkpt lat="42.238846226396234" lon="12.982214109900013"><ele>1072.0</ele><time>2026-04-19T12:26:33.001Z</time></trkpt><trkpt lat="42.238952830938835" lon="12.982250906122673"><ele>1072.0</ele><time>2026-04-19T12:26:34.001Z</time></trkpt><trkpt lat="42.23906655080358" lon="12.98231381595709"><ele>1072.5</ele><time>2026-04-19T12:26:35.001Z</time></trkpt><trkpt lat="42.239194056082425" lon="12.982392422726262"><ele>1073.0</ele><time>2026-04-19T12:26:36.001Z</time></trkpt><trkpt lat="42.23932264817015" lon="12.982463871781885"><ele>1073.5</ele><time>2026-04-19T12:26:37.001Z</time></trkpt><trkpt lat="42.23946312186752" lon="12.982546178065407"><ele>1074.0</ele><time>2026-04-19T12:26:38.001Z</time></trkpt><trkpt lat="42.23959267737919" lon="12.982633284349525"><ele>1070.5</ele><time>2026-04-19T12:26:39.001Z</time></trkpt><trkpt lat="42.239713758139274" lon="12.98271706499529"><ele>1067.0</ele><time>2026-04-19T12:26:40.001Z</time></trkpt><trkpt lat="42.239822158172345" lon="12.98277431583353"><ele>1063.5</ele><time>2026-04-19T12:26:41.001Z</time></trkpt><trkpt lat="42.23994003478775" lon="12.982821679597471"><ele>1060.0</ele><time>2026-04-19T12:26:42.001Z</time></trkpt><trkpt lat="42.24006953316784" lon="12.982868286014002"><ele>1060.0</ele><time>2026-04-19T12:26:43.001Z</time></trkpt><trkpt lat="42.2401881315301" lon="12.982909652031905"><ele>1060.0</ele><time>2026-04-19T12:26:44.001Z</time></trkpt><trkpt lat="42.24030255379152" lon="12.982971674723782"><ele>1060.0</ele><time>2026-04-19T12:26:45.001Z</time></trkpt><trkpt lat="42.24043925319138" lon="12.982950851074714"><ele>1060.0</ele><time>2026-04-19T12:26:46.001Z</time></trkpt><trkpt lat="42.24057683400349" lon="12.98294197299651"><ele>1060.75</ele><time>2026-04-19T12:26:47.001Z</time></trkpt><trkpt lat="42.24071184513765" lon="12.982930637575484"><ele>1061.5</ele><time>2026-04-19T12:26:48.001Z</time></trkpt><trkpt lat="42.2408323447705" lon="12.982929642245383"><ele>1062.25</ele><time>2026-04-19T12:26:49.001Z</time></trkpt><trkpt lat="42.24094359386539" lon="12.982953197728293"><ele>1063.0</ele><time>2026-04-19T12:26:50.001Z</time></trkpt><trkpt lat="42.24105931479198" lon="12.983008472642299"><ele>1063.0</ele><time>2026-04-19T12:26:51.001Z</time></trkpt><trkpt lat="42.241169497472555" lon="12.983090738422113"><ele>1063.0</ele><time>2026-04-19T12:26:52.001Z</time></trkpt><trkpt lat="42.24126136436283" lon="12.983191284414977"><ele>1063.0</ele><time>2026-04-19T12:26:53.001Z</time></trkpt><trkpt lat="42.241337161282395" lon="12.983312099584792"><ele>1063.0</ele><time>2026-04-19T12:26:54.001Z</time></trkpt><trkpt lat="42.241383264621625" lon="12.983444491779935"><ele>1063.75</ele><time>2026-04-19T12:26:55.001Z</time></trkpt><trkpt lat="42.24141181449885" lon="12.983588312452158"><ele>1064.5</ele><time>2026-04-19T12:26:56.001Z</time></trkpt><trkpt lat="42.24144143471312" lon="12.983746448683895"><ele>1065.25</ele><time>2026-04-19T12:26:57.001Z</time></trkpt><trkpt lat="42.24147722960008" lon="12.983916206784944"><ele>1066.0</ele><time>2026-04-19T12:26:58.001Z</time></trkpt><trkpt lat="42.241521069277006" lon="12.984073953677397"><ele>1065.8</ele><time>2026-04-19T12:26:59.001Z</time></trkpt><trkpt lat="42.24156529121539" lon="12.984201065506369"><ele>1065.6</ele><time>2026-04-19T12:27:00.001Z</time></trkpt><trkpt lat="42.24160902670682" lon="12.98431049994192"><ele>1065.4</ele><time>2026-04-19T12:27:01.001Z</time></trkpt><trkpt lat="42.24164342520689" lon="12.984402304531097"><ele>1065.2</ele><time>2026-04-19T12:27:02.001Z</time></trkpt><trkpt lat="42.24168472710578" lon="12.98454961385154"><ele>1065.0</ele><time>2026-04-19T12:27:04.001Z</time></trkpt><trkpt lat="42.24169905617314" lon="12.98471630640834"><ele>1065.0</ele><time>2026-04-19T12:27:06.001Z</time></trkpt><trkpt lat="42.24169226649192" lon="12.984824403822637"><ele>1065.0</ele><time>2026-04-19T12:27:07.002Z</time></trkpt><trkpt lat="42.241670738683496" lon="12.984942177828538"><ele>1065.0</ele><time>2026-04-19T12:27:08.002Z</time></trkpt><trkpt lat="42.2416430483172" lon="12.985063164530962"><ele>1065.0</ele><time>2026-04-19T12:27:09.002Z</time></trkpt><trkpt lat="42.24162070434761" lon="12.985193304088508"><ele>1065.0</ele><time>2026-04-19T12:27:10.002Z</time></trkpt><trkpt lat="42.24159213923332" lon="12.985328704598295"><ele>1068.0</ele><time>2026-04-19T12:27:11.002Z</time></trkpt><trkpt lat="42.24154909502289" lon="12.985492506268654"><ele>1071.0</ele><time>2026-04-19T12:27:12.002Z</time></trkpt><trkpt lat="42.24149853229661" lon="12.98567940783786"><ele>1074.0</ele><time>2026-04-19T12:27:13.002Z</time></trkpt><trkpt lat="42.24144736075109" lon="12.985880859247214"><ele>1077.0</ele><time>2026-04-19T12:27:14.002Z</time></trkpt><trkpt lat="42.24140224307574" lon="12.986069690313819"><ele>1077.0</ele><time>2026-04-19T12:27:15.002Z</time></trkpt><trkpt lat="42.24136152252211" lon="12.98625817343838"><ele>1077.0</ele><time>2026-04-19T12:27:16.002Z</time></trkpt><trkpt lat="42.241328203818696" lon="12.986438917751714"><ele>1077.0</ele><time>2026-04-19T12:27:17.002Z</time></trkpt><trkpt lat="42.24127780149796" lon="12.986623975430609"><ele>1077.0</ele><time>2026-04-19T12:27:18.002Z</time></trkpt><trkpt lat="42.24120495217161" lon="12.986813410019202"><ele>1079.4</ele><time>2026-04-19T12:27:19.002Z</time></trkpt><trkpt lat="42.24113174884429" lon="12.986959412575429"><ele>1081.8000000000002</ele><time>2026-04-19T12:27:20.002Z</time></trkpt><trkpt lat="42.24106486370281" lon="12.987066037010855"><ele>1084.2</ele><time>2026-04-19T12:27:21.002Z</time></trkpt><trkpt lat="42.24099797099365" lon="12.987167331093271"><ele>1086.6000000000001</ele><time>2026-04-19T12:27:22.002Z</time></trkpt><trkpt lat="42.24092643598812" lon="12.987274819855083"><ele>1089.0</ele><time>2026-04-19T12:27:23.002Z</time></trkpt><trkpt lat="42.24085775174773" lon="12.987386318438224"><ele>1089.0</ele><time>2026-04-19T12:27:24.002Z</time></trkpt><trkpt lat="42.240795664288314" lon="12.987509797346807"><ele>1089.0</ele><time>2026-04-19T12:27:25.002Z</time></trkpt><trkpt lat="42.24074524413137" lon="12.987635432111334"><ele>1089.0</ele><time>2026-04-19T12:27:26.002Z</time></trkpt><trkpt lat="42.24070727514841" lon="12.987773998626395"><ele>1089.0</ele><time>2026-04-19T12:27:27.002Z</time></trkpt><trkpt lat="42.24068590347131" lon="12.98792741704333"><ele>1089.0</ele><time>2026-04-19T12:27:28.002Z</time></trkpt><trkpt lat="42.24068157601099" lon="12.988081441928239"><ele>1089.5</ele><time>2026-04-19T12:27:29.002Z</time></trkpt><trkpt lat="42.240687953142746" lon="12.988219191723724"><ele>1090.0</ele><time>2026-04-19T12:27:30.002Z</time></trkpt><trkpt lat="42.24070127940823" lon="12.988312033192665"><ele>1090.5</ele><time>2026-04-19T12:27:31.002Z</time></trkpt><trkpt lat="42.24071075456253" lon="12.988415736398512"><ele>1091.0</ele><time>2026-04-19T12:27:32.002Z</time></trkpt><trkpt lat="42.2407258776926" lon="12.988565563106643"><ele>1091.5</ele><time>2026-04-19T12:27:34.002Z</time></trkpt><trkpt lat="42.240746735104125" lon="12.988646302345776"><ele>1092.0</ele><time>2026-04-19T12:27:35.002Z</time></trkpt><trkpt lat="42.2407905329238" lon="12.988744306294423"><ele>1092.0</ele><time>2026-04-19T12:27:36.002Z</time></trkpt><trkpt lat="42.24084658242334" lon="12.988853015874241"><ele>1092.0</ele><time>2026-04-19T12:27:37.002Z</time></trkpt><trkpt lat="42.24091048581506" lon="12.988960346467397"><ele>1092.0</ele><time>2026-04-19T12:27:38.002Z</time></trkpt><trkpt lat="42.240980080598995" lon="12.989055781727757"><ele>1092.0</ele><time>2026-04-19T12:27:39.002Z</time></trkpt><trkpt lat="42.241054894039245" lon="12.989142533501239"><ele>1092.0</ele><time>2026-04-19T12:27:40.002Z</time></trkpt><trkpt lat="42.24114192510105" lon="12.98921344024998"><ele>1090.6</ele><time>2026-04-19T12:27:41.002Z</time></trkpt><trkpt lat="42.24123549741169" lon="12.989280842262646"><ele>1089.2</ele><time>2026-04-19T12:27:42.002Z</time></trkpt><trkpt lat="42.24133556646951" lon="12.989350181260948"><ele>1087.8</ele><time>2026-04-19T12:27:43.002Z</time></trkpt><trkpt lat="42.241439862797364" lon="12.98941543081108"><ele>1086.4</ele><time>2026-04-19T12:27:44.002Z</time></trkpt><trkpt lat="42.24154740472928" lon="12.989473909518587"><ele>1085.0</ele><time>2026-04-19T12:27:45.002Z</time></trkpt><trkpt lat="42.2416600590412" lon="12.98952232217219"><ele>1084.25</ele><time>2026-04-19T12:27:46.002Z</time></trkpt><trkpt lat="42.24177462870632" lon="12.989559154875142"><ele>1083.5</ele><time>2026-04-19T12:27:47.002Z</time></trkpt><trkpt lat="42.24189577407538" lon="12.989592489356122"><ele>1082.75</ele><time>2026-04-19T12:27:48.002Z</time></trkpt><trkpt lat="42.24202355560838" lon="12.989624761039998"><ele>1082.0</ele><time>2026-04-19T12:27:49.002Z</time></trkpt><trkpt lat="42.242156068537824" lon="12.989661122179246"><ele>1082.0</ele><time>2026-04-19T12:27:50.002Z</time></trkpt><trkpt lat="42.24227828092056" lon="12.989700849489218"><ele>1082.0</ele><time>2026-04-19T12:27:51.002Z</time></trkpt><trkpt lat="42.242385209068665" lon="12.989739166537149"><ele>1082.0</ele><time>2026-04-19T12:27:52.002Z</time></trkpt><trkpt lat="42.24249587489559" lon="12.989795931187968"><ele>1082.0</ele><time>2026-04-19T12:27:53.002Z</time></trkpt><trkpt lat="42.24260813977802" lon="12.989866801877605"><ele>1084.0</ele><time>2026-04-19T12:27:54.001Z</time></trkpt><trkpt lat="42.24272056301728" lon="12.98993663107574"><ele>1086.0</ele><time>2026-04-19T12:27:55.001Z</time></trkpt><trkpt lat="42.242835450504025" lon="12.990004449345737"><ele>1088.0</ele><time>2026-04-19T12:27:56.001Z</time></trkpt><trkpt lat="42.24294506402313" lon="12.990064332869295"><ele>1090.0</ele><time>2026-04-19T12:27:57.001Z</time></trkpt><trkpt lat="42.24304427600243" lon="12.990116700343846"><ele>1086.4</ele><time>2026-04-19T12:27:58.001Z</time></trkpt><trkpt lat="42.24313591190403" lon="12.990165609367823"><ele>1082.8</ele><time>2026-04-19T12:27:59.001Z</time></trkpt><trkpt lat="42.24322998223228" lon="12.990214404437149"><ele>1079.2</ele><time>2026-04-19T12:28:00.001Z</time></trkpt><trkpt lat="42.243320841512066" lon="12.99027421068571"><ele>1075.6</ele><time>2026-04-19T12:28:01.001Z</time></trkpt><trkpt lat="42.24340832186183" lon="12.99032753429133"><ele>1072.0</ele><time>2026-04-19T12:28:02.001Z</time></trkpt><trkpt lat="42.243496753984665" lon="12.99037876669393"><ele>1072.0</ele><time>2026-04-19T12:28:03.001Z</time></trkpt><trkpt lat="42.24358347882734" lon="12.990425970903297"><ele>1072.0</ele><time>2026-04-19T12:28:04.001Z</time></trkpt><trkpt lat="42.243678869958124" lon="12.990468662728523"><ele>1072.0</ele><time>2026-04-19T12:28:05.001Z</time></trkpt><trkpt lat="42.24378047510462" lon="12.990511801321254"><ele>1072.0</ele><time>2026-04-19T12:28:06.001Z</time></trkpt><trkpt lat="42.243882024913475" lon="12.990554654120174"><ele>1072.0</ele><time>2026-04-19T12:28:07.001Z</time></trkpt><trkpt lat="42.243991388948636" lon="12.990589979062309"><ele>1070.3333333333333</ele><time>2026-04-19T12:28:08.001Z</time></trkpt><trkpt lat="42.24411227993736" lon="12.990621449464134"><ele>1068.6666666666667</ele><time>2026-04-19T12:28:09.001Z</time></trkpt><trkpt lat="42.2442625518994" lon="12.990639154422022"><ele>1067.0</ele><time>2026-04-19T12:28:10.001Z</time></trkpt><trkpt lat="42.24445141180191" lon="12.990652339437762"><ele>1067.0</ele><time>2026-04-19T12:28:11.001Z</time></trkpt><trkpt lat="42.2446249563773" lon="12.990654423099752"><ele>1067.0</ele><time>2026-04-19T12:28:12.001Z</time></trkpt><trkpt lat="42.24478774297021" lon="12.990648504694102"><ele>1067.0</ele><time>2026-04-19T12:28:13.001Z</time></trkpt><trkpt lat="42.24493812374821" lon="12.9906615213802"><ele>1063.75</ele><time>2026-04-19T12:28:14.001Z</time></trkpt><trkpt lat="42.245078090069434" lon="12.990680603205405"><ele>1060.5</ele><time>2026-04-19T12:28:15.001Z</time></trkpt><trkpt lat="42.24521409842626" lon="12.990707571680963"><ele>1057.25</ele><time>2026-04-19T12:28:16.001Z</time></trkpt><trkpt lat="42.245354993520294" lon="12.990737881340138"><ele>1054.0</ele><time>2026-04-19T12:28:17.001Z</time></trkpt><trkpt lat="42.245487415568974" lon="12.990759808775277"><ele>1054.0</ele><time>2026-04-19T12:28:18.001Z</time></trkpt><trkpt lat="42.24562043824535" lon="12.990770566702299"><ele>1054.0</ele><time>2026-04-19T12:28:19.001Z</time></trkpt><trkpt lat="42.24575844416928" lon="12.990781039506137"><ele>1054.0</ele><time>2026-04-19T12:28:20.001Z</time></trkpt><trkpt lat="42.24589878943931" lon="12.990796245004363"><ele>1054.0</ele><time>2026-04-19T12:28:21.001Z</time></trkpt><trkpt lat="42.246029903945676" lon="12.990818166587909"><ele>1050.6000000000001</ele><time>2026-04-19T12:28:22.001Z</time></trkpt><trkpt lat="42.24613166335688" lon="12.990845764974699"><ele>1047.2</ele><time>2026-04-19T12:28:23.001Z</time></trkpt><trkpt lat="42.24625190444749" lon="12.990875891345077"><ele>1043.8000000000002</ele><time>2026-04-19T12:28:24.001Z</time></trkpt><trkpt lat="42.24636455357765" lon="12.990905516299598"><ele>1040.4</ele><time>2026-04-19T12:28:25.001Z</time></trkpt><trkpt lat="42.24646009968937" lon="12.990936744713029"><ele>1037.0</ele><time>2026-04-19T12:28:26.001Z</time></trkpt><trkpt lat="42.24653438961132" lon="12.990955576483838"><ele>1036.6666666666667</ele><time>2026-04-19T12:28:27.001Z</time></trkpt><trkpt lat="42.246603042759304" lon="12.990972555608241"><ele>1036.3333333333335</ele><time>2026-04-19T12:28:28.001Z</time></trkpt><trkpt lat="42.246674887752285" lon="12.990996478042268"><ele>1036.0</ele><time>2026-04-19T12:28:29.001Z</time></trkpt><trkpt lat="42.24675389052497" lon="12.991023578719963"><ele>1035.6666666666667</ele><time>2026-04-19T12:28:30.001Z</time></trkpt><trkpt lat="42.246835898404576" lon="12.991055164305012"><ele>1035.3333333333333</ele><time>2026-04-19T12:28:31.001Z</time></trkpt><trkpt lat="42.2469206892536" lon="12.991091879541115"><ele>1035.0</ele><time>2026-04-19T12:28:32.001Z</time></trkpt><trkpt lat="42.24700455842285" lon="12.991132678788098"><ele>1035.0</ele><time>2026-04-19T12:28:33.001Z</time></trkpt><trkpt lat="42.24708829144493" lon="12.991176536352762"><ele>1035.0</ele><time>2026-04-19T12:28:34.001Z</time></trkpt><trkpt lat="42.24716874159368" lon="12.991221614247424"><ele>1035.0</ele><time>2026-04-19T12:28:35.001Z</time></trkpt><trkpt lat="42.24725676927823" lon="12.991267123965981"><ele>1035.0</ele><time>2026-04-19T12:28:36.001Z</time></trkpt><trkpt lat="42.247348694336104" lon="12.991311711615797"><ele>1035.0</ele><time>2026-04-19T12:28:37.001Z</time></trkpt><trkpt lat="42.24744405089463" lon="12.991360753137469"><ele>1034.4</ele><time>2026-04-19T12:28:38.001Z</time></trkpt><trkpt lat="42.247530398285775" lon="12.991429446215154"><ele>1033.8</ele><time>2026-04-19T12:28:39.001Z</time></trkpt><trkpt lat="42.247603520211776" lon="12.991535377290125"><ele>1033.2</ele><time>2026-04-19T12:28:40.001Z</time></trkpt><trkpt lat="42.24766971519958" lon="12.99164808060507"><ele>1032.6</ele><time>2026-04-19T12:28:41.001Z</time></trkpt><trkpt lat="42.24773751944966" lon="12.991766813514479"><ele>1032.0</ele><time>2026-04-19T12:28:42.001Z</time></trkpt><trkpt lat="42.24781632194995" lon="12.991877617050537"><ele>1032.5</ele><time>2026-04-19T12:28:43.001Z</time></trkpt><trkpt lat="42.24789737004463" lon="12.99197934443232"><ele>1033.0</ele><time>2026-04-19T12:28:44.001Z</time></trkpt><trkpt lat="42.2479878379718" lon="12.992067132182065"><ele>1033.5</ele><time>2026-04-19T12:28:45.001Z</time></trkpt><trkpt lat="42.24808364636035" lon="12.99216936274217"><ele>1034.0</ele><time>2026-04-19T12:28:46.001Z</time></trkpt><trkpt lat="42.248182987548326" lon="12.992302805660634"><ele>1034.0</ele><time>2026-04-19T12:28:47.001Z</time></trkpt><trkpt lat="42.248269351833265" lon="12.992451280642857"><ele>1034.0</ele><time>2026-04-19T12:28:48.001Z</time></trkpt><trkpt lat="42.248341686298765" lon="12.992601594037541"><ele>1034.0</ele><time>2026-04-19T12:28:49.001Z</time></trkpt><trkpt lat="42.24841379113413" lon="12.992756360481968"><ele>1034.0</ele><time>2026-04-19T12:28:50.001Z</time></trkpt><trkpt lat="42.2484832863414" lon="12.992908696410478"><ele>1030.0</ele><time>2026-04-19T12:28:51.001Z</time></trkpt><trkpt lat="42.248557372851856" lon="12.993070003489445"><ele>1026.0</ele><time>2026-04-19T12:28:52.001Z</time></trkpt><trkpt lat="42.24866647000605" lon="12.993244575727351"><ele>1022.0</ele><time>2026-04-19T12:28:53.001Z</time></trkpt><trkpt lat="42.24877518881511" lon="12.993441106986293"><ele>1023.25</ele><time>2026-04-19T12:28:54.001Z</time></trkpt><trkpt lat="42.248870589562316" lon="12.993613563182167"><ele>1024.5</ele><time>2026-04-19T12:28:55.001Z</time></trkpt><trkpt lat="42.24895769870597" lon="12.993771030357639"><ele>1025.75</ele><time>2026-04-19T12:28:56.001Z</time></trkpt><trkpt lat="42.24904159357111" lon="12.993922686340442"><ele>1027.0</ele><time>2026-04-19T12:28:57.001Z</time></trkpt><trkpt lat="42.24912139044107" lon="12.994066934415258"><ele>1023.5</ele><time>2026-04-19T12:28:58.001Z</time></trkpt><trkpt lat="42.249183654098665" lon="12.994226642821612"><ele>1020.0</ele><time>2026-04-19T12:28:59.001Z</time></trkpt><trkpt lat="42.24926660441231" lon="12.994367794798954"><ele>1016.5</ele><time>2026-04-19T12:29:00.001Z</time></trkpt><trkpt lat="42.24935186573469" lon="12.994517578047262"><ele>1013.0</ele><time>2026-04-19T12:29:01.001Z</time></trkpt><trkpt lat="42.24944257764361" lon="12.994666096280506"><ele>1013.0</ele><time>2026-04-19T12:29:02.001Z</time></trkpt><trkpt lat="42.24952944286183" lon="12.994813284244865"><ele>1013.0</ele><time>2026-04-19T12:29:03.001Z</time></trkpt><trkpt lat="42.24960689369064" lon="12.994941062956764"><ele>1013.0</ele><time>2026-04-19T12:29:04.001Z</time></trkpt><trkpt lat="42.249671303835306" lon="12.995058608633073"><ele>1013.0</ele><time>2026-04-19T12:29:05.001Z</time></trkpt><trkpt lat="42.24973842425849" lon="12.995173064813269"><ele>1011.8</ele><time>2026-04-19T12:29:06.001Z</time></trkpt><trkpt lat="42.2498018021193" lon="12.995281213644494"><ele>1010.5999999999999</ele><time>2026-04-19T12:29:07.001Z</time></trkpt><trkpt lat="42.249864851049004" lon="12.99538503718048"><ele>1009.4000000000001</ele><time>2026-04-19T12:29:08.001Z</time></trkpt><trkpt lat="42.249928370391906" lon="12.995480327937173"><ele>1008.2</ele><time>2026-04-19T12:29:09.001Z</time></trkpt><trkpt lat="42.24999475493696" lon="12.9955728857716"><ele>1007.0</ele><time>2026-04-19T12:29:10.001Z</time></trkpt><trkpt lat="42.25006492654196" lon="12.995652299730097"><ele>1007.0000000000001</ele><time>2026-04-19T12:29:11.001Z</time></trkpt><trkpt lat="42.25014100831272" lon="12.99572095913111"><ele>1007.0</ele><time>2026-04-19T12:29:12.001Z</time></trkpt><trkpt lat="42.250218330527126" lon="12.995778953244521"><ele>1007.0</ele><time>2026-04-19T12:29:13.001Z</time></trkpt><trkpt lat="42.25029497146802" lon="12.995830862726399"><ele>1007.0</ele><time>2026-04-19T12:29:14.001Z</time></trkpt><trkpt lat="42.25037219443486" lon="12.995891072434597"><ele>1007.0000000000001</ele><time>2026-04-19T12:29:15.001Z</time></trkpt><trkpt lat="42.250440614009335" lon="12.99595739627298"><ele>1007.0</ele><time>2026-04-19T12:29:16.001Z</time></trkpt><trkpt lat="42.25048853211904" lon="12.996018860645055"><ele>1007.0000000000001</ele><time>2026-04-19T12:29:17.001Z</time></trkpt><trkpt lat="42.25053172408508" lon="12.996093051276024"><ele>1007.0</ele><time>2026-04-19T12:29:18.001Z</time></trkpt><trkpt lat="42.250573562175816" lon="12.996184954777963"><ele>1007.0</ele><time>2026-04-19T12:29:19.001Z</time></trkpt><trkpt lat="42.250606834612306" lon="12.996282739647778"><ele>1007.0</ele><time>2026-04-19T12:29:20.001Z</time></trkpt><trkpt lat="42.250632644168775" lon="12.99638616176173"><ele>1007.0000000000001</ele><time>2026-04-19T12:29:21.001Z</time></trkpt><trkpt lat="42.25065226149102" lon="12.996481106815127"><ele>1007.0</ele><time>2026-04-19T12:29:22.001Z</time></trkpt><trkpt lat="42.250673388400045" lon="12.99657111076754"><ele>1007.0</ele><time>2026-04-19T12:29:23.001Z</time></trkpt><trkpt lat="42.25071124633716" lon="12.996668977009055"><ele>1007.0</ele><time>2026-04-19T12:29:25.001Z</time></trkpt><trkpt lat="42.250781656612745" lon="12.996753935188186"><ele>1007.0</ele><time>2026-04-19T12:29:28.001Z</time></trkpt><trkpt lat="42.25085236371641" lon="12.996797717808924"><ele>1007.0</ele><time>2026-04-19T12:29:30.001Z</time></trkpt><trkpt lat="42.25094024361229" lon="12.996937153598237"><ele>1007.0</ele><time>2026-04-19T12:29:32.001Z</time></trkpt><trkpt lat="42.25098507756122" lon="12.997044288479065"><ele>1005.6</ele><time>2026-04-19T12:29:33.001Z</time></trkpt><trkpt lat="42.25102671973078" lon="12.997153344199988"><ele>1004.2</ele><time>2026-04-19T12:29:34.001Z</time></trkpt><trkpt lat="42.25106583351212" lon="12.997266367769818"><ele>1002.8</ele><time>2026-04-19T12:29:35.001Z</time></trkpt><trkpt lat="42.251115619818734" lon="12.997381911879852"><ele>1001.4</ele><time>2026-04-19T12:29:36.001Z</time></trkpt><trkpt lat="42.25116573627779" lon="12.997489234454516"><ele>1000.0</ele><time>2026-04-19T12:29:37.001Z</time></trkpt><trkpt lat="42.25121208199998" lon="12.997591588104227"><ele>998.3333333333333</ele><time>2026-04-19T12:29:38.002Z</time></trkpt><trkpt lat="42.251255300703036" lon="12.997685632753306"><ele>996.6666666666666</ele><time>2026-04-19T12:29:39.002Z</time></trkpt><trkpt lat="42.25129136239455" lon="12.997777653154895"><ele>995.0</ele><time>2026-04-19T12:29:40.002Z</time></trkpt><trkpt lat="42.25132756048243" lon="12.997878801034414"><ele>993.3333333333333</ele><time>2026-04-19T12:29:41.002Z</time></trkpt><trkpt lat="42.251355220630025" lon="12.997959449745283"><ele>991.6666666666666</ele><time>2026-04-19T12:29:42.002Z</time></trkpt><trkpt lat="42.2513886982552" lon="12.998038913445322"><ele>990.0</ele><time>2026-04-19T12:29:43.002Z</time></trkpt><trkpt lat="42.2514321899733" lon="12.998122585076219"><ele>991.0</ele><time>2026-04-19T12:29:44.002Z</time></trkpt><trkpt lat="42.25148282799318" lon="12.998207208592925"><ele>992.0</ele><time>2026-04-19T12:29:45.002Z</time></trkpt><trkpt lat="42.25153892916647" lon="12.998301118917695"><ele>993.0</ele><time>2026-04-19T12:29:46.002Z</time></trkpt><trkpt lat="42.251589377171605" lon="12.998404217713814"><ele>994.0</ele><time>2026-04-19T12:29:47.002Z</time></trkpt><trkpt lat="42.25163921870545" lon="12.998522165765703"><ele>995.0</ele><time>2026-04-19T12:29:48.002Z</time></trkpt><trkpt lat="42.251680894220456" lon="12.998633443981046"><ele>995.0</ele><time>2026-04-19T12:29:49.002Z</time></trkpt><trkpt lat="42.251718940983565" lon="12.998733650401872"><ele>995.0</ele><time>2026-04-19T12:29:50.002Z</time></trkpt><trkpt lat="42.251753776555475" lon="12.998812314208244"><ele>995.0</ele><time>2026-04-19T12:29:51.002Z</time></trkpt><trkpt lat="42.25179008992288" lon="12.998893997831964"><ele>995.0</ele><time>2026-04-19T12:29:52.002Z</time></trkpt><trkpt lat="42.251813575073754" lon="12.99897589580513"><ele>995.0</ele><time>2026-04-19T12:29:53.002Z</time></trkpt><trkpt lat="42.25184055964947" lon="12.999067509335767"><ele>995.0</ele><time>2026-04-19T12:29:54.002Z</time></trkpt><trkpt lat="42.25187037805019" lon="12.999163171248108"><ele>995.0</ele><time>2026-04-19T12:29:55.002Z</time></trkpt><trkpt lat="42.25189816970844" lon="12.999260799337423"><ele>993.8</ele><time>2026-04-19T12:29:56.002Z</time></trkpt><trkpt lat="42.25191919239276" lon="12.999346939601647"><ele>992.6</ele><time>2026-04-19T12:29:57.002Z</time></trkpt><trkpt lat="42.25195316374157" lon="12.999499773085164"><ele>991.4000000000001</ele><time>2026-04-19T12:29:59.002Z</time></trkpt><trkpt lat="42.25197620906627" lon="12.999660555705459"><ele>990.2</ele><time>2026-04-19T12:30:01Z</time></trkpt><trkpt lat="42.25201102818312" lon="12.999742369067603"><ele>989.0</ele><time>2026-04-19T12:30:02Z</time></trkpt><trkpt lat="42.25203933653774" lon="12.99983908530895"><ele>989.0000000000001</ele><time>2026-04-19T12:30:03Z</time></trkpt><trkpt lat="42.25207688316372" lon="12.999944969132288"><ele>989.0</ele><time>2026-04-19T12:30:04Z</time></trkpt><trkpt lat="42.25211599068384" lon="13.000045112950593"><ele>989.0</ele><time>2026-04-19T12:30:05Z</time></trkpt><trkpt lat="42.25215690771972" lon="13.000136841323283"><ele>989.0</ele><time>2026-04-19T12:30:06Z</time></trkpt><trkpt lat="42.25220625920457" lon="13.000239464759275"><ele>989.0000000000001</ele><time>2026-04-19T12:30:07Z</time></trkpt><trkpt lat="42.25226153867865" lon="13.000344500432195"><ele>989.0</ele><time>2026-04-19T12:30:08Z</time></trkpt><trkpt lat="42.252320038515734" lon="13.000447470621113"><ele>989.0000000000001</ele><time>2026-04-19T12:30:09Z</time></trkpt><trkpt lat="42.25238276181169" lon="13.000541372026456"><ele>989.0</ele><time>2026-04-19T12:30:10Z</time></trkpt><trkpt lat="42.25245455562969" lon="13.000630280241161"><ele>989.0</ele><time>2026-04-19T12:30:11Z</time></trkpt><trkpt lat="42.25252339521491" lon="13.000698940618847"><ele>989.0</ele><time>2026-04-19T12:30:12Z</time></trkpt><trkpt lat="42.25258138198068" lon="13.000749945791183"><ele>989.0000000000001</ele><time>2026-04-19T12:30:13Z</time></trkpt><trkpt lat="42.252634977715715" lon="13.000796550046779"><ele>989.0</ele><time>2026-04-19T12:30:14Z</time></trkpt><trkpt lat="42.25269285950869" lon="13.000841990744657"><ele>989.0000000000001</ele><time>2026-04-19T12:30:15Z</time></trkpt><trkpt lat="42.25274671631533" lon="13.000891651699668"><ele>989.0</ele><time>2026-04-19T12:30:16Z</time></trkpt><trkpt lat="42.25280592331829" lon="13.00104272568427"><ele>989.0</ele><time>2026-04-19T12:30:18Z</time></trkpt><trkpt lat="42.25281578269718" lon="13.001150378515858"><ele>989.0</ele><time>2026-04-19T12:30:19Z</time></trkpt><trkpt lat="42.25282591769317" lon="13.001262476446618"><ele>989.0000000000001</ele><time>2026-04-19T12:30:20Z</time></trkpt><trkpt lat="42.252833589663766" lon="13.00136436881643"><ele>989.0</ele><time>2026-04-19T12:30:21Z</time></trkpt><trkpt lat="42.252843247628554" lon="13.001474564492185"><ele>989.0000000000001</ele><time>2026-04-19T12:30:22Z</time></trkpt><trkpt lat="42.252853991713955" lon="13.001582731289341"><ele>989.0</ele><time>2026-04-19T12:30:23Z</time></trkpt><trkpt lat="42.252868772529524" lon="13.001684728394883"><ele>989.0</ele><time>2026-04-19T12:30:24Z</time></trkpt><trkpt lat="42.2528858141038" lon="13.001782649927668"><ele>989.0</ele><time>2026-04-19T12:30:25Z</time></trkpt><trkpt lat="42.25290889597468" lon="13.001873341083826"><ele>989.0000000000001</ele><time>2026-04-19T12:30:26Z</time></trkpt><trkpt lat="42.25294342834302" lon="13.001945633473568"><ele>989.0</ele><time>2026-04-19T12:30:27Z</time></trkpt><trkpt lat="42.25304356982665" lon="13.00203263118816"><ele>989.8000000000001</ele><time>2026-04-19T12:30:29Z</time></trkpt><trkpt lat="42.25309994131258" lon="13.002090227119142"><ele>990.6000000000001</ele><time>2026-04-19T12:30:30Z</time></trkpt><trkpt lat="42.25318730865448" lon="13.002100077835406"><ele>991.4</ele><time>2026-04-19T12:30:31Z</time></trkpt><trkpt lat="42.253260999649974" lon="13.002096966606604"><ele>992.2</ele><time>2026-04-19T12:30:32Z</time></trkpt><trkpt lat="42.253402557031436" lon="13.002114222270103"><ele>993.0</ele><time>2026-04-19T12:30:34Z</time></trkpt><trkpt lat="42.253480617976635" lon="13.002122078495193"><ele>993.0</ele><time>2026-04-19T12:30:35Z</time></trkpt><trkpt lat="42.25355100687632" lon="13.002132411064256"><ele>993.0</ele><time>2026-04-19T12:30:36Z</time></trkpt><trkpt lat="42.253629049162846" lon="13.002140043404337"><ele>993.0</ele><time>2026-04-19T12:30:37Z</time></trkpt><trkpt lat="42.25370598877741" lon="13.002135876588055"><ele>993.0</ele><time>2026-04-19T12:30:38Z</time></trkpt><trkpt lat="42.25382316247811" lon="13.002119637166281"><ele>993.0</ele><time>2026-04-19T12:30:40Z</time></trkpt><trkpt lat="42.253929970842805" lon="13.002101352416169"><ele>995.8</ele><time>2026-04-19T12:30:42Z</time></trkpt><trkpt lat="42.254056337778" lon="13.002109265922025"><ele>998.5999999999999</ele><time>2026-04-19T12:30:44Z</time></trkpt><trkpt lat="42.25413674089397" lon="13.002088942210104"><ele>1001.4000000000001</ele><time>2026-04-19T12:30:45Z</time></trkpt><trkpt lat="42.254226580469116" lon="13.00210614662873"><ele>1004.2</ele><time>2026-04-19T12:30:46Z</time></trkpt><trkpt lat="42.25433551544755" lon="13.00213420373909"><ele>1007.0</ele><time>2026-04-19T12:30:47Z</time></trkpt><trkpt lat="42.25443981920237" lon="13.002191965870772"><ele>1007.0000000000001</ele><time>2026-04-19T12:30:48Z</time></trkpt><trkpt lat="42.25453699769636" lon="13.002220186285069"><ele>1007.0</ele><time>2026-04-19T12:30:49Z</time></trkpt><trkpt lat="42.25461923560019" lon="13.002240090129229"><ele>1007.0</ele><time>2026-04-19T12:30:50Z</time></trkpt><trkpt lat="42.25469704907422" lon="13.002233370358423"><ele>1007.0</ele><time>2026-04-19T12:30:51Z</time></trkpt><trkpt lat="42.254765043565" lon="13.002246836635393"><ele>1007.0000000000001</ele><time>2026-04-19T12:30:52Z</time></trkpt><trkpt lat="42.25483258381405" lon="13.002248619030576"><ele>1007.0</ele><time>2026-04-19T12:30:53Z</time></trkpt><trkpt lat="42.25490678457985" lon="13.002238321176955"><ele>1008.1666666666667</ele><time>2026-04-19T12:30:54Z</time></trkpt><trkpt lat="42.25498423359479" lon="13.00221464110413"><ele>1009.3333333333334</ele><time>2026-04-19T12:30:55Z</time></trkpt><trkpt lat="42.25505782372691" lon="13.002176821090337"><ele>1010.5</ele><time>2026-04-19T12:30:56Z</time></trkpt><trkpt lat="42.25511967498897" lon="13.0021451338995"><ele>1011.6666666666667</ele><time>2026-04-19T12:30:57Z</time></trkpt><trkpt lat="42.25517820882153" lon="13.002110236039998"><ele>1012.8333333333334</ele><time>2026-04-19T12:30:58Z</time></trkpt><trkpt lat="42.25528701073715" lon="13.002047060444774"><ele>1014.0</ele><time>2026-04-19T12:31:00Z</time></trkpt><trkpt lat="42.25535761321604" lon="13.002013365347269"><ele>1014.0</ele><time>2026-04-19T12:31:02Z</time></trkpt><trkpt lat="42.255426936478926" lon="13.002038078883775"><ele>1014.0000000000001</ele><time>2026-04-19T12:31:05.001Z</time></trkpt><trkpt lat="42.25531776080926" lon="13.002152625994196"><ele>1014.0000000000001</ele><time>2026-04-19T12:31:08.001Z</time></trkpt><trkpt lat="42.25523636520858" lon="13.002207994084717"><ele>1014.0</ele><time>2026-04-19T12:31:10.001Z</time></trkpt><trkpt lat="42.2551325351666" lon="13.00227613879692"><ele>1014.0</ele><time>2026-04-19T12:31:12.001Z</time></trkpt><trkpt lat="42.25503649948017" lon="13.002338594408549"><ele>1014.0</ele><time>2026-04-19T12:31:14.001Z</time></trkpt><trkpt lat="42.25498649587119" lon="13.002394629987089"><ele>1014.0</ele><time>2026-04-19T12:31:15.001Z</time></trkpt><trkpt lat="42.254925886831444" lon="13.002423584007685"><ele>1014.0</ele><time>2026-04-19T12:31:16.001Z</time></trkpt><trkpt lat="42.25486754418695" lon="13.002462857239474"><ele>1014.0</ele><time>2026-04-19T12:31:17.001Z</time></trkpt><trkpt lat="42.25475656956864" lon="13.002533016196153"><ele>1014.0</ele><time>2026-04-19T12:31:19.001Z</time></trkpt><trkpt lat="42.25464383455995" lon="13.002603205081671"><ele>1014.0</ele><time>2026-04-19T12:31:21.001Z</time></trkpt><trkpt lat="42.25458289054989" lon="13.002637766070325"><ele>1012.8571428571429</ele><time>2026-04-19T12:31:22.001Z</time></trkpt><trkpt lat="42.25451801002976" lon="13.002669823752532"><ele>1011.7142857142858</ele><time>2026-04-19T12:31:23.001Z</time></trkpt><trkpt lat="42.25444851055229" lon="13.002697826117945"><ele>1010.5714285714287</ele><time>2026-04-19T12:31:24.001Z</time></trkpt><trkpt lat="42.25437896290817" lon="13.002724018885722"><ele>1009.4285714285714</ele><time>2026-04-19T12:31:25.001Z</time></trkpt><trkpt lat="42.254307442996975" lon="13.00275131006498"><ele>1008.2857142857144</ele><time>2026-04-19T12:31:26.001Z</time></trkpt><trkpt lat="42.25423485198433" lon="13.002778307961673"><ele>1007.1428571428572</ele><time>2026-04-19T12:31:27.001Z</time></trkpt><trkpt lat="42.25416002412167" lon="13.002803745539188"><ele>1006.0</ele><time>2026-04-19T12:31:28.001Z</time></trkpt><trkpt lat="42.254086078800114" lon="13.002829513998266"><ele>1006.0</ele><time>2026-04-19T12:31:29.001Z</time></trkpt><trkpt lat="42.25401206280789" lon="13.00285843503432"><ele>1006.0000000000001</ele><time>2026-04-19T12:31:30.001Z</time></trkpt><trkpt lat="42.25393964831732" lon="13.002890255221217"><ele>1006.0</ele><time>2026-04-19T12:31:31.001Z</time></trkpt><trkpt lat="42.25386926564291" lon="13.002919946761986"><ele>1006.0</ele><time>2026-04-19T12:31:32.001Z</time></trkpt><trkpt lat="42.25380342169821" lon="13.002946821278949"><ele>1006.0000000000001</ele><time>2026-04-19T12:31:33.001Z</time></trkpt><trkpt lat="42.25373804323737" lon="13.002974905350044"><ele>1006.0</ele><time>2026-04-19T12:31:34.001Z</time></trkpt><trkpt lat="42.25367275092333" lon="13.003003463394867"><ele>1006.0</ele><time>2026-04-19T12:31:35.001Z</time></trkpt><trkpt lat="42.253558105852555" lon="13.003048928434083"><ele>1003.5999999999999</ele><time>2026-04-19T12:31:37.001Z</time></trkpt><trkpt lat="42.253456426782584" lon="13.003092280721335"><ele>1001.1999999999999</ele><time>2026-04-19T12:31:39.001Z</time></trkpt><trkpt lat="42.253363684166075" lon="13.003137253948672"><ele>998.8000000000001</ele><time>2026-04-19T12:31:41.001Z</time></trkpt><trkpt lat="42.25327543283791" lon="13.003167859761078"><ele>996.4000000000001</ele><time>2026-04-19T12:31:43.001Z</time></trkpt><trkpt lat="42.25318680764951" lon="13.003196086552837"><ele>994.0</ele><time>2026-04-19T12:31:45.001Z</time></trkpt><trkpt lat="42.25310406563205" lon="13.003235779691526"><ele>993.4285714285714</ele><time>2026-04-19T12:31:47.001Z</time></trkpt><trkpt lat="42.25303668201576" lon="13.003265706577022"><ele>992.8571428571429</ele><time>2026-04-19T12:31:49.001Z</time></trkpt><trkpt lat="42.25297537241485" lon="13.003292507251194"><ele>992.2857142857142</ele><time>2026-04-19T12:31:51.001Z</time></trkpt><trkpt lat="42.252889237116264" lon="13.003331246490639"><ele>991.7142857142857</ele><time>2026-04-19T12:31:54.001Z</time></trkpt><trkpt lat="42.25281105476847" lon="13.003355619889144"><ele>991.1428571428571</ele><time>2026-04-19T12:31:57.001Z</time></trkpt><trkpt lat="42.252751057762055" lon="13.00340615480877"><ele>990.5714285714284</ele><time>2026-04-19T12:33:02Z</time></trkpt><trkpt lat="42.252688770615975" lon="13.003448335293946"><ele>989.9999999999999</ele><time>2026-04-19T12:33:04Z</time></trkpt><trkpt lat="42.25260811799922" lon="13.003509294883147"><ele>989.9999999999999</ele><time>2026-04-19T12:33:07Z</time></trkpt><trkpt lat="42.25253875812376" lon="13.003591322097162"><ele>990.0</ele><time>2026-04-19T12:33:10.001Z</time></trkpt><trkpt lat="42.2524912424854" lon="13.003648467916332"><ele>989.9999999999999</ele><time>2026-04-19T12:33:12.001Z</time></trkpt><trkpt lat="42.252458424375696" lon="13.00372294902729"><ele>989.9999999999999</ele><time>2026-04-19T12:33:14.001Z</time></trkpt><trkpt lat="42.25242150343034" lon="13.003795113033423"><ele>990.0</ele><time>2026-04-19T12:33:16.001Z</time></trkpt><trkpt lat="42.252365821511304" lon="13.003850975450902"><ele>989.9999999999999</ele><time>2026-04-19T12:33:18.001Z</time></trkpt><trkpt lat="42.25230968151218" lon="13.003902706670525"><ele>989.9999999999999</ele><time>2026-04-19T12:33:20.001Z</time></trkpt><trkpt lat="42.252241346747546" lon="13.003918139419271"><ele>986.9999999999999</ele><time>2026-04-19T12:33:22.001Z</time></trkpt><trkpt lat="42.252179043615264" lon="13.003966639275752"><ele>984.0</ele><time>2026-04-19T12:33:24.001Z</time></trkpt><trkpt lat="42.252111027298994" lon="13.003992435537787"><ele>980.9999999999999</ele><time>2026-04-19T12:33:26.001Z</time></trkpt><trkpt lat="42.252048479254164" lon="13.004019136599686"><ele>977.9999999999999</ele><time>2026-04-19T12:33:28.001Z</time></trkpt><trkpt lat="42.251984522082864" lon="13.004046231405727"><ele>975.0</ele><time>2026-04-19T12:33:30.001Z</time></trkpt><trkpt lat="42.25191829130615" lon="13.004073361349873"><ele>971.9999999999999</ele><time>2026-04-19T12:33:32.001Z</time></trkpt><trkpt lat="42.25185502634109" lon="13.004105820380055"><ele>968.9999999999999</ele><time>2026-04-19T12:33:34.001Z</time></trkpt><trkpt lat="42.25179395317728" lon="13.00413388125728"><ele>971.6</ele><time>2026-04-19T12:33:36.001Z</time></trkpt><trkpt lat="42.25171906403007" lon="13.004168423369562"><ele>974.2</ele><time>2026-04-19T12:33:39.001Z</time></trkpt><trkpt lat="42.25164215211835" lon="13.004208703624064"><ele>976.8000000000001</ele><time>2026-04-19T12:33:42.001Z</time></trkpt><trkpt lat="42.251575389244486" lon="13.004259641804904"><ele>979.4000000000001</ele><time>2026-04-19T12:33:59.001Z</time></trkpt><trkpt lat="42.251673092693984" lon="13.00419773459081"><ele>982.0</ele><time>2026-04-19T12:34:15Z</time></trkpt><trkpt lat="42.251824966018084" lon="13.004163307847273"><ele>983.6</ele><time>2026-04-19T12:34:16Z</time></trkpt><trkpt lat="42.2519395547615" lon="13.004101288973844"><ele>985.2</ele><time>2026-04-19T12:34:17Z</time></trkpt><trkpt lat="42.252060676264236" lon="13.004039457141817"><ele>986.8</ele><time>2026-04-19T12:34:18Z</time></trkpt><trkpt lat="42.2521544596802" lon="13.00399116538061"><ele>988.4</ele><time>2026-04-19T12:34:19Z</time></trkpt><trkpt lat="42.252237529554506" lon="13.003963696833992"><ele>990.0</ele><time>2026-04-19T12:34:20Z</time></trkpt><trkpt lat="42.2523152613654" lon="13.003919804890563"><ele>990.0</ele><time>2026-04-19T12:34:21Z</time></trkpt><trkpt lat="42.25239443502622" lon="13.00384266130465"><ele>990.0</ele><time>2026-04-19T12:34:22Z</time></trkpt><trkpt lat="42.25247252288542" lon="13.00373150650093"><ele>990.0</ele><time>2026-04-19T12:34:23Z</time></trkpt><trkpt lat="42.25253882837282" lon="13.003623978430827"><ele>990.0</ele><time>2026-04-19T12:34:24Z</time></trkpt><trkpt lat="42.252591805802545" lon="13.003552691002069"><ele>990.0</ele><time>2026-04-19T12:34:25Z</time></trkpt><trkpt lat="42.25264247974792" lon="13.003495806554348"><ele>990.0</ele><time>2026-04-19T12:34:26Z</time></trkpt><trkpt lat="42.25270781803323" lon="13.00344361011609"><ele>990.0</ele><time>2026-04-19T12:34:27Z</time></trkpt><trkpt lat="42.25278754294081" lon="13.003395574556372"><ele>990.0</ele><time>2026-04-19T12:34:28Z</time></trkpt><trkpt lat="42.252895268438834" lon="13.003348962961924"><ele>990.0</ele><time>2026-04-19T12:34:29Z</time></trkpt><trkpt lat="42.2530247517465" lon="13.003293920943124"><ele>990.0</ele><time>2026-04-19T12:34:30Z</time></trkpt><trkpt lat="42.25319502150941" lon="13.003219004770976"><ele>990.8</ele><time>2026-04-19T12:34:31Z</time></trkpt><trkpt lat="42.25333155983804" lon="13.003162319713432"><ele>991.6</ele><time>2026-04-19T12:34:32Z</time></trkpt><trkpt lat="42.25342442366442" lon="13.00312775265648"><ele>992.4000000000001</ele><time>2026-04-19T12:34:33Z</time></trkpt><trkpt lat="42.253497266876785" lon="13.003103024675395"><ele>993.2</ele><time>2026-04-19T12:34:34Z</time></trkpt><trkpt lat="42.25357935840424" lon="13.003070202780314"><ele>994.0</ele><time>2026-04-19T12:34:36Z</time></trkpt><trkpt lat="42.25364463911566" lon="13.0030382329701"><ele>994.0</ele><time>2026-04-19T12:35:09.001Z</time></trkpt><trkpt lat="42.25372884529075" lon="13.00300190899813"><ele>994.0</ele><time>2026-04-19T12:35:10.001Z</time></trkpt><trkpt lat="42.25385717714025" lon="13.002954171824385"><ele>994.0</ele><time>2026-04-19T12:35:11.001Z</time></trkpt><trkpt lat="42.253978124968036" lon="13.002901908410225"><ele>994.0</ele><time>2026-04-19T12:35:12.001Z</time></trkpt><trkpt lat="42.25414538204422" lon="13.00282991367493"><ele>1000.0</ele><time>2026-04-19T12:35:13.001Z</time></trkpt><trkpt lat="42.25435100485605" lon="13.002746815818881"><ele>1006.0</ele><time>2026-04-19T12:35:14.001Z</time></trkpt><trkpt lat="42.25458219732072" lon="13.002670236396972"><ele>1006.0</ele><time>2026-04-19T12:35:15.001Z</time></trkpt><trkpt lat="42.25474894876579" lon="13.002559102905693"><ele>1006.0</ele><time>2026-04-19T12:35:16.001Z</time></trkpt><trkpt lat="42.2549048913301" lon="13.002467215649704"><ele>1006.0</ele><time>2026-04-19T12:35:17.001Z</time></trkpt><trkpt lat="42.25505543158461" lon="13.002371161393627"><ele>1007.5999999999999</ele><time>2026-04-19T12:35:18.001Z</time></trkpt><trkpt lat="42.25516603029225" lon="13.002293505485193"><ele>1009.1999999999999</ele><time>2026-04-19T12:35:19.001Z</time></trkpt><trkpt lat="42.25524921539828" lon="13.00223757839995"><ele>1010.8000000000001</ele><time>2026-04-19T12:35:20.001Z</time></trkpt><trkpt lat="42.25531700859396" lon="13.002196729789146"><ele>1012.4000000000001</ele><time>2026-04-19T12:35:21.001Z</time></trkpt><trkpt lat="42.25537879752077" lon="13.00214148694893"><ele>1014.0</ele><time>2026-04-19T12:35:24.001Z</time></trkpt><trkpt lat="42.25530716748217" lon="13.002210060809405"><ele>1014.0</ele><time>2026-04-19T12:36:09.001Z</time></trkpt><trkpt lat="42.25519518358348" lon="13.002245837329546"><ele>1014.0</ele><time>2026-04-19T12:36:11.001Z</time></trkpt><trkpt lat="42.2551079634297" lon="13.002308598126302"><ele>1014.0</ele><time>2026-04-19T12:36:12.001Z</time></trkpt><trkpt lat="42.254948429662754" lon="13.00243076799891"><ele>1014.0</ele><time>2026-04-19T12:36:13.001Z</time></trkpt><trkpt lat="42.25476880539555" lon="13.00221907727666"><ele>1011.6666666666667</ele><time>2026-04-19T12:36:14.001Z</time></trkpt><trkpt lat="42.25464230379361" lon="13.002201304166956"><ele>1009.3333333333334</ele><time>2026-04-19T12:36:15.001Z</time></trkpt><trkpt lat="42.25448687409684" lon="13.002174299987008"><ele>1007.0</ele><time>2026-04-19T12:36:16.001Z</time></trkpt><trkpt lat="42.254217303105804" lon="13.002786680188175"><ele>1006.75</ele><time>2026-04-19T12:36:17.001Z</time></trkpt><trkpt lat="42.25406463450052" lon="13.002819937264439"><ele>1006.5</ele><time>2026-04-19T12:36:18Z</time></trkpt><trkpt lat="42.253936364714555" lon="13.002899198475594"><ele>1006.25</ele><time>2026-04-19T12:36:19Z</time></trkpt><trkpt lat="42.25382303996833" lon="13.00294668204976"><ele>1006.0</ele><time>2026-04-19T12:36:20Z</time></trkpt><trkpt lat="42.25373938521207" lon="13.002977692450084"><ele>1003.9999999999999</ele><time>2026-04-19T12:36:21Z</time></trkpt><trkpt lat="42.25365724232589" lon="13.003015909156174"><ele>1002.0</ele><time>2026-04-19T12:36:23Z</time></trkpt><trkpt lat="42.25359159073788" lon="13.003045856354438"><ele>1000.0</ele><time>2026-04-19T12:36:34Z</time></trkpt><trkpt lat="42.25352285227003" lon="13.003049291286034"><ele>998.0</ele><time>2026-04-19T12:36:43Z</time></trkpt><trkpt lat="42.25342953495596" lon="13.003095256981306"><ele>995.9999999999999</ele><time>2026-04-19T12:36:45Z</time></trkpt><trkpt lat="42.253338702711744" lon="13.003137935812452"><ele>994.0</ele><time>2026-04-19T12:36:47Z</time></trkpt><trkpt lat="42.25323850067897" lon="13.00318263459203"><ele>993.0</ele><time>2026-04-19T12:36:49Z</time></trkpt><trkpt lat="42.25312188713608" lon="13.003216195100098"><ele>992.0</ele><time>2026-04-19T12:36:51Z</time></trkpt><trkpt lat="42.253004864497065" lon="13.003265684723559"><ele>991.0</ele><time>2026-04-19T12:36:53Z</time></trkpt><trkpt lat="42.252894269667905" lon="13.003327571817081"><ele>990.0</ele><time>2026-04-19T12:36:55Z</time></trkpt><trkpt lat="42.252784174648916" lon="13.00338118619519"><ele>990.0</ele><time>2026-04-19T12:36:57Z</time></trkpt><trkpt lat="42.252681623412755" lon="13.003453884954952"><ele>990.0</ele><time>2026-04-19T12:36:59Z</time></trkpt><trkpt lat="42.25257445483656" lon="13.003543581692552"><ele>990.0</ele><time>2026-04-19T12:37:01Z</time></trkpt><trkpt lat="42.25251626874055" lon="13.0036259880887"><ele>990.0</ele><time>2026-04-19T12:37:02Z</time></trkpt><trkpt lat="42.25246604769249" lon="13.003702455960045"><ele>990.0</ele><time>2026-04-19T12:37:03Z</time></trkpt><trkpt lat="42.25242048568281" lon="13.00376951056895"><ele>990.0</ele><time>2026-04-19T12:37:04Z</time></trkpt><trkpt lat="42.252334312247974" lon="13.003875537442134"><ele>990.0</ele><time>2026-04-19T12:37:06Z</time></trkpt><trkpt lat="42.25222116989055" lon="13.003925492858219"><ele>990.0</ele><time>2026-04-19T12:37:08Z</time></trkpt><trkpt lat="42.2521024950682" lon="13.003975741129386"><ele>990.0</ele><time>2026-04-19T12:37:10Z</time></trkpt><trkpt lat="42.25204331953915" lon="13.00402395185582"><ele>990.0</ele><time>2026-04-19T12:37:11Z</time></trkpt><trkpt lat="42.25197645213859" lon="13.00404849863643"><ele>988.8571428571427</ele><time>2026-04-19T12:37:12Z</time></trkpt><trkpt lat="42.25190869833087" lon="13.004082861400875"><ele>987.7142857142857</ele><time>2026-04-19T12:37:13Z</time></trkpt><trkpt lat="42.25183962580741" lon="13.00411677627738"><ele>986.5714285714284</ele><time>2026-04-19T12:37:14Z</time></trkpt><trkpt lat="42.25177185804037" lon="13.004151099824242"><ele>985.4285714285713</ele><time>2026-04-19T12:37:15Z</time></trkpt><trkpt lat="42.25170481279059" lon="13.004185385043623"><ele>984.2857142857142</ele><time>2026-04-19T12:37:16Z</time></trkpt><trkpt lat="42.25164034116798" lon="13.004223670382682"><ele>983.1428571428571</ele><time>2026-04-19T12:37:17Z</time></trkpt><trkpt lat="42.25158290379014" lon="13.004278053351566"><ele>982.0</ele><time>2026-04-19T12:37:18Z</time></trkpt><trkpt lat="42.25153349091856" lon="13.004346510174617"><ele>982.0</ele><time>2026-04-19T12:37:19Z</time></trkpt><trkpt lat="42.2514934937287" lon="13.004428458563472"><ele>981.9999999999999</ele><time>2026-04-19T12:37:20Z</time></trkpt><trkpt lat="42.25145796427365" lon="13.004518860371345"><ele>982.0</ele><time>2026-04-19T12:37:21.001Z</time></trkpt><trkpt lat="42.251423704029506" lon="13.004613382507838"><ele>982.0</ele><time>2026-04-19T12:37:22.001Z</time></trkpt><trkpt lat="42.25139267093159" lon="13.004709791597152"><ele>981.9999999999999</ele><time>2026-04-19T12:37:23.001Z</time></trkpt><trkpt lat="42.25136556851701" lon="13.004803803739415"><ele>982.0</ele><time>2026-04-19T12:37:24.001Z</time></trkpt><trkpt lat="42.251343416696706" lon="13.00489095042233"><ele>982.0</ele><time>2026-04-19T12:37:25.001Z</time></trkpt><trkpt lat="42.251333216721285" lon="13.00498018905744"><ele>982.3333333333333</ele><time>2026-04-19T12:37:26.001Z</time></trkpt><trkpt lat="42.25132330246796" lon="13.005069671657836"><ele>982.6666666666666</ele><time>2026-04-19T12:37:27.001Z</time></trkpt><trkpt lat="42.25131402774085" lon="13.005161103519331"><ele>983.0</ele><time>2026-04-19T12:37:28.001Z</time></trkpt><trkpt lat="42.251305495149786" lon="13.005254910454342"><ele>983.3333333333333</ele><time>2026-04-19T12:37:29.001Z</time></trkpt><trkpt lat="42.25130094813997" lon="13.005341652336355"><ele>983.6666666666666</ele><time>2026-04-19T12:37:30.001Z</time></trkpt><trkpt lat="42.25130904475498" lon="13.00548750704345"><ele>984.0</ele><time>2026-04-19T12:37:32.001Z</time></trkpt><trkpt lat="42.251325235585504" lon="13.005660828588136"><ele>984.0</ele><time>2026-04-19T12:37:34.001Z</time></trkpt><trkpt lat="42.251326459099" lon="13.005758287917134"><ele>984.0</ele><time>2026-04-19T12:37:35.001Z</time></trkpt><trkpt lat="42.25132001009097" lon="13.005861825584786"><ele>984.0</ele><time>2026-04-19T12:37:36.001Z</time></trkpt><trkpt lat="42.25130941716012" lon="13.005968192866808"><ele>984.0</ele><time>2026-04-19T12:37:37.001Z</time></trkpt><trkpt lat="42.25129306682459" lon="13.006084000110954"><ele>984.0</ele><time>2026-04-19T12:37:38.001Z</time></trkpt><trkpt lat="42.25126917114708" lon="13.006210256019669"><ele>984.0</ele><time>2026-04-19T12:37:39.001Z</time></trkpt><trkpt lat="42.25122721475281" lon="13.006342004123542"><ele>983.0</ele><time>2026-04-19T12:37:40.001Z</time></trkpt><trkpt lat="42.251173588648626" lon="13.006481389099843"><ele>982.0</ele><time>2026-04-19T12:37:41.001Z</time></trkpt><trkpt lat="42.25110811743491" lon="13.00661268341368"><ele>981.0</ele><time>2026-04-19T12:37:42.001Z</time></trkpt><trkpt lat="42.25102045333823" lon="13.006740618320258"><ele>980.0</ele><time>2026-04-19T12:37:43.001Z</time></trkpt><trkpt lat="42.2509173760415" lon="13.006859534601059"><ele>980.0</ele><time>2026-04-19T12:37:44.001Z</time></trkpt><trkpt lat="42.250800876985316" lon="13.006972220798296"><ele>980.0</ele><time>2026-04-19T12:37:45.001Z</time></trkpt><trkpt lat="42.25067064071114" lon="13.007082460015218"><ele>980.0</ele><time>2026-04-19T12:37:46.001Z</time></trkpt><trkpt lat="42.25053122804898" lon="13.007195864922245"><ele>978.6666666666667</ele><time>2026-04-19T12:37:47.001Z</time></trkpt><trkpt lat="42.25038429277145" lon="13.007318397878038"><ele>977.3333333333333</ele><time>2026-04-19T12:37:48.001Z</time></trkpt><trkpt lat="42.250234526841915" lon="13.007444616834775"><ele>976.0</ele><time>2026-04-19T12:37:49.001Z</time></trkpt><trkpt lat="42.25009143992618" lon="13.00756542619884"><ele>975.0</ele><time>2026-04-19T12:37:50.001Z</time></trkpt><trkpt lat="42.24994466254273" lon="13.007686237835832"><ele>974.0</ele><time>2026-04-19T12:37:51.001Z</time></trkpt><trkpt lat="42.249793612206496" lon="13.007809506632647"><ele>973.0</ele><time>2026-04-19T12:37:52.001Z</time></trkpt><trkpt lat="42.249639908794045" lon="13.00794190938663"><ele>972.3333333333333</ele><time>2026-04-19T12:37:53.001Z</time></trkpt><trkpt lat="42.24948851911377" lon="13.008093623005024"><ele>971.6666666666667</ele><time>2026-04-19T12:37:54.001Z</time></trkpt><trkpt lat="42.249336634496544" lon="13.008267317726807"><ele>971.0</ele><time>2026-04-19T12:37:55.001Z</time></trkpt><trkpt lat="42.249179506306604" lon="13.00845925950113"><ele>970.5</ele><time>2026-04-19T12:37:56.001Z</time></trkpt><trkpt lat="42.24900493154556" lon="13.008679180637536"><ele>970.0</ele><time>2026-04-19T12:37:57.001Z</time></trkpt><trkpt lat="42.24883425263494" lon="13.008895211595108"><ele>969.0</ele><time>2026-04-19T12:37:58.001Z</time></trkpt><trkpt lat="42.24868588940851" lon="13.00908543092153"><ele>968.0</ele><time>2026-04-19T12:37:59.001Z</time></trkpt><trkpt lat="42.24856471512565" lon="13.009240071638573"><ele>967.0</ele><time>2026-04-19T12:38:00.001Z</time></trkpt><trkpt lat="42.24844805289534" lon="13.009379865656234"><ele>966.6</ele><time>2026-04-19T12:38:01.001Z</time></trkpt><trkpt lat="42.24835092909481" lon="13.009497663118621"><ele>966.2</ele><time>2026-04-19T12:38:02.001Z</time></trkpt><trkpt lat="42.24826913364663" lon="13.009587008254003"><ele>965.8</ele><time>2026-04-19T12:38:03.001Z</time></trkpt><trkpt lat="42.248185068137026" lon="13.009661624657445"><ele>965.4</ele><time>2026-04-19T12:38:04.001Z</time></trkpt><trkpt lat="42.248088303020744" lon="13.009711188527644"><ele>965.0</ele><time>2026-04-19T12:38:05.001Z</time></trkpt><trkpt lat="42.247978012542085" lon="13.009734619056847"><ele>964.75</ele><time>2026-04-19T12:38:06.001Z</time></trkpt><trkpt lat="42.2478534817868" lon="13.009735221556758"><ele>964.5</ele><time>2026-04-19T12:38:07.001Z</time></trkpt><trkpt lat="42.24770885035776" lon="13.009711648010313"><ele>964.25</ele><time>2026-04-19T12:38:08.001Z</time></trkpt><trkpt lat="42.24753836293783" lon="13.009665900534811"><ele>964.0</ele><time>2026-04-19T12:38:09.001Z</time></trkpt><trkpt lat="42.247373753596186" lon="13.009627801938162"><ele>961.6666666666666</ele><time>2026-04-19T12:38:10.001Z</time></trkpt><trkpt lat="42.24721565862377" lon="13.009617887720534"><ele>959.3333333333333</ele><time>2026-04-19T12:38:11.001Z</time></trkpt><trkpt lat="42.24704469067696" lon="13.009644664403536"><ele>957.0</ele><time>2026-04-19T12:38:12.001Z</time></trkpt><trkpt lat="42.24686848204681" lon="13.009711325145638"><ele>957.0</ele><time>2026-04-19T12:38:13.001Z</time></trkpt><trkpt lat="42.2466709630466" lon="13.009806547049003"><ele>957.0</ele><time>2026-04-19T12:38:14.001Z</time></trkpt><trkpt lat="42.24645833730756" lon="13.00990046216371"><ele>957.0</ele><time>2026-04-19T12:38:15.001Z</time></trkpt><trkpt lat="42.24624448548328" lon="13.00998397370067"><ele>953.0</ele><time>2026-04-19T12:38:16.001Z</time></trkpt><trkpt lat="42.246050673480674" lon="13.010060834918578"><ele>949.0</ele><time>2026-04-19T12:38:17.001Z</time></trkpt><trkpt lat="42.24588925391333" lon="13.010127141174335"><ele>945.0</ele><time>2026-04-19T12:38:18.001Z</time></trkpt><trkpt lat="42.245748323425516" lon="13.010194103279309"><ele>939.6666666666667</ele><time>2026-04-19T12:38:19.001Z</time></trkpt><trkpt lat="42.24561361304054" lon="13.010295900279573"><ele>934.3333333333334</ele><time>2026-04-19T12:38:20.001Z</time></trkpt><trkpt lat="42.24548016596533" lon="13.010433038170246"><ele>929.0</ele><time>2026-04-19T12:38:21.001Z</time></trkpt><trkpt lat="42.245344842281185" lon="13.010602470515282"><ele>929.0</ele><time>2026-04-19T12:38:22.001Z</time></trkpt><trkpt lat="42.24521920842329" lon="13.010796116593507"><ele>929.0</ele><time>2026-04-19T12:38:23.001Z</time></trkpt><trkpt lat="42.24512141959298" lon="13.011000255148106"><ele>929.0</ele><time>2026-04-19T12:38:24Z</time></trkpt><trkpt lat="42.24504615304149" lon="13.011205528685563"><ele>929.6666666666667</ele><time>2026-04-19T12:38:25Z</time></trkpt><trkpt lat="42.2449959097902" lon="13.011406544380947"><ele>930.3333333333333</ele><time>2026-04-19T12:38:26Z</time></trkpt><trkpt lat="42.24495010686427" lon="13.011638958449192"><ele>931.0</ele><time>2026-04-19T12:38:27Z</time></trkpt><trkpt lat="42.24490589540935" lon="13.011922752244772"><ele>931.0</ele><time>2026-04-19T12:38:28Z</time></trkpt><trkpt lat="42.24486813632856" lon="13.01219235261467"><ele>931.0</ele><time>2026-04-19T12:38:29Z</time></trkpt><trkpt lat="42.24483357656107" lon="13.012437109000693"><ele>931.0</ele><time>2026-04-19T12:38:30Z</time></trkpt><trkpt lat="42.244801007791715" lon="13.012663814381773"><ele>929.5</ele><time>2026-04-19T12:38:31Z</time></trkpt><trkpt lat="42.24476867787551" lon="13.01286096683843"><ele>928.0</ele><time>2026-04-19T12:38:32Z</time></trkpt><trkpt lat="42.244735984729175" lon="13.013032114196244"><ele>926.5</ele><time>2026-04-19T12:38:33Z</time></trkpt><trkpt lat="42.24470467032695" lon="13.013171873539052"><ele>925.0</ele><time>2026-04-19T12:38:34Z</time></trkpt><trkpt lat="42.24467305285849" lon="13.013278303328194"><ele>924.0</ele><time>2026-04-19T12:38:35Z</time></trkpt><trkpt lat="42.2446304637191" lon="13.013368559750141"><ele>923.0</ele><time>2026-04-19T12:38:36Z</time></trkpt><trkpt lat="42.24457073750939" lon="13.013465794147347"><ele>922.0</ele><time>2026-04-19T12:38:37Z</time></trkpt><trkpt lat="42.2444870036211" lon="13.013550304017494"><ele>921.0</ele><time>2026-04-19T12:38:38Z</time></trkpt><trkpt lat="42.24438900349604" lon="13.013608948998646"><ele>920.0</ele><time>2026-04-19T12:38:39Z</time></trkpt><trkpt lat="42.24428090886031" lon="13.013638350038827"><ele>920.0</ele><time>2026-04-19T12:38:40Z</time></trkpt><trkpt lat="42.24416591045814" lon="13.013635668079942"><ele>920.0</ele><time>2026-04-19T12:38:41Z</time></trkpt><trkpt lat="42.24404629688373" lon="13.013595070456487"><ele>920.0</ele><time>2026-04-19T12:38:42Z</time></trkpt><trkpt lat="42.24391947262398" lon="13.013518732486244"><ele>920.0</ele><time>2026-04-19T12:38:43Z</time></trkpt><trkpt lat="42.24377509168325" lon="13.01341052368688"><ele>915.0</ele><time>2026-04-19T12:38:44Z</time></trkpt><trkpt lat="42.24363243018636" lon="13.013293407132307"><ele>910.0</ele><time>2026-04-19T12:38:45Z</time></trkpt><trkpt lat="42.24350452535173" lon="13.013182529357561"><ele>905.0</ele><time>2026-04-19T12:38:46Z</time></trkpt><trkpt lat="42.24338556087784" lon="13.0130734857279"><ele>905.0</ele><time>2026-04-19T12:38:47Z</time></trkpt><trkpt lat="42.24328529327186" lon="13.012963133278756"><ele>905.0</ele><time>2026-04-19T12:38:48Z</time></trkpt><trkpt lat="42.243204368265225" lon="13.012855300222135"><ele>905.0</ele><time>2026-04-19T12:38:49Z</time></trkpt><trkpt lat="42.24315262119408" lon="13.012753345970758"><ele>905.0</ele><time>2026-04-19T12:38:50Z</time></trkpt><trkpt lat="42.243116684935316" lon="13.012631455555491"><ele>905.0</ele><time>2026-04-19T12:38:51Z</time></trkpt><trkpt lat="42.243105338553825" lon="13.012499203933267"><ele>903.6</ele><time>2026-04-19T12:38:52Z</time></trkpt><trkpt lat="42.24312162898337" lon="13.012368320232547"><ele>902.2</ele><time>2026-04-19T12:38:53Z</time></trkpt><trkpt lat="42.24316440943999" lon="13.012242661316531"><ele>900.8</ele><time>2026-04-19T12:38:54Z</time></trkpt><trkpt lat="42.243231753407485" lon="13.012115294125067"><ele>899.4</ele><time>2026-04-19T12:38:55Z</time></trkpt><trkpt lat="42.24330878487184" lon="13.011978931093962"><ele>898.0</ele><time>2026-04-19T12:38:56Z</time></trkpt><trkpt lat="42.24335633405417" lon="13.01183809374715"><ele>898.0</ele><time>2026-04-19T12:38:57Z</time></trkpt><trkpt lat="42.2433781476355" lon="13.011678410397348"><ele>898.0</ele><time>2026-04-19T12:38:58Z</time></trkpt><trkpt lat="42.243387642962716" lon="13.011480080715378"><ele>898.0</ele><time>2026-04-19T12:38:59Z</time></trkpt><trkpt lat="42.243406486307386" lon="13.011294867986516"><ele>898.0</ele><time>2026-04-19T12:39:00Z</time></trkpt><trkpt lat="42.24345953795636" lon="13.011116391703208"><ele>895.75</ele><time>2026-04-19T12:39:01Z</time></trkpt><trkpt lat="42.24354123996583" lon="13.010916551197287"><ele>893.5</ele><time>2026-04-19T12:39:02Z</time></trkpt><trkpt lat="42.24361516736074" lon="13.010756874311397"><ele>891.25</ele><time>2026-04-19T12:39:03Z</time></trkpt><trkpt lat="42.243673280501596" lon="13.010626463382199"><ele>889.0</ele><time>2026-04-19T12:39:04Z</time></trkpt><trkpt lat="42.243705777514876" lon="13.010520551693954"><ele>886.3333333333333</ele><time>2026-04-19T12:39:05Z</time></trkpt><trkpt lat="42.24370077772576" lon="13.010416471676175"><ele>883.6666666666666</ele><time>2026-04-19T12:39:06Z</time></trkpt><trkpt lat="42.24366026744997" lon="13.010302916294517"><ele>881.0</ele><time>2026-04-19T12:39:07Z</time></trkpt><trkpt lat="42.243596732406274" lon="13.01022849611098"><ele>878.3333333333333</ele><time>2026-04-19T12:39:08Z</time></trkpt><trkpt lat="42.24352570696493" lon="13.010202688337868"><ele>875.6666666666666</ele><time>2026-04-19T12:39:09Z</time></trkpt><trkpt lat="42.24345276507838" lon="13.010226610092293"><ele>873.0</ele><time>2026-04-19T12:39:10Z</time></trkpt><trkpt lat="42.24338856242806" lon="13.01028633325901"><ele>873.0</ele><time>2026-04-19T12:39:11Z</time></trkpt><trkpt lat="42.243315502281135" lon="13.010394906403285"><ele>873.0</ele><time>2026-04-19T12:39:12Z</time></trkpt><trkpt lat="42.243220103025074" lon="13.010547524175102"><ele>873.0</ele><time>2026-04-19T12:39:13.001Z</time></trkpt><trkpt lat="42.2431031612663" lon="13.010721531328821"><ele>873.0</ele><time>2026-04-19T12:39:14.001Z</time></trkpt><trkpt lat="42.24298462617093" lon="13.010893028040108"><ele>868.0</ele><time>2026-04-19T12:39:15.001Z</time></trkpt><trkpt lat="42.24286663279703" lon="13.01106304489023"><ele>863.0</ele><time>2026-04-19T12:39:16.001Z</time></trkpt><trkpt lat="42.24276874434119" lon="13.011234987282968"><ele>858.0</ele><time>2026-04-19T12:39:17.001Z</time></trkpt><trkpt lat="42.24269396660861" lon="13.011428607150533"><ele>858.0</ele><time>2026-04-19T12:39:18.001Z</time></trkpt><trkpt lat="42.24264060832625" lon="13.011624113104023"><ele>858.0</ele><time>2026-04-19T12:39:19.001Z</time></trkpt><trkpt lat="42.242587039809514" lon="13.011791684385758"><ele>858.0</ele><time>2026-04-19T12:39:20.001Z</time></trkpt><trkpt lat="42.24253183347317" lon="13.011930466912336"><ele>858.0</ele><time>2026-04-19T12:39:21.001Z</time></trkpt><trkpt lat="42.2424570566707" lon="13.01205349503212"><ele>861.0</ele><time>2026-04-19T12:39:22.001Z</time></trkpt><trkpt lat="42.24235686870506" lon="13.012149331794785"><ele>864.0</ele><time>2026-04-19T12:39:23.001Z</time></trkpt><trkpt lat="42.24222581833377" lon="13.012230836141155"><ele>867.0</ele><time>2026-04-19T12:39:24.001Z</time></trkpt><trkpt lat="42.24205579955129" lon="13.012309571275976"><ele>870.0</ele><time>2026-04-19T12:39:25.001Z</time></trkpt><trkpt lat="42.24185883637279" lon="13.012388718876544"><ele>866.3333333333333</ele><time>2026-04-19T12:39:26.001Z</time></trkpt><trkpt lat="42.241688032344115" lon="13.012471169858566"><ele>862.6666666666666</ele><time>2026-04-19T12:39:27.001Z</time></trkpt><trkpt lat="42.241518835391396" lon="13.012577623025967"><ele>859.0</ele><time>2026-04-19T12:39:28.001Z</time></trkpt><trkpt lat="42.24134044364147" lon="13.012718256881305"><ele>847.0</ele><time>2026-04-19T12:39:29.001Z</time></trkpt><trkpt lat="42.24116274085493" lon="13.012890378610463"><ele>835.0</ele><time>2026-04-19T12:39:30.001Z</time></trkpt><trkpt lat="42.24097481250657" lon="13.013098551289831"><ele>841.5</ele><time>2026-04-19T12:39:31.001Z</time></trkpt><trkpt lat="42.24076661213428" lon="13.013346140655536"><ele>848.0</ele><time>2026-04-19T12:39:32.001Z</time></trkpt><trkpt lat="42.24055109319699" lon="13.013611123974961"><ele>833.0</ele><time>2026-04-19T12:39:33.001Z</time></trkpt><trkpt lat="42.24035522250569" lon="13.013874321407291"><ele>818.0</ele><time>2026-04-19T12:39:34.001Z</time></trkpt><trkpt lat="42.240172260779005" lon="13.014127948764694"><ele>824.0</ele><time>2026-04-19T12:39:35.001Z</time></trkpt><trkpt lat="42.24000299223191" lon="13.014371686373774"><ele>830.0</ele><time>2026-04-19T12:39:36.001Z</time></trkpt><trkpt lat="42.239854160148276" lon="13.014592300772996"><ele>824.3333333333334</ele><time>2026-04-19T12:39:37.001Z</time></trkpt><trkpt lat="42.23973384980553" lon="13.014791047652364"><ele>818.6666666666667</ele><time>2026-04-19T12:39:38.001Z</time></trkpt><trkpt lat="42.239622333781234" lon="13.01496315479678"><ele>813.0</ele><time>2026-04-19T12:39:39.001Z</time></trkpt><trkpt lat="42.239539557601944" lon="13.01511344510108"><ele>813.0</ele><time>2026-04-19T12:39:40.001Z</time></trkpt><trkpt lat="42.23947352540495" lon="13.015293614318832"><ele>813.0</ele><time>2026-04-19T12:39:41.001Z</time></trkpt><trkpt lat="42.239438138665385" lon="13.015493920756466"><ele>813.0</ele><time>2026-04-19T12:39:42.001Z</time></trkpt><trkpt lat="42.239410189683696" lon="13.015662798792608"><ele>813.0</ele><time>2026-04-19T12:39:43.001Z</time></trkpt><trkpt lat="42.239389680873735" lon="13.015763516286313"><ele>813.0</ele><time>2026-04-19T12:39:44.001Z</time></trkpt><trkpt lat="42.23935379155991" lon="13.015839648019218"><ele>813.0</ele><time>2026-04-19T12:39:45.001Z</time></trkpt><trkpt lat="42.23929640524948" lon="13.015885652573365"><ele>813.0</ele><time>2026-04-19T12:39:46.001Z</time></trkpt><trkpt lat="42.23922427431304" lon="13.015885737104659"><ele>813.0</ele><time>2026-04-19T12:39:47.001Z</time></trkpt><trkpt lat="42.23916380760527" lon="13.015833959344022"><ele>813.0</ele><time>2026-04-19T12:39:48.001Z</time></trkpt><trkpt lat="42.23913454378828" lon="13.015740345360276"><ele>813.0</ele><time>2026-04-19T12:39:49.001Z</time></trkpt><trkpt lat="42.239150279911975" lon="13.015617062467381"><ele>813.0</ele><time>2026-04-19T12:39:50.001Z</time></trkpt><trkpt lat="42.2391424242927" lon="13.015469493832457"><ele>813.0</ele><time>2026-04-19T12:39:51.001Z</time></trkpt><trkpt lat="42.23916092782218" lon="13.015310723663417"><ele>813.0</ele><time>2026-04-19T12:39:52.001Z</time></trkpt><trkpt lat="42.23918561281428" lon="13.015152473725765"><ele>813.0</ele><time>2026-04-19T12:39:53.001Z</time></trkpt><trkpt lat="42.23922340913336" lon="13.014979699629839"><ele>813.0</ele><time>2026-04-19T12:39:54.001Z</time></trkpt><trkpt lat="42.23928358693755" lon="13.01481214840752"><ele>808.3333333333333</ele><time>2026-04-19T12:39:55.001Z</time></trkpt><trkpt lat="42.239366357374095" lon="13.014668944595742"><ele>803.6666666666666</ele><time>2026-04-19T12:39:56.001Z</time></trkpt><trkpt lat="42.239483591527815" lon="13.014518077348281"><ele>799.0</ele><time>2026-04-19T12:39:57.001Z</time></trkpt><trkpt lat="42.2396024679288" lon="13.01437659523625"><ele>799.0</ele><time>2026-04-19T12:39:58.001Z</time></trkpt><trkpt lat="42.23969510276061" lon="13.014242734101733"><ele>799.0</ele><time>2026-04-19T12:39:59.001Z</time></trkpt><trkpt lat="42.23977482036675" lon="13.014132510844309"><ele>799.0</ele><time>2026-04-19T12:40:00.001Z</time></trkpt><trkpt lat="42.23983755343342" lon="13.014005934924644"><ele>799.0</ele><time>2026-04-19T12:40:01.001Z</time></trkpt><trkpt lat="42.23987042963833" lon="13.01387569006154"><ele>796.9999999999999</ele><time>2026-04-19T12:40:02.001Z</time></trkpt><trkpt lat="42.23989876163029" lon="13.013772326858824"><ele>795.0</ele><time>2026-04-19T12:40:03.001Z</time></trkpt><trkpt lat="42.23988263219391" lon="13.013667556472962"><ele>793.0</ele><time>2026-04-19T12:40:04.001Z</time></trkpt><trkpt lat="42.23982226988956" lon="13.013584844597638"><ele>791.0</ele><time>2026-04-19T12:40:05.001Z</time></trkpt><trkpt lat="42.23974559762552" lon="13.013533685821455"><ele>788.9999999999999</ele><time>2026-04-19T12:40:06.001Z</time></trkpt><trkpt lat="42.23965863259036" lon="13.013535090099062"><ele>787.0</ele><time>2026-04-19T12:40:07.001Z</time></trkpt><trkpt lat="42.23958622225801" lon="13.013648916601433"><ele>787.0</ele><time>2026-04-19T12:40:08.001Z</time></trkpt><trkpt lat="42.23951202925166" lon="13.013770572186408"><ele>787.0</ele><time>2026-04-19T12:40:09.001Z</time></trkpt><trkpt lat="42.2394289509775" lon="13.013950961905932"><ele>787.0</ele><time>2026-04-19T12:40:10.001Z</time></trkpt><trkpt lat="42.239362126737554" lon="13.01410889104229"><ele>787.0</ele><time>2026-04-19T12:40:11.001Z</time></trkpt><trkpt lat="42.23929586103587" lon="13.014223672576517"><ele>786.9999999999999</ele><time>2026-04-19T12:40:12.001Z</time></trkpt><trkpt lat="42.2392256220222" lon="13.014302872135051"><ele>787.0</ele><time>2026-04-19T12:40:13.001Z</time></trkpt><trkpt lat="42.239149583896065" lon="13.0143345715865"><ele>787.0</ele><time>2026-04-19T12:40:14.001Z</time></trkpt><trkpt lat="42.23907721709151" lon="13.01431928195591"><ele>787.0</ele><time>2026-04-19T12:40:15.001Z</time></trkpt><trkpt lat="42.239021802586365" lon="13.01425352755651"><ele>786.9999999999999</ele><time>2026-04-19T12:40:16.001Z</time></trkpt><trkpt lat="42.23899925589899" lon="13.014149798761627"><ele>787.0</ele><time>2026-04-19T12:40:17.001Z</time></trkpt><trkpt lat="42.239017071294214" lon="13.01404059710734"><ele>787.0</ele><time>2026-04-19T12:40:18.001Z</time></trkpt><trkpt lat="42.239068579105435" lon="13.013908629118138"><ele>787.0</ele><time>2026-04-19T12:40:19.001Z</time></trkpt><trkpt lat="42.23915511142188" lon="13.013751013388518"><ele>787.0</ele><time>2026-04-19T12:40:20.001Z</time></trkpt><trkpt lat="42.23926242711647" lon="13.013588976386986"><ele>787.0</ele><time>2026-04-19T12:40:21.001Z</time></trkpt><trkpt lat="42.23937701261117" lon="13.013424982606635"><ele>788.6</ele><time>2026-04-19T12:40:22.001Z</time></trkpt><trkpt lat="42.23947052504097" lon="13.013280956402918"><ele>790.2</ele><time>2026-04-19T12:40:23.001Z</time></trkpt><trkpt lat="42.23953698084048" lon="13.013158436100795"><ele>791.8</ele><time>2026-04-19T12:40:24.001Z</time></trkpt><trkpt lat="42.239567587912106" lon="13.013054390793952"><ele>793.4</ele><time>2026-04-19T12:40:25.001Z</time></trkpt><trkpt lat="42.2395721529291" lon="13.01295426172669"><ele>795.0</ele><time>2026-04-19T12:40:26.001Z</time></trkpt><trkpt lat="42.23951507040755" lon="13.01283767326869"><ele>795.0</ele><time>2026-04-19T12:40:27.001Z</time></trkpt><trkpt lat="42.23943012277191" lon="13.012772879411555"><ele>795.0</ele><time>2026-04-19T12:40:28.001Z</time></trkpt><trkpt lat="42.23932184400661" lon="13.012794882868516"><ele>795.0</ele><time>2026-04-19T12:40:29.001Z</time></trkpt><trkpt lat="42.23923988794327" lon="13.012897735614695"><ele>795.0</ele><time>2026-04-19T12:40:30.001Z</time></trkpt><trkpt lat="42.239146548974155" lon="13.013031926300114"><ele>795.0</ele><time>2026-04-19T12:40:31.001Z</time></trkpt><trkpt lat="42.23903449327833" lon="13.013209213531178"><ele>795.0</ele><time>2026-04-19T12:40:32.001Z</time></trkpt><trkpt lat="42.23891169621112" lon="13.013386771595368"><ele>795.0</ele><time>2026-04-19T12:40:33.001Z</time></trkpt><trkpt lat="42.23877828441879" lon="13.01357646651934"><ele>794.3333333333333</ele><time>2026-04-19T12:40:34.001Z</time></trkpt><trkpt lat="42.23865289986671" lon="13.013753679451263"><ele>793.6666666666666</ele><time>2026-04-19T12:40:35.001Z</time></trkpt><trkpt lat="42.23853507477098" lon="13.013918889714926"><ele>793.0</ele><time>2026-04-19T12:40:36.001Z</time></trkpt><trkpt lat="42.23843208000306" lon="13.014069714947233"><ele>789.5</ele><time>2026-04-19T12:40:37.001Z</time></trkpt><trkpt lat="42.23834284774309" lon="13.014203530714989"><ele>786.0</ele><time>2026-04-19T12:40:38.001Z</time></trkpt><trkpt lat="42.238271442652916" lon="13.014370998448026"><ele>782.5</ele><time>2026-04-19T12:40:39.001Z</time></trkpt><trkpt lat="42.23822326845545" lon="13.014592789907276"><ele>779.0</ele><time>2026-04-19T12:40:40.001Z</time></trkpt><trkpt lat="42.23818552908371" lon="13.01487593458401"><ele>777.6666666666667</ele><time>2026-04-19T12:40:41.001Z</time></trkpt><trkpt lat="42.23814811113732" lon="13.015170315847554"><ele>776.3333333333333</ele><time>2026-04-19T12:40:42.001Z</time></trkpt><trkpt lat="42.23809575569234" lon="13.01544530365881"><ele>775.0</ele><time>2026-04-19T12:40:43.001Z</time></trkpt><trkpt lat="42.238036049453946" lon="13.01568143321207"><ele>772.25</ele><time>2026-04-19T12:40:44.001Z</time></trkpt><trkpt lat="42.23799101821243" lon="13.01588203233592"><ele>769.5</ele><time>2026-04-19T12:40:45.001Z</time></trkpt><trkpt lat="42.237977482821236" lon="13.016066444794623"><ele>766.75</ele><time>2026-04-19T12:40:46.001Z</time></trkpt><trkpt lat="42.23801531067537" lon="13.01625325862511"><ele>764.0</ele><time>2026-04-19T12:40:47.001Z</time></trkpt><trkpt lat="42.238092059242035" lon="13.016444189496621"><ele>762.6666666666666</ele><time>2026-04-19T12:40:48.001Z</time></trkpt><trkpt lat="42.23817166462781" lon="13.016625031713524"><ele>761.3333333333334</ele><time>2026-04-19T12:40:49.001Z</time></trkpt><trkpt lat="42.23823041702043" lon="13.016820191923353"><ele>760.0</ele><time>2026-04-19T12:40:50Z</time></trkpt><trkpt lat="42.23827575791234" lon="13.017031355122228"><ele>760.0</ele><time>2026-04-19T12:40:51Z</time></trkpt><trkpt lat="42.238311390466976" lon="13.017215140875273"><ele>760.0</ele><time>2026-04-19T12:40:52Z</time></trkpt><trkpt lat="42.238330364382705" lon="13.017385892049129"><ele>760.0</ele><time>2026-04-19T12:40:53Z</time></trkpt><trkpt lat="42.23832553804863" lon="13.017593247464468"><ele>760.0</ele><time>2026-04-19T12:40:54Z</time></trkpt><trkpt lat="42.238299124211196" lon="13.017831384147453"><ele>755.3333333333334</ele><time>2026-04-19T12:40:55Z</time></trkpt><trkpt lat="42.238278579235654" lon="13.018112868408627"><ele>750.6666666666666</ele><time>2026-04-19T12:40:56Z</time></trkpt><trkpt lat="42.238262855441896" lon="13.01836120838837"><ele>746.0</ele><time>2026-04-19T12:40:57Z</time></trkpt><trkpt lat="42.23825061251505" lon="13.018592447130178"><ele>743.0</ele><time>2026-04-19T12:40:58Z</time></trkpt><trkpt lat="42.23824422008511" lon="13.018786726912245"><ele>740.0</ele><time>2026-04-19T12:40:59Z</time></trkpt><trkpt lat="42.238242586351326" lon="13.018935242334498"><ele>737.0</ele><time>2026-04-19T12:41:00Z</time></trkpt><trkpt lat="42.23823576598649" lon="13.019079376052215"><ele>734.0</ele><time>2026-04-19T12:41:01Z</time></trkpt><trkpt lat="42.23823230756754" lon="13.019203441690134"><ele>733.0</ele><time>2026-04-19T12:41:02.001Z</time></trkpt><trkpt lat="42.23822875360882" lon="13.019289642215357"><ele>732.0</ele><time>2026-04-19T12:41:03.001Z</time></trkpt><trkpt lat="42.23822119558121" lon="13.019376966772054"><ele>731.0</ele><time>2026-04-19T12:41:05.001Z</time></trkpt><trkpt lat="42.238241464480645" lon="13.019470305015753"><ele>730.0</ele><time>2026-04-19T12:42:11.001Z</time></trkpt><trkpt lat="42.238132694821815" lon="13.019567153722937"><ele>729.0</ele><time>2026-04-19T12:42:14.001Z</time></trkpt><trkpt lat="42.238100455736024" lon="13.019686839377913"><ele>728.0</ele><time>2026-04-19T12:42:21.001Z</time></trkpt><trkpt lat="42.23805004629354" lon="13.019852441088572"><ele>731.0</ele><time>2026-04-19T12:42:23.001Z</time></trkpt><trkpt lat="42.238019511678935" lon="13.019959458886335"><ele>734.0</ele><time>2026-04-19T12:42:24.001Z</time></trkpt><trkpt lat="42.23799566627182" lon="13.020070999645608"><ele>737.0</ele><time>2026-04-19T12:42:25.001Z</time></trkpt><trkpt lat="42.23796016604932" lon="13.020168440247934"><ele>740.0</ele><time>2026-04-19T12:42:26.001Z</time></trkpt><trkpt lat="42.23796793909285" lon="13.020276213156956"><ele>743.0</ele><time>2026-04-19T12:42:27.001Z</time></trkpt><trkpt lat="42.23797564162746" lon="13.020384956953125"><ele>746.0</ele><time>2026-04-19T12:42:28.001Z</time></trkpt><trkpt lat="42.237989165197455" lon="13.02049658719527"><ele>746.0</ele><time>2026-04-19T12:42:29.001Z</time></trkpt><trkpt lat="42.23800116989161" lon="13.020613406443077"><ele>746.0</ele><time>2026-04-19T12:42:30.001Z</time></trkpt><trkpt lat="42.238012407529695" lon="13.02073852766686"><ele>746.0</ele><time>2026-04-19T12:42:31.001Z</time></trkpt><trkpt lat="42.23802680961348" lon="13.020885046091566"><ele>746.0</ele><time>2026-04-19T12:42:32.001Z</time></trkpt><trkpt lat="42.238050825281256" lon="13.021040400638984"><ele>746.0</ele><time>2026-04-19T12:42:33.001Z</time></trkpt><trkpt lat="42.238099307541674" lon="13.021246387975564"><ele>734.3333333333333</ele><time>2026-04-19T12:42:34.001Z</time></trkpt><trkpt lat="42.23816477773343" lon="13.021457978280344"><ele>722.6666666666666</ele><time>2026-04-19T12:42:35.001Z</time></trkpt><trkpt lat="42.23822474652865" lon="13.021657805834849"><ele>711.0</ele><time>2026-04-19T12:42:36.001Z</time></trkpt><trkpt lat="42.238282993695115" lon="13.021863271823065"><ele>711.0</ele><time>2026-04-19T12:42:37.001Z</time></trkpt><trkpt lat="42.238342558034425" lon="13.022066574085368"><ele>711.0</ele><time>2026-04-19T12:42:38.001Z</time></trkpt><trkpt lat="42.23841386247538" lon="13.022319817519621"><ele>711.0</ele><time>2026-04-19T12:42:39.001Z</time></trkpt><trkpt lat="42.238480070838825" lon="13.02255825962889"><ele>713.5</ele><time>2026-04-19T12:42:40.001Z</time></trkpt><trkpt lat="42.23853378283766" lon="13.022770072249143"><ele>716.0</ele><time>2026-04-19T12:42:41.001Z</time></trkpt><trkpt lat="42.23858187903911" lon="13.022956567322954"><ele>718.5</ele><time>2026-04-19T12:42:42.001Z</time></trkpt><trkpt lat="42.2386201028802" lon="13.023082748307594"><ele>721.0</ele><time>2026-04-19T12:42:43.001Z</time></trkpt><trkpt lat="42.238647605358594" lon="13.02316715653534"><ele>721.0</ele><time>2026-04-19T12:42:44.001Z</time></trkpt><trkpt lat="42.23867799302609" lon="13.023249789055756"><ele>721.0</ele><time>2026-04-19T12:42:45.001Z</time></trkpt><trkpt lat="42.23871773201417" lon="13.023346193589335"><ele>721.0</ele><time>2026-04-19T12:42:46.001Z</time></trkpt><trkpt lat="42.23877552374557" lon="13.023467500206284"><ele>721.0</ele><time>2026-04-19T12:42:47.001Z</time></trkpt><trkpt lat="42.23883114387855" lon="13.023587119620405"><ele>721.0</ele><time>2026-04-19T12:42:48.001Z</time></trkpt><trkpt lat="42.23889893119101" lon="13.023706777799626"><ele>720.75</ele><time>2026-04-19T12:42:49.001Z</time></trkpt><trkpt lat="42.238968325414476" lon="13.023828531981012"><ele>720.5</ele><time>2026-04-19T12:42:50.001Z</time></trkpt><trkpt lat="42.23903681482149" lon="13.023959872815949"><ele>720.25</ele><time>2026-04-19T12:42:51.001Z</time></trkpt><trkpt lat="42.23910214303579" lon="13.024102632298241"><ele>720.0</ele><time>2026-04-19T12:42:52.001Z</time></trkpt><trkpt lat="42.23916863601598" lon="13.024249521057358"><ele>720.0</ele><time>2026-04-19T12:42:53.001Z</time></trkpt><trkpt lat="42.23923800239992" lon="13.024393175251571"><ele>720.0</ele><time>2026-04-19T12:42:54.001Z</time></trkpt><trkpt lat="42.23929858957818" lon="13.024535865229364"><ele>720.0</ele><time>2026-04-19T12:42:55.001Z</time></trkpt><trkpt lat="42.23935645194056" lon="13.024670501628618"><ele>720.0</ele><time>2026-04-19T12:42:56.001Z</time></trkpt><trkpt lat="42.2394123257936" lon="13.024799041852859"><ele>720.0</ele><time>2026-04-19T12:42:57.001Z</time></trkpt><trkpt lat="42.2394512035569" lon="13.0249401294987"><ele>720.0</ele><time>2026-04-19T12:42:58.001Z</time></trkpt><trkpt lat="42.23950504554249" lon="13.025058648589754"><ele>720.0</ele><time>2026-04-19T12:42:59.001Z</time></trkpt><trkpt lat="42.23957587444984" lon="13.025133911607945"><ele>720.0</ele><time>2026-04-19T12:43:00.001Z</time></trkpt><trkpt lat="42.239645458426644" lon="13.025208590119513"><ele>720.0</ele><time>2026-04-19T12:43:01.001Z</time></trkpt><trkpt lat="42.239724058665715" lon="13.025271799103066"><ele>718.8333333333334</ele><time>2026-04-19T12:43:02.001Z</time></trkpt><trkpt lat="42.23979865415261" lon="13.025337971548987"><ele>717.6666666666666</ele><time>2026-04-19T12:43:03.001Z</time></trkpt><trkpt lat="42.239861622282355" lon="13.025412435379923"><ele>716.5</ele><time>2026-04-19T12:43:04.001Z</time></trkpt><trkpt lat="42.23991759689561" lon="13.0254934624674"><ele>715.3333333333333</ele><time>2026-04-19T12:43:05.001Z</time></trkpt><trkpt lat="42.23995636870717" lon="13.025579379184933"><ele>714.1666666666666</ele><time>2026-04-19T12:43:06.001Z</time></trkpt><trkpt lat="42.23998457984816" lon="13.025666906052482"><ele>713.0</ele><time>2026-04-19T12:43:07.001Z</time></trkpt><trkpt lat="42.24001750639998" lon="13.02575361595487"><ele>718.4</ele><time>2026-04-19T12:43:08.001Z</time></trkpt><trkpt lat="42.24006262326785" lon="13.025837652588882"><ele>723.8</ele><time>2026-04-19T12:43:09.001Z</time></trkpt><trkpt lat="42.240134103576096" lon="13.025933309442378"><ele>729.2</ele><time>2026-04-19T12:43:10.001Z</time></trkpt><trkpt lat="42.24022182512067" lon="13.026035308193572"><ele>734.6</ele><time>2026-04-19T12:43:11.001Z</time></trkpt><trkpt lat="42.240319865365095" lon="13.02615240375566"><ele>740.0</ele><time>2026-04-19T12:43:12.001Z</time></trkpt><trkpt lat="42.240405972030146" lon="13.026287598563687"><ele>740.0</ele><time>2026-04-19T12:43:13.001Z</time></trkpt><trkpt lat="42.24049493331176" lon="13.026463289468865"><ele>740.0</ele><time>2026-04-19T12:43:14.001Z</time></trkpt><trkpt lat="42.24057668619636" lon="13.02667297261672"><ele>740.0</ele><time>2026-04-19T12:43:15.001Z</time></trkpt><trkpt lat="42.240644393921286" lon="13.026859238267523"><ele>736.25</ele><time>2026-04-19T12:43:16.001Z</time></trkpt><trkpt lat="42.24071908869929" lon="13.027013133454567"><ele>732.5</ele><time>2026-04-19T12:43:17.001Z</time></trkpt><trkpt lat="42.240803540782146" lon="13.027136439006847"><ele>728.75</ele><time>2026-04-19T12:43:18.001Z</time></trkpt><trkpt lat="42.24087081627602" lon="13.02725250341826"><ele>725.0</ele><time>2026-04-19T12:43:19.001Z</time></trkpt><trkpt lat="42.24090947400676" lon="13.027387240775038"><ele>728.3333333333333</ele><time>2026-04-19T12:43:20.001Z</time></trkpt><trkpt lat="42.2409319291602" lon="13.02752481091445"><ele>731.6666666666666</ele><time>2026-04-19T12:43:21.001Z</time></trkpt><trkpt lat="42.240950315811915" lon="13.027617901671096"><ele>735.0</ele><time>2026-04-19T12:43:22.001Z</time></trkpt><trkpt lat="42.240980729092485" lon="13.027693618549243"><ele>738.3333333333334</ele><time>2026-04-19T12:43:23.001Z</time></trkpt><trkpt lat="42.24103568012582" lon="13.027748655664858"><ele>741.6666666666667</ele><time>2026-04-19T12:43:24.001Z</time></trkpt><trkpt lat="42.24110404101709" lon="13.02781041276715"><ele>745.0</ele><time>2026-04-19T12:43:25.001Z</time></trkpt><trkpt lat="42.241205934122284" lon="13.027847522469022"><ele>745.0</ele><time>2026-04-19T12:43:26.001Z</time></trkpt><trkpt lat="42.241284291112954" lon="13.027847445010652"><ele>745.0</ele><time>2026-04-19T12:43:27.001Z</time></trkpt><trkpt lat="42.24138677838362" lon="13.027843047129018"><ele>745.0</ele><time>2026-04-19T12:43:29.001Z</time></trkpt><trkpt lat="42.24149168450209" lon="13.027850873044875"><ele>745.0</ele><time>2026-04-19T12:43:31.001Z</time></trkpt><trkpt lat="42.24156215450561" lon="13.027859997899562"><ele>745.0</ele><time>2026-04-19T12:43:32.001Z</time></trkpt><trkpt lat="42.24163836038648" lon="13.027875774330504"><ele>745.0</ele><time>2026-04-19T12:43:33.001Z</time></trkpt><trkpt lat="42.24172827487148" lon="13.027910347111035"><ele>740.5</ele><time>2026-04-19T12:43:34.001Z</time></trkpt><trkpt lat="42.2418323528796" lon="13.027965405782286"><ele>736.0</ele><time>2026-04-19T12:43:35.001Z</time></trkpt><trkpt lat="42.24193534489456" lon="13.028042573527127"><ele>731.5</ele><time>2026-04-19T12:43:36.001Z</time></trkpt><trkpt lat="42.242034948952785" lon="13.028077932444358"><ele>727.0</ele><time>2026-04-19T12:43:37.001Z</time></trkpt><trkpt lat="42.242150752515506" lon="13.028036385521213"><ele>727.0</ele><time>2026-04-19T12:43:38.001Z</time></trkpt><trkpt lat="42.24225466482666" lon="13.028017279739434"><ele>727.0</ele><time>2026-04-19T12:43:39.001Z</time></trkpt><trkpt lat="42.24233243397526" lon="13.028006693152804"><ele>727.0</ele><time>2026-04-19T12:43:40.001Z</time></trkpt><trkpt lat="42.24246214274183" lon="13.028039347068132"><ele>727.0</ele><time>2026-04-19T12:43:42.001Z</time></trkpt><trkpt lat="42.2425284564275" lon="13.028118236887863"><ele>727.0</ele><time>2026-04-19T12:43:43.001Z</time></trkpt><trkpt lat="42.24260225231305" lon="13.028204652855012"><ele>724.25</ele><time>2026-04-19T12:43:44.001Z</time></trkpt><trkpt lat="42.24268771646177" lon="13.02830005259061"><ele>721.5</ele><time>2026-04-19T12:43:45.001Z</time></trkpt><trkpt lat="42.24277553274778" lon="13.028419812954382"><ele>718.75</ele><time>2026-04-19T12:43:46.001Z</time></trkpt><trkpt lat="42.24285647767723" lon="13.028540352771515"><ele>716.0</ele><time>2026-04-19T12:43:47.001Z</time></trkpt><trkpt lat="42.24293216228736" lon="13.028673724884051"><ele>717.1999999999999</ele><time>2026-04-19T12:43:48.001Z</time></trkpt><trkpt lat="42.24298631623747" lon="13.02881294418592"><ele>718.4</ele><time>2026-04-19T12:43:49.001Z</time></trkpt><trkpt lat="42.24305262106213" lon="13.028913817291356"><ele>719.6</ele><time>2026-04-19T12:43:50.001Z</time></trkpt><trkpt lat="42.24315351806602" lon="13.02899948310105"><ele>720.8</ele><time>2026-04-19T12:43:51.001Z</time></trkpt><trkpt lat="42.24322044574325" lon="13.029091920178884"><ele>722.0</ele><time>2026-04-19T12:43:52.001Z</time></trkpt><trkpt lat="42.24327264370273" lon="13.029169097198846"><ele>726.2857142857143</ele><time>2026-04-19T12:43:53.001Z</time></trkpt><trkpt lat="42.24330905170357" lon="13.029244762466574"><ele>730.5714285714286</ele><time>2026-04-19T12:43:54.001Z</time></trkpt><trkpt lat="42.2432981469972" lon="13.02935024362262"><ele>734.8571428571429</ele><time>2026-04-19T12:43:56.001Z</time></trkpt><trkpt lat="42.24329265333455" lon="13.029435649663041"><ele>739.1428571428571</ele><time>2026-04-19T12:43:58.001Z</time></trkpt><trkpt lat="42.24327840063795" lon="13.029535825608274"><ele>743.4285714285713</ele><time>2026-04-19T12:44:01.001Z</time></trkpt><trkpt lat="42.24327077300857" lon="13.029626734475183"><ele>747.7142857142857</ele><time>2026-04-19T12:44:03.001Z</time></trkpt><trkpt lat="42.24324123754896" lon="13.029732162754938"><ele>752.0</ele><time>2026-04-19T12:44:06.001Z</time></trkpt><trkpt lat="42.2432392715952" lon="13.029827064930654"><ele>752.0</ele><time>2026-04-19T12:44:08.001Z</time></trkpt><trkpt lat="42.24325996580106" lon="13.02995257910705"><ele>752.0</ele><time>2026-04-19T12:44:11.001Z</time></trkpt><trkpt lat="42.24333333495562" lon="13.030066033757326"><ele>752.0</ele><time>2026-04-19T12:44:13.001Z</time></trkpt><trkpt lat="42.243383877625455" lon="13.030137252088828"><ele>752.0</ele><time>2026-04-19T12:44:14.001Z</time></trkpt><trkpt lat="42.24343744753332" lon="13.030213271806636"><ele>752.0</ele><time>2026-04-19T12:44:15.001Z</time></trkpt><trkpt lat="42.24349264419347" lon="13.030275331527813"><ele>752.0</ele><time>2026-04-19T12:44:16.001Z</time></trkpt><trkpt lat="42.243551182013995" lon="13.030311451186762"><ele>750.1666666666666</ele><time>2026-04-19T12:44:17.001Z</time></trkpt><trkpt lat="42.243616740740364" lon="13.03033268829346"><ele>748.3333333333333</ele><time>2026-04-19T12:44:18.001Z</time></trkpt><trkpt lat="42.243689498880826" lon="13.030338339135877"><ele>746.5</ele><time>2026-04-19T12:44:19.001Z</time></trkpt><trkpt lat="42.24378304644344" lon="13.030360210765505"><ele>744.6666666666666</ele><time>2026-04-19T12:44:20.001Z</time></trkpt><trkpt lat="42.2438722397812" lon="13.030360210762817"><ele>742.8333333333334</ele><time>2026-04-19T12:44:21.001Z</time></trkpt><trkpt lat="42.24393735591863" lon="13.030361682049238"><ele>741.0</ele><time>2026-04-19T12:44:22.001Z</time></trkpt><trkpt lat="42.244005526954936" lon="13.030450505106792"><ele>741.0</ele><time>2026-04-19T12:44:24.001Z</time></trkpt><trkpt lat="42.2440299183008" lon="13.030591722838233"><ele>741.0</ele><time>2026-04-19T12:44:26.001Z</time></trkpt><trkpt lat="42.24403046894212" lon="13.030702685150796"><ele>741.0</ele><time>2026-04-19T12:44:27.001Z</time></trkpt><trkpt lat="42.24403537437356" lon="13.030812964607438"><ele>741.0</ele><time>2026-04-19T12:44:28.001Z</time></trkpt><trkpt lat="42.244064482112506" lon="13.030910740705929"><ele>741.0</ele><time>2026-04-19T12:44:29.001Z</time></trkpt><trkpt lat="42.244124058418016" lon="13.031011563691289"><ele>741.0</ele><time>2026-04-19T12:44:30.001Z</time></trkpt><trkpt lat="42.24419318697991" lon="13.031101381901918"><ele>745.8</ele><time>2026-04-19T12:44:31.001Z</time></trkpt><trkpt lat="42.24425925373178" lon="13.031199554150547"><ele>750.5999999999999</ele><time>2026-04-19T12:44:32.001Z</time></trkpt><trkpt lat="42.244311612905896" lon="13.03132377945707"><ele>755.4</ele><time>2026-04-19T12:44:33.001Z</time></trkpt><trkpt lat="42.24434765850664" lon="13.031457081054892"><ele>760.2</ele><time>2026-04-19T12:44:34.001Z</time></trkpt><trkpt lat="42.24437951292261" lon="13.031574358743487"><ele>765.0</ele><time>2026-04-19T12:44:35.001Z</time></trkpt><trkpt lat="42.24441441151322" lon="13.031686598163297"><ele>768.1666666666666</ele><time>2026-04-19T12:44:36.001Z</time></trkpt><trkpt lat="42.244446324029774" lon="13.031793381488948"><ele>771.3333333333333</ele><time>2026-04-19T12:44:37.001Z</time></trkpt><trkpt lat="42.244477553423" lon="13.031898814542746"><ele>774.5</ele><time>2026-04-19T12:44:38.001Z</time></trkpt><trkpt lat="42.244508859172534" lon="13.032002877918949"><ele>777.6666666666666</ele><time>2026-04-19T12:44:39.001Z</time></trkpt><trkpt lat="42.24452414935398" lon="13.032112557603874"><ele>780.8333333333333</ele><time>2026-04-19T12:44:40.001Z</time></trkpt><trkpt lat="42.24452962155736" lon="13.032223325641262"><ele>784.0</ele><time>2026-04-19T12:44:41.001Z</time></trkpt><trkpt lat="42.244518292455346" lon="13.03232956156033"><ele>784.0</ele><time>2026-04-19T12:44:42Z</time></trkpt><trkpt lat="42.244491233596776" lon="13.032433199602856"><ele>784.0</ele><time>2026-04-19T12:44:43Z</time></trkpt><trkpt lat="42.24446372847453" lon="13.0325379872689"><ele>784.0</ele><time>2026-04-19T12:44:44Z</time></trkpt><trkpt lat="42.24444790611015" lon="13.03263552442746"><ele>784.0</ele><time>2026-04-19T12:44:45Z</time></trkpt><trkpt lat="42.24448190967718" lon="13.032776656915916"><ele>784.0</ele><time>2026-04-19T12:44:47Z</time></trkpt><trkpt lat="42.244584448656816" lon="13.032863415643643"><ele>783.4000000000001</ele><time>2026-04-19T12:44:49Z</time></trkpt><trkpt lat="42.244648714085905" lon="13.032913052583952"><ele>782.8</ele><time>2026-04-19T12:44:50Z</time></trkpt><trkpt lat="42.24471408731822" lon="13.0329786010778"><ele>782.2</ele><time>2026-04-19T12:44:51Z</time></trkpt><trkpt lat="42.24479142776312" lon="13.033062063924723"><ele>781.5999999999999</ele><time>2026-04-19T12:44:52Z</time></trkpt><trkpt lat="42.24488666192125" lon="13.033173570094274"><ele>781.0</ele><time>2026-04-19T12:44:53Z</time></trkpt><trkpt lat="42.24499730236919" lon="13.033314142442203"><ele>781.0</ele><time>2026-04-19T12:44:54Z</time></trkpt><trkpt lat="42.245086210723784" lon="13.033432051371424"><ele>781.0</ele><time>2026-04-19T12:44:55Z</time></trkpt><trkpt lat="42.24515591739299" lon="13.033539799543934"><ele>781.0</ele><time>2026-04-19T12:44:56Z</time></trkpt><trkpt lat="42.2452264504148" lon="13.033685534255863"><ele>781.0</ele><time>2026-04-19T12:44:57Z</time></trkpt><trkpt lat="42.245288742816214" lon="13.033851338341332"><ele>781.0</ele><time>2026-04-19T12:44:58Z</time></trkpt><trkpt lat="42.24535452398494" lon="13.034041192739771"><ele>781.0</ele><time>2026-04-19T12:44:59Z</time></trkpt><trkpt lat="42.24542007285815" lon="13.03421480820706"><ele>781.0</ele><time>2026-04-19T12:45:00Z</time></trkpt><trkpt lat="42.245511593539874" lon="13.034363486330308"><ele>781.0</ele><time>2026-04-19T12:45:01Z</time></trkpt><trkpt lat="42.245639612829486" lon="13.034510008255287"><ele>778.3333333333333</ele><time>2026-04-19T12:45:02Z</time></trkpt><trkpt lat="42.24580282606479" lon="13.034659369555326"><ele>775.6666666666667</ele><time>2026-04-19T12:45:03Z</time></trkpt><trkpt lat="42.245956031694625" lon="13.034789639747428"><ele>773.0</ele><time>2026-04-19T12:45:04Z</time></trkpt><trkpt lat="42.24607718565691" lon="13.034895271438003"><ele>777.0</ele><time>2026-04-19T12:45:05Z</time></trkpt><trkpt lat="42.24616560616129" lon="13.034976973457052"><ele>781.0</ele><time>2026-04-19T12:45:06Z</time></trkpt><trkpt lat="42.24621765632694" lon="13.03505312070523"><ele>785.0</ele><time>2026-04-19T12:45:07Z</time></trkpt><trkpt lat="42.24625814787744" lon="13.035163377509699"><ele>789.0</ele><time>2026-04-19T12:45:08Z</time></trkpt><trkpt lat="42.246282572112364" lon="13.035292733079785"><ele>793.0</ele><time>2026-04-19T12:45:09Z</time></trkpt><trkpt lat="42.24628570524974" lon="13.035423741223942"><ele>792.9999999999999</ele><time>2026-04-19T12:45:10Z</time></trkpt><trkpt lat="42.24627542472319" lon="13.035552230640223"><ele>793.0</ele><time>2026-04-19T12:45:11Z</time></trkpt><trkpt lat="42.24625432952757" lon="13.035668383160523"><ele>793.0</ele><time>2026-04-19T12:45:12Z</time></trkpt><trkpt lat="42.2461673466545" lon="13.035757890392922"><ele>793.0</ele><time>2026-04-19T12:45:14Z</time></trkpt><trkpt lat="42.246109189288504" lon="13.035802913897195"><ele>792.9999999999999</ele><time>2026-04-19T12:45:15Z</time></trkpt><trkpt lat="42.24603314531491" lon="13.035837666251298"><ele>793.0</ele><time>2026-04-19T12:45:16Z</time></trkpt><trkpt lat="42.24594182030744" lon="13.035864939546066"><ele>794.4999999999999</ele><time>2026-04-19T12:45:17Z</time></trkpt><trkpt lat="42.24585900335917" lon="13.03590230905893"><ele>796.0</ele><time>2026-04-19T12:45:18Z</time></trkpt><trkpt lat="42.24580127701687" lon="13.035966041986596"><ele>797.5</ele><time>2026-04-19T12:45:19Z</time></trkpt><trkpt lat="42.245784615096234" lon="13.036062882467151"><ele>799.0</ele><time>2026-04-19T12:45:20Z</time></trkpt><trkpt lat="42.24576467196862" lon="13.03615493381977"><ele>800.4999999999999</ele><time>2026-04-19T12:45:21Z</time></trkpt><trkpt lat="42.245747245780464" lon="13.036270706657715"><ele>802.0</ele><time>2026-04-19T12:45:22Z</time></trkpt><trkpt lat="42.24572891718146" lon="13.036401820073761"><ele>802.0</ele><time>2026-04-19T12:45:23Z</time></trkpt><trkpt lat="42.24571535808573" lon="13.036549953851523"><ele>802.0</ele><time>2026-04-19T12:45:24Z</time></trkpt><trkpt lat="42.245710019435265" lon="13.03672759587372"><ele>802.0</ele><time>2026-04-19T12:45:25Z</time></trkpt><trkpt lat="42.24571311389297" lon="13.036914560846629"><ele>802.0</ele><time>2026-04-19T12:45:26Z</time></trkpt><trkpt lat="42.245688509552366" lon="13.037113857262819"><ele>801.75</ele><time>2026-04-19T12:45:27Z</time></trkpt><trkpt lat="42.24569364248327" lon="13.037338300638401"><ele>801.5</ele><time>2026-04-19T12:45:28Z</time></trkpt><trkpt lat="42.2456760144775" lon="13.037505473839154"><ele>801.25</ele><time>2026-04-19T12:45:29Z</time></trkpt><trkpt lat="42.24566538364752" lon="13.037624467110223"><ele>801.0</ele><time>2026-04-19T12:45:30Z</time></trkpt><trkpt lat="42.24561286318603" lon="13.037784667741064"><ele>809.75</ele><time>2026-04-19T12:45:32Z</time></trkpt><trkpt lat="42.245558855642564" lon="13.037886510893552"><ele>818.5</ele><time>2026-04-19T12:45:33Z</time></trkpt><trkpt lat="42.245504403995" lon="13.038012737529757"><ele>827.25</ele><time>2026-04-19T12:45:34Z</time></trkpt><trkpt lat="42.24545087034298" lon="13.038159038456756"><ele>836.0</ele><time>2026-04-19T12:45:35Z</time></trkpt><trkpt lat="42.245400925269784" lon="13.038318977127146"><ele>836.0</ele><time>2026-04-19T12:45:36Z</time></trkpt><trkpt lat="42.24535376283116" lon="13.038483173373983"><ele>836.0</ele><time>2026-04-19T12:45:37Z</time></trkpt><trkpt lat="42.24531640625205" lon="13.038630185159711"><ele>836.0</ele><time>2026-04-19T12:45:38Z</time></trkpt><trkpt lat="42.24528972903912" lon="13.03875356121501"><ele>836.0</ele><time>2026-04-19T12:45:39Z</time></trkpt><trkpt lat="42.24526500356873" lon="13.038887151499587"><ele>836.0</ele><time>2026-04-19T12:45:40Z</time></trkpt><trkpt lat="42.24522858041628" lon="13.039016790059666"><ele>836.0</ele><time>2026-04-19T12:45:41Z</time></trkpt><trkpt lat="42.24521092039843" lon="13.039147166998005"><ele>836.0</ele><time>2026-04-19T12:45:42Z</time></trkpt><trkpt lat="42.24521293859147" lon="13.039281448252831"><ele>836.0</ele><time>2026-04-19T12:45:43Z</time></trkpt><trkpt lat="42.245203745550455" lon="13.039410493526509"><ele>836.0</ele><time>2026-04-19T12:45:44Z</time></trkpt><trkpt lat="42.24520144934166" lon="13.039538328558944"><ele>836.0</ele><time>2026-04-19T12:45:45Z</time></trkpt><trkpt lat="42.245212924978034" lon="13.039669249882994"><ele>836.0</ele><time>2026-04-19T12:45:46Z</time></trkpt><trkpt lat="42.24523723737107" lon="13.03980840912561"><ele>836.0</ele><time>2026-04-19T12:45:47Z</time></trkpt><trkpt lat="42.24528311469818" lon="13.039927980782666"><ele>836.0</ele><time>2026-04-19T12:45:48Z</time></trkpt><trkpt lat="42.24535295927143" lon="13.040045316080787"><ele>836.0</ele><time>2026-04-19T12:45:49Z</time></trkpt><trkpt lat="42.24543399712575" lon="13.040196518703597"><ele>836.5999999999999</ele><time>2026-04-19T12:45:50Z</time></trkpt><trkpt lat="42.245520221517026" lon="13.040314964846862"><ele>837.2</ele><time>2026-04-19T12:45:51Z</time></trkpt><trkpt lat="42.24559472860822" lon="13.040401740545674"><ele>837.8</ele><time>2026-04-19T12:45:52.001Z</time></trkpt><trkpt lat="42.24568280435606" lon="13.040425316859633"><ele>838.4000000000001</ele><time>2026-04-19T12:45:53.001Z</time></trkpt><trkpt lat="42.245761802569646" lon="13.040447691995046"><ele>839.0</ele><time>2026-04-19T12:45:54.001Z</time></trkpt><trkpt lat="42.245841829161165" lon="13.040421939301925"><ele>834.6666666666667</ele><time>2026-04-19T12:45:55.001Z</time></trkpt><trkpt lat="42.24592684046021" lon="13.040365719807415"><ele>830.3333333333334</ele><time>2026-04-19T12:45:56.001Z</time></trkpt><trkpt lat="42.24599998388542" lon="13.04031469685507"><ele>826.0</ele><time>2026-04-19T12:45:57.001Z</time></trkpt><trkpt lat="42.24606783666467" lon="13.040298956924037"><ele>821.6666666666667</ele><time>2026-04-19T12:45:58.001Z</time></trkpt><trkpt lat="42.24613369101815" lon="13.04032457341754"><ele>817.3333333333334</ele><time>2026-04-19T12:45:59.001Z</time></trkpt><trkpt lat="42.24620214592614" lon="13.04045301734747"><ele>813.0</ele><time>2026-04-19T12:46:01.001Z</time></trkpt><trkpt lat="42.24619782780371" lon="13.040544926780017"><ele>813.0</ele><time>2026-04-19T12:46:02.001Z</time></trkpt><trkpt lat="42.24616303805594" lon="13.04066075962071"><ele>813.0</ele><time>2026-04-19T12:46:03.001Z</time></trkpt><trkpt lat="42.24611597839772" lon="13.04080921717626"><ele>813.0</ele><time>2026-04-19T12:46:04.001Z</time></trkpt><trkpt lat="42.24605748239394" lon="13.040992019048966"><ele>813.0</ele><time>2026-04-19T12:46:05.001Z</time></trkpt><trkpt lat="42.24600942198585" lon="13.041155779425978"><ele>815.0</ele><time>2026-04-19T12:46:06.001Z</time></trkpt><trkpt lat="42.245967066466335" lon="13.041300981977653"><ele>817.0</ele><time>2026-04-19T12:46:07.001Z</time></trkpt><trkpt lat="42.245929859676586" lon="13.041445378453695"><ele>819.0</ele><time>2026-04-19T12:46:08.001Z</time></trkpt><trkpt lat="42.24590681432921" lon="13.041574232029298"><ele>821.0</ele><time>2026-04-19T12:46:09.001Z</time></trkpt><trkpt lat="42.245894924554804" lon="13.041669871976858"><ele>823.0</ele><time>2026-04-19T12:46:10.001Z</time></trkpt><trkpt lat="42.24589753041171" lon="13.041770866338881"><ele>824.8333333333333</ele><time>2026-04-19T12:46:11.001Z</time></trkpt><trkpt lat="42.2459019592274" lon="13.041876871447418"><ele>826.6666666666666</ele><time>2026-04-19T12:46:12.001Z</time></trkpt><trkpt lat="42.2459158107276" lon="13.041974009367065"><ele>828.5</ele><time>2026-04-19T12:46:13.001Z</time></trkpt><trkpt lat="42.24594318564531" lon="13.042071917707162"><ele>830.3333333333333</ele><time>2026-04-19T12:46:14.001Z</time></trkpt><trkpt lat="42.24599547580372" lon="13.042178503935256"><ele>832.1666666666666</ele><time>2026-04-19T12:46:15.001Z</time></trkpt><trkpt lat="42.246078658850294" lon="13.042292487605236"><ele>834.0</ele><time>2026-04-19T12:46:16.001Z</time></trkpt><trkpt lat="42.24619226419856" lon="13.042440380551238"><ele>837.0</ele><time>2026-04-19T12:46:17.001Z</time></trkpt><trkpt lat="42.246338107063906" lon="13.042629072299823"><ele>840.0</ele><time>2026-04-19T12:46:18.001Z</time></trkpt><trkpt lat="42.246491574977554" lon="13.042825805536486"><ele>843.0</ele><time>2026-04-19T12:46:19.001Z</time></trkpt><trkpt lat="42.24662549252254" lon="13.04297140013294"><ele>839.75</ele><time>2026-04-19T12:46:20.001Z</time></trkpt><trkpt lat="42.24674115408878" lon="13.04309332977456"><ele>836.5</ele><time>2026-04-19T12:46:21.001Z</time></trkpt><trkpt lat="42.246830579976866" lon="13.043198251358607"><ele>833.25</ele><time>2026-04-19T12:46:22.001Z</time></trkpt><trkpt lat="42.24689364826064" lon="13.043313735887265"><ele>830.0</ele><time>2026-04-19T12:46:23.001Z</time></trkpt><trkpt lat="42.2469441014344" lon="13.043458334348802"><ele>830.0</ele><time>2026-04-19T12:46:24.001Z</time></trkpt><trkpt lat="42.24697993862772" lon="13.043622928141055"><ele>830.0</ele><time>2026-04-19T12:46:25.001Z</time></trkpt><trkpt lat="42.24699611593393" lon="13.043762767072831"><ele>830.0</ele><time>2026-04-19T12:46:26.001Z</time></trkpt><trkpt lat="42.24699692625279" lon="13.04387538968188"><ele>830.0</ele><time>2026-04-19T12:46:27.001Z</time></trkpt><trkpt lat="42.24696431523801" lon="13.04398857555463"><ele>830.0</ele><time>2026-04-19T12:46:29.001Z</time></trkpt><trkpt lat="42.24689170663041" lon="13.044079810239806"><ele>830.6</ele><time>2026-04-19T12:46:31.001Z</time></trkpt><trkpt lat="42.24677298451444" lon="13.044136982388357"><ele>831.2</ele><time>2026-04-19T12:46:33.001Z</time></trkpt><trkpt lat="42.24670454541673" lon="13.044194418843793"><ele>831.8</ele><time>2026-04-19T12:46:34.001Z</time></trkpt><trkpt lat="42.24662364506756" lon="13.044221664781825"><ele>832.4</ele><time>2026-04-19T12:46:35.001Z</time></trkpt><trkpt lat="42.24654081993259" lon="13.044255727744783"><ele>833.0</ele><time>2026-04-19T12:46:36.001Z</time></trkpt><trkpt lat="42.24647271336066" lon="13.044295486823751"><ele>833.5000000000001</ele><time>2026-04-19T12:46:37.001Z</time></trkpt><trkpt lat="42.24640440414289" lon="13.044347356644415"><ele>834.0</ele><time>2026-04-19T12:46:38.001Z</time></trkpt><trkpt lat="42.24633865830051" lon="13.044413725725567"><ele>834.5</ele><time>2026-04-19T12:46:39.001Z</time></trkpt><trkpt lat="42.24628119981697" lon="13.044488243892378"><ele>835.0</ele><time>2026-04-19T12:46:40.001Z</time></trkpt><trkpt lat="42.24623101077" lon="13.044570671376583"><ele>835.5000000000001</ele><time>2026-04-19T12:46:41.001Z</time></trkpt><trkpt lat="42.24618290723713" lon="13.044670615557887"><ele>836.0</ele><time>2026-04-19T12:46:42.001Z</time></trkpt><trkpt lat="42.24613472952017" lon="13.044779930711659"><ele>836.0</ele><time>2026-04-19T12:46:43.001Z</time></trkpt><trkpt lat="42.246076381449" lon="13.044891783300256"><ele>836.0</ele><time>2026-04-19T12:46:44.001Z</time></trkpt><trkpt lat="42.246005768736545" lon="13.044993872061138"><ele>836.0</ele><time>2026-04-19T12:46:45.001Z</time></trkpt><trkpt lat="42.24592704535066" lon="13.045078252503801"><ele>836.0</ele><time>2026-04-19T12:46:46.001Z</time></trkpt><trkpt lat="42.24584607532376" lon="13.045144230078039"><ele>836.0</ele><time>2026-04-19T12:46:47.001Z</time></trkpt><trkpt lat="42.24576768935584" lon="13.045190809441356"><ele>834.1999999999999</ele><time>2026-04-19T12:46:48Z</time></trkpt><trkpt lat="42.24568538294433" lon="13.045219025116891"><ele>832.4</ele><time>2026-04-19T12:46:49Z</time></trkpt><trkpt lat="42.24560875687752" lon="13.04521728425856"><ele>830.6</ele><time>2026-04-19T12:46:50Z</time></trkpt><trkpt lat="42.24554151993542" lon="13.045153006389715"><ele>828.8</ele><time>2026-04-19T12:46:51Z</time></trkpt><trkpt lat="42.24546092623175" lon="13.045071633579074"><ele>827.0</ele><time>2026-04-19T12:46:52Z</time></trkpt><trkpt lat="42.24536077277525" lon="13.044969674361123"><ele>825.6666666666667</ele><time>2026-04-19T12:46:53Z</time></trkpt><trkpt lat="42.24524354606608" lon="13.044846097799642"><ele>824.3333333333333</ele><time>2026-04-19T12:46:54Z</time></trkpt><trkpt lat="42.24511524765379" lon="13.044710311378207"><ele>823.0</ele><time>2026-04-19T12:46:55Z</time></trkpt><trkpt lat="42.24498233508259" lon="13.044572011213457"><ele>823.0</ele><time>2026-04-19T12:46:56Z</time></trkpt><trkpt lat="42.24484925127902" lon="13.044454085404833"><ele>823.0</ele><time>2026-04-19T12:46:57Z</time></trkpt><trkpt lat="42.24472249224121" lon="13.044352459255531"><ele>823.0</ele><time>2026-04-19T12:46:58Z</time></trkpt><trkpt lat="42.2446029330377" lon="13.044256407766975"><ele>823.0</ele><time>2026-04-19T12:46:59Z</time></trkpt><trkpt lat="42.24449685621437" lon="13.044171785402638"><ele>824.6666666666666</ele><time>2026-04-19T12:47:00Z</time></trkpt><trkpt lat="42.244411924070086" lon="13.044106342008472"><ele>826.3333333333333</ele><time>2026-04-19T12:47:01Z</time></trkpt><trkpt lat="42.244344031271524" lon="13.044059006034312"><ele>828.0</ele><time>2026-04-19T12:47:02Z</time></trkpt><trkpt lat="42.24427615490527" lon="13.044027749204421"><ele>829.6666666666667</ele><time>2026-04-19T12:47:03Z</time></trkpt><trkpt lat="42.244205262988146" lon="13.044011005430885"><ele>831.3333333333334</ele><time>2026-04-19T12:47:04Z</time></trkpt><trkpt lat="42.24412445116382" lon="13.044018052208898"><ele>833.0</ele><time>2026-04-19T12:47:05Z</time></trkpt><trkpt lat="42.24403898390072" lon="13.044062162764398"><ele>830.5</ele><time>2026-04-19T12:47:06Z</time></trkpt><trkpt lat="42.243953835875416" lon="13.044151668645204"><ele>828.0</ele><time>2026-04-19T12:47:07Z</time></trkpt><trkpt lat="42.243829700301205" lon="13.044228943435643"><ele>825.5</ele><time>2026-04-19T12:47:08Z</time></trkpt><trkpt lat="42.24371800079214" lon="13.044360090207345"><ele>823.0</ele><time>2026-04-19T12:47:09Z</time></trkpt><trkpt lat="42.24364242752076" lon="13.044519448031759"><ele>823.0</ele><time>2026-04-19T12:47:10Z</time></trkpt><trkpt lat="42.24356240062542" lon="13.044663080613514"><ele>823.0</ele><time>2026-04-19T12:47:11Z</time></trkpt><trkpt lat="42.24347703972915" lon="13.04477433918052"><ele>823.0</ele><time>2026-04-19T12:47:12Z</time></trkpt><trkpt lat="42.24340986855834" lon="13.044867837485539"><ele>823.0</ele><time>2026-04-19T12:47:13Z</time></trkpt><trkpt lat="42.24334663759394" lon="13.04495530986023"><ele>823.0</ele><time>2026-04-19T12:47:15Z</time></trkpt><trkpt lat="42.24328723073329" lon="13.04499275051411"><ele>821.6666666666666</ele><time>2026-04-19T12:47:19Z</time></trkpt><trkpt lat="42.243241518375235" lon="13.045054495468149"><ele>820.3333333333333</ele><time>2026-04-19T12:47:21Z</time></trkpt><trkpt lat="42.24319574934961" lon="13.04516319090508"><ele>819.0</ele><time>2026-04-19T12:47:23Z</time></trkpt><trkpt lat="42.24311588723085" lon="13.04520601097533"><ele>817.6666666666667</ele><time>2026-04-19T12:47:26Z</time></trkpt><trkpt lat="42.24317949282031" lon="13.045165723360402"><ele>816.3333333333334</ele><time>2026-04-19T12:47:48Z</time></trkpt><trkpt lat="42.24311676248554" lon="13.045024395014318"><ele>815.0</ele><time>2026-04-19T12:47:50Z</time></trkpt><trkpt lat="42.24312346426959" lon="13.044925759259607"><ele>816.3333333333334</ele><time>2026-04-19T12:47:53Z</time></trkpt><trkpt lat="42.24312924929994" lon="13.044823605786174"><ele>817.6666666666667</ele><time>2026-04-19T12:48:00Z</time></trkpt><trkpt lat="42.24313711139985" lon="13.04468384378096"><ele>819.0</ele><time>2026-04-19T12:48:02Z</time></trkpt><trkpt lat="42.243142770404425" lon="13.044575049344052"><ele>820.3333333333333</ele><time>2026-04-19T12:48:03Z</time></trkpt><trkpt lat="42.24314939152984" lon="13.044447758872675"><ele>821.6666666666666</ele><time>2026-04-19T12:48:04Z</time></trkpt><trkpt lat="42.24315057365" lon="13.044343721230764"><ele>823.0</ele><time>2026-04-19T12:48:05Z</time></trkpt><trkpt lat="42.243147715956255" lon="13.044222212082111"><ele>823.0</ele><time>2026-04-19T12:48:07Z</time></trkpt><trkpt lat="42.24315095665146" lon="13.044371581019083"><ele>823.0</ele><time>2026-04-19T12:48:30Z</time></trkpt><trkpt lat="42.2431472039407" lon="13.044545901062609"><ele>823.0</ele><time>2026-04-19T12:48:32Z</time></trkpt><trkpt lat="42.24313974811921" lon="13.044633148134826"><ele>823.0</ele><time>2026-04-19T12:48:33Z</time></trkpt><trkpt lat="42.24313161361382" lon="13.044789534532361"><ele>823.0</ele><time>2026-04-19T12:48:35Z</time></trkpt><trkpt lat="42.243125374433525" lon="13.044892026061483"><ele>818.9999999999999</ele><time>2026-04-19T12:48:37Z</time></trkpt><trkpt lat="42.243119742634754" lon="13.044991475293875"><ele>815.0</ele><time>2026-04-19T12:48:39Z</time></trkpt><trkpt lat="42.243110372529635" lon="13.045105013098535"><ele>811.0</ele><time>2026-04-19T12:48:42Z</time></trkpt><trkpt lat="42.24310278574593" lon="13.045200731393145"><ele>807.0</ele><time>2026-04-19T12:48:45Z</time></trkpt><trkpt lat="42.24303906753306" lon="13.04523364513071"><ele>802.9999999999999</ele><time>2026-04-19T12:49:39Z</time></trkpt><trkpt lat="42.24302141831152" lon="13.045401365322451"><ele>799.0</ele><time>2026-04-19T12:49:40Z</time></trkpt><trkpt lat="42.24299614830239" lon="13.045532916933041"><ele>799.0</ele><time>2026-04-19T12:49:41Z</time></trkpt><trkpt lat="42.242980724953846" lon="13.04566164905365"><ele>799.0</ele><time>2026-04-19T12:49:42Z</time></trkpt><trkpt lat="42.24296913377187" lon="13.045762682041028"><ele>799.0</ele><time>2026-04-19T12:49:43Z</time></trkpt><trkpt lat="42.24294503704626" lon="13.045911814998231"><ele>799.0</ele><time>2026-04-19T12:49:45Z</time></trkpt><trkpt lat="42.24293459836676" lon="13.046018316990986"><ele>799.0</ele><time>2026-04-19T12:49:50Z</time></trkpt><trkpt lat="42.24298044353526" lon="13.045893967675639"><ele>799.0</ele><time>2026-04-19T12:49:56Z</time></trkpt><trkpt lat="42.24327735377789" lon="13.045917153897598"><ele>799.0</ele><time>2026-04-19T12:49:57Z</time></trkpt><trkpt lat="42.24335483619587" lon="13.045970121884016"><ele>799.0</ele><time>2026-04-19T12:49:58Z</time></trkpt><trkpt lat="42.24303573895377" lon="13.045437163525602"><ele>799.0</ele><time>2026-04-19T12:50:00Z</time></trkpt><trkpt lat="42.24306131481998" lon="13.045334901974769"><ele>799.0</ele><time>2026-04-19T12:50:02Z</time></trkpt><trkpt lat="42.243089606555756" lon="13.045254079552821"><ele>799.0</ele><time>2026-04-19T12:50:07Z</time></trkpt><trkpt lat="42.243154588503764" lon="13.045216305742283"><ele>799.0</ele><time>2026-04-19T12:51:05.999Z</time></trkpt><trkpt lat="42.24321784337757" lon="13.045172604546485"><ele>799.0</ele><time>2026-04-19T12:51:27Z</time></trkpt><trkpt lat="42.24326123952792" lon="13.04511058283243"><ele>799.0</ele><time>2026-04-19T12:51:45Z</time></trkpt><trkpt lat="42.24331864002636" lon="13.045061614168937"><ele>799.0</ele><time>2026-04-19T12:51:50Z</time></trkpt><trkpt lat="42.24324350733636" lon="13.04515537126"><ele>799.0</ele><time>2026-04-19T12:51:55Z</time></trkpt><trkpt lat="42.24319143091067" lon="13.045216032508023"><ele>799.0</ele><time>2026-04-19T12:51:57Z</time></trkpt><trkpt lat="42.24312101950932" lon="13.045194631390228"><ele>799.0</ele><time>2026-04-19T12:52:02Z</time></trkpt><trkpt lat="42.24305930311331" lon="13.045215551597702"><ele>799.0</ele><time>2026-04-19T12:52:05Z</time></trkpt><trkpt lat="42.243057103918325" lon="13.045310204205116"><ele>799.0</ele><time>2026-04-19T12:52:08Z</time></trkpt><trkpt lat="42.24305166660468" lon="13.04520248726994"><ele>799.0</ele><time>2026-04-19T12:56:22.999Z</time></trkpt><trkpt lat="42.243118984398194" lon="13.045181697727593"><ele>799.0</ele><time>2026-04-19T12:57:07Z</time></trkpt><trkpt lat="42.24319623469433" lon="13.04513719816731"><ele>801.6666666666666</ele><time>2026-04-19T12:57:10Z</time></trkpt><trkpt lat="42.24327056937119" lon="13.045038816671964"><ele>804.3333333333333</ele><time>2026-04-19T12:57:12Z</time></trkpt><trkpt lat="42.24331188097576" lon="13.044972683642056"><ele>807.0</ele><time>2026-04-19T12:57:27.998Z</time></trkpt><trkpt lat="42.24335592807379" lon="13.044908968864254"><ele>809.6666666666667</ele><time>2026-04-19T12:57:30.998Z</time></trkpt><trkpt lat="42.243413789813154" lon="13.04483057605951"><ele>812.3333333333334</ele><time>2026-04-19T12:57:34.998Z</time></trkpt><trkpt lat="42.243461633983834" lon="13.044763799850122"><ele>815.0</ele><time>2026-04-19T12:57:36.998Z</time></trkpt><trkpt lat="42.243510525681714" lon="13.044691197249676"><ele>838.0</ele><time>2026-04-19T12:57:38.998Z</time></trkpt><trkpt lat="42.2431431439567" lon="13.044101145325872"><ele>833.4</ele><time>2026-04-19T12:57:40.998Z</time></trkpt><trkpt lat="42.24309986373038" lon="13.044006523344214"><ele>828.8</ele><time>2026-04-19T12:57:42.998Z</time></trkpt><trkpt lat="42.24306010537038" lon="13.043860947868199"><ele>824.2</ele><time>2026-04-19T12:57:44.999Z</time></trkpt><trkpt lat="42.24300628248733" lon="13.043726391802995"><ele>819.6</ele><time>2026-04-19T12:57:46.999Z</time></trkpt><trkpt lat="42.242912680608214" lon="13.043625492446623"><ele>815.0</ele><time>2026-04-19T12:57:49Z</time></trkpt><trkpt lat="42.24281963447135" lon="13.043546212621264"><ele>815.0</ele><time>2026-04-19T12:57:51Z</time></trkpt><trkpt lat="42.24271261882482" lon="13.04338906470274"><ele>815.0</ele><time>2026-04-19T12:57:53Z</time></trkpt><trkpt lat="42.24262309007428" lon="13.043272575278511"><ele>815.0</ele><time>2026-04-19T12:57:55Z</time></trkpt><trkpt lat="42.24256358822699" lon="13.043228912458488"><ele>815.0</ele><time>2026-04-19T12:57:56Z</time></trkpt><trkpt lat="42.242456222710466" lon="13.043163098433187"><ele>818.5</ele><time>2026-04-19T12:57:58Z</time></trkpt><trkpt lat="42.24233988662145" lon="13.043108224801587"><ele>822.0</ele><time>2026-04-19T12:58:00Z</time></trkpt><trkpt lat="42.242219521902435" lon="13.04309001524028"><ele>825.5</ele><time>2026-04-19T12:58:02Z</time></trkpt><trkpt lat="42.242107270059044" lon="13.043048320892963"><ele>829.0</ele><time>2026-04-19T12:58:04Z</time></trkpt><trkpt lat="42.24199967243481" lon="13.042997595396251"><ele>829.0</ele><time>2026-04-19T12:58:06Z</time></trkpt><trkpt lat="42.24188401447444" lon="13.042942412887585"><ele>829.0</ele><time>2026-04-19T12:58:08Z</time></trkpt><trkpt lat="42.24176859431259" lon="13.042922517612011"><ele>829.0</ele><time>2026-04-19T12:58:10Z</time></trkpt><trkpt lat="42.24166564617495" lon="13.042908482330821"><ele>829.0</ele><time>2026-04-19T12:58:12Z</time></trkpt><trkpt lat="42.24155744987853" lon="13.042870694920095"><ele>827.0</ele><time>2026-04-19T12:58:14Z</time></trkpt><trkpt lat="42.2414568752172" lon="13.042828621558082"><ele>825.0</ele><time>2026-04-19T12:58:16Z</time></trkpt><trkpt lat="42.24136697930496" lon="13.042789482637655"><ele>823.0</ele><time>2026-04-19T12:58:18Z</time></trkpt><trkpt lat="42.241282752866766" lon="13.042752844708351"><ele>821.0</ele><time>2026-04-19T12:58:20Z</time></trkpt><trkpt lat="42.24118065535448" lon="13.042709676009673"><ele>819.0</ele><time>2026-04-19T12:58:22Z</time></trkpt><trkpt lat="42.24106225321081" lon="13.042660603449706"><ele>819.0</ele><time>2026-04-19T12:58:24Z</time></trkpt><trkpt lat="42.24099394901092" lon="13.042632637521221"><ele>819.0</ele><time>2026-04-19T12:58:25Z</time></trkpt><trkpt lat="42.240874276181316" lon="13.042583639581629"><ele>819.0</ele><time>2026-04-19T12:58:27Z</time></trkpt><trkpt lat="42.24076295450228" lon="13.042538060796543"><ele>819.0</ele><time>2026-04-19T12:58:29Z</time></trkpt><trkpt lat="42.240648957444705" lon="13.042494415509289"><ele>819.0</ele><time>2026-04-19T12:58:31Z</time></trkpt><trkpt lat="42.24053496686096" lon="13.042471415872262"><ele>824.8000000000001</ele><time>2026-04-19T12:58:33Z</time></trkpt><trkpt lat="42.24041706264643" lon="13.042450844674867"><ele>830.6</ele><time>2026-04-19T12:58:35Z</time></trkpt><trkpt lat="42.24030105503416" lon="13.042441582835295"><ele>836.4</ele><time>2026-04-19T12:58:37Z</time></trkpt><trkpt lat="42.240182673612566" lon="13.042434059110695"><ele>842.2</ele><time>2026-04-19T12:58:39Z</time></trkpt><trkpt lat="42.240115274997166" lon="13.04243596939387"><ele>848.0</ele><time>2026-04-19T12:58:40Z</time></trkpt><trkpt lat="42.24004039243784" lon="13.042441755326546"><ele>848.0000000000001</ele><time>2026-04-19T12:58:41.001Z</time></trkpt><trkpt lat="42.239960787128105" lon="13.042448581120984"><ele>848.0</ele><time>2026-04-19T12:58:42.001Z</time></trkpt><trkpt lat="42.23987481211957" lon="13.042451591675809"><ele>848.0</ele><time>2026-04-19T12:58:43.001Z</time></trkpt><trkpt lat="42.23979059375675" lon="13.04247251592913"><ele>848.0</ele><time>2026-04-19T12:58:44.001Z</time></trkpt><trkpt lat="42.23970921315836" lon="13.042496503324212"><ele>848.0000000000001</ele><time>2026-04-19T12:58:45.001Z</time></trkpt><trkpt lat="42.23963123111547" lon="13.042524829811235"><ele>848.0</ele><time>2026-04-19T12:58:46.001Z</time></trkpt><trkpt lat="42.239556542642546" lon="13.042556912612357"><ele>842.6666666666667</ele><time>2026-04-19T12:58:47.001Z</time></trkpt><trkpt lat="42.23948112966469" lon="13.042599528504264"><ele>837.3333333333334</ele><time>2026-04-19T12:58:48.001Z</time></trkpt><trkpt lat="42.239407497822626" lon="13.042648472422202"><ele>832.0</ele><time>2026-04-19T12:58:49.001Z</time></trkpt><trkpt lat="42.23932756764684" lon="13.04267850477449"><ele>826.6666666666667</ele><time>2026-04-19T12:58:50.001Z</time></trkpt><trkpt lat="42.23925196081936" lon="13.04271348446144"><ele>821.3333333333334</ele><time>2026-04-19T12:58:51.001Z</time></trkpt><trkpt lat="42.23916943947071" lon="13.042739901005051"><ele>816.0</ele><time>2026-04-19T12:58:52.001Z</time></trkpt><trkpt lat="42.23908336619842" lon="13.042751848711266"><ele>816.0</ele><time>2026-04-19T12:58:53.001Z</time></trkpt><trkpt lat="42.23900020530592" lon="13.042757960418857"><ele>816.0</ele><time>2026-04-19T12:58:54.001Z</time></trkpt><trkpt lat="42.238913902643226" lon="13.042771166375019"><ele>816.0</ele><time>2026-04-19T12:58:55.001Z</time></trkpt><trkpt lat="42.23882775476891" lon="13.042771284108861"><ele>816.0</ele><time>2026-04-19T12:58:56.001Z</time></trkpt><trkpt lat="42.238743522066414" lon="13.04276999378978"><ele>816.0</ele><time>2026-04-19T12:58:57.001Z</time></trkpt><trkpt lat="42.2386619111854" lon="13.04277042994084"><ele>816.0</ele><time>2026-04-19T12:58:58.001Z</time></trkpt><trkpt lat="42.2385906542305" lon="13.042771555415394"><ele>816.5999999999999</ele><time>2026-04-19T12:58:59.001Z</time></trkpt><trkpt lat="42.238473125026566" lon="13.042759614974177"><ele>817.2</ele><time>2026-04-19T12:59:01.001Z</time></trkpt><trkpt lat="42.238411816834116" lon="13.042781242034692"><ele>817.8</ele><time>2026-04-19T12:59:02.001Z</time></trkpt><trkpt lat="42.23830039673656" lon="13.042768816716352"><ele>818.4000000000001</ele><time>2026-04-19T12:59:04.001Z</time></trkpt><trkpt lat="42.23817664657218" lon="13.042775341567758"><ele>819.0</ele><time>2026-04-19T12:59:06.001Z</time></trkpt><trkpt lat="42.2380967175972" lon="13.04278470466174"><ele>820.1666666666666</ele><time>2026-04-19T12:59:07.001Z</time></trkpt><trkpt lat="42.23800285080735" lon="13.042793886880467"><ele>821.3333333333333</ele><time>2026-04-19T12:59:08.001Z</time></trkpt><trkpt lat="42.23790321240601" lon="13.042804807021199"><ele>822.5</ele><time>2026-04-19T12:59:09.001Z</time></trkpt><trkpt lat="42.23781139386024" lon="13.04281574871191"><ele>823.6666666666666</ele><time>2026-04-19T12:59:10.001Z</time></trkpt><trkpt lat="42.23773032767573" lon="13.042824683608188"><ele>824.8333333333333</ele><time>2026-04-19T12:59:11.001Z</time></trkpt><trkpt lat="42.237658882081845" lon="13.042831685971917"><ele>826.0</ele><time>2026-04-19T12:59:12.001Z</time></trkpt><trkpt lat="42.237594191831164" lon="13.042836853113293"><ele>825.9999999999999</ele><time>2026-04-19T12:59:13.001Z</time></trkpt><trkpt lat="42.23753007668368" lon="13.04284352444212"><ele>826.0</ele><time>2026-04-19T12:59:14.001Z</time></trkpt><trkpt lat="42.23746680829661" lon="13.042855262888452"><ele>826.0</ele><time>2026-04-19T12:59:15.001Z</time></trkpt><trkpt lat="42.237403458528874" lon="13.042843408594722"><ele>826.0</ele><time>2026-04-19T12:59:16.001Z</time></trkpt><trkpt lat="42.23729632003241" lon="13.042873923195815"><ele>825.9999999999999</ele><time>2026-04-19T12:59:18.001Z</time></trkpt><trkpt lat="42.237199027362315" lon="13.042912267021185"><ele>826.0</ele><time>2026-04-19T12:59:20.001Z</time></trkpt><trkpt lat="42.237097828206295" lon="13.042964438691229"><ele>828.8</ele><time>2026-04-19T12:59:22.001Z</time></trkpt><trkpt lat="42.23699597910811" lon="13.043053721193642"><ele>831.5999999999999</ele><time>2026-04-19T12:59:23.999Z</time></trkpt><trkpt lat="42.23693512228959" lon="13.043180288912973"><ele>834.4</ele><time>2026-04-19T12:59:25.999Z</time></trkpt><trkpt lat="42.23691547082665" lon="13.043339919801426"><ele>837.2</ele><time>2026-04-19T12:59:27.999Z</time></trkpt><trkpt lat="42.23692723435263" lon="13.043469066231662"><ele>840.0</ele><time>2026-04-19T12:59:29.999Z</time></trkpt><trkpt lat="42.2369339487922" lon="13.043585994876778"><ele>834.0</ele><time>2026-04-19T12:59:31.999Z</time></trkpt><trkpt lat="42.236922692390436" lon="13.04375212110569"><ele>828.0</ele><time>2026-04-19T12:59:33.999Z</time></trkpt><trkpt lat="42.2369115490101" lon="13.043841401651921"><ele>822.0</ele><time>2026-04-19T12:59:34.999Z</time></trkpt><trkpt lat="42.23688751999422" lon="13.043982678112375"><ele>816.0</ele><time>2026-04-19T12:59:36.999Z</time></trkpt><trkpt lat="42.23686413926868" lon="13.044090328859223"><ele>810.0</ele><time>2026-04-19T12:59:38.999Z</time></trkpt><trkpt lat="42.23680047488725" lon="13.044163869506122"><ele>806.1666666666666</ele><time>2026-04-19T12:59:40.999Z</time></trkpt><trkpt lat="42.23667708730567" lon="13.044172034546522"><ele>802.3333333333333</ele><time>2026-04-19T12:59:42.999Z</time></trkpt><trkpt lat="42.23660907663151" lon="13.04416466198226"><ele>798.5</ele><time>2026-04-19T12:59:44Z</time></trkpt><trkpt lat="42.23653401600792" lon="13.044193292910009"><ele>794.6666666666666</ele><time>2026-04-19T12:59:45Z</time></trkpt><trkpt lat="42.23646280687339" lon="13.044250577489999"><ele>790.8333333333333</ele><time>2026-04-19T12:59:46Z</time></trkpt><trkpt lat="42.23640011464736" lon="13.04432280226633"><ele>787.0</ele><time>2026-04-19T12:59:47Z</time></trkpt><trkpt lat="42.23634435028513" lon="13.044406581434918"><ele>786.1666666666666</ele><time>2026-04-19T12:59:48Z</time></trkpt><trkpt lat="42.23630022695587" lon="13.0444945917936"><ele>785.3333333333333</ele><time>2026-04-19T12:59:49Z</time></trkpt><trkpt lat="42.236260024601904" lon="13.044586547949606"><ele>784.5</ele><time>2026-04-19T12:59:50Z</time></trkpt><trkpt lat="42.23623091049878" lon="13.044684066024303"><ele>783.6666666666667</ele><time>2026-04-19T12:59:51Z</time></trkpt><trkpt lat="42.23621150041174" lon="13.044767566086858"><ele>782.8333333333334</ele><time>2026-04-19T12:59:52Z</time></trkpt><trkpt lat="42.23617023787141" lon="13.044903363331976"><ele>782.0</ele><time>2026-04-19T12:59:54Z</time></trkpt><trkpt lat="42.23608746990138" lon="13.045000063505233"><ele>780.5000000000001</ele><time>2026-04-19T12:59:56Z</time></trkpt><trkpt lat="42.236019429478816" lon="13.045058010133983"><ele>779.0</ele><time>2026-04-19T12:59:57Z</time></trkpt><trkpt lat="42.235943345250874" lon="13.045122807150324"><ele>777.5</ele><time>2026-04-19T12:59:58Z</time></trkpt><trkpt lat="42.23587590176524" lon="13.04518514004861"><ele>776.0</ele><time>2026-04-19T12:59:59Z</time></trkpt><trkpt lat="42.23581732335668" lon="13.04524729198426"><ele>774.5000000000001</ele><time>2026-04-19T13:00:00Z</time></trkpt><trkpt lat="42.235765253014044" lon="13.045310529929589"><ele>773.0</ele><time>2026-04-19T13:00:01Z</time></trkpt><trkpt lat="42.23571429549829" lon="13.045388119968687"><ele>773.0000000000001</ele><time>2026-04-19T13:00:02Z</time></trkpt><trkpt lat="42.235679769557265" lon="13.04546945252495"><ele>773.0</ele><time>2026-04-19T13:00:03Z</time></trkpt><trkpt lat="42.23566420941289" lon="13.045575914530342"><ele>773.0</ele><time>2026-04-19T13:00:04Z</time></trkpt><trkpt lat="42.23566029243936" lon="13.045683231218346"><ele>773.0</ele><time>2026-04-19T13:00:05Z</time></trkpt><trkpt lat="42.2356581586232" lon="13.045797017203743"><ele>773.0000000000001</ele><time>2026-04-19T13:00:06Z</time></trkpt><trkpt lat="42.235655552293785" lon="13.045921898357676"><ele>773.0</ele><time>2026-04-19T13:00:07Z</time></trkpt><trkpt lat="42.23564717679" lon="13.046049834152704"><ele>768.6666666666667</ele><time>2026-04-19T13:00:08Z</time></trkpt><trkpt lat="42.23563091927758" lon="13.046156602140618"><ele>764.3333333333334</ele><time>2026-04-19T13:00:09Z</time></trkpt><trkpt lat="42.23560664187029" lon="13.046262236021999"><ele>760.0</ele><time>2026-04-19T13:00:10Z</time></trkpt><trkpt lat="42.23557163116743" lon="13.046367955520974"><ele>755.6666666666667</ele><time>2026-04-19T13:00:11Z</time></trkpt><trkpt lat="42.235529498777595" lon="13.04647817407037"><ele>751.3333333333334</ele><time>2026-04-19T13:00:12Z</time></trkpt><trkpt lat="42.23549092397164" lon="13.046602803451853"><ele>747.0</ele><time>2026-04-19T13:00:13Z</time></trkpt><trkpt lat="42.23546572416566" lon="13.04673560311261"><ele>747.0</ele><time>2026-04-19T13:00:14Z</time></trkpt><trkpt lat="42.2354456751706" lon="13.046865921516723"><ele>747.0</ele><time>2026-04-19T13:00:15Z</time></trkpt><trkpt lat="42.235428185596696" lon="13.046980010758405"><ele>747.0</ele><time>2026-04-19T13:00:16Z</time></trkpt><trkpt lat="42.235414001145706" lon="13.047079457517977"><ele>747.0</ele><time>2026-04-19T13:00:17Z</time></trkpt><trkpt lat="42.23540368901912" lon="13.047175469239582"><ele>747.0</ele><time>2026-04-19T13:00:18Z</time></trkpt><trkpt lat="42.23540144860312" lon="13.04726846876113"><ele>747.0</ele><time>2026-04-19T13:00:19Z</time></trkpt><trkpt lat="42.235417182366966" lon="13.047372318856636"><ele>746.5</ele><time>2026-04-19T13:00:20Z</time></trkpt><trkpt lat="42.235459100571134" lon="13.04747137864029"><ele>746.0</ele><time>2026-04-19T13:00:21Z</time></trkpt><trkpt lat="42.23552968708392" lon="13.04755314419129"><ele>745.5</ele><time>2026-04-19T13:00:22Z</time></trkpt><trkpt lat="42.235594168929104" lon="13.047630238231326"><ele>745.0</ele><time>2026-04-19T13:00:23Z</time></trkpt><trkpt lat="42.235662871728074" lon="13.047706660262211"><ele>744.5</ele><time>2026-04-19T13:00:24.001Z</time></trkpt><trkpt lat="42.235729529769564" lon="13.047788880156187"><ele>744.0</ele><time>2026-04-19T13:00:25.001Z</time></trkpt><trkpt lat="42.23579276525726" lon="13.047894711067038"><ele>744.6666666666666</ele><time>2026-04-19T13:00:26.001Z</time></trkpt><trkpt lat="42.23583946103676" lon="13.047997008646227"><ele>745.3333333333334</ele><time>2026-04-19T13:00:27.001Z</time></trkpt><trkpt lat="42.23588227645079" lon="13.048098453196573"><ele>746.0</ele><time>2026-04-19T13:00:28.001Z</time></trkpt><trkpt lat="42.23591883230766" lon="13.048183427846471"><ele>746.6666666666667</ele><time>2026-04-19T13:00:29.001Z</time></trkpt><trkpt lat="42.23595451164452" lon="13.048264980824467"><ele>747.3333333333334</ele><time>2026-04-19T13:00:30.001Z</time></trkpt><trkpt lat="42.23599063904046" lon="13.048335216697044"><ele>748.0</ele><time>2026-04-19T13:00:31.001Z</time></trkpt><trkpt lat="42.236072294773386" lon="13.04844787880193"><ele>748.0</ele><time>2026-04-19T13:00:33.001Z</time></trkpt><trkpt lat="42.23613297422898" lon="13.048475672675579"><ele>748.0</ele><time>2026-04-19T13:00:34.001Z</time></trkpt><trkpt lat="42.236202036939154" lon="13.048447040298761"><ele>748.0</ele><time>2026-04-19T13:00:35.001Z</time></trkpt><trkpt lat="42.236307219283596" lon="13.048375063060437"><ele>748.0</ele><time>2026-04-19T13:00:37.001Z</time></trkpt><trkpt lat="42.2364070596873" lon="13.04831887258547"><ele>748.0</ele><time>2026-04-19T13:00:39.001Z</time></trkpt><trkpt lat="42.236513452272135" lon="13.048296098509224"><ele>748.2</ele><time>2026-04-19T13:00:41.001Z</time></trkpt><trkpt lat="42.23658613381357" lon="13.04831543399361"><ele>748.4</ele><time>2026-04-19T13:00:43.001Z</time></trkpt><trkpt lat="42.236662965330325" lon="13.048350214388089"><ele>748.6</ele><time>2026-04-19T13:00:45.001Z</time></trkpt><trkpt lat="42.23675630994889" lon="13.048393211450389"><ele>748.8000000000001</ele><time>2026-04-19T13:00:47.001Z</time></trkpt><trkpt lat="42.236858086351276" lon="13.048445357925303"><ele>749.0</ele><time>2026-04-19T13:00:49.001Z</time></trkpt><trkpt lat="42.23697760672192" lon="13.048481084276123"><ele>749.0</ele><time>2026-04-19T13:00:51.001Z</time></trkpt><trkpt lat="42.23707792083455" lon="13.048508280798998"><ele>749.0</ele><time>2026-04-19T13:00:53.001Z</time></trkpt><trkpt lat="42.23715800697694" lon="13.04856532427272"><ele>749.0</ele><time>2026-04-19T13:00:55.001Z</time></trkpt><trkpt lat="42.237218189191715" lon="13.048666255533064"><ele>749.0</ele><time>2026-04-19T13:00:57.001Z</time></trkpt><trkpt lat="42.23720931842999" lon="13.048766437771137"><ele>749.0</ele><time>2026-04-19T13:00:59.001Z</time></trkpt><trkpt lat="42.23714351703219" lon="13.048846274050796"><ele>749.0</ele><time>2026-04-19T13:01:01.001Z</time></trkpt><trkpt lat="42.23703778299074" lon="13.048854155677983"><ele>749.0</ele><time>2026-04-19T13:01:03.001Z</time></trkpt><trkpt lat="42.23693844940583" lon="13.048818883700672"><ele>749.0</ele><time>2026-04-19T13:01:05.001Z</time></trkpt><trkpt lat="42.23687620248922" lon="13.048774797197604"><ele>749.0</ele><time>2026-04-19T13:01:07.001Z</time></trkpt><trkpt lat="42.23681105776128" lon="13.048720855871808"><ele>749.0</ele><time>2026-04-19T13:01:10.001Z</time></trkpt><trkpt lat="42.23675352884837" lon="13.048671828342014"><ele>749.0</ele><time>2026-04-19T13:01:12.001Z</time></trkpt><trkpt lat="42.23667728256273" lon="13.04861986327516"><ele>749.0</ele><time>2026-04-19T13:01:15.001Z</time></trkpt><trkpt lat="42.23660815703059" lon="13.048582939524955"><ele>749.0</ele><time>2026-04-19T13:01:18.001Z</time></trkpt><trkpt lat="42.23654129920801" lon="13.048574298755304"><ele>749.0</ele><time>2026-04-19T13:01:46Z</time></trkpt><trkpt lat="42.23645468189095" lon="13.048615016727663"><ele>749.0</ele><time>2026-04-19T13:01:49Z</time></trkpt><trkpt lat="42.23639327959239" lon="13.048674399466728"><ele>749.0</ele><time>2026-04-19T13:01:52Z</time></trkpt><trkpt lat="42.23633709618402" lon="13.048745116172329"><ele>749.0</ele><time>2026-04-19T13:01:55Z</time></trkpt><trkpt lat="42.236262824124786" lon="13.048839846359753"><ele>748.8333333333333</ele><time>2026-04-19T13:01:58.001Z</time></trkpt><trkpt lat="42.23619799499746" lon="13.048931347585462"><ele>748.6666666666666</ele><time>2026-04-19T13:02:01.001Z</time></trkpt><trkpt lat="42.236147898743546" lon="13.049002682473063"><ele>748.5</ele><time>2026-04-19T13:02:03.001Z</time></trkpt><trkpt lat="42.236101702875864" lon="13.049064165756041"><ele>748.3333333333334</ele><time>2026-04-19T13:02:05.001Z</time></trkpt><trkpt lat="42.23603188850411" lon="13.049141511431221"><ele>748.1666666666667</ele><time>2026-04-19T13:02:08.001Z</time></trkpt><trkpt lat="42.235937304187814" lon="13.049148586906334"><ele>748.0</ele><time>2026-04-19T13:02:11.001Z</time></trkpt><trkpt lat="42.235872684184095" lon="13.049099571755852"><ele>748.0</ele><time>2026-04-19T13:02:13.001Z</time></trkpt><trkpt lat="42.235816127677055" lon="13.04901230825785"><ele>748.0</ele><time>2026-04-19T13:02:15.001Z</time></trkpt><trkpt lat="42.235765787296295" lon="13.048909816839002"><ele>748.0</ele><time>2026-04-19T13:02:17.001Z</time></trkpt><trkpt lat="42.23571330028236" lon="13.048794067488984"><ele>748.0</ele><time>2026-04-19T13:02:19.001Z</time></trkpt><trkpt lat="42.23566638428376" lon="13.048677396632586"><ele>748.0</ele><time>2026-04-19T13:02:21.001Z</time></trkpt><trkpt lat="42.23561637463007" lon="13.048571009423428"><ele>743.0</ele><time>2026-04-19T13:02:23.001Z</time></trkpt><trkpt lat="42.235542680445334" lon="13.04848666754362"><ele>738.0</ele><time>2026-04-19T13:02:25.001Z</time></trkpt><trkpt lat="42.235462981397156" lon="13.04841013915178"><ele>733.0</ele><time>2026-04-19T13:02:27.001Z</time></trkpt><trkpt lat="42.23538783440356" lon="13.048339149570449"><ele>728.0</ele><time>2026-04-19T13:02:29.001Z</time></trkpt><trkpt lat="42.23529741020533" lon="13.048334604572416"><ele>723.0</ele><time>2026-04-19T13:02:31.001Z</time></trkpt><trkpt lat="42.23520781967493" lon="13.048333747406145"><ele>723.0</ele><time>2026-04-19T13:02:33.001Z</time></trkpt><trkpt lat="42.23512227148144" lon="13.048331464450115"><ele>723.0</ele><time>2026-04-19T13:02:35.001Z</time></trkpt><trkpt lat="42.235034914218375" lon="13.048334591101227"><ele>723.0</ele><time>2026-04-19T13:02:37.001Z</time></trkpt><trkpt lat="42.234945185355606" lon="13.048336255726301"><ele>723.0</ele><time>2026-04-19T13:02:39.001Z</time></trkpt><trkpt lat="42.23486539955533" lon="13.04824759746144"><ele>723.0</ele><time>2026-04-19T13:02:41.001Z</time></trkpt><trkpt lat="42.23475866683818" lon="13.048152729933841"><ele>720.2</ele><time>2026-04-19T13:02:43.001Z</time></trkpt><trkpt lat="42.234695554975566" lon="13.048112875890151"><ele>717.4</ele><time>2026-04-19T13:02:44.001Z</time></trkpt><trkpt lat="42.234586867454425" lon="13.048047795105518"><ele>714.6</ele><time>2026-04-19T13:02:46.001Z</time></trkpt><trkpt lat="42.234497773327654" lon="13.047989544994023"><ele>711.8000000000001</ele><time>2026-04-19T13:02:48.001Z</time></trkpt><trkpt lat="42.23443528817985" lon="13.047879502321498"><ele>709.0</ele><time>2026-04-19T13:02:50.002Z</time></trkpt><trkpt lat="42.23439679915853" lon="13.047763592435793"><ele>709.0</ele><time>2026-04-19T13:02:52.002Z</time></trkpt><trkpt lat="42.23437424057556" lon="13.047666018996546"><ele>709.0</ele><time>2026-04-19T13:02:54.002Z</time></trkpt><trkpt lat="42.23434007847948" lon="13.047547536041765"><ele>709.0</ele><time>2026-04-19T13:02:56.002Z</time></trkpt><trkpt lat="42.234307220629525" lon="13.047426906451834"><ele>709.0</ele><time>2026-04-19T13:02:58.002Z</time></trkpt><trkpt lat="42.23427330274357" lon="13.047330680312307"><ele>709.0</ele><time>2026-04-19T13:03:00.002Z</time></trkpt><trkpt lat="42.23424383107476" lon="13.047245449845121"><ele>709.0</ele><time>2026-04-19T13:03:02.002Z</time></trkpt><trkpt lat="42.23422538275379" lon="13.047152705926488"><ele>709.8333333333334</ele><time>2026-04-19T13:03:04.002Z</time></trkpt><trkpt lat="42.234195175192816" lon="13.047071070961628"><ele>710.6666666666667</ele><time>2026-04-19T13:03:22.002Z</time></trkpt><trkpt lat="42.23416470118945" lon="13.046992836785124"><ele>711.5</ele><time>2026-04-19T13:04:13.001Z</time></trkpt><trkpt lat="42.234124629112145" lon="13.046906418418251"><ele>712.3333333333334</ele><time>2026-04-19T13:04:24.001Z</time></trkpt><trkpt lat="42.234084764289854" lon="13.046834783825558"><ele>713.1666666666666</ele><time>2026-04-19T13:04:29.001Z</time></trkpt><trkpt lat="42.23403583970644" lon="13.047029664549049"><ele>714.0</ele><time>2026-04-19T13:04:32.001Z</time></trkpt><trkpt lat="42.234069358607044" lon="13.047135114695466"><ele>714.0</ele><time>2026-04-19T13:04:34.001Z</time></trkpt><trkpt lat="42.23407930382221" lon="13.047224150604142"><ele>714.0</ele><time>2026-04-19T13:04:39.001Z</time></trkpt><trkpt lat="42.234093843528825" lon="13.047316984545427"><ele>714.0</ele><time>2026-04-19T13:04:42.001Z</time></trkpt><trkpt lat="42.23412856521435" lon="13.047404842547367"><ele>714.0</ele><time>2026-04-19T13:04:49.002Z</time></trkpt><trkpt lat="42.23414733394928" lon="13.047509640787542"><ele>714.0</ele><time>2026-04-19T13:04:51.002Z</time></trkpt><trkpt lat="42.234170783973916" lon="13.04764082982898"><ele>714.0</ele><time>2026-04-19T13:04:53.002Z</time></trkpt><trkpt lat="42.234186873943415" lon="13.047786489003165"><ele>713.0</ele><time>2026-04-19T13:04:55.002Z</time></trkpt><trkpt lat="42.23421178029224" lon="13.047941843054499"><ele>712.0</ele><time>2026-04-19T13:04:56.002Z</time></trkpt><trkpt lat="42.23423753782319" lon="13.048078640903514"><ele>711.0</ele><time>2026-04-19T13:04:57.002Z</time></trkpt><trkpt lat="42.234269085736216" lon="13.048179830147626"><ele>710.0</ele><time>2026-04-19T13:04:58.002Z</time></trkpt><trkpt lat="42.23432727961325" lon="13.048244830279664"><ele>709.0</ele><time>2026-04-19T13:04:59.002Z</time></trkpt><trkpt lat="42.234403521090826" lon="13.048287401754346"><ele>704.8000000000001</ele><time>2026-04-19T13:05:00.002Z</time></trkpt><trkpt lat="42.23449145318139" lon="13.048322436271906"><ele>700.6</ele><time>2026-04-19T13:05:01.002Z</time></trkpt><trkpt lat="42.234574184772086" lon="13.048386296184255"><ele>696.4</ele><time>2026-04-19T13:05:02.002Z</time></trkpt><trkpt lat="42.23464641758224" lon="13.048501229690213"><ele>692.2</ele><time>2026-04-19T13:05:03.002Z</time></trkpt><trkpt lat="42.23469945993641" lon="13.048626356827791"><ele>688.0</ele><time>2026-04-19T13:05:04.002Z</time></trkpt><trkpt lat="42.23473723106664" lon="13.048720072191976"><ele>688.0</ele><time>2026-04-19T13:05:05.002Z</time></trkpt><trkpt lat="42.23478514890551" lon="13.048780424696591"><ele>688.0</ele><time>2026-04-19T13:05:06.002Z</time></trkpt><trkpt lat="42.23485239407242" lon="13.048823647108952"><ele>688.0</ele><time>2026-04-19T13:05:07.002Z</time></trkpt><trkpt lat="42.23494880160336" lon="13.048840908876226"><ele>688.0</ele><time>2026-04-19T13:05:08.002Z</time></trkpt><trkpt lat="42.23505985022293" lon="13.048851757519124"><ele>688.0</ele><time>2026-04-19T13:05:09.002Z</time></trkpt><trkpt lat="42.23513941675332" lon="13.048875540277756"><ele>688.0</ele><time>2026-04-19T13:05:10.002Z</time></trkpt><trkpt lat="42.23520860880566" lon="13.04893099748309"><ele>688.5999999999999</ele><time>2026-04-19T13:05:11.002Z</time></trkpt><trkpt lat="42.235259677540085" lon="13.049026522491472"><ele>689.1999999999999</ele><time>2026-04-19T13:05:12.002Z</time></trkpt><trkpt lat="42.23529529385737" lon="13.049158777869508"><ele>689.8</ele><time>2026-04-19T13:05:13.002Z</time></trkpt><trkpt lat="42.23531126857467" lon="13.049323456854916"><ele>690.4</ele><time>2026-04-19T13:05:14.002Z</time></trkpt><trkpt lat="42.23532417995133" lon="13.049456690101074"><ele>691.0</ele><time>2026-04-19T13:05:15.002Z</time></trkpt><trkpt lat="42.235334735921114" lon="13.049569375215567"><ele>691.0</ele><time>2026-04-19T13:05:16.002Z</time></trkpt><trkpt lat="42.235418076684596" lon="13.049656286618573"><ele>691.0</ele><time>2026-04-19T13:05:17.002Z</time></trkpt><trkpt lat="42.23551159427807" lon="13.049740408538552"><ele>691.0</ele><time>2026-04-19T13:05:18.002Z</time></trkpt><trkpt lat="42.23562071300519" lon="13.049827953463868"><ele>691.0</ele><time>2026-04-19T13:05:19.002Z</time></trkpt><trkpt lat="42.23570446426151" lon="13.04992671691892"><ele>690.1999999999999</ele><time>2026-04-19T13:05:20.002Z</time></trkpt><trkpt lat="42.23577365625898" lon="13.050025114549614"><ele>689.4</ele><time>2026-04-19T13:05:21.002Z</time></trkpt><trkpt lat="42.2358530659507" lon="13.050084663568358"><ele>688.6</ele><time>2026-04-19T13:05:22.002Z</time></trkpt><trkpt lat="42.23593983691397" lon="13.05012533821342"><ele>687.8</ele><time>2026-04-19T13:05:23.002Z</time></trkpt><trkpt lat="42.23603784261729" lon="13.050083391113708"><ele>687.0</ele><time>2026-04-19T13:05:24.002Z</time></trkpt><trkpt lat="42.236125219827436" lon="13.050029025380292"><ele>693.0</ele><time>2026-04-19T13:05:25.002Z</time></trkpt><trkpt lat="42.236196370112985" lon="13.04994330355119"><ele>699.0</ele><time>2026-04-19T13:05:26.002Z</time></trkpt><trkpt lat="42.23625067687852" lon="13.04986225063611"><ele>705.0</ele><time>2026-04-19T13:05:27.002Z</time></trkpt><trkpt lat="42.23630502601464" lon="13.049809089012603"><ele>711.0</ele><time>2026-04-19T13:05:28.002Z</time></trkpt><trkpt lat="42.236416043278915" lon="13.04977768010894"><ele>717.0</ele><time>2026-04-19T13:05:30.002Z</time></trkpt><trkpt lat="42.236510837603404" lon="13.04976908451993"><ele>718.3333333333334</ele><time>2026-04-19T13:05:32.002Z</time></trkpt><trkpt lat="42.23658770055395" lon="13.0497950853949"><ele>719.6666666666666</ele><time>2026-04-19T13:05:34.002Z</time></trkpt><trkpt lat="42.23665575566045" lon="13.049850899974036"><ele>721.0</ele><time>2026-04-19T13:05:37.002Z</time></trkpt><trkpt lat="42.23673870863259" lon="13.049921351563864"><ele>722.3333333333333</ele><time>2026-04-19T13:05:39.002Z</time></trkpt><trkpt lat="42.23678244551367" lon="13.050002057313945"><ele>723.6666666666666</ele><time>2026-04-19T13:05:40.002Z</time></trkpt><trkpt lat="42.236833246781636" lon="13.050119594881044"><ele>725.0</ele><time>2026-04-19T13:05:41.002Z</time></trkpt><trkpt lat="42.23685669364815" lon="13.050268709340632"><ele>719.5</ele><time>2026-04-19T13:05:42Z</time></trkpt><trkpt lat="42.23688114532477" lon="13.050398748775983"><ele>714.0</ele><time>2026-04-19T13:05:43Z</time></trkpt><trkpt lat="42.23689016316704" lon="13.050515058424317"><ele>708.5</ele><time>2026-04-19T13:05:44Z</time></trkpt><trkpt lat="42.23688015192324" lon="13.050619036337345"><ele>703.0</ele><time>2026-04-19T13:05:45Z</time></trkpt><trkpt lat="42.23684917991928" lon="13.050712536756471"><ele>697.5</ele><time>2026-04-19T13:05:46Z</time></trkpt><trkpt lat="42.23681510824464" lon="13.050815724828476"><ele>692.0</ele><time>2026-04-19T13:05:47Z</time></trkpt><trkpt lat="42.23678621259894" lon="13.05089739602738"><ele>689.5714285714286</ele><time>2026-04-19T13:05:48Z</time></trkpt><trkpt lat="42.23674851518341" lon="13.050997679625393"><ele>687.1428571428572</ele><time>2026-04-19T13:05:50Z</time></trkpt><trkpt lat="42.236719778667066" lon="13.051074125178543"><ele>684.7142857142858</ele><time>2026-04-19T13:06:13.001Z</time></trkpt><trkpt lat="42.23669630044903" lon="13.051171548246254"><ele>682.2857142857142</ele><time>2026-04-19T13:06:17.001Z</time></trkpt><trkpt lat="42.23666543437545" lon="13.0512499444665"><ele>679.8571428571429</ele><time>2026-04-19T13:06:19.001Z</time></trkpt><trkpt lat="42.23666265961589" lon="13.05134033589338"><ele>677.4285714285714</ele><time>2026-04-19T13:06:22.001Z</time></trkpt><trkpt lat="42.23668851107611" lon="13.051445373690926"><ele>675.0</ele><time>2026-04-19T13:06:51.001Z</time></trkpt><trkpt lat="42.23676019864179" lon="13.051474526073424"><ele>692.0</ele><time>2026-04-19T13:06:54.001Z</time></trkpt><trkpt lat="42.236896935891245" lon="13.05038365633546"><ele>692.0</ele><time>2026-04-19T13:07:10.002Z</time></trkpt><trkpt lat="42.23686706818794" lon="13.050276678392533"><ele>692.0</ele><time>2026-04-19T13:07:11.002Z</time></trkpt><trkpt lat="42.23682887244006" lon="13.050160026877768"><ele>692.0</ele><time>2026-04-19T13:07:12.002Z</time></trkpt><trkpt lat="42.2367879446932" lon="13.05004513473549"><ele>692.0</ele><time>2026-04-19T13:07:13.002Z</time></trkpt><trkpt lat="42.23674811448628" lon="13.049949831948965"><ele>692.0</ele><time>2026-04-19T13:07:14.002Z</time></trkpt><trkpt lat="42.236709809559194" lon="13.049877907677836"><ele>692.0</ele><time>2026-04-19T13:07:15.002Z</time></trkpt><trkpt lat="42.23661909706741" lon="13.049787060551296"><ele>696.1666666666666</ele><time>2026-04-19T13:07:17.002Z</time></trkpt><trkpt lat="42.236552821908695" lon="13.049765713812429"><ele>700.3333333333333</ele><time>2026-04-19T13:07:18.002Z</time></trkpt><trkpt lat="42.23648128734811" lon="13.04976005800581"><ele>704.5</ele><time>2026-04-19T13:07:19.002Z</time></trkpt><trkpt lat="42.236415865646734" lon="13.049769738276579"><ele>708.6666666666666</ele><time>2026-04-19T13:07:20.002Z</time></trkpt><trkpt lat="42.23634680420958" lon="13.049793995358371"><ele>712.8333333333334</ele><time>2026-04-19T13:07:21.002Z</time></trkpt><trkpt lat="42.23628889751641" lon="13.049827895226459"><ele>717.0</ele><time>2026-04-19T13:07:22.002Z</time></trkpt><trkpt lat="42.23619665090223" lon="13.049912140763476"><ele>712.0</ele><time>2026-04-19T13:07:24.002Z</time></trkpt><trkpt lat="42.236110377140925" lon="13.050045739312882"><ele>707.0</ele><time>2026-04-19T13:07:26.002Z</time></trkpt><trkpt lat="42.23604901186206" lon="13.050091233033173"><ele>702.0</ele><time>2026-04-19T13:07:27.002Z</time></trkpt><trkpt lat="42.235980192518426" lon="13.05010889977009"><ele>697.0</ele><time>2026-04-19T13:07:28.002Z</time></trkpt><trkpt lat="42.23589844215113" lon="13.050094863276561"><ele>692.0</ele><time>2026-04-19T13:07:29.002Z</time></trkpt><trkpt lat="42.235825623021185" lon="13.050057567755992"><ele>687.0</ele><time>2026-04-19T13:07:30.002Z</time></trkpt><trkpt lat="42.235753519138775" lon="13.049984410263678"><ele>687.8</ele><time>2026-04-19T13:07:31.002Z</time></trkpt><trkpt lat="42.235673918010924" lon="13.049887751281531"><ele>688.6</ele><time>2026-04-19T13:07:32.002Z</time></trkpt><trkpt lat="42.23560432114091" lon="13.049775251744348"><ele>689.4</ele><time>2026-04-19T13:07:33.002Z</time></trkpt><trkpt lat="42.23553838772066" lon="13.049713425123462"><ele>690.1999999999999</ele><time>2026-04-19T13:07:34.002Z</time></trkpt><trkpt lat="42.235486141455645" lon="13.049665693162327"><ele>691.0</ele><time>2026-04-19T13:07:35.002Z</time></trkpt><trkpt lat="42.23539879066997" lon="13.049599170158874"><ele>691.0</ele><time>2026-04-19T13:07:37.002Z</time></trkpt><trkpt lat="42.235368838945185" lon="13.04950642283791"><ele>691.0</ele><time>2026-04-19T13:07:39.002Z</time></trkpt><trkpt lat="42.23532258426245" lon="13.049403868938276"><ele>691.0</ele><time>2026-04-19T13:07:58Z</time></trkpt><trkpt lat="42.23531745140107" lon="13.0492751047408"><ele>691.0</ele><time>2026-04-19T13:07:59Z</time></trkpt><trkpt lat="42.23531058313952" lon="13.049133123962994"><ele>691.0</ele><time>2026-04-19T13:08:00Z</time></trkpt><trkpt lat="42.23529438428203" lon="13.049045492755084"><ele>691.0</ele><time>2026-04-19T13:08:01Z</time></trkpt><trkpt lat="42.23525281232974" lon="13.048969408804222"><ele>691.0</ele><time>2026-04-19T13:08:03Z</time></trkpt><trkpt lat="42.235208444251946" lon="13.048869415659563"><ele>691.0</ele><time>2026-04-19T13:08:22.001Z</time></trkpt><trkpt lat="42.23514487799631" lon="13.048820017686923"><ele>691.0</ele><time>2026-04-19T13:08:44.001Z</time></trkpt><trkpt lat="42.23520824849113" lon="13.048871580412593"><ele>691.0</ele><time>2026-04-19T13:10:45.001Z</time></trkpt><trkpt lat="42.235252169770106" lon="13.04893853307659"><ele>691.0</ele><time>2026-04-19T13:11:26.002Z</time></trkpt><trkpt lat="42.2352946048012" lon="13.049045151204917"><ele>691.0</ele><time>2026-04-19T13:11:28.002Z</time></trkpt><trkpt lat="42.235314472817265" lon="13.049182168738211"><ele>691.0</ele><time>2026-04-19T13:11:30.002Z</time></trkpt><trkpt lat="42.23536463592467" lon="13.048895904776911"><ele>691.0</ele><time>2026-04-19T13:11:31.002Z</time></trkpt><trkpt lat="42.23534156089935" lon="13.049492671172507"><ele>691.0</ele><time>2026-04-19T13:11:33.002Z</time></trkpt><trkpt lat="42.235384039317616" lon="13.04959367571028"><ele>691.0</ele><time>2026-04-19T13:11:34.002Z</time></trkpt><trkpt lat="42.2354516570292" lon="13.049684589110242"><ele>691.0</ele><time>2026-04-19T13:11:35.002Z</time></trkpt><trkpt lat="42.23553696847926" lon="13.049769470782051"><ele>691.0</ele><time>2026-04-19T13:11:36.002Z</time></trkpt><trkpt lat="42.23563427560708" lon="13.049861837219888"><ele>691.0</ele><time>2026-04-19T13:11:37.002Z</time></trkpt><trkpt lat="42.23571501257172" lon="13.049958580905496"><ele>690.3333333333334</ele><time>2026-04-19T13:11:38.002Z</time></trkpt><trkpt lat="42.235779549342254" lon="13.050040398097156"><ele>689.6666666666667</ele><time>2026-04-19T13:11:39.002Z</time></trkpt><trkpt lat="42.23585491866392" lon="13.050083373549976"><ele>689.0</ele><time>2026-04-19T13:11:40.002Z</time></trkpt><trkpt lat="42.235940911481975" lon="13.050101893986644"><ele>688.3333333333334</ele><time>2026-04-19T13:11:41.002Z</time></trkpt><trkpt lat="42.23602607563399" lon="13.050086964185613"><ele>687.6666666666666</ele><time>2026-04-19T13:11:42.002Z</time></trkpt><trkpt lat="42.23610439135135" lon="13.050039377493567"><ele>687.0</ele><time>2026-04-19T13:11:43.002Z</time></trkpt><trkpt lat="42.236173113547075" lon="13.049959460676448"><ele>691.2857142857143</ele><time>2026-04-19T13:11:44.002Z</time></trkpt><trkpt lat="42.23624405867178" lon="13.04987024271081"><ele>695.5714285714286</ele><time>2026-04-19T13:11:45.002Z</time></trkpt><trkpt lat="42.236314845827536" lon="13.049808292533319"><ele>699.8571428571429</ele><time>2026-04-19T13:11:46.002Z</time></trkpt><trkpt lat="42.236377169956995" lon="13.049774647276145"><ele>704.1428571428571</ele><time>2026-04-19T13:11:47.002Z</time></trkpt><trkpt lat="42.23644352178811" lon="13.049761017610843"><ele>708.4285714285713</ele><time>2026-04-19T13:11:48.002Z</time></trkpt><trkpt lat="42.2365115042324" lon="13.04976245705449"><ele>712.7142857142857</ele><time>2026-04-19T13:11:49.002Z</time></trkpt><trkpt lat="42.236575550167636" lon="13.049774050575781"><ele>717.0</ele><time>2026-04-19T13:11:50.002Z</time></trkpt><trkpt lat="42.236685508211465" lon="13.049857207168944"><ele>718.3333333333334</ele><time>2026-04-19T13:11:52.002Z</time></trkpt><trkpt lat="42.23673104352487" lon="13.049934859418936"><ele>719.6666666666666</ele><time>2026-04-19T13:11:53.002Z</time></trkpt><trkpt lat="42.23677312845845" lon="13.05002928010068"><ele>721.0</ele><time>2026-04-19T13:11:54.002Z</time></trkpt><trkpt lat="42.2368172522926" lon="13.050141649582034"><ele>722.3333333333333</ele><time>2026-04-19T13:11:55.002Z</time></trkpt><trkpt lat="42.23685614474694" lon="13.050263870411575"><ele>723.6666666666666</ele><time>2026-04-19T13:11:56.002Z</time></trkpt><trkpt lat="42.23688436809379" lon="13.050385609995985"><ele>725.0</ele><time>2026-04-19T13:11:57.002Z</time></trkpt><trkpt lat="42.236897806624455" lon="13.050495638173057"><ele>719.5</ele><time>2026-04-19T13:11:58.002Z</time></trkpt><trkpt lat="42.236894287117316" lon="13.050604763512322"><ele>714.0</ele><time>2026-04-19T13:11:59.002Z</time></trkpt><trkpt lat="42.236851466004076" lon="13.05071024365947"><ele>708.5</ele><time>2026-04-19T13:12:00.001Z</time></trkpt><trkpt lat="42.23681044543684" lon="13.05082967948611"><ele>703.0</ele><time>2026-04-19T13:12:01.001Z</time></trkpt><trkpt lat="42.23678231825843" lon="13.050951340288098"><ele>697.5</ele><time>2026-04-19T13:12:02.001Z</time></trkpt><trkpt lat="42.23674814131506" lon="13.051032771590679"><ele>692.0</ele><time>2026-04-19T13:12:03.001Z</time></trkpt><trkpt lat="42.23669778206593" lon="13.051164774620785"><ele>688.6</ele><time>2026-04-19T13:12:05.001Z</time></trkpt><trkpt lat="42.23666574490252" lon="13.0513029871053"><ele>685.2</ele><time>2026-04-19T13:12:07.001Z</time></trkpt><trkpt lat="42.236706851905815" lon="13.051434205041325"><ele>681.8</ele><time>2026-04-19T13:12:09.001Z</time></trkpt><trkpt lat="42.23680309227005" lon="13.051462528813651"><ele>678.4</ele><time>2026-04-19T13:12:11.001Z</time></trkpt><trkpt lat="42.23689426452609" lon="13.051378779779885"><ele>675.0</ele><time>2026-04-19T13:12:13.001Z</time></trkpt><trkpt lat="42.237014456547854" lon="13.051328567169497"><ele>675.0</ele><time>2026-04-19T13:12:15.001Z</time></trkpt><trkpt lat="42.23708391017575" lon="13.051268573883984"><ele>675.0</ele><time>2026-04-19T13:12:16.001Z</time></trkpt><trkpt lat="42.237153518550926" lon="13.051243181228308"><ele>675.0</ele><time>2026-04-19T13:12:17.001Z</time></trkpt><trkpt lat="42.237275534209566" lon="13.051259041569397"><ele>675.0</ele><time>2026-04-19T13:12:19.001Z</time></trkpt><trkpt lat="42.23733722446335" lon="13.051300506491334"><ele>675.0</ele><time>2026-04-19T13:12:20.001Z</time></trkpt><trkpt lat="42.23738337827331" lon="13.051377744666416"><ele>675.0</ele><time>2026-04-19T13:12:21.001Z</time></trkpt><trkpt lat="42.23746226724065" lon="13.051407963527334"><ele>677.6</ele><time>2026-04-19T13:12:22.001Z</time></trkpt><trkpt lat="42.237530508169634" lon="13.051437804854693"><ele>680.2</ele><time>2026-04-19T13:12:23.001Z</time></trkpt><trkpt lat="42.237595334090095" lon="13.0514520505658"><ele>682.8</ele><time>2026-04-19T13:12:24.001Z</time></trkpt><trkpt lat="42.2376964713011" lon="13.05150547259403"><ele>685.4</ele><time>2026-04-19T13:12:26.001Z</time></trkpt><trkpt lat="42.23778385782006" lon="13.051560891747757"><ele>688.0</ele><time>2026-04-19T13:12:28.001Z</time></trkpt><trkpt lat="42.23789467508886" lon="13.051538609615159"><ele>688.0</ele><time>2026-04-19T13:12:30.001Z</time></trkpt><trkpt lat="42.23796966871049" lon="13.051533511978043"><ele>688.0</ele><time>2026-04-19T13:12:31.001Z</time></trkpt><trkpt lat="42.23803717623546" lon="13.051448290841302"><ele>688.0</ele><time>2026-04-19T13:12:32.001Z</time></trkpt><trkpt lat="42.23806681842652" lon="13.051288304272441"><ele>688.0</ele><time>2026-04-19T13:12:33.001Z</time></trkpt><trkpt lat="42.238071711719066" lon="13.051132191699754"><ele>688.0</ele><time>2026-04-19T13:12:34.001Z</time></trkpt><trkpt lat="42.238056503914514" lon="13.050986381417694"><ele>688.0</ele><time>2026-04-19T13:12:35.001Z</time></trkpt><trkpt lat="42.238073498081434" lon="13.050879524770467"><ele>688.0</ele><time>2026-04-19T13:12:36.001Z</time></trkpt><trkpt lat="42.2380693735912" lon="13.050748143510626"><ele>688.0</ele><time>2026-04-19T13:12:38.001Z</time></trkpt><trkpt lat="42.23805830499947" lon="13.050594171794026"><ele>688.0</ele><time>2026-04-19T13:12:40.001Z</time></trkpt><trkpt lat="42.238070894680185" lon="13.050508226753639"><ele>688.0</ele><time>2026-04-19T13:12:41.001Z</time></trkpt><trkpt lat="42.238032975090334" lon="13.050430265594567"><ele>688.0</ele><time>2026-04-19T13:12:42.001Z</time></trkpt><trkpt lat="42.23803476739459" lon="13.050278657364435"><ele>689.6666666666667</ele><time>2026-04-19T13:12:44.001Z</time></trkpt><trkpt lat="42.23808713732814" lon="13.050153045504425"><ele>691.3333333333334</ele><time>2026-04-19T13:12:46.001Z</time></trkpt><trkpt lat="42.238156986194596" lon="13.050128815579278"><ele>693.0</ele><time>2026-04-19T13:12:47.001Z</time></trkpt><trkpt lat="42.238245760737954" lon="13.05011919859762"><ele>694.6666666666666</ele><time>2026-04-19T13:12:48.001Z</time></trkpt><trkpt lat="42.23834325931746" lon="13.050119063845798"><ele>696.3333333333333</ele><time>2026-04-19T13:12:49.001Z</time></trkpt><trkpt lat="42.23842263828308" lon="13.050111046968388"><ele>698.0</ele><time>2026-04-19T13:12:50.001Z</time></trkpt><trkpt lat="42.238488697974084" lon="13.05006553272733"><ele>693.2</ele><time>2026-04-19T13:12:51.001Z</time></trkpt><trkpt lat="42.238551597619846" lon="13.05000951411118"><ele>688.4</ele><time>2026-04-19T13:12:52.001Z</time></trkpt><trkpt lat="42.23856280796092" lon="13.049885523348594"><ele>683.6</ele><time>2026-04-19T13:12:53.001Z</time></trkpt><trkpt lat="42.238576852321714" lon="13.049750149904138"><ele>678.8000000000001</ele><time>2026-04-19T13:12:54.001Z</time></trkpt><trkpt lat="42.23858978908805" lon="13.049589028068652"><ele>674.0</ele><time>2026-04-19T13:12:55.001Z</time></trkpt><trkpt lat="42.238594925106135" lon="13.049450616012441"><ele>674.0</ele><time>2026-04-19T13:12:56.001Z</time></trkpt><trkpt lat="42.238601892201295" lon="13.049337025746343"><ele>674.0</ele><time>2026-04-19T13:12:57.001Z</time></trkpt><trkpt lat="42.23859244567361" lon="13.049211055260077"><ele>674.0</ele><time>2026-04-19T13:12:58.001Z</time></trkpt><trkpt lat="42.23858247641876" lon="13.049119796950047"><ele>674.0</ele><time>2026-04-19T13:12:59.001Z</time></trkpt><trkpt lat="42.23857510109336" lon="13.048970972097022"><ele>674.0</ele><time>2026-04-19T13:13:01.001Z</time></trkpt><trkpt lat="42.238572003927615" lon="13.04887515807526"><ele>674.0</ele><time>2026-04-19T13:13:03.001Z</time></trkpt><trkpt lat="42.23857127099404" lon="13.048762383125878"><ele>674.4285714285714</ele><time>2026-04-19T13:13:05.001Z</time></trkpt><trkpt lat="42.23858218579131" lon="13.048678342415313"><ele>674.8571428571429</ele><time>2026-04-19T13:13:07.001Z</time></trkpt><trkpt lat="42.2386356064728" lon="13.048579451936064"><ele>675.2857142857142</ele><time>2026-04-19T13:13:09.001Z</time></trkpt><trkpt lat="42.23869388189064" lon="13.048541681155001"><ele>675.7142857142858</ele><time>2026-04-19T13:13:10.001Z</time></trkpt><trkpt lat="42.238760490953084" lon="13.048535198063217"><ele>676.1428571428571</ele><time>2026-04-19T13:13:11.001Z</time></trkpt><trkpt lat="42.23882333622661" lon="13.048560279597186"><ele>676.5714285714286</ele><time>2026-04-19T13:13:12.001Z</time></trkpt><trkpt lat="42.23887528285603" lon="13.048611632474755"><ele>677.0</ele><time>2026-04-19T13:13:13.001Z</time></trkpt><trkpt lat="42.23888399093889" lon="13.048701053558338"><ele>677.0</ele><time>2026-04-19T13:13:14.001Z</time></trkpt><trkpt lat="42.23891399438581" lon="13.048785669107401"><ele>677.0</ele><time>2026-04-19T13:13:15.001Z</time></trkpt><trkpt lat="42.238959139110996" lon="13.048935601466553"><ele>677.0</ele><time>2026-04-19T13:13:17.002Z</time></trkpt><trkpt lat="42.23898429782644" lon="13.049023176107138"><ele>677.0</ele><time>2026-04-19T13:13:19.002Z</time></trkpt><trkpt lat="42.23901808516021" lon="13.049098307085522"><ele>677.0</ele><time>2026-04-19T13:13:22.002Z</time></trkpt><trkpt lat="42.239049540132406" lon="13.049213674211785"><ele>677.0</ele><time>2026-04-19T13:13:44.002Z</time></trkpt><trkpt lat="42.239069886027565" lon="13.049329631386735"><ele>672.2</ele><time>2026-04-19T13:13:46.002Z</time></trkpt><trkpt lat="42.23910042824007" lon="13.049432051742565"><ele>667.4000000000001</ele><time>2026-04-19T13:13:48.002Z</time></trkpt><trkpt lat="42.239121170020866" lon="13.049535531469218"><ele>662.5999999999999</ele><time>2026-04-19T13:13:50.002Z</time></trkpt><trkpt lat="42.239143892988274" lon="13.049673452180059"><ele>657.8</ele><time>2026-04-19T13:13:52.002Z</time></trkpt><trkpt lat="42.23918172011677" lon="13.049831165111405"><ele>653.0</ele><time>2026-04-19T13:13:54.002Z</time></trkpt><trkpt lat="42.23920470262492" lon="13.049927303575457"><ele>651.0</ele><time>2026-04-19T13:13:55.002Z</time></trkpt><trkpt lat="42.23922585418091" lon="13.050025135776956"><ele>649.0</ele><time>2026-04-19T13:13:56.002Z</time></trkpt><trkpt lat="42.23924666331317" lon="13.050116511638702"><ele>647.0</ele><time>2026-04-19T13:13:57.002Z</time></trkpt><trkpt lat="42.23926910867855" lon="13.050213989221522"><ele>645.0</ele><time>2026-04-19T13:13:58.002Z</time></trkpt><trkpt lat="42.23929544131508" lon="13.050311209014701"><ele>643.0</ele><time>2026-04-19T13:13:59.002Z</time></trkpt><trkpt lat="42.239323760601806" lon="13.05040904651513"><ele>641.0</ele><time>2026-04-19T13:14:00.002Z</time></trkpt><trkpt lat="42.239348048896744" lon="13.050506791229502"><ele>641.0</ele><time>2026-04-19T13:14:01.002Z</time></trkpt><trkpt lat="42.239371636807704" lon="13.050607530008874"><ele>641.0</ele><time>2026-04-19T13:14:02.002Z</time></trkpt><trkpt lat="42.23937411687194" lon="13.050725679794851"><ele>641.0</ele><time>2026-04-19T13:14:03.002Z</time></trkpt><trkpt lat="42.239386068983016" lon="13.050870269601361"><ele>641.0</ele><time>2026-04-19T13:14:04.002Z</time></trkpt><trkpt lat="42.239389885766286" lon="13.051035467646122"><ele>641.0</ele><time>2026-04-19T13:14:05.002Z</time></trkpt><trkpt lat="42.23939612250049" lon="13.05120207859516"><ele>638.8</ele><time>2026-04-19T13:14:06.001Z</time></trkpt><trkpt lat="42.23940773447139" lon="13.051334822091984"><ele>636.5999999999999</ele><time>2026-04-19T13:14:07.001Z</time></trkpt><trkpt lat="42.23941895193743" lon="13.051437639639968"><ele>634.4</ele><time>2026-04-19T13:14:08.001Z</time></trkpt><trkpt lat="42.23942900592977" lon="13.051555142973994"><ele>632.2</ele><time>2026-04-19T13:14:09.001Z</time></trkpt><trkpt lat="42.23942793619982" lon="13.051676584012284"><ele>630.0</ele><time>2026-04-19T13:14:10.001Z</time></trkpt><trkpt lat="42.239435851321936" lon="13.051807897224556"><ele>628.0</ele><time>2026-04-19T13:14:11.001Z</time></trkpt><trkpt lat="42.23940540125705" lon="13.05195157385683"><ele>626.0</ele><time>2026-04-19T13:14:12.001Z</time></trkpt><trkpt lat="42.23936230494481" lon="13.052095187201152"><ele>624.0</ele><time>2026-04-19T13:14:13.001Z</time></trkpt><trkpt lat="42.23931308579101" lon="13.05224373158562"><ele>622.0</ele><time>2026-04-19T13:14:14.001Z</time></trkpt><trkpt lat="42.23926921568174" lon="13.052381734411314"><ele>620.4</ele><time>2026-04-19T13:14:15.001Z</time></trkpt><trkpt lat="42.2392437064056" lon="13.052506638526062"><ele>618.8000000000001</ele><time>2026-04-19T13:14:16.001Z</time></trkpt><trkpt lat="42.239243673984916" lon="13.05262217752915"><ele>617.2</ele><time>2026-04-19T13:14:17.001Z</time></trkpt><trkpt lat="42.2392615083712" lon="13.052744970351906"><ele>615.6</ele><time>2026-04-19T13:14:18.001Z</time></trkpt><trkpt lat="42.23929989350089" lon="13.052851057700202"><ele>614.0</ele><time>2026-04-19T13:14:19.001Z</time></trkpt><trkpt lat="42.239347181010906" lon="13.052957129875884"><ele>614.0</ele><time>2026-04-19T13:14:20.001Z</time></trkpt><trkpt lat="42.23939533355383" lon="13.053049020140115"><ele>614.0</ele><time>2026-04-19T13:14:21.001Z</time></trkpt><trkpt lat="42.23944792745886" lon="13.053145274141787"><ele>614.0</ele><time>2026-04-19T13:14:22.001Z</time></trkpt><trkpt lat="42.2394983629667" lon="13.053241442391545"><ele>614.0</ele><time>2026-04-19T13:14:23.001Z</time></trkpt><trkpt lat="42.23953551512331" lon="13.053319551335889"><ele>614.0</ele><time>2026-04-19T13:14:24.001Z</time></trkpt><trkpt lat="42.23958167701451" lon="13.053413948916553"><ele>614.0</ele><time>2026-04-19T13:14:25.001Z</time></trkpt><trkpt lat="42.23962951987966" lon="13.053512887915202"><ele>611.8333333333333</ele><time>2026-04-19T13:14:26.001Z</time></trkpt><trkpt lat="42.2396736114588" lon="13.053621176517902"><ele>609.6666666666666</ele><time>2026-04-19T13:14:27.001Z</time></trkpt><trkpt lat="42.23970675912367" lon="13.053729062582237"><ele>607.5</ele><time>2026-04-19T13:14:28.001Z</time></trkpt><trkpt lat="42.23973253796482" lon="13.053818149512603"><ele>605.3333333333334</ele><time>2026-04-19T13:14:29.001Z</time></trkpt><trkpt lat="42.23977026654364" lon="13.053903007098233"><ele>603.1666666666667</ele><time>2026-04-19T13:14:30.001Z</time></trkpt><trkpt lat="42.239827524671114" lon="13.053969599586463"><ele>601.0</ele><time>2026-04-19T13:14:31.001Z</time></trkpt><trkpt lat="42.239918663724836" lon="13.054056062178235"><ele>604.0</ele><time>2026-04-19T13:14:32.001Z</time></trkpt><trkpt lat="42.24002463192563" lon="13.054168018912351"><ele>607.0</ele><time>2026-04-19T13:14:33.001Z</time></trkpt><trkpt lat="42.240122431001545" lon="13.054281235224718"><ele>610.0</ele><time>2026-04-19T13:14:34.001Z</time></trkpt><trkpt lat="42.240208325013334" lon="13.05437642191801"><ele>613.0</ele><time>2026-04-19T13:14:35.001Z</time></trkpt><trkpt lat="42.24028799981932" lon="13.054451928765344"><ele>613.0</ele><time>2026-04-19T13:14:36.001Z</time></trkpt><trkpt lat="42.240352439198766" lon="13.054505757640921"><ele>613.0</ele><time>2026-04-19T13:14:37.001Z</time></trkpt><trkpt lat="42.24042170244473" lon="13.054618634875569"><ele>613.0</ele><time>2026-04-19T13:14:39.001Z</time></trkpt><trkpt lat="42.240473964550645" lon="13.054752782823735"><ele>613.0</ele><time>2026-04-19T13:14:41.001Z</time></trkpt><trkpt lat="42.240488656859384" lon="13.054844544005862"><ele>613.0</ele><time>2026-04-19T13:14:42.001Z</time></trkpt><trkpt lat="42.24050529316009" lon="13.054944362434478"><ele>613.0</ele><time>2026-04-19T13:14:43.001Z</time></trkpt><trkpt lat="42.24053206073591" lon="13.055021781215123"><ele>613.0</ele><time>2026-04-19T13:14:44.001Z</time></trkpt><trkpt lat="42.240553077108245" lon="13.055105836781808"><ele>613.0</ele><time>2026-04-19T13:14:45.001Z</time></trkpt><trkpt lat="42.24060576771439" lon="13.055178592977974"><ele>613.0</ele><time>2026-04-19T13:14:46.001Z</time></trkpt><trkpt lat="42.24068495264699" lon="13.055251707600029"><ele>613.0</ele><time>2026-04-19T13:14:47.001Z</time></trkpt><trkpt lat="42.24080802737461" lon="13.055321257712057"><ele>613.0</ele><time>2026-04-19T13:14:48.001Z</time></trkpt><trkpt lat="42.24093130539812" lon="13.055394472561888"><ele>613.0</ele><time>2026-04-19T13:14:49.001Z</time></trkpt><trkpt lat="42.241028850696566" lon="13.055464495433146"><ele>613.0</ele><time>2026-04-19T13:14:50.001Z</time></trkpt><trkpt lat="42.24111601762096" lon="13.055530434763906"><ele>613.0</ele><time>2026-04-19T13:14:51.001Z</time></trkpt><trkpt lat="42.241192105606046" lon="13.055588866260809"><ele>613.0</ele><time>2026-04-19T13:14:52.001Z</time></trkpt><trkpt lat="42.24124845715596" lon="13.055663641632558"><ele>613.0</ele><time>2026-04-19T13:14:53.001Z</time></trkpt><trkpt lat="42.24130248790325" lon="13.055736572788646"><ele>610.5</ele><time>2026-04-19T13:14:54.001Z</time></trkpt><trkpt lat="42.241373404912295" lon="13.055853805136689"><ele>608.0</ele><time>2026-04-19T13:14:55.001Z</time></trkpt><trkpt lat="42.24147619238019" lon="13.056022646282369"><ele>605.5</ele><time>2026-04-19T13:14:56.001Z</time></trkpt><trkpt lat="42.241555051467394" lon="13.056195570063833"><ele>603.0</ele><time>2026-04-19T13:14:57.001Z</time></trkpt><trkpt lat="42.241622227163546" lon="13.05632982052089"><ele>603.0</ele><time>2026-04-19T13:14:58.001Z</time></trkpt><trkpt lat="42.241675752136075" lon="13.056419949549253"><ele>603.0</ele><time>2026-04-19T13:14:59.001Z</time></trkpt><trkpt lat="42.241725301839644" lon="13.056475682711774"><ele>603.0</ele><time>2026-04-19T13:15:00.001Z</time></trkpt><trkpt lat="42.24184697996002" lon="13.05653016008523"><ele>603.0</ele><time>2026-04-19T13:15:02.001Z</time></trkpt><trkpt lat="42.24191660346785" lon="13.056516010548549"><ele>603.0</ele><time>2026-04-19T13:15:03.001Z</time></trkpt><trkpt lat="42.24199264405507" lon="13.056448144076557"><ele>603.0</ele><time>2026-04-19T13:15:04.001Z</time></trkpt><trkpt lat="42.242068545062885" lon="13.056351746559118"><ele>603.0</ele><time>2026-04-19T13:15:05.001Z</time></trkpt><trkpt lat="42.24214689972211" lon="13.056222712567058"><ele>603.0</ele><time>2026-04-19T13:15:06.001Z</time></trkpt><trkpt lat="42.24223532567603" lon="13.05607675351036"><ele>603.0</ele><time>2026-04-19T13:15:07.001Z</time></trkpt><trkpt lat="42.24232387421405" lon="13.055941539697383"><ele>603.0</ele><time>2026-04-19T13:15:08.001Z</time></trkpt><trkpt lat="42.24239979282967" lon="13.055827982015446"><ele>604.1999999999999</ele><time>2026-04-19T13:15:09.001Z</time></trkpt><trkpt lat="42.24248225158999" lon="13.055721869531263"><ele>605.4</ele><time>2026-04-19T13:15:10.001Z</time></trkpt><trkpt lat="42.24256051773804" lon="13.055610725444618"><ele>606.5999999999999</ele><time>2026-04-19T13:15:11.001Z</time></trkpt><trkpt lat="42.242634142919705" lon="13.055506734926977"><ele>607.8</ele><time>2026-04-19T13:15:12.001Z</time></trkpt><trkpt lat="42.24270072752195" lon="13.055424525987537"><ele>609.0</ele><time>2026-04-19T13:15:13.001Z</time></trkpt><trkpt lat="42.24276324927344" lon="13.055357939547468"><ele>609.0</ele><time>2026-04-19T13:15:14.001Z</time></trkpt><trkpt lat="42.24281816408773" lon="13.055308289799372"><ele>609.0</ele><time>2026-04-19T13:15:15.001Z</time></trkpt><trkpt lat="42.24291077631361" lon="13.055256663967224"><ele>609.0</ele><time>2026-04-19T13:15:17.001Z</time></trkpt><trkpt lat="42.24299795182166" lon="13.055316581819737"><ele>609.0</ele><time>2026-04-19T13:15:19.001Z</time></trkpt><trkpt lat="42.243029739005515" lon="13.055390136580122"><ele>609.0</ele><time>2026-04-19T13:15:20.001Z</time></trkpt><trkpt lat="42.24305435395473" lon="13.055473539425899"><ele>609.0</ele><time>2026-04-19T13:15:21.001Z</time></trkpt><trkpt lat="42.24305947335975" lon="13.055566256412312"><ele>603.0</ele><time>2026-04-19T13:15:22.001Z</time></trkpt><trkpt lat="42.24305804512255" lon="13.05580980059062"><ele>597.0</ele><time>2026-04-19T13:15:24.001Z</time></trkpt><trkpt lat="42.24304251618634" lon="13.05594452764148"><ele>591.0</ele><time>2026-04-19T13:15:25.001Z</time></trkpt><trkpt lat="42.24302608118309" lon="13.05609662077531"><ele>585.0</ele><time>2026-04-19T13:15:26.001Z</time></trkpt><trkpt lat="42.243010847862735" lon="13.05625159748862"><ele>585.0</ele><time>2026-04-19T13:15:27.001Z</time></trkpt><trkpt lat="42.24299595814198" lon="13.056422653469092"><ele>585.0</ele><time>2026-04-19T13:15:28.001Z</time></trkpt><trkpt lat="42.24298163136705" lon="13.05662850276352"><ele>585.0</ele><time>2026-04-19T13:15:29.001Z</time></trkpt><trkpt lat="42.24297590501694" lon="13.056872282151447"><ele>581.3333333333334</ele><time>2026-04-19T13:15:30.001Z</time></trkpt><trkpt lat="42.24297660330648" lon="13.057126853758524"><ele>577.6666666666667</ele><time>2026-04-19T13:15:31.002Z</time></trkpt><trkpt lat="42.24295800229516" lon="13.05733560592326"><ele>574.0</ele><time>2026-04-19T13:15:32.002Z</time></trkpt><trkpt lat="42.24295689586817" lon="13.057509009580048"><ele>576.2</ele><time>2026-04-19T13:15:33.002Z</time></trkpt><trkpt lat="42.24296512862887" lon="13.057650334523938"><ele>578.4</ele><time>2026-04-19T13:15:34.002Z</time></trkpt><trkpt lat="42.2429813174061" lon="13.057763788871585"><ele>580.6</ele><time>2026-04-19T13:15:35.002Z</time></trkpt><trkpt lat="42.24300306231065" lon="13.057851418330344"><ele>582.8</ele><time>2026-04-19T13:15:36.002Z</time></trkpt><trkpt lat="42.24306149169206" lon="13.057925520494061"><ele>585.0</ele><time>2026-04-19T13:15:38.002Z</time></trkpt><trkpt lat="42.24315684173896" lon="13.058027269144729"><ele>585.0</ele><time>2026-04-19T13:15:41.002Z</time></trkpt><trkpt lat="42.24322396176077" lon="13.0580703617449"><ele>585.0</ele><time>2026-04-19T13:15:42.002Z</time></trkpt><trkpt lat="42.24328950430601" lon="13.058132178725007"><ele>585.0</ele><time>2026-04-19T13:15:43.002Z</time></trkpt><trkpt lat="42.243351568352765" lon="13.058200804484487"><ele>585.0</ele><time>2026-04-19T13:15:44.002Z</time></trkpt><trkpt lat="42.24340623789332" lon="13.058278889723978"><ele>585.0</ele><time>2026-04-19T13:15:45.002Z</time></trkpt><trkpt lat="42.243438956399636" lon="13.058369384054556"><ele>585.0</ele><time>2026-04-19T13:15:46.002Z</time></trkpt><trkpt lat="42.243466853468036" lon="13.058454319168572"><ele>581.8333333333334</ele><time>2026-04-19T13:15:47.002Z</time></trkpt><trkpt lat="42.24350102580883" lon="13.058542945105446"><ele>578.6666666666666</ele><time>2026-04-19T13:15:48.002Z</time></trkpt><trkpt lat="42.243553499262134" lon="13.058620532525142"><ele>575.5</ele><time>2026-04-19T13:15:49.002Z</time></trkpt><trkpt lat="42.24359482605458" lon="13.058706676289551"><ele>572.3333333333333</ele><time>2026-04-19T13:15:50.002Z</time></trkpt><trkpt lat="42.243646268398976" lon="13.058800239281334"><ele>569.1666666666666</ele><time>2026-04-19T13:15:51.002Z</time></trkpt><trkpt lat="42.24372590075449" lon="13.058848875506081"><ele>566.0</ele><time>2026-04-19T13:15:52.002Z</time></trkpt><trkpt lat="42.24380411360006" lon="13.058902753824643"><ele>566.0</ele><time>2026-04-19T13:15:53.002Z</time></trkpt><trkpt lat="42.24386197809488" lon="13.058947279759968"><ele>566.0</ele><time>2026-04-19T13:15:54.002Z</time></trkpt><trkpt lat="42.24392370666248" lon="13.05900647258946"><ele>566.0</ele><time>2026-04-19T13:15:55.002Z</time></trkpt><trkpt lat="42.243988812112974" lon="13.059074103704335"><ele>566.0</ele><time>2026-04-19T13:15:56.002Z</time></trkpt><trkpt lat="42.2440382630864" lon="13.059165816588125"><ele>566.0</ele><time>2026-04-19T13:15:57.002Z</time></trkpt><trkpt lat="42.244092748538684" lon="13.05924316807569"><ele>566.0</ele><time>2026-04-19T13:15:58.002Z</time></trkpt><trkpt lat="42.24415153204483" lon="13.059302307486867"><ele>565.1666666666666</ele><time>2026-04-19T13:15:59.002Z</time></trkpt><trkpt lat="42.24419659763176" lon="13.059369062395252"><ele>564.3333333333333</ele><time>2026-04-19T13:16:00.002Z</time></trkpt><trkpt lat="42.244250721155744" lon="13.059469147069427"><ele>563.5</ele><time>2026-04-19T13:16:02.002Z</time></trkpt><trkpt lat="42.24430244949957" lon="13.05954696589734"><ele>562.6666666666666</ele><time>2026-04-19T13:16:05.002Z</time></trkpt><trkpt lat="42.24423626617983" lon="13.059481082294546"><ele>561.8333333333334</ele><time>2026-04-19T13:16:16.001Z</time></trkpt><trkpt lat="42.24419241561172" lon="13.059417524542825"><ele>561.0</ele><time>2026-04-19T13:16:18.001Z</time></trkpt><trkpt lat="42.24413982697591" lon="13.05934258153572"><ele>561.0</ele><time>2026-04-19T13:16:21.001Z</time></trkpt><trkpt lat="42.24409457329002" lon="13.05927833615622"><ele>561.0</ele><time>2026-04-19T13:16:25Z</time></trkpt><trkpt lat="42.24404840979119" lon="13.059212799100173"><ele>561.0</ele><time>2026-04-19T13:16:30.001Z</time></trkpt><trkpt lat="42.244104702469805" lon="13.059292716220838"><ele>561.0</ele><time>2026-04-19T13:17:21.001Z</time></trkpt><trkpt lat="42.24415770843644" lon="13.059367967341403"><ele>561.0</ele><time>2026-04-19T13:17:22.001Z</time></trkpt><trkpt lat="42.244208998626" lon="13.059441579038129"><ele>561.0</ele><time>2026-04-19T13:17:45.001Z</time></trkpt><trkpt lat="42.24425815194178" lon="13.059513685819866"><ele>561.0</ele><time>2026-04-19T13:17:49.001Z</time></trkpt><trkpt lat="42.24430141648654" lon="13.059580771185525"><ele>561.0</ele><time>2026-04-19T13:17:53.002Z</time></trkpt><trkpt lat="42.24436849081824" lon="13.059625449306331"><ele>561.0</ele><time>2026-04-19T13:18:39Z</time></trkpt><trkpt lat="42.24439873771733" lon="13.059720797450934"><ele>561.0</ele><time>2026-04-19T13:18:51.001Z</time></trkpt><trkpt lat="42.244444826258125" lon="13.05981688013149"><ele>561.0</ele><time>2026-04-19T13:18:54.001Z</time></trkpt><trkpt lat="42.244471955760865" lon="13.059901323493726"><ele>561.0</ele><time>2026-04-19T13:18:56.001Z</time></trkpt><trkpt lat="42.24450063035379" lon="13.059983714322126"><ele>561.0</ele><time>2026-04-19T13:18:58.001Z</time></trkpt><trkpt lat="42.24452725151702" lon="13.060066725448499"><ele>561.0</ele><time>2026-04-19T13:19:00.001Z</time></trkpt><trkpt lat="42.24455515543998" lon="13.06015017047409"><ele>559.5</ele><time>2026-04-19T13:19:02.001Z</time></trkpt><trkpt lat="42.24459719963251" lon="13.060230055629303"><ele>558.0</ele><time>2026-04-19T13:19:04.001Z</time></trkpt><trkpt lat="42.244630817655555" lon="13.060321054116633"><ele>556.5</ele><time>2026-04-19T13:19:06.001Z</time></trkpt><trkpt lat="42.24466569550313" lon="13.060434386962147"><ele>555.0</ele><time>2026-04-19T13:19:09.001Z</time></trkpt><trkpt lat="42.24470573768763" lon="13.06053879532391"><ele>553.5</ele><time>2026-04-19T13:19:12.001Z</time></trkpt><trkpt lat="42.24475075550643" lon="13.060621449870444"><ele>552.0</ele><time>2026-04-19T13:19:14.001Z</time></trkpt><trkpt lat="42.24479190770786" lon="13.060742965677795"><ele>554.2</ele><time>2026-04-19T13:19:16.001Z</time></trkpt><trkpt lat="42.244832698817184" lon="13.060870833723078"><ele>556.4000000000001</ele><time>2026-04-19T13:19:18.001Z</time></trkpt><trkpt lat="42.244872397905965" lon="13.06098861318447"><ele>558.5999999999999</ele><time>2026-04-19T13:19:20.001Z</time></trkpt><trkpt lat="42.24491705370845" lon="13.061136134188695"><ele>560.8</ele><time>2026-04-19T13:19:22.001Z</time></trkpt><trkpt lat="42.24495178064892" lon="13.061244455212591"><ele>563.0</ele><time>2026-04-19T13:19:23.001Z</time></trkpt><trkpt lat="42.245011285290204" lon="13.061357576657587"><ele>563.0</ele><time>2026-04-19T13:19:24.001Z</time></trkpt><trkpt lat="42.24510051107405" lon="13.061434080120119"><ele>563.0</ele><time>2026-04-19T13:19:25.001Z</time></trkpt><trkpt lat="42.24516324321682" lon="13.061541299210655"><ele>563.0</ele><time>2026-04-19T13:19:26.001Z</time></trkpt><trkpt lat="42.2452072380078" lon="13.061642309325077"><ele>563.0</ele><time>2026-04-19T13:19:27.001Z</time></trkpt><trkpt lat="42.24523540380985" lon="13.061755088874994"><ele>563.0</ele><time>2026-04-19T13:19:28.001Z</time></trkpt><trkpt lat="42.245250810929846" lon="13.061879709753526"><ele>560.4</ele><time>2026-04-19T13:19:29.001Z</time></trkpt><trkpt lat="42.24526330988355" lon="13.062011541044946"><ele>557.8</ele><time>2026-04-19T13:19:30.001Z</time></trkpt><trkpt lat="42.24528668029462" lon="13.062126780843762"><ele>555.2</ele><time>2026-04-19T13:19:31.001Z</time></trkpt><trkpt lat="42.24533093410956" lon="13.0622259521808"><ele>552.6</ele><time>2026-04-19T13:19:32.001Z</time></trkpt><trkpt lat="42.24539092724976" lon="13.062322532783163"><ele>550.0</ele><time>2026-04-19T13:19:33.001Z</time></trkpt><trkpt lat="42.24546569372136" lon="13.062414044872845"><ele>549.1666666666667</ele><time>2026-04-19T13:19:34.001Z</time></trkpt><trkpt lat="42.2455371995912" lon="13.0625017407533"><ele>548.3333333333334</ele><time>2026-04-19T13:19:35.001Z</time></trkpt><trkpt lat="42.24559965211532" lon="13.062580500281172"><ele>547.5</ele><time>2026-04-19T13:19:36.001Z</time></trkpt><trkpt lat="42.24564564593067" lon="13.062653748743836"><ele>546.6666666666666</ele><time>2026-04-19T13:19:37.001Z</time></trkpt><trkpt lat="42.24567905587024" lon="13.062731209839603"><ele>545.8333333333333</ele><time>2026-04-19T13:19:38.001Z</time></trkpt><trkpt lat="42.24570225724662" lon="13.06281849206478"><ele>545.0</ele><time>2026-04-19T13:19:39.001Z</time></trkpt><trkpt lat="42.2457184335112" lon="13.062906647351909"><ele>548.8333333333333</ele><time>2026-04-19T13:19:40.001Z</time></trkpt><trkpt lat="42.24573953105143" lon="13.062995276938508"><ele>552.6666666666666</ele><time>2026-04-19T13:19:41.001Z</time></trkpt><trkpt lat="42.2457428825992" lon="13.063094151822199"><ele>556.5</ele><time>2026-04-19T13:19:42.001Z</time></trkpt><trkpt lat="42.24575917991981" lon="13.06320802762132"><ele>560.3333333333334</ele><time>2026-04-19T13:19:43.001Z</time></trkpt><trkpt lat="42.245776843277284" lon="13.063315902448267"><ele>564.1666666666667</ele><time>2026-04-19T13:19:44.001Z</time></trkpt><trkpt lat="42.24579492296036" lon="13.06342050462681"><ele>568.0</ele><time>2026-04-19T13:19:45.001Z</time></trkpt><trkpt lat="42.24581260919857" lon="13.063522830351165"><ele>568.0</ele><time>2026-04-19T13:19:46.001Z</time></trkpt><trkpt lat="42.245830702457845" lon="13.063627511209102"><ele>568.0</ele><time>2026-04-19T13:19:47.001Z</time></trkpt><trkpt lat="42.24586424625802" lon="13.063729613460685"><ele>568.0</ele><time>2026-04-19T13:19:48.001Z</time></trkpt><trkpt lat="42.24587889690693" lon="13.063851879233127"><ele>568.0</ele><time>2026-04-19T13:19:49.001Z</time></trkpt><trkpt lat="42.24590649314953" lon="13.063988149652774"><ele>568.0</ele><time>2026-04-19T13:19:50.001Z</time></trkpt><trkpt lat="42.245932132384056" lon="13.064138469429226"><ele>568.0</ele><time>2026-04-19T13:19:51.001Z</time></trkpt><trkpt lat="42.245944123628234" lon="13.06429798828657"><ele>568.0</ele><time>2026-04-19T13:19:52.001Z</time></trkpt><trkpt lat="42.245978041194974" lon="13.0644412226874"><ele>568.0</ele><time>2026-04-19T13:19:53.001Z</time></trkpt><trkpt lat="42.24601239151372" lon="13.064572339178277"><ele>568.0</ele><time>2026-04-19T13:19:54.001Z</time></trkpt><trkpt lat="42.246056555506975" lon="13.064703406812548"><ele>568.0</ele><time>2026-04-19T13:19:55.001Z</time></trkpt><trkpt lat="42.24611837284386" lon="13.064822081920019"><ele>568.0</ele><time>2026-04-19T13:19:56.001Z</time></trkpt><trkpt lat="42.246185152066026" lon="13.06494160756539"><ele>568.0</ele><time>2026-04-19T13:19:57.001Z</time></trkpt><trkpt lat="42.246256264837754" lon="13.065051751728355"><ele>568.0</ele><time>2026-04-19T13:19:58.001Z</time></trkpt><trkpt lat="42.24633534248885" lon="13.065151325025656"><ele>568.0</ele><time>2026-04-19T13:19:59.001Z</time></trkpt><trkpt lat="42.246421299419694" lon="13.065239094957127"><ele>568.0</ele><time>2026-04-19T13:20:00.001Z</time></trkpt><trkpt lat="42.246510724522714" lon="13.065317660102872"><ele>570.6666666666667</ele><time>2026-04-19T13:20:01.001Z</time></trkpt><trkpt lat="42.2465963822398" lon="13.065389510282351"><ele>573.3333333333334</ele><time>2026-04-19T13:20:02.001Z</time></trkpt><trkpt lat="42.24667791415671" lon="13.06545956488481"><ele>576.0</ele><time>2026-04-19T13:20:03.001Z</time></trkpt><trkpt lat="42.24674759575699" lon="13.065533488066604"><ele>578.6666666666666</ele><time>2026-04-19T13:20:04.001Z</time></trkpt><trkpt lat="42.246801964050995" lon="13.065596880511212"><ele>581.3333333333333</ele><time>2026-04-19T13:20:05.001Z</time></trkpt><trkpt lat="42.24686056596125" lon="13.065651520231258"><ele>584.0</ele><time>2026-04-19T13:20:06.001Z</time></trkpt><trkpt lat="42.246926633209306" lon="13.065684650851503"><ele>584.0</ele><time>2026-04-19T13:20:07.001Z</time></trkpt><trkpt lat="42.246995655846845" lon="13.065685918781718"><ele>584.0</ele><time>2026-04-19T13:20:08.002Z</time></trkpt><trkpt lat="42.24706540302812" lon="13.06566199178529"><ele>584.0</ele><time>2026-04-19T13:20:09.002Z</time></trkpt><trkpt lat="42.247129456296236" lon="13.06560364335533"><ele>584.0</ele><time>2026-04-19T13:20:10.002Z</time></trkpt><trkpt lat="42.24718252739953" lon="13.065524610123434"><ele>584.0</ele><time>2026-04-19T13:20:11.002Z</time></trkpt><trkpt lat="42.24721916339186" lon="13.065427122100715"><ele>584.0</ele><time>2026-04-19T13:20:12.002Z</time></trkpt><trkpt lat="42.24724981523498" lon="13.065315972438924"><ele>584.0</ele><time>2026-04-19T13:20:13.002Z</time></trkpt><trkpt lat="42.2472783918602" lon="13.065197873812297"><ele>584.0</ele><time>2026-04-19T13:20:14.002Z</time></trkpt><trkpt lat="42.24731760795111" lon="13.06508459551893"><ele>584.0</ele><time>2026-04-19T13:20:15.002Z</time></trkpt><trkpt lat="42.24737203325355" lon="13.064976417850813"><ele>584.0</ele><time>2026-04-19T13:20:16.002Z</time></trkpt><trkpt lat="42.24744101252198" lon="13.06487203789154"><ele>584.0</ele><time>2026-04-19T13:20:17.002Z</time></trkpt><trkpt lat="42.247516288128466" lon="13.064770402656274"><ele>589.5</ele><time>2026-04-19T13:20:18.002Z</time></trkpt><trkpt lat="42.24759720130769" lon="13.064670131805372"><ele>595.0</ele><time>2026-04-19T13:20:19.002Z</time></trkpt><trkpt lat="42.24767888151889" lon="13.064567507424547"><ele>600.5</ele><time>2026-04-19T13:20:20.002Z</time></trkpt><trkpt lat="42.247767206366845" lon="13.064459466392758"><ele>606.0</ele><time>2026-04-19T13:20:21.002Z</time></trkpt><trkpt lat="42.24786078471064" lon="13.0643489341701"><ele>606.0</ele><time>2026-04-19T13:20:22.002Z</time></trkpt><trkpt lat="42.247958989113634" lon="13.064232475178043"><ele>606.0</ele><time>2026-04-19T13:20:23.002Z</time></trkpt><trkpt lat="42.24805952655338" lon="13.064109856981627"><ele>606.0</ele><time>2026-04-19T13:20:24Z</time></trkpt><trkpt lat="42.24814974900359" lon="13.06399327300854"><ele>606.0</ele><time>2026-04-19T13:20:25Z</time></trkpt><trkpt lat="42.24823490130737" lon="13.063868140784338"><ele>605.0</ele><time>2026-04-19T13:20:26Z</time></trkpt><trkpt lat="42.24831233317292" lon="13.063719953251807"><ele>604.0</ele><time>2026-04-19T13:20:27Z</time></trkpt><trkpt lat="42.248407477166374" lon="13.063576472838129"><ele>603.0</ele><time>2026-04-19T13:20:28Z</time></trkpt><trkpt lat="42.24848391886664" lon="13.063405944342843"><ele>602.0</ele><time>2026-04-19T13:20:29Z</time></trkpt><trkpt lat="42.248547851646904" lon="13.063226220827012"><ele>602.0</ele><time>2026-04-19T13:20:30Z</time></trkpt><trkpt lat="42.24862615965474" lon="13.06306690122828"><ele>602.0</ele><time>2026-04-19T13:20:31Z</time></trkpt><trkpt lat="42.24869526895292" lon="13.062914567989226"><ele>602.0</ele><time>2026-04-19T13:20:32Z</time></trkpt><trkpt lat="42.24874878641869" lon="13.062767206268008"><ele>602.0</ele><time>2026-04-19T13:20:33Z</time></trkpt><trkpt lat="42.248774239799346" lon="13.06263217844879"><ele>602.0</ele><time>2026-04-19T13:20:34Z</time></trkpt><trkpt lat="42.24880015651681" lon="13.06248464386935"><ele>602.0</ele><time>2026-04-19T13:20:35Z</time></trkpt><trkpt lat="42.24876374592061" lon="13.0623276593685"><ele>602.0</ele><time>2026-04-19T13:20:36Z</time></trkpt><trkpt lat="42.24874797028972" lon="13.062173488758807"><ele>602.0</ele><time>2026-04-19T13:20:37Z</time></trkpt><trkpt lat="42.24874195793433" lon="13.062050562300794"><ele>602.0</ele><time>2026-04-19T13:20:38Z</time></trkpt><trkpt lat="42.24874537956878" lon="13.061947433466162"><ele>602.6666666666666</ele><time>2026-04-19T13:20:39Z</time></trkpt><trkpt lat="42.248768579585644" lon="13.061853750524527"><ele>603.3333333333333</ele><time>2026-04-19T13:20:40Z</time></trkpt><trkpt lat="42.248809943273756" lon="13.06178138610608"><ele>604.0</ele><time>2026-04-19T13:20:41Z</time></trkpt><trkpt lat="42.24889309205229" lon="13.061754911200623"><ele>604.6666666666666</ele><time>2026-04-19T13:20:42Z</time></trkpt><trkpt lat="42.248981386599226" lon="13.06169654668876"><ele>605.3333333333334</ele><time>2026-04-19T13:20:43Z</time></trkpt><trkpt lat="42.249055562453485" lon="13.061606847570863"><ele>606.0</ele><time>2026-04-19T13:20:44Z</time></trkpt><trkpt lat="42.24912324804637" lon="13.061521993729745"><ele>600.4</ele><time>2026-04-19T13:20:45Z</time></trkpt><trkpt lat="42.2491673597594" lon="13.0614097712283"><ele>594.8</ele><time>2026-04-19T13:20:46Z</time></trkpt><trkpt lat="42.249189180922805" lon="13.061292047096881"><ele>589.1999999999999</ele><time>2026-04-19T13:20:47Z</time></trkpt><trkpt lat="42.24920358156596" lon="13.061162411309295"><ele>583.6</ele><time>2026-04-19T13:20:48Z</time></trkpt><trkpt lat="42.249219833915134" lon="13.061029330210085"><ele>578.0</ele><time>2026-04-19T13:20:49Z</time></trkpt><trkpt lat="42.24924231727767" lon="13.06089136843423"><ele>583.0</ele><time>2026-04-19T13:20:50Z</time></trkpt><trkpt lat="42.24927525059718" lon="13.060744347779353"><ele>588.0</ele><time>2026-04-19T13:20:51Z</time></trkpt><trkpt lat="42.24931601509142" lon="13.060609692099591"><ele>593.0</ele><time>2026-04-19T13:20:52Z</time></trkpt><trkpt lat="42.24936377261488" lon="13.06048679561684"><ele>598.0</ele><time>2026-04-19T13:20:53Z</time></trkpt><trkpt lat="42.24941534249499" lon="13.060385734913623"><ele>603.0</ele><time>2026-04-19T13:20:54Z</time></trkpt><trkpt lat="42.24947606884624" lon="13.060295205534665"><ele>603.0</ele><time>2026-04-19T13:20:55Z</time></trkpt><trkpt lat="42.24954384448197" lon="13.06022094495318"><ele>603.0</ele><time>2026-04-19T13:20:56Z</time></trkpt><trkpt lat="42.24961435717293" lon="13.06016261133117"><ele>603.0</ele><time>2026-04-19T13:20:57Z</time></trkpt><trkpt lat="42.24969074027529" lon="13.060110669182807"><ele>603.0</ele><time>2026-04-19T13:20:58Z</time></trkpt><trkpt lat="42.24977201045512" lon="13.060053997907675"><ele>603.0</ele><time>2026-04-19T13:20:59Z</time></trkpt><trkpt lat="42.249854403172286" lon="13.059999495730855"><ele>603.0</ele><time>2026-04-19T13:21:00Z</time></trkpt><trkpt lat="42.24993749626475" lon="13.059944075776324"><ele>599.0</ele><time>2026-04-19T13:21:01Z</time></trkpt><trkpt lat="42.25002669716409" lon="13.05988307300879"><ele>595.0</ele><time>2026-04-19T13:21:02Z</time></trkpt><trkpt lat="42.25011473753916" lon="13.059815476222658"><ele>591.0</ele><time>2026-04-19T13:21:03Z</time></trkpt><trkpt lat="42.25019880333236" lon="13.059736457773553"><ele>587.0</ele><time>2026-04-19T13:21:04Z</time></trkpt><trkpt lat="42.25027031474531" lon="13.059631059169995"><ele>583.0</ele><time>2026-04-19T13:21:05Z</time></trkpt><trkpt lat="42.25032469919745" lon="13.059497536972595"><ele>583.0</ele><time>2026-04-19T13:21:06Z</time></trkpt><trkpt lat="42.25036643320056" lon="13.059356632451962"><ele>583.0</ele><time>2026-04-19T13:21:07Z</time></trkpt><trkpt lat="42.25038849900124" lon="13.059217853370459"><ele>583.0</ele><time>2026-04-19T13:21:08Z</time></trkpt><trkpt lat="42.25038577194562" lon="13.059093075474042"><ele>583.0</ele><time>2026-04-19T13:21:09Z</time></trkpt><trkpt lat="42.25037432078841" lon="13.058967055977623"><ele>583.0</ele><time>2026-04-19T13:21:10Z</time></trkpt><trkpt lat="42.25032750632893" lon="13.058842708611813"><ele>581.4</ele><time>2026-04-19T13:21:11Z</time></trkpt><trkpt lat="42.25026973486262" lon="13.058720527730847"><ele>579.8</ele><time>2026-04-19T13:21:12Z</time></trkpt><trkpt lat="42.250208225360595" lon="13.058610019551391"><ele>578.2</ele><time>2026-04-19T13:21:13Z</time></trkpt><trkpt lat="42.25014171609535" lon="13.058509180207169"><ele>576.6</ele><time>2026-04-19T13:21:14Z</time></trkpt><trkpt lat="42.250060714130605" lon="13.058433352045528"><ele>575.0</ele><time>2026-04-19T13:21:15Z</time></trkpt><trkpt lat="42.249996152648514" lon="13.058346153498366"><ele>574.4</ele><time>2026-04-19T13:21:16Z</time></trkpt><trkpt lat="42.24992815514844" lon="13.058265737215683"><ele>573.8</ele><time>2026-04-19T13:21:17Z</time></trkpt><trkpt lat="42.249851356395574" lon="13.058192459039828"><ele>573.2</ele><time>2026-04-19T13:21:18Z</time></trkpt><trkpt lat="42.24978192446122" lon="13.058104116433665"><ele>572.6</ele><time>2026-04-19T13:21:19Z</time></trkpt><trkpt lat="42.2497084844563" lon="13.05801299306259"><ele>572.0</ele><time>2026-04-19T13:21:20Z</time></trkpt><trkpt lat="42.24963378247614" lon="13.057918045538198"><ele>576.8000000000001</ele><time>2026-04-19T13:21:21Z</time></trkpt><trkpt lat="42.24955986873112" lon="13.057818827899814"><ele>581.6</ele><time>2026-04-19T13:21:22Z</time></trkpt><trkpt lat="42.24949323410718" lon="13.057719802962486"><ele>586.4000000000001</ele><time>2026-04-19T13:21:23Z</time></trkpt><trkpt lat="42.249434838514084" lon="13.057627870788568"><ele>591.2</ele><time>2026-04-19T13:21:24Z</time></trkpt><trkpt lat="42.24937365572481" lon="13.057545658692666"><ele>596.0</ele><time>2026-04-19T13:21:25.001Z</time></trkpt><trkpt lat="42.249343079942015" lon="13.057444318290596"><ele>596.7142857142857</ele><time>2026-04-19T13:21:26.001Z</time></trkpt><trkpt lat="42.24932498842774" lon="13.057340514033125"><ele>597.4285714285713</ele><time>2026-04-19T13:21:27.001Z</time></trkpt><trkpt lat="42.249324911787674" lon="13.057233310368067"><ele>598.1428571428571</ele><time>2026-04-19T13:21:28.001Z</time></trkpt><trkpt lat="42.24935008060181" lon="13.057131734593321"><ele>598.8571428571429</ele><time>2026-04-19T13:21:29.001Z</time></trkpt><trkpt lat="42.249390568474574" lon="13.057048059468517"><ele>599.5714285714287</ele><time>2026-04-19T13:21:30.001Z</time></trkpt><trkpt lat="42.24944414604687" lon="13.056983967430966"><ele>600.2857142857142</ele><time>2026-04-19T13:21:31.001Z</time></trkpt><trkpt lat="42.249506792660625" lon="13.056956532080894"><ele>601.0</ele><time>2026-04-19T13:21:32.001Z</time></trkpt><trkpt lat="42.24957415758593" lon="13.056964302154032"><ele>601.0</ele><time>2026-04-19T13:21:33.001Z</time></trkpt><trkpt lat="42.249637304257114" lon="13.057040354622556"><ele>601.0</ele><time>2026-04-19T13:21:34.001Z</time></trkpt><trkpt lat="42.249722410063136" lon="13.057101850963738"><ele>601.0</ele><time>2026-04-19T13:21:35.001Z</time></trkpt><trkpt lat="42.249815461132506" lon="13.057161417224235"><ele>601.0</ele><time>2026-04-19T13:21:36.001Z</time></trkpt><trkpt lat="42.24989956049347" lon="13.057214981587771"><ele>601.0</ele><time>2026-04-19T13:21:37.001Z</time></trkpt><trkpt lat="42.24999794673344" lon="13.057211076841215"><ele>601.25</ele><time>2026-04-19T13:21:38.001Z</time></trkpt><trkpt lat="42.25009000662387" lon="13.057192241767257"><ele>601.5</ele><time>2026-04-19T13:21:39.001Z</time></trkpt><trkpt lat="42.25020256215465" lon="13.057181346149344"><ele>601.75</ele><time>2026-04-19T13:21:40.001Z</time></trkpt><trkpt lat="42.250340690392214" lon="13.057141983129553"><ele>602.0</ele><time>2026-04-19T13:21:41.001Z</time></trkpt><trkpt lat="42.25049303558657" lon="13.057102285815887"><ele>602.0</ele><time>2026-04-19T13:21:42.001Z</time></trkpt><trkpt lat="42.250610705384176" lon="13.057060232926085"><ele>602.0</ele><time>2026-04-19T13:21:43.001Z</time></trkpt><trkpt lat="42.250699736779964" lon="13.05701420243679"><ele>602.0</ele><time>2026-04-19T13:21:44.001Z</time></trkpt><trkpt lat="42.25077008883953" lon="13.05692827463686"><ele>602.0</ele><time>2026-04-19T13:21:45.001Z</time></trkpt><trkpt lat="42.25082145797682" lon="13.056803517351003"><ele>602.0</ele><time>2026-04-19T13:21:46.001Z</time></trkpt><trkpt lat="42.25084106483584" lon="13.056666398852533"><ele>595.3333333333333</ele><time>2026-04-19T13:21:47.001Z</time></trkpt><trkpt lat="42.25083554969654" lon="13.056497718418155"><ele>588.6666666666666</ele><time>2026-04-19T13:21:48.001Z</time></trkpt><trkpt lat="42.25082529225044" lon="13.056277300259273"><ele>582.0</ele><time>2026-04-19T13:21:49.001Z</time></trkpt><trkpt lat="42.25079756873901" lon="13.056053931245193"><ele>582.0</ele><time>2026-04-19T13:21:50.001Z</time></trkpt><trkpt lat="42.250762865263546" lon="13.055861442426066"><ele>582.0</ele><time>2026-04-19T13:21:51.001Z</time></trkpt><trkpt lat="42.25073638915191" lon="13.055723321013215"><ele>582.0</ele><time>2026-04-19T13:21:52.001Z</time></trkpt><trkpt lat="42.25071433274358" lon="13.055635478185408"><ele>582.0</ele><time>2026-04-19T13:21:53.001Z</time></trkpt><trkpt lat="42.250750635406625" lon="13.055487755832853"><ele>582.0</ele><time>2026-04-19T13:21:55.001Z</time></trkpt><trkpt lat="42.25080884774616" lon="13.05541826268821"><ele>587.5</ele><time>2026-04-19T13:21:56.001Z</time></trkpt><trkpt lat="42.250901840411" lon="13.055359823891418"><ele>593.0</ele><time>2026-04-19T13:21:57.001Z</time></trkpt><trkpt lat="42.25104090760805" lon="13.055323000872441"><ele>598.5</ele><time>2026-04-19T13:21:58.001Z</time></trkpt><trkpt lat="42.25122240561047" lon="13.055300262090423"><ele>604.0</ele><time>2026-04-19T13:21:59.001Z</time></trkpt><trkpt lat="42.251411458804256" lon="13.055315116821845"><ele>605.75</ele><time>2026-04-19T13:22:00.001Z</time></trkpt><trkpt lat="42.25156115705065" lon="13.055255343309797"><ele>607.5</ele><time>2026-04-19T13:22:01.001Z</time></trkpt><trkpt lat="42.25166486148282" lon="13.055207597444717"><ele>609.25</ele><time>2026-04-19T13:22:02.001Z</time></trkpt><trkpt lat="42.25176571870379" lon="13.055101738234777"><ele>611.0</ele><time>2026-04-19T13:22:03.001Z</time></trkpt><trkpt lat="42.251855351663515" lon="13.054940360294063"><ele>611.0</ele><time>2026-04-19T13:22:04.001Z</time></trkpt><trkpt lat="42.2519210537085" lon="13.054737990646217"><ele>611.0</ele><time>2026-04-19T13:22:05.001Z</time></trkpt><trkpt lat="42.251965883341754" lon="13.054480211615788"><ele>611.0</ele><time>2026-04-19T13:22:06.001Z</time></trkpt><trkpt lat="42.25201321114702" lon="13.054171556213827"><ele>614.3333333333333</ele><time>2026-04-19T13:22:07.001Z</time></trkpt><trkpt lat="42.25206315848628" lon="13.053884104059952"><ele>617.6666666666666</ele><time>2026-04-19T13:22:08.001Z</time></trkpt><trkpt lat="42.25208010707475" lon="13.053649440863753"><ele>621.0</ele><time>2026-04-19T13:22:09.001Z</time></trkpt><trkpt lat="42.25207150165879" lon="13.053404130313995"><ele>622.6666666666666</ele><time>2026-04-19T13:22:10.001Z</time></trkpt><trkpt lat="42.25205909258825" lon="13.053095461281407"><ele>624.3333333333333</ele><time>2026-04-19T13:22:11.001Z</time></trkpt><trkpt lat="42.25202227149576" lon="13.05284434825618"><ele>626.0</ele><time>2026-04-19T13:22:12.001Z</time></trkpt><trkpt lat="42.25201793337603" lon="13.052713279811819"><ele>626.0</ele><time>2026-04-19T13:22:13.001Z</time></trkpt><trkpt lat="42.25205210836408" lon="13.052574302114577"><ele>626.0</ele><time>2026-04-19T13:22:15.001Z</time></trkpt><trkpt lat="42.25217625904082" lon="13.052495137300962"><ele>626.0</ele><time>2026-04-19T13:22:17.001Z</time></trkpt><trkpt lat="42.2523070844988" lon="13.052491318682918"><ele>626.0</ele><time>2026-04-19T13:22:18.001Z</time></trkpt><trkpt lat="42.25242796679613" lon="13.052493722045407"><ele>620.8</ele><time>2026-04-19T13:22:19.001Z</time></trkpt><trkpt lat="42.25253415307092" lon="13.052505358979882"><ele>615.6</ele><time>2026-04-19T13:22:20.001Z</time></trkpt><trkpt lat="42.25261553181041" lon="13.052538202246996"><ele>610.4</ele><time>2026-04-19T13:22:21.001Z</time></trkpt><trkpt lat="42.25269464301915" lon="13.05261702518552"><ele>605.2</ele><time>2026-04-19T13:22:22.001Z</time></trkpt><trkpt lat="42.25275372067439" lon="13.05272449210542"><ele>600.0</ele><time>2026-04-19T13:22:23.001Z</time></trkpt><trkpt lat="42.252827402713656" lon="13.052832031173327"><ele>600.0</ele><time>2026-04-19T13:22:24.001Z</time></trkpt><trkpt lat="42.25291302361456" lon="13.052931128360944"><ele>600.0</ele><time>2026-04-19T13:22:25.001Z</time></trkpt><trkpt lat="42.2530218075614" lon="13.053005011812354"><ele>600.0</ele><time>2026-04-19T13:22:26.001Z</time></trkpt><trkpt lat="42.2531224534754" lon="13.053029147479535"><ele>600.0</ele><time>2026-04-19T13:22:27.001Z</time></trkpt><trkpt lat="42.25322689400647" lon="13.05301114522277"><ele>600.0</ele><time>2026-04-19T13:22:28.001Z</time></trkpt><trkpt lat="42.25334427067965" lon="13.052965616598911"><ele>599.75</ele><time>2026-04-19T13:22:29.001Z</time></trkpt><trkpt lat="42.25343395075075" lon="13.05282437583256"><ele>599.5</ele><time>2026-04-19T13:22:30.001Z</time></trkpt><trkpt lat="42.25349254510989" lon="13.052700641728297"><ele>599.25</ele><time>2026-04-19T13:22:31.001Z</time></trkpt><trkpt lat="42.253510102306606" lon="13.052565569867625"><ele>599.0</ele><time>2026-04-19T13:22:32.001Z</time></trkpt><trkpt lat="42.25349994800781" lon="13.052412435511293"><ele>604.2</ele><time>2026-04-19T13:22:33.001Z</time></trkpt><trkpt lat="42.25350367048383" lon="13.052290816131578"><ele>609.4</ele><time>2026-04-19T13:22:34.001Z</time></trkpt><trkpt lat="42.25354220061134" lon="13.052202048951774"><ele>614.6</ele><time>2026-04-19T13:22:35.001Z</time></trkpt><trkpt lat="42.253616745261866" lon="13.05213990515858"><ele>619.8</ele><time>2026-04-19T13:22:36.001Z</time></trkpt><trkpt lat="42.2537200703552" lon="13.052088059844191"><ele>625.0</ele><time>2026-04-19T13:22:37.001Z</time></trkpt><trkpt lat="42.253857774960174" lon="13.052103163353484"><ele>616.0</ele><time>2026-04-19T13:22:38.001Z</time></trkpt><trkpt lat="42.253979565528766" lon="13.052049745529732"><ele>607.0</ele><time>2026-04-19T13:22:39.001Z</time></trkpt><trkpt lat="42.25409900311832" lon="13.051945466295493"><ele>598.0</ele><time>2026-04-19T13:22:40.001Z</time></trkpt><trkpt lat="42.25423368121832" lon="13.051776137535693"><ele>609.0</ele><time>2026-04-19T13:22:41.001Z</time></trkpt><trkpt lat="42.25438308899869" lon="13.051558781173048"><ele>620.0</ele><time>2026-04-19T13:22:42.001Z</time></trkpt><trkpt lat="42.254490705214394" lon="13.051405904321157"><ele>631.0</ele><time>2026-04-19T13:22:43.001Z</time></trkpt><trkpt lat="42.254574355619546" lon="13.051299967296819"><ele>631.0</ele><time>2026-04-19T13:22:44.001Z</time></trkpt><trkpt lat="42.25465833695332" lon="13.051237669439976"><ele>631.0</ele><time>2026-04-19T13:22:45.001Z</time></trkpt><trkpt lat="42.25475032312371" lon="13.051213268532807"><ele>631.0</ele><time>2026-04-19T13:22:46.001Z</time></trkpt><trkpt lat="42.25484230046144" lon="13.05123527993855"><ele>631.0</ele><time>2026-04-19T13:22:47.001Z</time></trkpt><trkpt lat="42.25491569305938" lon="13.051307259823863"><ele>631.0</ele><time>2026-04-19T13:22:48.001Z</time></trkpt><trkpt lat="42.25496043259255" lon="13.051417382929532"><ele>625.8</ele><time>2026-04-19T13:22:49.001Z</time></trkpt><trkpt lat="42.25493991715325" lon="13.051533292686925"><ele>620.6</ele><time>2026-04-19T13:22:50.001Z</time></trkpt><trkpt lat="42.25491298480852" lon="13.051649066568434"><ele>615.4</ele><time>2026-04-19T13:22:51.001Z</time></trkpt><trkpt lat="42.254872395310656" lon="13.051803770183927"><ele>610.2</ele><time>2026-04-19T13:22:52.001Z</time></trkpt><trkpt lat="42.25482166351416" lon="13.051963162520925"><ele>605.0</ele><time>2026-04-19T13:22:53.001Z</time></trkpt><trkpt lat="42.25477062425287" lon="13.05213227182171"><ele>603.6</ele><time>2026-04-19T13:22:54.001Z</time></trkpt><trkpt lat="42.254741630572454" lon="13.05228000764307"><ele>602.2</ele><time>2026-04-19T13:22:55.001Z</time></trkpt><trkpt lat="42.25472742281369" lon="13.052402794408167"><ele>600.8</ele><time>2026-04-19T13:22:56.001Z</time></trkpt><trkpt lat="42.254729837648505" lon="13.052525030817803"><ele>599.4</ele><time>2026-04-19T13:22:57.001Z</time></trkpt><trkpt lat="42.254752499423184" lon="13.052644777903732"><ele>598.0</ele><time>2026-04-19T13:22:58.001Z</time></trkpt><trkpt lat="42.25479297384107" lon="13.052755140920329"><ele>596.6666666666667</ele><time>2026-04-19T13:22:59.001Z</time></trkpt><trkpt lat="42.25483883111962" lon="13.052859488032578"><ele>595.3333333333334</ele><time>2026-04-19T13:23:00.001Z</time></trkpt><trkpt lat="42.25488578223269" lon="13.052962334886091"><ele>594.0</ele><time>2026-04-19T13:23:01.001Z</time></trkpt><trkpt lat="42.25493027919101" lon="13.053062121638673"><ele>592.6666666666666</ele><time>2026-04-19T13:23:02.001Z</time></trkpt><trkpt lat="42.254967575941976" lon="13.053161941263046"><ele>591.3333333333333</ele><time>2026-04-19T13:23:03.001Z</time></trkpt><trkpt lat="42.25500032437109" lon="13.053262606684326"><ele>590.0</ele><time>2026-04-19T13:23:04.001Z</time></trkpt><trkpt lat="42.255022375465046" lon="13.053363864088515"><ele>588.1666666666666</ele><time>2026-04-19T13:23:05.001Z</time></trkpt><trkpt lat="42.255027486192304" lon="13.053470935802842"><ele>586.3333333333333</ele><time>2026-04-19T13:23:06.001Z</time></trkpt><trkpt lat="42.25501569720756" lon="13.053578339946714"><ele>584.5</ele><time>2026-04-19T13:23:07.001Z</time></trkpt><trkpt lat="42.254986509997494" lon="13.053678446821458"><ele>582.6666666666666</ele><time>2026-04-19T13:23:08.001Z</time></trkpt><trkpt lat="42.254947569445704" lon="13.053770866256313"><ele>580.8333333333334</ele><time>2026-04-19T13:23:09.001Z</time></trkpt><trkpt lat="42.254904113084024" lon="13.053866362903172"><ele>579.0</ele><time>2026-04-19T13:23:10.001Z</time></trkpt><trkpt lat="42.25485823612011" lon="13.053969701348336"><ele>578.9999999999999</ele><time>2026-04-19T13:23:11.001Z</time></trkpt><trkpt lat="42.25482712027481" lon="13.054065807014066"><ele>579.0</ele><time>2026-04-19T13:23:12.001Z</time></trkpt><trkpt lat="42.25480884912472" lon="13.054165378300876"><ele>579.0</ele><time>2026-04-19T13:23:13.001Z</time></trkpt><trkpt lat="42.25480728129749" lon="13.054261647341637"><ele>579.0</ele><time>2026-04-19T13:23:14.001Z</time></trkpt><trkpt lat="42.25482423231122" lon="13.054349438696152"><ele>579.0</ele><time>2026-04-19T13:23:15.001Z</time></trkpt><trkpt lat="42.25485554980594" lon="13.054424566138294"><ele>578.9999999999999</ele><time>2026-04-19T13:23:16.001Z</time></trkpt><trkpt lat="42.254901151853126" lon="13.054484592799696"><ele>579.0</ele><time>2026-04-19T13:23:17.001Z</time></trkpt><trkpt lat="42.25495857348536" lon="13.054524600919708"><ele>578.8</ele><time>2026-04-19T13:23:18.001Z</time></trkpt><trkpt lat="42.25502529984498" lon="13.054545318170927"><ele>578.5999999999999</ele><time>2026-04-19T13:23:19.001Z</time></trkpt><trkpt lat="42.25509786296" lon="13.054552276602763"><ele>578.4</ele><time>2026-04-19T13:23:20.001Z</time></trkpt><trkpt lat="42.255189617921054" lon="13.05455330024672"><ele>578.1999999999999</ele><time>2026-04-19T13:23:21.001Z</time></trkpt><trkpt lat="42.255296753700726" lon="13.054556002109813"><ele>578.0</ele><time>2026-04-19T13:23:22.001Z</time></trkpt><trkpt lat="42.255417969710365" lon="13.054552787601043"><ele>578.0</ele><time>2026-04-19T13:23:23.001Z</time></trkpt><trkpt lat="42.25553700421915" lon="13.054546657507455"><ele>578.0</ele><time>2026-04-19T13:23:24.001Z</time></trkpt><trkpt lat="42.255638646909915" lon="13.054534221034936"><ele>578.0</ele><time>2026-04-19T13:23:25.001Z</time></trkpt><trkpt lat="42.25573032391724" lon="13.054517785821403"><ele>578.0</ele><time>2026-04-19T13:23:26.001Z</time></trkpt><trkpt lat="42.25581131206394" lon="13.054526168841646"><ele>578.0</ele><time>2026-04-19T13:23:27.001Z</time></trkpt><trkpt lat="42.2558843517366" lon="13.054495556408078"><ele>580.5</ele><time>2026-04-19T13:23:28.001Z</time></trkpt><trkpt lat="42.25595104740991" lon="13.054509145901193"><ele>583.0</ele><time>2026-04-19T13:23:29.001Z</time></trkpt><trkpt lat="42.25600730526802" lon="13.054548127190472"><ele>585.5</ele><time>2026-04-19T13:23:30.001Z</time></trkpt><trkpt lat="42.256052398081756" lon="13.054614789711792"><ele>588.0</ele><time>2026-04-19T13:23:31.001Z</time></trkpt><trkpt lat="42.25609697163528" lon="13.054708221800617"><ele>590.5</ele><time>2026-04-19T13:23:32.001Z</time></trkpt><trkpt lat="42.25614622775411" lon="13.05482172115225"><ele>593.0</ele><time>2026-04-19T13:23:33.001Z</time></trkpt><trkpt lat="42.25619221807059" lon="13.054940277240783"><ele>589.6666666666666</ele><time>2026-04-19T13:23:34.001Z</time></trkpt><trkpt lat="42.256226006413954" lon="13.05503100805202"><ele>586.3333333333333</ele><time>2026-04-19T13:23:35.001Z</time></trkpt><trkpt lat="42.25621118091702" lon="13.055195515049169"><ele>583.0</ele><time>2026-04-19T13:23:37.001Z</time></trkpt><trkpt lat="42.256179534167735" lon="13.055269761403576"><ele>579.6666666666666</ele><time>2026-04-19T13:23:38.001Z</time></trkpt><trkpt lat="42.256152275854525" lon="13.055369582066614"><ele>576.3333333333334</ele><time>2026-04-19T13:23:39.001Z</time></trkpt><trkpt lat="42.25609131719357" lon="13.055466071582709"><ele>573.0</ele><time>2026-04-19T13:23:40.001Z</time></trkpt><trkpt lat="42.25604667745323" lon="13.055580222989798"><ele>573.0</ele><time>2026-04-19T13:23:41.001Z</time></trkpt><trkpt lat="42.256028124203816" lon="13.055706770712707"><ele>573.0</ele><time>2026-04-19T13:23:42.001Z</time></trkpt><trkpt lat="42.25603169964179" lon="13.05584695308703"><ele>573.0</ele><time>2026-04-19T13:23:43.001Z</time></trkpt><trkpt lat="42.256048922220565" lon="13.055988041298125"><ele>573.0</ele><time>2026-04-19T13:23:44.001Z</time></trkpt><trkpt lat="42.256079160358134" lon="13.056107886080662"><ele>573.0</ele><time>2026-04-19T13:23:45.001Z</time></trkpt><trkpt lat="42.2561264183836" lon="13.056211026305132"><ele>575.0</ele><time>2026-04-19T13:23:46.001Z</time></trkpt><trkpt lat="42.25619449696632" lon="13.056292247780245"><ele>577.0</ele><time>2026-04-19T13:23:47.001Z</time></trkpt><trkpt lat="42.25627468131037" lon="13.056342377436227"><ele>579.0</ele><time>2026-04-19T13:23:48.001Z</time></trkpt><trkpt lat="42.256379380539805" lon="13.056380774689117"><ele>581.0</ele><time>2026-04-19T13:23:49.001Z</time></trkpt><trkpt lat="42.256515530728485" lon="13.056425529942919"><ele>583.0</ele><time>2026-04-19T13:23:50.001Z</time></trkpt><trkpt lat="42.25664808909373" lon="13.05647361860606"><ele>583.0</ele><time>2026-04-19T13:23:51.001Z</time></trkpt><trkpt lat="42.2567805448859" lon="13.056527412606338"><ele>583.0</ele><time>2026-04-19T13:23:52.001Z</time></trkpt><trkpt lat="42.256885530871486" lon="13.056568349250195"><ele>583.0</ele><time>2026-04-19T13:23:53.001Z</time></trkpt><trkpt lat="42.25697752531358" lon="13.056589283068137"><ele>583.0</ele><time>2026-04-19T13:23:54.001Z</time></trkpt><trkpt lat="42.257071069932444" lon="13.056572185025704"><ele>583.0</ele><time>2026-04-19T13:23:55.001Z</time></trkpt><trkpt lat="42.257159254426014" lon="13.0565218630552"><ele>583.0</ele><time>2026-04-19T13:23:56.001Z</time></trkpt><trkpt lat="42.257248650968535" lon="13.05644095638096"><ele>583.0</ele><time>2026-04-19T13:23:57.001Z</time></trkpt><trkpt lat="42.25735690616674" lon="13.056335533687877"><ele>583.0</ele><time>2026-04-19T13:23:58.001Z</time></trkpt><trkpt lat="42.257479930998876" lon="13.056212675415338"><ele>583.0</ele><time>2026-04-19T13:23:59.001Z</time></trkpt><trkpt lat="42.25759743049131" lon="13.056091281763198"><ele>581.8</ele><time>2026-04-19T13:24:00.001Z</time></trkpt><trkpt lat="42.257695384542686" lon="13.055988187239526"><ele>580.5999999999999</ele><time>2026-04-19T13:24:01.001Z</time></trkpt><trkpt lat="42.25777459639082" lon="13.05592069944318"><ele>579.4000000000001</ele><time>2026-04-19T13:24:02.001Z</time></trkpt><trkpt lat="42.25785415238633" lon="13.055878772305995"><ele>578.2</ele><time>2026-04-19T13:24:03.001Z</time></trkpt><trkpt lat="42.25794342341441" lon="13.055866340525618"><ele>577.0</ele><time>2026-04-19T13:24:04.001Z</time></trkpt><trkpt lat="42.25803260828117" lon="13.055892735436187"><ele>575.75</ele><time>2026-04-19T13:24:05.001Z</time></trkpt><trkpt lat="42.258120436097606" lon="13.055948699734982"><ele>574.5</ele><time>2026-04-19T13:24:06.001Z</time></trkpt><trkpt lat="42.25822345374225" lon="13.0560348313597"><ele>573.25</ele><time>2026-04-19T13:24:07.001Z</time></trkpt><trkpt lat="42.25834364921609" lon="13.056136014566553"><ele>572.0</ele><time>2026-04-19T13:24:08.001Z</time></trkpt><trkpt lat="42.25848785094963" lon="13.056250911463977"><ele>572.0</ele><time>2026-04-19T13:24:09.001Z</time></trkpt><trkpt lat="42.25860990110636" lon="13.05634898072888"><ele>572.0</ele><time>2026-04-19T13:24:10.001Z</time></trkpt><trkpt lat="42.258706189914896" lon="13.056448937912355"><ele>572.0</ele><time>2026-04-19T13:24:11.001Z</time></trkpt><trkpt lat="42.2588102439976" lon="13.056513068200932"><ele>572.0</ele><time>2026-04-19T13:24:12.001Z</time></trkpt><trkpt lat="42.25890723950778" lon="13.056517718490026"><ele>575.75</ele><time>2026-04-19T13:24:13.001Z</time></trkpt><trkpt lat="42.25900835564567" lon="13.056516120554667"><ele>579.5</ele><time>2026-04-19T13:24:14.001Z</time></trkpt><trkpt lat="42.25912761627043" lon="13.056491491911057"><ele>583.25</ele><time>2026-04-19T13:24:15.001Z</time></trkpt><trkpt lat="42.25925775620213" lon="13.056451455069812"><ele>587.0</ele><time>2026-04-19T13:24:16.002Z</time></trkpt><trkpt lat="42.25938463562518" lon="13.056463526619504"><ele>587.0</ele><time>2026-04-19T13:24:17.002Z</time></trkpt><trkpt lat="42.25952695289481" lon="13.05647071915018"><ele>587.0</ele><time>2026-04-19T13:24:18.002Z</time></trkpt><trkpt lat="42.25969387434075" lon="13.056486082663548"><ele>587.0</ele><time>2026-04-19T13:24:19.002Z</time></trkpt><trkpt lat="42.25984182729049" lon="13.0565321298641"><ele>585.5</ele><time>2026-04-19T13:24:20.002Z</time></trkpt><trkpt lat="42.259976500532105" lon="13.056589005972222"><ele>584.0</ele><time>2026-04-19T13:24:21.002Z</time></trkpt><trkpt lat="42.26010146472964" lon="13.056688103935736"><ele>582.5</ele><time>2026-04-19T13:24:22.002Z</time></trkpt><trkpt lat="42.26021091948178" lon="13.056755690670634"><ele>581.0</ele><time>2026-04-19T13:24:23.002Z</time></trkpt><trkpt lat="42.26029945892579" lon="13.056793731242566"><ele>581.0</ele><time>2026-04-19T13:24:24.002Z</time></trkpt><trkpt lat="42.26039245231487" lon="13.056769860245394"><ele>581.0</ele><time>2026-04-19T13:24:25.002Z</time></trkpt><trkpt lat="42.26047395960883" lon="13.056743696014529"><ele>581.0</ele><time>2026-04-19T13:24:26.002Z</time></trkpt><trkpt lat="42.26054074742358" lon="13.056679637681105"><ele>581.0</ele><time>2026-04-19T13:24:27.002Z</time></trkpt><trkpt lat="42.26059029732933" lon="13.05658466477143"><ele>581.0</ele><time>2026-04-19T13:24:28.002Z</time></trkpt><trkpt lat="42.260617747653235" lon="13.056467536678205"><ele>581.0</ele><time>2026-04-19T13:24:29.002Z</time></trkpt><trkpt lat="42.26062185463201" lon="13.056342728003022"><ele>581.0</ele><time>2026-04-19T13:24:30.002Z</time></trkpt><trkpt lat="42.26059805418897" lon="13.056214224547366"><ele>581.0</ele><time>2026-04-19T13:24:31.002Z</time></trkpt><trkpt lat="42.26055819698171" lon="13.056103634215237"><ele>581.0</ele><time>2026-04-19T13:24:32.002Z</time></trkpt><trkpt lat="42.260529624479254" lon="13.056015512845544"><ele>581.0</ele><time>2026-04-19T13:24:33.002Z</time></trkpt><trkpt lat="42.260538630697695" lon="13.055883346726288"><ele>581.0</ele><time>2026-04-19T13:24:35.002Z</time></trkpt><trkpt lat="42.26063421954898" lon="13.05584139396306"><ele>577.2</ele><time>2026-04-19T13:24:37.001Z</time></trkpt><trkpt lat="42.260701713651386" lon="13.055826117851904"><ele>573.4000000000001</ele><time>2026-04-19T13:24:38.001Z</time></trkpt><trkpt lat="42.26079170305926" lon="13.055862477933669"><ele>569.6</ele><time>2026-04-19T13:24:39.001Z</time></trkpt><trkpt lat="42.260900411006105" lon="13.055918741211451"><ele>565.8000000000001</ele><time>2026-04-19T13:24:40.001Z</time></trkpt><trkpt lat="42.26101293090164" lon="13.055973303540787"><ele>562.0</ele><time>2026-04-19T13:24:41.001Z</time></trkpt><trkpt lat="42.261120511903854" lon="13.055996171101974"><ele>562.0</ele><time>2026-04-19T13:24:42.001Z</time></trkpt><trkpt lat="42.26121710902798" lon="13.055980373907678"><ele>562.0</ele><time>2026-04-19T13:24:43.001Z</time></trkpt><trkpt lat="42.261304091463224" lon="13.05593567627757"><ele>562.0</ele><time>2026-04-19T13:24:44.001Z</time></trkpt><trkpt lat="42.2613701207524" lon="13.055863023413188"><ele>562.0</ele><time>2026-04-19T13:24:45.001Z</time></trkpt><trkpt lat="42.26141070321796" lon="13.055775006849258"><ele>562.0</ele><time>2026-04-19T13:24:46.001Z</time></trkpt><trkpt lat="42.26142243424541" lon="13.055673664467927"><ele>562.0</ele><time>2026-04-19T13:24:47.001Z</time></trkpt><trkpt lat="42.26143129645124" lon="13.0555663741186"><ele>564.6</ele><time>2026-04-19T13:24:48.001Z</time></trkpt><trkpt lat="42.261410244910074" lon="13.055422260875877"><ele>567.2</ele><time>2026-04-19T13:24:49.001Z</time></trkpt><trkpt lat="42.26134816349303" lon="13.055285253624103"><ele>569.8</ele><time>2026-04-19T13:24:50.001Z</time></trkpt><trkpt lat="42.26127437889864" lon="13.055151756921534"><ele>572.4</ele><time>2026-04-19T13:24:51.001Z</time></trkpt><trkpt lat="42.261221282720385" lon="13.055043846049859"><ele>575.0</ele><time>2026-04-19T13:24:52.001Z</time></trkpt><trkpt lat="42.261162434393704" lon="13.054955726137077"><ele>576.1666666666666</ele><time>2026-04-19T13:24:53.001Z</time></trkpt><trkpt lat="42.2611386757263" lon="13.054850027374231"><ele>577.3333333333333</ele><time>2026-04-19T13:24:54.001Z</time></trkpt><trkpt lat="42.26112220696666" lon="13.054741800269412"><ele>578.5</ele><time>2026-04-19T13:24:55.001Z</time></trkpt><trkpt lat="42.26114388303056" lon="13.054647147279475"><ele>579.6666666666666</ele><time>2026-04-19T13:24:56.001Z</time></trkpt><trkpt lat="42.26123096092593" lon="13.054607634311216"><ele>580.8333333333334</ele><time>2026-04-19T13:24:57.001Z</time></trkpt><trkpt lat="42.26130184901547" lon="13.054627150345308"><ele>582.0</ele><time>2026-04-19T13:24:58.001Z</time></trkpt><trkpt lat="42.261374535251676" lon="13.05461978202235"><ele>582.0</ele><time>2026-04-19T13:24:59.001Z</time></trkpt><trkpt lat="42.261443847013645" lon="13.054642480807297"><ele>582.0</ele><time>2026-04-19T13:25:00.001Z</time></trkpt><trkpt lat="42.261514923696076" lon="13.054645127452543"><ele>582.0</ele><time>2026-04-19T13:25:01.001Z</time></trkpt><trkpt lat="42.26158741152066" lon="13.054626661253254"><ele>582.0</ele><time>2026-04-19T13:25:02.001Z</time></trkpt><trkpt lat="42.26164591839561" lon="13.054589940691146"><ele>582.0</ele><time>2026-04-19T13:25:03.001Z</time></trkpt><trkpt lat="42.26172186937112" lon="13.054504128497545"><ele>582.0</ele><time>2026-04-19T13:25:05.001Z</time></trkpt><trkpt lat="42.261762189426875" lon="13.054401050081806"><ele>579.3333333333334</ele><time>2026-04-19T13:25:07.001Z</time></trkpt><trkpt lat="42.261758271592846" lon="13.054302680671691"><ele>576.6666666666666</ele><time>2026-04-19T13:25:09.001Z</time></trkpt><trkpt lat="42.26170777161988" lon="13.054151265005977"><ele>574.0</ele><time>2026-04-19T13:25:11.001Z</time></trkpt><trkpt lat="42.26165906984199" lon="13.054071524816411"><ele>571.3333333333333</ele><time>2026-04-19T13:25:12.001Z</time></trkpt><trkpt lat="42.261636141731614" lon="13.05397266146928"><ele>568.6666666666666</ele><time>2026-04-19T13:25:13.001Z</time></trkpt><trkpt lat="42.26160631993179" lon="13.05387783489361"><ele>566.0</ele><time>2026-04-19T13:25:14.001Z</time></trkpt><trkpt lat="42.261593112337714" lon="13.053783999011296"><ele>566.0</ele><time>2026-04-19T13:25:15.001Z</time></trkpt><trkpt lat="42.26159177324902" lon="13.053671893109588"><ele>566.0</ele><time>2026-04-19T13:25:16.001Z</time></trkpt><trkpt lat="42.261652336949524" lon="13.053545367771815"><ele>566.0</ele><time>2026-04-19T13:25:17.001Z</time></trkpt><trkpt lat="42.26172725362615" lon="13.053398472028308"><ele>566.0</ele><time>2026-04-19T13:25:18.001Z</time></trkpt><trkpt lat="42.261812406662344" lon="13.053209400976366"><ele>570.75</ele><time>2026-04-19T13:25:19.001Z</time></trkpt><trkpt lat="42.26191491389311" lon="13.053046328262976"><ele>575.5</ele><time>2026-04-19T13:25:20.001Z</time></trkpt><trkpt lat="42.26200357686976" lon="13.052893414104936"><ele>580.25</ele><time>2026-04-19T13:25:21.001Z</time></trkpt><trkpt lat="42.262088437051936" lon="13.052760822108308"><ele>585.0</ele><time>2026-04-19T13:25:22.001Z</time></trkpt><trkpt lat="42.26214886676277" lon="13.052609533414634"><ele>584.5</ele><time>2026-04-19T13:25:23.001Z</time></trkpt><trkpt lat="42.262162241829806" lon="13.052442652675603"><ele>584.0</ele><time>2026-04-19T13:25:24.001Z</time></trkpt><trkpt lat="42.2621685193587" lon="13.052277398243238"><ele>583.5</ele><time>2026-04-19T13:25:25.001Z</time></trkpt><trkpt lat="42.26215035531004" lon="13.052095713966112"><ele>583.0</ele><time>2026-04-19T13:25:26.001Z</time></trkpt><trkpt lat="42.26214026171448" lon="13.05189544176283"><ele>583.0</ele><time>2026-04-19T13:25:27.001Z</time></trkpt><trkpt lat="42.2621024097834" lon="13.051717927569737"><ele>583.0</ele><time>2026-04-19T13:25:28.001Z</time></trkpt><trkpt lat="42.26208913469507" lon="13.051545517691142"><ele>583.0</ele><time>2026-04-19T13:25:29.001Z</time></trkpt><trkpt lat="42.262009233733316" lon="13.0514132153777"><ele>583.0</ele><time>2026-04-19T13:25:30.001Z</time></trkpt><trkpt lat="42.26191456753862" lon="13.05128084355183"><ele>578.0</ele><time>2026-04-19T13:25:31.001Z</time></trkpt><trkpt lat="42.26179709124491" lon="13.051147087473005"><ele>573.0</ele><time>2026-04-19T13:25:32.001Z</time></trkpt><trkpt lat="42.26167677519923" lon="13.050996606290923"><ele>568.0</ele><time>2026-04-19T13:25:33.001Z</time></trkpt><trkpt lat="42.26156944393052" lon="13.050857391694281"><ele>567.4</ele><time>2026-04-19T13:25:34.001Z</time></trkpt><trkpt lat="42.261494162264434" lon="13.050735838714267"><ele>566.8</ele><time>2026-04-19T13:25:35.001Z</time></trkpt><trkpt lat="42.261431981600765" lon="13.05064374949382"><ele>566.2</ele><time>2026-04-19T13:25:36.001Z</time></trkpt><trkpt lat="42.26140036069405" lon="13.050567372929375"><ele>565.6</ele><time>2026-04-19T13:25:37.001Z</time></trkpt><trkpt lat="42.261426751008855" lon="13.050446922109234"><ele>565.0</ele><time>2026-04-19T13:25:39.001Z</time></trkpt><trkpt lat="42.261552215336856" lon="13.050436369794545"><ele>565.0</ele><time>2026-04-19T13:25:41.001Z</time></trkpt><trkpt lat="42.261635393644674" lon="13.050475662935728"><ele>565.0</ele><time>2026-04-19T13:25:42.001Z</time></trkpt><trkpt lat="42.26174394386658" lon="13.050522086104662"><ele>565.0</ele><time>2026-04-19T13:25:43.001Z</time></trkpt><trkpt lat="42.26185966087793" lon="13.050548322858095"><ele>565.0</ele><time>2026-04-19T13:25:44.001Z</time></trkpt><trkpt lat="42.261971405155336" lon="13.050537501413093"><ele>565.0</ele><time>2026-04-19T13:25:45.001Z</time></trkpt><trkpt lat="42.262067361382044" lon="13.050499801518578"><ele>565.0</ele><time>2026-04-19T13:25:46.001Z</time></trkpt><trkpt lat="42.26213966825016" lon="13.050437067123292"><ele>565.0</ele><time>2026-04-19T13:25:47.001Z</time></trkpt><trkpt lat="42.262192084490714" lon="13.050345594490315"><ele>565.0</ele><time>2026-04-19T13:25:48.001Z</time></trkpt><trkpt lat="42.26221264491359" lon="13.050228543473938"><ele>565.0</ele><time>2026-04-19T13:25:49.001Z</time></trkpt><trkpt lat="42.262216907085865" lon="13.050096084198474"><ele>565.0</ele><time>2026-04-19T13:25:50.001Z</time></trkpt><trkpt lat="42.26220131576626" lon="13.049975971535737"><ele>565.0</ele><time>2026-04-19T13:25:51.001Z</time></trkpt><trkpt lat="42.262161207906765" lon="13.049873323414694"><ele>563.0</ele><time>2026-04-19T13:25:52.001Z</time></trkpt><trkpt lat="42.26209836332467" lon="13.0497951601337"><ele>561.0</ele><time>2026-04-19T13:25:53.001Z</time></trkpt><trkpt lat="42.26200679846179" lon="13.049712996603233"><ele>559.0</ele><time>2026-04-19T13:25:54.001Z</time></trkpt><trkpt lat="42.26192204660677" lon="13.049597532889306"><ele>557.0</ele><time>2026-04-19T13:25:55.001Z</time></trkpt><trkpt lat="42.261840928888724" lon="13.049456608594584"><ele>555.0</ele><time>2026-04-19T13:25:56.001Z</time></trkpt><trkpt lat="42.261747086571745" lon="13.049300273805903"><ele>552.75</ele><time>2026-04-19T13:25:57.001Z</time></trkpt><trkpt lat="42.261670385152115" lon="13.04912329897432"><ele>550.5</ele><time>2026-04-19T13:25:58.001Z</time></trkpt><trkpt lat="42.2615992344515" lon="13.048957423440825"><ele>548.25</ele><time>2026-04-19T13:25:59.001Z</time></trkpt><trkpt lat="42.261532674486254" lon="13.048772595618765"><ele>546.0</ele><time>2026-04-19T13:26:00.001Z</time></trkpt><trkpt lat="42.261475667213325" lon="13.04856974390527"><ele>558.3333333333334</ele><time>2026-04-19T13:26:01.001Z</time></trkpt><trkpt lat="42.261426785543584" lon="13.048347780405974"><ele>570.6666666666667</ele><time>2026-04-19T13:26:02.001Z</time></trkpt><trkpt lat="42.26139215119612" lon="13.048125059775424"><ele>583.0</ele><time>2026-04-19T13:26:03.001Z</time></trkpt><trkpt lat="42.26137116844268" lon="13.047932240427889"><ele>583.25</ele><time>2026-04-19T13:26:04.001Z</time></trkpt><trkpt lat="42.26135053075306" lon="13.047762165795929"><ele>583.5</ele><time>2026-04-19T13:26:05.001Z</time></trkpt><trkpt lat="42.261313763451454" lon="13.047597679614347"><ele>583.75</ele><time>2026-04-19T13:26:06.001Z</time></trkpt><trkpt lat="42.261253965917184" lon="13.047406533645905"><ele>584.0</ele><time>2026-04-19T13:26:07.001Z</time></trkpt><trkpt lat="42.26117285505472" lon="13.047204631970152"><ele>581.6666666666666</ele><time>2026-04-19T13:26:08.001Z</time></trkpt><trkpt lat="42.26111373913457" lon="13.046986044897093"><ele>579.3333333333334</ele><time>2026-04-19T13:26:09.001Z</time></trkpt><trkpt lat="42.26106147410985" lon="13.046759190516967"><ele>577.0</ele><time>2026-04-19T13:26:10.002Z</time></trkpt><trkpt lat="42.26100186611571" lon="13.046520409548558"><ele>570.6666666666667</ele><time>2026-04-19T13:26:11.002Z</time></trkpt><trkpt lat="42.26093663579167" lon="13.046286029146371"><ele>564.3333333333334</ele><time>2026-04-19T13:26:12.002Z</time></trkpt><trkpt lat="42.26084653348998" lon="13.046084089012544"><ele>558.0</ele><time>2026-04-19T13:26:13.002Z</time></trkpt><trkpt lat="42.26074493030053" lon="13.045916078928832"><ele>557.3333333333334</ele><time>2026-04-19T13:26:14.002Z</time></trkpt><trkpt lat="42.26061442601199" lon="13.045743864692643"><ele>556.6666666666667</ele><time>2026-04-19T13:26:15.002Z</time></trkpt><trkpt lat="42.26043921857841" lon="13.045557940394392"><ele>556.0</ele><time>2026-04-19T13:26:16.002Z</time></trkpt><trkpt lat="42.26025711879299" lon="13.045376752930864"><ele>556.0</ele><time>2026-04-19T13:26:17.002Z</time></trkpt><trkpt lat="42.26008265816831" lon="13.045240228417846"><ele>556.0</ele><time>2026-04-19T13:26:18.002Z</time></trkpt><trkpt lat="42.25994769839686" lon="13.045103218122412"><ele>556.0</ele><time>2026-04-19T13:26:19.002Z</time></trkpt><trkpt lat="42.25984623456318" lon="13.044998481762502"><ele>560.0</ele><time>2026-04-19T13:26:20.002Z</time></trkpt><trkpt lat="42.259763731184385" lon="13.044912679721397"><ele>564.0</ele><time>2026-04-19T13:26:21.002Z</time></trkpt><trkpt lat="42.25971342585062" lon="13.044803641835143"><ele>568.0</ele><time>2026-04-19T13:26:22.002Z</time></trkpt><trkpt lat="42.2596637008278" lon="13.044688301174563"><ele>572.0</ele><time>2026-04-19T13:26:23.002Z</time></trkpt><trkpt lat="42.25964732546036" lon="13.044499631005497"><ele>576.0</ele><time>2026-04-19T13:26:24.002Z</time></trkpt><trkpt lat="42.25963358703369" lon="13.044303732565615"><ele>576.0</ele><time>2026-04-19T13:26:25.002Z</time></trkpt><trkpt lat="42.25960026217073" lon="13.0441459788846"><ele>576.0</ele><time>2026-04-19T13:26:26.002Z</time></trkpt><trkpt lat="42.25952875302505" lon="13.044011901749393"><ele>576.0</ele><time>2026-04-19T13:26:27.002Z</time></trkpt><trkpt lat="42.25941244739367" lon="13.043861034446921"><ele>576.0</ele><time>2026-04-19T13:26:28.002Z</time></trkpt><trkpt lat="42.25925313761903" lon="13.043680260794114"><ele>576.75</ele><time>2026-04-19T13:26:29.002Z</time></trkpt><trkpt lat="42.259113203644176" lon="13.043506072389864"><ele>577.5</ele><time>2026-04-19T13:26:30.002Z</time></trkpt><trkpt lat="42.259003334752265" lon="13.043373765534525"><ele>578.25</ele><time>2026-04-19T13:26:31.002Z</time></trkpt><trkpt lat="42.25893047046117" lon="13.043268610917043"><ele>579.0</ele><time>2026-04-19T13:26:32.002Z</time></trkpt><trkpt lat="42.25888617566564" lon="13.04316688495306"><ele>579.0</ele><time>2026-04-19T13:26:33.002Z</time></trkpt><trkpt lat="42.25887414231781" lon="13.043058394585838"><ele>579.0</ele><time>2026-04-19T13:26:34.002Z</time></trkpt><trkpt lat="42.25890596139519" lon="13.04293541061029"><ele>579.0</ele><time>2026-04-19T13:26:35.002Z</time></trkpt><trkpt lat="42.25891540306425" lon="13.042779705220555"><ele>579.0</ele><time>2026-04-19T13:26:36.002Z</time></trkpt><trkpt lat="42.258964654180446" lon="13.04260736961658"><ele>579.0</ele><time>2026-04-19T13:26:37.002Z</time></trkpt><trkpt lat="42.2590051311584" lon="13.042465767394683"><ele>575.8333333333334</ele><time>2026-04-19T13:26:38.002Z</time></trkpt><trkpt lat="42.25904512925652" lon="13.042376180309557"><ele>572.6666666666666</ele><time>2026-04-19T13:26:39.002Z</time></trkpt><trkpt lat="42.25909598844426" lon="13.042305458806903"><ele>569.5</ele><time>2026-04-19T13:26:40.002Z</time></trkpt><trkpt lat="42.25916493981941" lon="13.042249213741727"><ele>566.3333333333333</ele><time>2026-04-19T13:26:41.002Z</time></trkpt><trkpt lat="42.25922556603585" lon="13.042208448073726"><ele>563.1666666666666</ele><time>2026-04-19T13:26:42.002Z</time></trkpt><trkpt lat="42.25934525150251" lon="13.042203825327038"><ele>560.0</ele><time>2026-04-19T13:26:44.002Z</time></trkpt><trkpt lat="42.259409765447835" lon="13.042269323179118"><ele>560.0</ele><time>2026-04-19T13:26:45.002Z</time></trkpt><trkpt lat="42.259497250086675" lon="13.04236678932835"><ele>560.0</ele><time>2026-04-19T13:26:46.002Z</time></trkpt><trkpt lat="42.259594561894524" lon="13.042445669290245"><ele>560.0</ele><time>2026-04-19T13:26:47.002Z</time></trkpt><trkpt lat="42.25970283729726" lon="13.042489546111243"><ele>560.0</ele><time>2026-04-19T13:26:48.002Z</time></trkpt><trkpt lat="42.259845521727605" lon="13.042514745255449"><ele>557.0</ele><time>2026-04-19T13:26:49.002Z</time></trkpt><trkpt lat="42.26000105255625" lon="13.042545742417259"><ele>554.0</ele><time>2026-04-19T13:26:50.002Z</time></trkpt><trkpt lat="42.260134773958164" lon="13.04259493295302"><ele>551.0</ele><time>2026-04-19T13:26:51.001Z</time></trkpt><trkpt lat="42.26029201459643" lon="13.042674879111349"><ele>551.0</ele><time>2026-04-19T13:26:52.002Z</time></trkpt><trkpt lat="42.26048952792819" lon="13.042789343364666"><ele>551.0</ele><time>2026-04-19T13:26:53.001Z</time></trkpt><trkpt lat="42.260692908803215" lon="13.042917931849852"><ele>551.0</ele><time>2026-04-19T13:26:54.001Z</time></trkpt><trkpt lat="42.26088083382593" lon="13.043034714228044"><ele>548.3333333333333</ele><time>2026-04-19T13:26:55.001Z</time></trkpt><trkpt lat="42.26105384638112" lon="13.043143152889161"><ele>545.6666666666666</ele><time>2026-04-19T13:26:56.001Z</time></trkpt><trkpt lat="42.26121958716649" lon="13.04324377029357"><ele>543.0</ele><time>2026-04-19T13:26:57.001Z</time></trkpt><trkpt lat="42.26137077672252" lon="13.043335107743042"><ele>546.5</ele><time>2026-04-19T13:26:58.001Z</time></trkpt><trkpt lat="42.261503507050065" lon="13.043414113223804"><ele>550.0</ele><time>2026-04-19T13:26:59.001Z</time></trkpt><trkpt lat="42.26161773772752" lon="13.043491040739191"><ele>553.5</ele><time>2026-04-19T13:27:00.001Z</time></trkpt><trkpt lat="42.26171982796651" lon="13.043589440525611"><ele>557.0</ele><time>2026-04-19T13:27:01.001Z</time></trkpt><trkpt lat="42.26179946536617" lon="13.043710095766151"><ele>557.0</ele><time>2026-04-19T13:27:02.001Z</time></trkpt><trkpt lat="42.26183971918471" lon="13.04386338199105"><ele>557.0</ele><time>2026-04-19T13:27:03.001Z</time></trkpt><trkpt lat="42.26190399098945" lon="13.044003069734098"><ele>557.0</ele><time>2026-04-19T13:27:04.001Z</time></trkpt><trkpt lat="42.26195428205633" lon="13.044150885988346"><ele>557.0</ele><time>2026-04-19T13:27:05.001Z</time></trkpt><trkpt lat="42.262018622406316" lon="13.044271716727804"><ele>558.1666666666666</ele><time>2026-04-19T13:27:06.001Z</time></trkpt><trkpt lat="42.26208682538644" lon="13.044343592729927"><ele>559.3333333333333</ele><time>2026-04-19T13:27:07.001Z</time></trkpt><trkpt lat="42.26216058968499" lon="13.044385304622182"><ele>560.5</ele><time>2026-04-19T13:27:08.001Z</time></trkpt><trkpt lat="42.2622404031788" lon="13.044400196817392"><ele>561.6666666666666</ele><time>2026-04-19T13:27:09.001Z</time></trkpt><trkpt lat="42.262319815998524" lon="13.04439291117621"><ele>562.8333333333334</ele><time>2026-04-19T13:27:10.001Z</time></trkpt><trkpt lat="42.2624046592178" lon="13.044394788733387"><ele>564.0</ele><time>2026-04-19T13:27:11.001Z</time></trkpt><trkpt lat="42.26248448889393" lon="13.044390372686403"><ele>564.0</ele><time>2026-04-19T13:27:12.001Z</time></trkpt><trkpt lat="42.262552581488265" lon="13.044439389074226"><ele>564.0</ele><time>2026-04-19T13:27:13.001Z</time></trkpt><trkpt lat="42.26260467213006" lon="13.044509637386733"><ele>564.0</ele><time>2026-04-19T13:27:14.001Z</time></trkpt><trkpt lat="42.26264349830896" lon="13.044592389184112"><ele>564.0</ele><time>2026-04-19T13:27:15.001Z</time></trkpt><trkpt lat="42.2626698970102" lon="13.044688745574527"><ele>564.0</ele><time>2026-04-19T13:27:16.001Z</time></trkpt><trkpt lat="42.26270192378773" lon="13.044762562165811"><ele>564.0</ele><time>2026-04-19T13:27:18.001Z</time></trkpt><trkpt lat="42.26261863330134" lon="13.044859794776059"><ele>564.0</ele><time>2026-04-19T13:27:21.001Z</time></trkpt><trkpt lat="42.26258850010729" lon="13.044936262042677"><ele>564.0</ele><time>2026-04-19T13:28:01.001Z</time></trkpt><trkpt lat="42.26253865418759" lon="13.044993928295407"><ele>564.0</ele><time>2026-04-19T13:28:08.001Z</time></trkpt><trkpt lat="42.262487698899044" lon="13.04505281522412"><ele>564.0</ele><time>2026-04-19T13:28:11.001Z</time></trkpt><trkpt lat="42.26243260314286" lon="13.045150497662283"><ele>564.0</ele><time>2026-04-19T13:28:14.001Z</time></trkpt><trkpt lat="42.26240927115535" lon="13.045233434276879"><ele>564.0</ele><time>2026-04-19T13:28:16.001Z</time></trkpt><trkpt lat="42.26240296768661" lon="13.04536069540242"><ele>564.0</ele><time>2026-04-19T13:28:18.001Z</time></trkpt><trkpt lat="42.262425865764804" lon="13.045523762564386"><ele>563.1666666666666</ele><time>2026-04-19T13:28:20.001Z</time></trkpt><trkpt lat="42.262444189542414" lon="13.045609967507362"><ele>562.3333333333334</ele><time>2026-04-19T13:28:21.001Z</time></trkpt><trkpt lat="42.26246507985023" lon="13.045695370425188"><ele>561.5</ele><time>2026-04-19T13:28:22.001Z</time></trkpt><trkpt lat="42.26249444781673" lon="13.045785121611335"><ele>560.6666666666667</ele><time>2026-04-19T13:28:23.001Z</time></trkpt><trkpt lat="42.262531508171286" lon="13.045878298498815"><ele>559.8333333333334</ele><time>2026-04-19T13:28:24.001Z</time></trkpt><trkpt lat="42.26259029884649" lon="13.045976261579671"><ele>559.0</ele><time>2026-04-19T13:28:25.001Z</time></trkpt><trkpt lat="42.26266325368498" lon="13.046097513354681"><ele>558.0</ele><time>2026-04-19T13:28:26.001Z</time></trkpt><trkpt lat="42.26276443488776" lon="13.046209711075567"><ele>557.0</ele><time>2026-04-19T13:28:27.001Z</time></trkpt><trkpt lat="42.26286930305802" lon="13.046296584929898"><ele>556.0</ele><time>2026-04-19T13:28:28.001Z</time></trkpt><trkpt lat="42.262946106619204" lon="13.046387730862817"><ele>555.0</ele><time>2026-04-19T13:28:29.001Z</time></trkpt><trkpt lat="42.26302410615304" lon="13.046477982807408"><ele>555.0</ele><time>2026-04-19T13:28:30.001Z</time></trkpt><trkpt lat="42.26310385072186" lon="13.04656335115383"><ele>555.0</ele><time>2026-04-19T13:28:31.001Z</time></trkpt><trkpt lat="42.263182041466884" lon="13.046645854296854"><ele>555.0</ele><time>2026-04-19T13:28:32.001Z</time></trkpt><trkpt lat="42.26325411871967" lon="13.04673588268143"><ele>555.0</ele><time>2026-04-19T13:28:33.001Z</time></trkpt><trkpt lat="42.263300788871994" lon="13.046852265380888"><ele>555.0</ele><time>2026-04-19T13:28:34.001Z</time></trkpt><trkpt lat="42.263356454294396" lon="13.046950360473481"><ele>556.3333333333334</ele><time>2026-04-19T13:28:35.001Z</time></trkpt><trkpt lat="42.26340872969918" lon="13.047045908471953"><ele>557.6666666666666</ele><time>2026-04-19T13:28:36.001Z</time></trkpt><trkpt lat="42.26346566900162" lon="13.047126091001989"><ele>559.0</ele><time>2026-04-19T13:28:37.001Z</time></trkpt><trkpt lat="42.263503094843244" lon="13.047209382305946"><ele>560.3333333333333</ele><time>2026-04-19T13:28:38.001Z</time></trkpt><trkpt lat="42.263549265147134" lon="13.047285267134994"><ele>561.6666666666666</ele><time>2026-04-19T13:28:39.001Z</time></trkpt><trkpt lat="42.26360798640662" lon="13.047352065361979"><ele>563.0</ele><time>2026-04-19T13:28:40.001Z</time></trkpt><trkpt lat="42.2636880723591" lon="13.047413858752003"><ele>565.1999999999999</ele><time>2026-04-19T13:28:41.001Z</time></trkpt><trkpt lat="42.26378511859404" lon="13.0474657060323"><ele>567.4</ele><time>2026-04-19T13:28:42.001Z</time></trkpt><trkpt lat="42.26387012592694" lon="13.047517518562517"><ele>569.5999999999999</ele><time>2026-04-19T13:28:43.001Z</time></trkpt><trkpt lat="42.26393949763667" lon="13.04756787906774"><ele>571.8</ele><time>2026-04-19T13:28:44.001Z</time></trkpt><trkpt lat="42.26399473613434" lon="13.047627058819254"><ele>574.0</ele><time>2026-04-19T13:28:45.001Z</time></trkpt><trkpt lat="42.264030455454225" lon="13.047780384604234"><ele>574.0</ele><time>2026-04-19T13:28:47.002Z</time></trkpt><trkpt lat="42.26404513615986" lon="13.04788363694139"><ele>574.0</ele><time>2026-04-19T13:28:48.001Z</time></trkpt><trkpt lat="42.26403179908434" lon="13.048024703553317"><ele>574.0</ele><time>2026-04-19T13:28:49.001Z</time></trkpt><trkpt lat="42.26397387520614" lon="13.048189926836663"><ele>574.0</ele><time>2026-04-19T13:28:50.001Z</time></trkpt><trkpt lat="42.26392608332254" lon="13.048347197892355"><ele>574.0</ele><time>2026-04-19T13:28:51.001Z</time></trkpt><trkpt lat="42.263903454855125" lon="13.048464234344696"><ele>571.8</ele><time>2026-04-19T13:28:52.001Z</time></trkpt><trkpt lat="42.26392381959233" lon="13.048566167018475"><ele>569.5999999999999</ele><time>2026-04-19T13:28:53.001Z</time></trkpt><trkpt lat="42.26395010552113" lon="13.048658520027601"><ele>567.4</ele><time>2026-04-19T13:28:54.001Z</time></trkpt><trkpt lat="42.26401325846759" lon="13.048755955630533"><ele>565.1999999999999</ele><time>2026-04-19T13:28:55.001Z</time></trkpt><trkpt lat="42.26410765011175" lon="13.048871342505745"><ele>563.0</ele><time>2026-04-19T13:28:56.001Z</time></trkpt><trkpt lat="42.26422087547016" lon="13.048994025332123"><ele>563.0</ele><time>2026-04-19T13:28:57.001Z</time></trkpt><trkpt lat="42.264273132962686" lon="13.049103241114164"><ele>563.0</ele><time>2026-04-19T13:28:58.001Z</time></trkpt><trkpt lat="42.264315906383516" lon="13.049188100170182"><ele>563.0</ele><time>2026-04-19T13:28:59.001Z</time></trkpt><trkpt lat="42.26435035191133" lon="13.049292039942491"><ele>563.0</ele><time>2026-04-19T13:29:00.001Z</time></trkpt><trkpt lat="42.26437392668557" lon="13.049404728669868"><ele>563.0</ele><time>2026-04-19T13:29:01.001Z</time></trkpt><trkpt lat="42.26436156015519" lon="13.049533463355361"><ele>563.0</ele><time>2026-04-19T13:29:02.001Z</time></trkpt><trkpt lat="42.26435991574425" lon="13.049649764123549"><ele>561.75</ele><time>2026-04-19T13:29:03.001Z</time></trkpt><trkpt lat="42.26439242788996" lon="13.049782209062908"><ele>560.5</ele><time>2026-04-19T13:29:04.001Z</time></trkpt><trkpt lat="42.26448975891015" lon="13.049921467020058"><ele>559.25</ele><time>2026-04-19T13:29:05.001Z</time></trkpt><trkpt lat="42.2645726143017" lon="13.050055553074067"><ele>558.0</ele><time>2026-04-19T13:29:06.001Z</time></trkpt><trkpt lat="42.26461041327436" lon="13.050171396555141"><ele>556.6</ele><time>2026-04-19T13:29:07.001Z</time></trkpt><trkpt lat="42.2646109768228" lon="13.050285255243836"><ele>555.1999999999999</ele><time>2026-04-19T13:29:08.001Z</time></trkpt><trkpt lat="42.2646180325331" lon="13.050427666453302"><ele>553.8</ele><time>2026-04-19T13:29:09.001Z</time></trkpt><trkpt lat="42.26462547525421" lon="13.05059771495509"><ele>552.4</ele><time>2026-04-19T13:29:10.001Z</time></trkpt><trkpt lat="42.26464685843611" lon="13.050775317651441"><ele>551.0</ele><time>2026-04-19T13:29:11.001Z</time></trkpt><trkpt lat="42.26467639758463" lon="13.050919169079766"><ele>550.75</ele><time>2026-04-19T13:29:12.001Z</time></trkpt><trkpt lat="42.264748277790886" lon="13.051065097035172"><ele>550.5</ele><time>2026-04-19T13:29:13.001Z</time></trkpt><trkpt lat="42.26485050307014" lon="13.05122054588201"><ele>550.25</ele><time>2026-04-19T13:29:14.001Z</time></trkpt><trkpt lat="42.26493744032823" lon="13.051351372103186"><ele>550.0</ele><time>2026-04-19T13:29:15.001Z</time></trkpt><trkpt lat="42.265013543816785" lon="13.051454828840093"><ele>552.8333333333334</ele><time>2026-04-19T13:29:16.001Z</time></trkpt><trkpt lat="42.265073799573656" lon="13.051520143054251"><ele>555.6666666666667</ele><time>2026-04-19T13:29:17.001Z</time></trkpt><trkpt lat="42.26514799040893" lon="13.051558353166046"><ele>558.5</ele><time>2026-04-19T13:29:18.001Z</time></trkpt><trkpt lat="42.26524291398509" lon="13.05152929259447"><ele>561.3333333333334</ele><time>2026-04-19T13:29:19.001Z</time></trkpt><trkpt lat="42.26532436689742" lon="13.051503075593477"><ele>564.1666666666666</ele><time>2026-04-19T13:29:20.001Z</time></trkpt><trkpt lat="42.265416402650615" lon="13.051467827363881"><ele>567.0</ele><time>2026-04-19T13:29:21.001Z</time></trkpt><trkpt lat="42.26550403720501" lon="13.051380361662638"><ele>567.0</ele><time>2026-04-19T13:29:22.001Z</time></trkpt><trkpt lat="42.26557654229721" lon="13.051270200887638"><ele>567.0</ele><time>2026-04-19T13:29:23.001Z</time></trkpt><trkpt lat="42.26564635826025" lon="13.051128305886579"><ele>567.0</ele><time>2026-04-19T13:29:24.001Z</time></trkpt><trkpt lat="42.26570523215669" lon="13.05094760308365"><ele>567.0</ele><time>2026-04-19T13:29:25.001Z</time></trkpt><trkpt lat="42.26575004834152" lon="13.05074328725941"><ele>565.6666666666666</ele><time>2026-04-19T13:29:26.001Z</time></trkpt><trkpt lat="42.265785522863894" lon="13.050476933126733"><ele>564.3333333333333</ele><time>2026-04-19T13:29:27.001Z</time></trkpt><trkpt lat="42.265832087816456" lon="13.05020505593916"><ele>563.0</ele><time>2026-04-19T13:29:28.001Z</time></trkpt><trkpt lat="42.2658635667519" lon="13.049860662840542"><ele>566.3333333333333</ele><time>2026-04-19T13:29:29.001Z</time></trkpt><trkpt lat="42.26591579120773" lon="13.049566253968923"><ele>569.6666666666666</ele><time>2026-04-19T13:29:30.001Z</time></trkpt><trkpt lat="42.26593997083016" lon="13.04929779662772"><ele>573.0</ele><time>2026-04-19T13:29:31.001Z</time></trkpt><trkpt lat="42.26597398319837" lon="13.049075878049209"><ele>575.75</ele><time>2026-04-19T13:29:32.001Z</time></trkpt><trkpt lat="42.265988393258496" lon="13.048904473543535"><ele>578.5</ele><time>2026-04-19T13:29:33.001Z</time></trkpt><trkpt lat="42.2660251558095" lon="13.048726819384147"><ele>581.25</ele><time>2026-04-19T13:29:34.001Z</time></trkpt><trkpt lat="42.26602056334078" lon="13.048545390619696"><ele>584.0</ele><time>2026-04-19T13:29:35.001Z</time></trkpt><trkpt lat="42.2660457352392" lon="13.048402024725402"><ele>584.0</ele><time>2026-04-19T13:29:36.001Z</time></trkpt><trkpt lat="42.26607530225499" lon="13.048314805768944"><ele>584.0</ele><time>2026-04-19T13:29:37.001Z</time></trkpt><trkpt lat="42.26611637056154" lon="13.048243852507763"><ele>584.0</ele><time>2026-04-19T13:29:39.001Z</time></trkpt><trkpt lat="42.266216863638164" lon="13.048175679206732"><ele>584.0</ele><time>2026-04-19T13:29:41.001Z</time></trkpt><trkpt lat="42.26634927227547" lon="13.04815459008732"><ele>584.0</ele><time>2026-04-19T13:29:42.001Z</time></trkpt><trkpt lat="42.26647043356566" lon="13.048144924216516"><ele>580.6</ele><time>2026-04-19T13:29:43.001Z</time></trkpt><trkpt lat="42.26656672985424" lon="13.048122010746015"><ele>577.2</ele><time>2026-04-19T13:29:44.001Z</time></trkpt><trkpt lat="42.26663414109324" lon="13.048055459157862"><ele>573.8000000000001</ele><time>2026-04-19T13:29:45.001Z</time></trkpt><trkpt lat="42.266684805914934" lon="13.047947419508944"><ele>570.4</ele><time>2026-04-19T13:29:46.001Z</time></trkpt><trkpt lat="42.26668880386871" lon="13.047777758782306"><ele>567.0</ele><time>2026-04-19T13:29:47.001Z</time></trkpt><trkpt lat="42.26668654219564" lon="13.047575924294119"><ele>570.25</ele><time>2026-04-19T13:29:48.001Z</time></trkpt><trkpt lat="42.266681233239275" lon="13.047372173027304"><ele>573.5</ele><time>2026-04-19T13:29:49.001Z</time></trkpt><trkpt lat="42.26670686001099" lon="13.047181208756466"><ele>576.75</ele><time>2026-04-19T13:29:50.001Z</time></trkpt><trkpt lat="42.2667232146828" lon="13.047021943160749"><ele>580.0</ele><time>2026-04-19T13:29:51.001Z</time></trkpt><trkpt lat="42.26674689972888" lon="13.046901775035025"><ele>580.0</ele><time>2026-04-19T13:29:52.001Z</time></trkpt><trkpt lat="42.26678138270071" lon="13.046821958103372"><ele>580.0</ele><time>2026-04-19T13:29:53.001Z</time></trkpt><trkpt lat="42.2668438697791" lon="13.04677869884091"><ele>580.0</ele><time>2026-04-19T13:29:54.001Z</time></trkpt><trkpt lat="42.26693027475059" lon="13.046781779986485"><ele>580.0</ele><time>2026-04-19T13:29:55.001Z</time></trkpt><trkpt lat="42.267040565396115" lon="13.046760071532653"><ele>580.0</ele><time>2026-04-19T13:29:56.001Z</time></trkpt><trkpt lat="42.26714956931022" lon="13.046728060264513"><ele>580.0</ele><time>2026-04-19T13:29:57.001Z</time></trkpt><trkpt lat="42.267230064813866" lon="13.046692672999237"><ele>574.5</ele><time>2026-04-19T13:29:58.001Z</time></trkpt><trkpt lat="42.267290788376904" lon="13.046611076505393"><ele>569.0</ele><time>2026-04-19T13:29:59.001Z</time></trkpt><trkpt lat="42.26731986499334" lon="13.046485277003137"><ele>563.5</ele><time>2026-04-19T13:30:00.001Z</time></trkpt><trkpt lat="42.26728497076958" lon="13.04630096771178"><ele>558.0</ele><time>2026-04-19T13:30:01.001Z</time></trkpt><trkpt lat="42.26729885181834" lon="13.046129416233692"><ele>558.0</ele><time>2026-04-19T13:30:02.001Z</time></trkpt><trkpt lat="42.2673877534533" lon="13.045984745908964"><ele>558.0</ele><time>2026-04-19T13:30:03.001Z</time></trkpt><trkpt lat="42.26742439241867" lon="13.045796422660802"><ele>558.0</ele><time>2026-04-19T13:30:04.001Z</time></trkpt><trkpt lat="42.2674510344707" lon="13.04566388860832"><ele>558.0</ele><time>2026-04-19T13:30:05.001Z</time></trkpt><trkpt lat="42.26745079099902" lon="13.045539244300107"><ele>558.6</ele><time>2026-04-19T13:30:06.001Z</time></trkpt><trkpt lat="42.26745192017136" lon="13.045409624325869"><ele>559.1999999999999</ele><time>2026-04-19T13:30:07.001Z</time></trkpt><trkpt lat="42.26743335345332" lon="13.045274101889833"><ele>559.8</ele><time>2026-04-19T13:30:08.001Z</time></trkpt><trkpt lat="42.26743052160438" lon="13.04512148019282"><ele>560.4</ele><time>2026-04-19T13:30:09.001Z</time></trkpt><trkpt lat="42.267423450393345" lon="13.044951463865287"><ele>561.0</ele><time>2026-04-19T13:30:10.001Z</time></trkpt><trkpt lat="42.26741560456704" lon="13.044764147258581"><ele>564.8</ele><time>2026-04-19T13:30:11.001Z</time></trkpt><trkpt lat="42.26741255345306" lon="13.044602536082756"><ele>568.6</ele><time>2026-04-19T13:30:12.001Z</time></trkpt><trkpt lat="42.26739903466181" lon="13.044483697314647"><ele>572.4</ele><time>2026-04-19T13:30:13.001Z</time></trkpt><trkpt lat="42.26742483373855" lon="13.044386023558815"><ele>576.2</ele><time>2026-04-19T13:30:14.001Z</time></trkpt><trkpt lat="42.2674372985578" lon="13.04429689982573"><ele>580.0</ele><time>2026-04-19T13:30:15.001Z</time></trkpt><trkpt lat="42.26750869645901" lon="13.044163683283708"><ele>587.25</ele><time>2026-04-19T13:30:17.001Z</time></trkpt><trkpt lat="42.26758962491583" lon="13.044107311523646"><ele>594.5</ele><time>2026-04-19T13:30:18.001Z</time></trkpt><trkpt lat="42.2677068985033" lon="13.044076448638886"><ele>601.75</ele><time>2026-04-19T13:30:19.001Z</time></trkpt><trkpt lat="42.26784639418038" lon="13.044074624028639"><ele>609.0</ele><time>2026-04-19T13:30:20.001Z</time></trkpt><trkpt lat="42.267975155805416" lon="13.044030880806066"><ele>609.0</ele><time>2026-04-19T13:30:21.001Z</time></trkpt><trkpt lat="42.26808059365728" lon="13.043970916618669"><ele>609.0</ele><time>2026-04-19T13:30:22.001Z</time></trkpt><trkpt lat="42.268159643298084" lon="13.043886461247599"><ele>609.0</ele><time>2026-04-19T13:30:23.001Z</time></trkpt><trkpt lat="42.268211280306225" lon="13.043778378026921"><ele>609.0</ele><time>2026-04-19T13:30:24.001Z</time></trkpt><trkpt lat="42.26824273659495" lon="13.043644560132982"><ele>609.0</ele><time>2026-04-19T13:30:25.001Z</time></trkpt><trkpt lat="42.26826243361914" lon="13.043497488729107"><ele>604.4</ele><time>2026-04-19T13:30:26.001Z</time></trkpt><trkpt lat="42.26829152767126" lon="13.04334270373693"><ele>599.8</ele><time>2026-04-19T13:30:27.001Z</time></trkpt><trkpt lat="42.268321672517565" lon="13.043187110405842"><ele>595.2</ele><time>2026-04-19T13:30:28.001Z</time></trkpt><trkpt lat="42.26835305569638" lon="13.043054525430964"><ele>590.6</ele><time>2026-04-19T13:30:29.001Z</time></trkpt><trkpt lat="42.26838535512447" lon="13.042949691323301"><ele>586.0</ele><time>2026-04-19T13:30:30.001Z</time></trkpt><trkpt lat="42.268434296742484" lon="13.042878084055474"><ele>586.0</ele><time>2026-04-19T13:30:31.001Z</time></trkpt><trkpt lat="42.26850765494172" lon="13.042840046798396"><ele>586.0</ele><time>2026-04-19T13:30:32.001Z</time></trkpt><trkpt lat="42.268601630564774" lon="13.042813160876836"><ele>586.0</ele><time>2026-04-19T13:30:33.001Z</time></trkpt><trkpt lat="42.268694541035686" lon="13.042770448406026"><ele>586.0</ele><time>2026-04-19T13:30:34.001Z</time></trkpt><trkpt lat="42.268762367844346" lon="13.042699179936815"><ele>586.0</ele><time>2026-04-19T13:30:35.001Z</time></trkpt><trkpt lat="42.268786542328385" lon="13.042594080174844"><ele>586.0</ele><time>2026-04-19T13:30:36.001Z</time></trkpt><trkpt lat="42.26879265538723" lon="13.042475213410597"><ele>583.2</ele><time>2026-04-19T13:30:37.001Z</time></trkpt><trkpt lat="42.2687970189141" lon="13.042365163080111"><ele>580.4000000000001</ele><time>2026-04-19T13:30:38.001Z</time></trkpt><trkpt lat="42.26889165588802" lon="13.042241295699384"><ele>577.6</ele><time>2026-04-19T13:30:40.001Z</time></trkpt><trkpt lat="42.26898392106801" lon="13.042202551458002"><ele>574.8000000000001</ele><time>2026-04-19T13:30:41.001Z</time></trkpt><trkpt lat="42.2691021822002" lon="13.042185089077648"><ele>572.0</ele><time>2026-04-19T13:30:42.001Z</time></trkpt><trkpt lat="42.2692178410074" lon="13.042169936061955"><ele>572.0</ele><time>2026-04-19T13:30:43.001Z</time></trkpt><trkpt lat="42.26931232421763" lon="13.04212721894581"><ele>572.0</ele><time>2026-04-19T13:30:44.001Z</time></trkpt><trkpt lat="42.269392423961705" lon="13.042050785991362"><ele>572.0</ele><time>2026-04-19T13:30:45.001Z</time></trkpt><trkpt lat="42.2694649724517" lon="13.041939390670956"><ele>572.0</ele><time>2026-04-19T13:30:46.001Z</time></trkpt><trkpt lat="42.26952886569854" lon="13.041814519758516"><ele>572.0</ele><time>2026-04-19T13:30:47.001Z</time></trkpt><trkpt lat="42.26958653828518" lon="13.041698860010632"><ele>571.8333333333333</ele><time>2026-04-19T13:30:48.001Z</time></trkpt><trkpt lat="42.26963695104811" lon="13.041602639151094"><ele>571.6666666666666</ele><time>2026-04-19T13:30:49.001Z</time></trkpt><trkpt lat="42.269673208575476" lon="13.041515173815526"><ele>571.5</ele><time>2026-04-19T13:30:50.001Z</time></trkpt><trkpt lat="42.26968789743105" lon="13.041418154897746"><ele>571.3333333333334</ele><time>2026-04-19T13:30:51.001Z</time></trkpt><trkpt lat="42.26967590447321" lon="13.041312146641985"><ele>571.1666666666667</ele><time>2026-04-19T13:30:52.001Z</time></trkpt><trkpt lat="42.26963845714783" lon="13.041206897913202"><ele>571.0</ele><time>2026-04-19T13:30:53.001Z</time></trkpt><trkpt lat="42.26956762327344" lon="13.041107854103705"><ele>571.0</ele><time>2026-04-19T13:30:54.001Z</time></trkpt><trkpt lat="42.26947943783055" lon="13.041034674655092"><ele>571.0</ele><time>2026-04-19T13:30:55.001Z</time></trkpt><trkpt lat="42.26939100678498" lon="13.040980603870056"><ele>571.0</ele><time>2026-04-19T13:30:56.001Z</time></trkpt><trkpt lat="42.2693241033611" lon="13.040921905180184"><ele>571.0</ele><time>2026-04-19T13:30:57.001Z</time></trkpt><trkpt lat="42.269283368064166" lon="13.04084173595017"><ele>571.0</ele><time>2026-04-19T13:30:58.001Z</time></trkpt><trkpt lat="42.269282591765744" lon="13.040733646103986"><ele>571.0</ele><time>2026-04-19T13:30:59.001Z</time></trkpt><trkpt lat="42.26931250453783" lon="13.040618815817039"><ele>569.5</ele><time>2026-04-19T13:31:00.001Z</time></trkpt><trkpt lat="42.269365286054594" lon="13.040510149450274"><ele>568.0</ele><time>2026-04-19T13:31:01.001Z</time></trkpt><trkpt lat="42.269437339345295" lon="13.040413250544663"><ele>566.5</ele><time>2026-04-19T13:31:02.001Z</time></trkpt><trkpt lat="42.26951032566229" lon="13.040339070960348"><ele>565.0</ele><time>2026-04-19T13:31:03.001Z</time></trkpt><trkpt lat="42.26955729972027" lon="13.040258577573328"><ele>563.5</ele><time>2026-04-19T13:31:04.001Z</time></trkpt><trkpt lat="42.26956176323222" lon="13.040163730665471"><ele>562.0</ele><time>2026-04-19T13:31:05.001Z</time></trkpt><trkpt lat="42.269527216124104" lon="13.040070710338323"><ele>562.0</ele><time>2026-04-19T13:31:06.001Z</time></trkpt><trkpt lat="42.26946391533403" lon="13.039986860857088"><ele>562.0</ele><time>2026-04-19T13:31:07.001Z</time></trkpt><trkpt lat="42.26936375558415" lon="13.039905419121611"><ele>562.0</ele><time>2026-04-19T13:31:08.001Z</time></trkpt><trkpt lat="42.26925012085125" lon="13.039813377883684"><ele>562.0</ele><time>2026-04-19T13:31:09Z</time></trkpt><trkpt lat="42.269135147770605" lon="13.039716582618079"><ele>563.6</ele><time>2026-04-19T13:31:10Z</time></trkpt><trkpt lat="42.26903087713106" lon="13.039623206950793"><ele>565.2</ele><time>2026-04-19T13:31:11Z</time></trkpt><trkpt lat="42.26893461392105" lon="13.03955293591076"><ele>566.8</ele><time>2026-04-19T13:31:12Z</time></trkpt><trkpt lat="42.26885694956654" lon="13.039488476110431"><ele>568.4</ele><time>2026-04-19T13:31:13Z</time></trkpt><trkpt lat="42.26880140152052" lon="13.039402750440635"><ele>570.0</ele><time>2026-04-19T13:31:14Z</time></trkpt><trkpt lat="42.26875104906605" lon="13.039336260280129"><ele>570.0</ele><time>2026-04-19T13:31:15Z</time></trkpt><trkpt lat="42.26874147642655" lon="13.039234657946716"><ele>570.0</ele><time>2026-04-19T13:31:15.999Z</time></trkpt><trkpt lat="42.26874425035821" lon="13.039134945926719"><ele>570.0</ele><time>2026-04-19T13:31:16.999Z</time></trkpt><trkpt lat="42.26875766597223" lon="13.039022401922145"><ele>570.0</ele><time>2026-04-19T13:31:17.999Z</time></trkpt><trkpt lat="42.26877659386244" lon="13.038895900561103"><ele>570.0</ele><time>2026-04-19T13:31:18.999Z</time></trkpt><trkpt lat="42.26880648843163" lon="13.038762294150636"><ele>570.0</ele><time>2026-04-19T13:31:19.999Z</time></trkpt><trkpt lat="42.26884576076564" lon="13.038635673151141"><ele>569.0</ele><time>2026-04-19T13:31:20.999Z</time></trkpt><trkpt lat="42.268890329514804" lon="13.038522155103399"><ele>568.0</ele><time>2026-04-19T13:31:21.999Z</time></trkpt><trkpt lat="42.26894005562893" lon="13.038425492731887"><ele>567.0</ele><time>2026-04-19T13:31:22.999Z</time></trkpt><trkpt lat="42.26898722926474" lon="13.038339092963563"><ele>566.0</ele><time>2026-04-19T13:31:23.999Z</time></trkpt><trkpt lat="42.269031622739405" lon="13.03827395372179"><ele>565.0</ele><time>2026-04-19T13:31:24.999Z</time></trkpt><trkpt lat="42.26909269942269" lon="13.038230719398912"><ele>564.0</ele><time>2026-04-19T13:31:25.999Z</time></trkpt><trkpt lat="42.26915957196944" lon="13.038226631667511"><ele>562.2</ele><time>2026-04-19T13:31:26.999Z</time></trkpt><trkpt lat="42.26923451176288" lon="13.038252908262644"><ele>560.4</ele><time>2026-04-19T13:31:27.999Z</time></trkpt><trkpt lat="42.269324287430194" lon="13.038310391016811"><ele>558.6</ele><time>2026-04-19T13:31:28.999Z</time></trkpt><trkpt lat="42.26942856738385" lon="13.03839819518466"><ele>556.8</ele><time>2026-04-19T13:31:29.998Z</time></trkpt><trkpt lat="42.26954394090452" lon="13.038502859766052"><ele>555.0</ele><time>2026-04-19T13:31:30.998Z</time></trkpt><trkpt lat="42.269652712752354" lon="13.038597372693639"><ele>555.0</ele><time>2026-04-19T13:31:31.998Z</time></trkpt><trkpt lat="42.26975191148532" lon="13.038675608789758"><ele>555.0</ele><time>2026-04-19T13:31:32.998Z</time></trkpt><trkpt lat="42.26984149769627" lon="13.038727991946613"><ele>555.0</ele><time>2026-04-19T13:31:33.998Z</time></trkpt><trkpt lat="42.269934824977916" lon="13.038749882268169"><ele>555.0</ele><time>2026-04-19T13:31:34.998Z</time></trkpt><trkpt lat="42.27003372896407" lon="13.038731076398822"><ele>555.0</ele><time>2026-04-19T13:31:35.998Z</time></trkpt><trkpt lat="42.27013819715022" lon="13.038684161296281"><ele>556.8</ele><time>2026-04-19T13:31:36.998Z</time></trkpt><trkpt lat="42.27023023198913" lon="13.038664270111898"><ele>558.6</ele><time>2026-04-19T13:31:37.998Z</time></trkpt><trkpt lat="42.27031890007539" lon="13.038705870616424"><ele>560.4</ele><time>2026-04-19T13:31:38.998Z</time></trkpt><trkpt lat="42.2703931105721" lon="13.038787477050937"><ele>562.2</ele><time>2026-04-19T13:31:39.998Z</time></trkpt><trkpt lat="42.27045654630509" lon="13.038899263791578"><ele>564.0</ele><time>2026-04-19T13:31:40.998Z</time></trkpt><trkpt lat="42.270520344096866" lon="13.039014841449992"><ele>564.0</ele><time>2026-04-19T13:31:41.998Z</time></trkpt><trkpt lat="42.27058507414978" lon="13.039094757705055"><ele>564.0</ele><time>2026-04-19T13:31:42.998Z</time></trkpt><trkpt lat="42.27064986301409" lon="13.03915410504701"><ele>564.0</ele><time>2026-04-19T13:31:43.998Z</time></trkpt><trkpt lat="42.27074577852588" lon="13.039145242463357"><ele>564.0</ele><time>2026-04-19T13:31:44.998Z</time></trkpt><trkpt lat="42.270845245447646" lon="13.039056625311233"><ele>564.0</ele><time>2026-04-19T13:31:45.998Z</time></trkpt><trkpt lat="42.27096080342335" lon="13.038982196348053"><ele>562.8</ele><time>2026-04-19T13:31:46.998Z</time></trkpt><trkpt lat="42.27108681244009" lon="13.038942782892585"><ele>561.5999999999999</ele><time>2026-04-19T13:31:47.998Z</time></trkpt><trkpt lat="42.27120908872105" lon="13.03892380388963"><ele>560.4</ele><time>2026-04-19T13:31:48.998Z</time></trkpt><trkpt lat="42.27130770356613" lon="13.038881225879143"><ele>559.1999999999999</ele><time>2026-04-19T13:31:49.998Z</time></trkpt><trkpt lat="42.27138326090063" lon="13.038813086254137"><ele>558.0</ele><time>2026-04-19T13:31:50.998Z</time></trkpt><trkpt lat="42.271425605728496" lon="13.038719284909915"><ele>558.0</ele><time>2026-04-19T13:31:51.998Z</time></trkpt><trkpt lat="42.27143813019205" lon="13.038611011061754"><ele>558.0</ele><time>2026-04-19T13:31:52.998Z</time></trkpt><trkpt lat="42.27141894149786" lon="13.03850444487868"><ele>558.0</ele><time>2026-04-19T13:31:53.998Z</time></trkpt><trkpt lat="42.271374388329214" lon="13.038392617118289"><ele>558.0</ele><time>2026-04-19T13:31:54.998Z</time></trkpt><trkpt lat="42.27130202704113" lon="13.038276108450123"><ele>558.0</ele><time>2026-04-19T13:31:55.998Z</time></trkpt><trkpt lat="42.27120016923205" lon="13.03816726638177"><ele>556.25</ele><time>2026-04-19T13:31:56.998Z</time></trkpt><trkpt lat="42.27107688050512" lon="13.038086826654169"><ele>554.5</ele><time>2026-04-19T13:31:57.998Z</time></trkpt><trkpt lat="42.27094752192542" lon="13.0380393581298"><ele>552.75</ele><time>2026-04-19T13:31:58.998Z</time></trkpt><trkpt lat="42.27083599267816" lon="13.037995553197195"><ele>551.0</ele><time>2026-04-19T13:31:59.998Z</time></trkpt><trkpt lat="42.27075057856211" lon="13.03787789682056"><ele>551.0</ele><time>2026-04-19T13:32:00.998Z</time></trkpt><trkpt lat="42.270657869480544" lon="13.03774490677478"><ele>551.0</ele><time>2026-04-19T13:32:01.998Z</time></trkpt><trkpt lat="42.27055575353321" lon="13.037628663372525"><ele>551.0</ele><time>2026-04-19T13:32:02.998Z</time></trkpt><trkpt lat="42.27050833498173" lon="13.037502049430415"><ele>551.0</ele><time>2026-04-19T13:32:03.998Z</time></trkpt><trkpt lat="42.270452901376814" lon="13.037395681937232"><ele>558.6</ele><time>2026-04-19T13:32:04.998Z</time></trkpt><trkpt lat="42.270425634684905" lon="13.037246248991442"><ele>566.2</ele><time>2026-04-19T13:32:05.998Z</time></trkpt><trkpt lat="42.2704307576748" lon="13.037086786281899"><ele>573.8</ele><time>2026-04-19T13:32:06.998Z</time></trkpt><trkpt lat="42.27042249655263" lon="13.036944051286017"><ele>581.4</ele><time>2026-04-19T13:32:07.998Z</time></trkpt><trkpt lat="42.270433212648605" lon="13.036820034747516"><ele>589.0</ele><time>2026-04-19T13:32:08.998Z</time></trkpt><trkpt lat="42.270483620617725" lon="13.036697587737889"><ele>593.75</ele><time>2026-04-19T13:32:09.998Z</time></trkpt><trkpt lat="42.2705708535272" lon="13.03657787650759"><ele>598.5</ele><time>2026-04-19T13:32:10.998Z</time></trkpt><trkpt lat="42.27065772117212" lon="13.036458203792161"><ele>603.25</ele><time>2026-04-19T13:32:11.998Z</time></trkpt><trkpt lat="42.27073832597474" lon="13.036333674132873"><ele>608.0</ele><time>2026-04-19T13:32:12.998Z</time></trkpt><trkpt lat="42.270777963828145" lon="13.036190523434735"><ele>598.0</ele><time>2026-04-19T13:32:13.998Z</time></trkpt><trkpt lat="42.27079242430175" lon="13.036027997464702"><ele>588.0</ele><time>2026-04-19T13:32:14.998Z</time></trkpt><trkpt lat="42.270797423443106" lon="13.035840595481552"><ele>578.0</ele><time>2026-04-19T13:32:15.998Z</time></trkpt><trkpt lat="42.27079107117729" lon="13.03564987777558"><ele>568.0</ele><time>2026-04-19T13:32:16.998Z</time></trkpt><trkpt lat="42.27078511884916" lon="13.035475658268027"><ele>568.0</ele><time>2026-04-19T13:32:17.998Z</time></trkpt><trkpt lat="42.27078103282896" lon="13.0353390607232"><ele>568.0</ele><time>2026-04-19T13:32:18.998Z</time></trkpt><trkpt lat="42.27078041175741" lon="13.035234720589962"><ele>568.0</ele><time>2026-04-19T13:32:19.998Z</time></trkpt><trkpt lat="42.270796521278" lon="13.035148042238667"><ele>568.0</ele><time>2026-04-19T13:32:20.998Z</time></trkpt><trkpt lat="42.27084015060982" lon="13.035072151941986"><ele>568.0</ele><time>2026-04-19T13:32:21.998Z</time></trkpt><trkpt lat="42.270907385658056" lon="13.035025407524856"><ele>568.0</ele><time>2026-04-19T13:32:22.998Z</time></trkpt><trkpt lat="42.27100053145256" lon="13.034998487045494"><ele>568.0</ele><time>2026-04-19T13:32:23.998Z</time></trkpt><trkpt lat="42.27110393340482" lon="13.034974050180162"><ele>568.0</ele><time>2026-04-19T13:32:24.998Z</time></trkpt><trkpt lat="42.27117904229114" lon="13.034924554840785"><ele>568.0</ele><time>2026-04-19T13:32:25.998Z</time></trkpt><trkpt lat="42.27122216201522" lon="13.034831293304604"><ele>568.0</ele><time>2026-04-19T13:32:26.998Z</time></trkpt><trkpt lat="42.27123629707553" lon="13.034710402637515"><ele>568.0</ele><time>2026-04-19T13:32:27.998Z</time></trkpt><trkpt lat="42.27121960966602" lon="13.03457741514386"><ele>568.1666666666667</ele><time>2026-04-19T13:32:28.998Z</time></trkpt><trkpt lat="42.27120268995473" lon="13.0344573536799"><ele>568.3333333333334</ele><time>2026-04-19T13:32:29.998Z</time></trkpt><trkpt lat="42.27121163377658" lon="13.03436702227619"><ele>568.5</ele><time>2026-04-19T13:32:30.998Z</time></trkpt><trkpt lat="42.27125053544754" lon="13.034287104300917"><ele>568.6666666666666</ele><time>2026-04-19T13:32:31.998Z</time></trkpt><trkpt lat="42.27132429747201" lon="13.034212971044822"><ele>568.8333333333333</ele><time>2026-04-19T13:32:32.998Z</time></trkpt><trkpt lat="42.2714121714413" lon="13.034157955775436"><ele>569.0</ele><time>2026-04-19T13:32:33.998Z</time></trkpt><trkpt lat="42.27149116235389" lon="13.034085983641814"><ele>564.0</ele><time>2026-04-19T13:32:34.998Z</time></trkpt><trkpt lat="42.27154789268849" lon="13.033975560855763"><ele>559.0</ele><time>2026-04-19T13:32:35.998Z</time></trkpt><trkpt lat="42.27157946277506" lon="13.033838545416831"><ele>554.0</ele><time>2026-04-19T13:32:36.998Z</time></trkpt><trkpt lat="42.27157811853589" lon="13.033708590070143"><ele>549.0</ele><time>2026-04-19T13:32:37.998Z</time></trkpt><trkpt lat="42.27155731713531" lon="13.033586767455771"><ele>544.0</ele><time>2026-04-19T13:32:38.998Z</time></trkpt><trkpt lat="42.27151199896412" lon="13.033479062719067"><ele>548.2</ele><time>2026-04-19T13:32:39.998Z</time></trkpt><trkpt lat="42.27143935083862" lon="13.033381208719472"><ele>552.4</ele><time>2026-04-19T13:32:40.998Z</time></trkpt><trkpt lat="42.27135191134281" lon="13.033282744501891"><ele>556.6</ele><time>2026-04-19T13:32:41.998Z</time></trkpt><trkpt lat="42.27128248413765" lon="13.033198836533957"><ele>560.8</ele><time>2026-04-19T13:32:42.998Z</time></trkpt><trkpt lat="42.27122814116621" lon="13.03308757167517"><ele>565.0</ele><time>2026-04-19T13:32:43.998Z</time></trkpt><trkpt lat="42.27118880037022" lon="13.032938118609238"><ele>565.0</ele><time>2026-04-19T13:32:44.998Z</time></trkpt><trkpt lat="42.27114949581224" lon="13.032782645014713"><ele>565.0</ele><time>2026-04-19T13:32:45.998Z</time></trkpt><trkpt lat="42.27110513648368" lon="13.032663051168289"><ele>565.0</ele><time>2026-04-19T13:32:46.998Z</time></trkpt><trkpt lat="42.27107326607654" lon="13.032566313860327"><ele>565.0</ele><time>2026-04-19T13:32:47.998Z</time></trkpt><trkpt lat="42.27105938896491" lon="13.032467770163576"><ele>565.0</ele><time>2026-04-19T13:32:48.998Z</time></trkpt><trkpt lat="42.2710690340365" lon="13.032364445439269"><ele>565.2</ele><time>2026-04-19T13:32:49.998Z</time></trkpt><trkpt lat="42.27110321485436" lon="13.032263536450385"><ele>565.4</ele><time>2026-04-19T13:32:50.998Z</time></trkpt><trkpt lat="42.271153846507104" lon="13.032190743384705"><ele>565.6</ele><time>2026-04-19T13:32:51.998Z</time></trkpt><trkpt lat="42.27123032172094" lon="13.032126970497949"><ele>565.8</ele><time>2026-04-19T13:32:52.998Z</time></trkpt><trkpt lat="42.27133825769424" lon="13.032079565455623"><ele>566.0</ele><time>2026-04-19T13:32:53.998Z</time></trkpt><trkpt lat="42.27148055773528" lon="13.032038720002273"><ele>564.0</ele><time>2026-04-19T13:32:54.998Z</time></trkpt><trkpt lat="42.27162595610497" lon="13.031992963532467"><ele>562.0</ele><time>2026-04-19T13:32:55.998Z</time></trkpt><trkpt lat="42.27177669296723" lon="13.031941557980065"><ele>560.0</ele><time>2026-04-19T13:32:56.998Z</time></trkpt><trkpt lat="42.271921952723446" lon="13.031904714200076"><ele>560.0</ele><time>2026-04-19T13:32:57.998Z</time></trkpt><trkpt lat="42.272061194463426" lon="13.031896841757227"><ele>560.0</ele><time>2026-04-19T13:32:58.998Z</time></trkpt><trkpt lat="42.27220712418639" lon="13.031917482629517"><ele>560.0</ele><time>2026-04-19T13:32:59.998Z</time></trkpt><trkpt lat="42.272342980959294" lon="13.031955707651909"><ele>560.0</ele><time>2026-04-19T13:33:00.998Z</time></trkpt><trkpt lat="42.272454075800134" lon="13.03197961040116"><ele>559.5</ele><time>2026-04-19T13:33:01.998Z</time></trkpt><trkpt lat="42.27254539082035" lon="13.031981948232326"><ele>559.0</ele><time>2026-04-19T13:33:02.998Z</time></trkpt><trkpt lat="42.27262157295728" lon="13.03194590668394"><ele>558.5</ele><time>2026-04-19T13:33:03.998Z</time></trkpt><trkpt lat="42.272681710202725" lon="13.03187233075545"><ele>558.0</ele><time>2026-04-19T13:33:04.998Z</time></trkpt><trkpt lat="42.27272264607876" lon="13.031765878327722"><ele>557.5</ele><time>2026-04-19T13:33:05.998Z</time></trkpt><trkpt lat="42.27273402187504" lon="13.031645459163043"><ele>557.0</ele><time>2026-04-19T13:33:06.999Z</time></trkpt><trkpt lat="42.2727176664216" lon="13.031507226368008"><ele>557.0</ele><time>2026-04-19T13:33:07.999Z</time></trkpt><trkpt lat="42.27268495848687" lon="13.031323668888655"><ele>557.0</ele><time>2026-04-19T13:33:08.999Z</time></trkpt><trkpt lat="42.27264692916438" lon="13.03111463707543"><ele>557.0</ele><time>2026-04-19T13:33:09.999Z</time></trkpt><trkpt lat="42.2726180396731" lon="13.030918972940178"><ele>557.0</ele><time>2026-04-19T13:33:10.999Z</time></trkpt><trkpt lat="42.272591889619946" lon="13.030729297050796"><ele>558.5</ele><time>2026-04-19T13:33:11.999Z</time></trkpt><trkpt lat="42.272576933461565" lon="13.030552059211438"><ele>560.0</ele><time>2026-04-19T13:33:12.999Z</time></trkpt><trkpt lat="42.27257689372896" lon="13.030379945501673"><ele>561.5</ele><time>2026-04-19T13:33:13.999Z</time></trkpt><trkpt lat="42.272597713594365" lon="13.030222666856996"><ele>563.0</ele><time>2026-04-19T13:33:14.999Z</time></trkpt><trkpt lat="42.27264931352155" lon="13.03006159995545"><ele>566.3333333333333</ele><time>2026-04-19T13:33:15.999Z</time></trkpt><trkpt lat="42.27273607171716" lon="13.02989376245328"><ele>569.6666666666666</ele><time>2026-04-19T13:33:16.999Z</time></trkpt><trkpt lat="42.27284594068266" lon="13.029717147424995"><ele>573.0</ele><time>2026-04-19T13:33:17.999Z</time></trkpt><trkpt lat="42.272951814142615" lon="13.029558421770268"><ele>573.0</ele><time>2026-04-19T13:33:18.999Z</time></trkpt><trkpt lat="42.27304874866887" lon="13.029423571246657"><ele>573.0</ele><time>2026-04-19T13:33:19.999Z</time></trkpt><trkpt lat="42.27313416871035" lon="13.029301703225943"><ele>573.0</ele><time>2026-04-19T13:33:20.999Z</time></trkpt><trkpt lat="42.27321253467918" lon="13.029185583042484"><ele>573.0</ele><time>2026-04-19T13:33:21.999Z</time></trkpt><trkpt lat="42.273284949322885" lon="13.029063964934632"><ele>571.6666666666666</ele><time>2026-04-19T13:33:22.999Z</time></trkpt><trkpt lat="42.2733471006489" lon="13.02893639856643"><ele>570.3333333333334</ele><time>2026-04-19T13:33:24Z</time></trkpt><trkpt lat="42.27339294902549" lon="13.028833988969666"><ele>569.0</ele><time>2026-04-19T13:33:25Z</time></trkpt><trkpt lat="42.27343563653605" lon="13.028752642405237"><ele>567.6666666666667</ele><time>2026-04-19T13:33:26Z</time></trkpt><trkpt lat="42.27348825902373" lon="13.028696046475979"><ele>566.3333333333334</ele><time>2026-04-19T13:33:27Z</time></trkpt><trkpt lat="42.27355204879757" lon="13.028667004136988"><ele>565.0</ele><time>2026-04-19T13:33:28Z</time></trkpt><trkpt lat="42.27362493706268" lon="13.028670533148208"><ele>565.0</ele><time>2026-04-19T13:33:29Z</time></trkpt><trkpt lat="42.27370445289106" lon="13.028708938884057"><ele>565.0</ele><time>2026-04-19T13:33:30Z</time></trkpt><trkpt lat="42.27379320001882" lon="13.028780963955946"><ele>565.0</ele><time>2026-04-19T13:33:31Z</time></trkpt><trkpt lat="42.27389936724132" lon="13.028885137743229"><ele>565.0</ele><time>2026-04-19T13:33:32Z</time></trkpt><trkpt lat="42.27401172866131" lon="13.028983081920268"><ele>565.6666666666667</ele><time>2026-04-19T13:33:33Z</time></trkpt><trkpt lat="42.27414337482174" lon="13.02906242031688"><ele>566.3333333333334</ele><time>2026-04-19T13:33:34Z</time></trkpt><trkpt lat="42.27429859440012" lon="13.029120623836492"><ele>567.0</ele><time>2026-04-19T13:33:35Z</time></trkpt><trkpt lat="42.27448111770846" lon="13.02917214310152"><ele>561.3333333333334</ele><time>2026-04-19T13:33:36Z</time></trkpt><trkpt lat="42.274663567250386" lon="13.0292104752315"><ele>555.6666666666667</ele><time>2026-04-19T13:33:37Z</time></trkpt><trkpt lat="42.274824759845856" lon="13.029239203113613"><ele>550.0</ele><time>2026-04-19T13:33:38Z</time></trkpt><trkpt lat="42.2749753806459" lon="13.02924729802269"><ele>549.6</ele><time>2026-04-19T13:33:39Z</time></trkpt><trkpt lat="42.27511506496702" lon="13.029238790561871"><ele>549.2</ele><time>2026-04-19T13:33:40Z</time></trkpt><trkpt lat="42.27522771574769" lon="13.029209113971204"><ele>548.8</ele><time>2026-04-19T13:33:41Z</time></trkpt><trkpt lat="42.27531663193241" lon="13.029178219826074"><ele>548.4</ele><time>2026-04-19T13:33:42Z</time></trkpt><trkpt lat="42.275386538659326" lon="13.029143083630782"><ele>548.0</ele><time>2026-04-19T13:33:43Z</time></trkpt><trkpt lat="42.275444527184405" lon="13.029094323351789"><ele>549.8333333333333</ele><time>2026-04-19T13:33:44Z</time></trkpt><trkpt lat="42.275492315598584" lon="13.02902639852044"><ele>551.6666666666666</ele><time>2026-04-19T13:33:45Z</time></trkpt><trkpt lat="42.27551117892459" lon="13.028944286694696"><ele>553.5</ele><time>2026-04-19T13:33:46Z</time></trkpt><trkpt lat="42.27550655190347" lon="13.0288347887471"><ele>555.3333333333334</ele><time>2026-04-19T13:33:47Z</time></trkpt><trkpt lat="42.27547725001618" lon="13.028695149465976"><ele>557.1666666666667</ele><time>2026-04-19T13:33:48Z</time></trkpt><trkpt lat="42.27543550933533" lon="13.028546355908228"><ele>559.0</ele><time>2026-04-19T13:33:49Z</time></trkpt><trkpt lat="42.27540233946007" lon="13.02839732748227"><ele>559.75</ele><time>2026-04-19T13:33:50Z</time></trkpt><trkpt lat="42.27539470394427" lon="13.028249572812857"><ele>560.5</ele><time>2026-04-19T13:33:51Z</time></trkpt><trkpt lat="42.27541747174228" lon="13.028099812523084"><ele>561.25</ele><time>2026-04-19T13:33:52Z</time></trkpt><trkpt lat="42.2754599100994" lon="13.02793710173994"><ele>562.0</ele><time>2026-04-19T13:33:53Z</time></trkpt><trkpt lat="42.27551102018519" lon="13.027758166726091"><ele>562.0</ele><time>2026-04-19T13:33:54Z</time></trkpt><trkpt lat="42.27556689051773" lon="13.027570123964988"><ele>562.0</ele><time>2026-04-19T13:33:55Z</time></trkpt><trkpt lat="42.275623524793026" lon="13.02737259585894"><ele>562.0</ele><time>2026-04-19T13:33:56Z</time></trkpt><trkpt lat="42.275674654252484" lon="13.027182914594187"><ele>559.0</ele><time>2026-04-19T13:33:57Z</time></trkpt><trkpt lat="42.27571728728659" lon="13.027023166641797"><ele>556.0</ele><time>2026-04-19T13:33:58Z</time></trkpt><trkpt lat="42.275761487352376" lon="13.02686909068858"><ele>553.0</ele><time>2026-04-19T13:33:59Z</time></trkpt><trkpt lat="42.275803706031354" lon="13.026711465117303"><ele>550.0</ele><time>2026-04-19T13:34:00Z</time></trkpt><trkpt lat="42.27584666576985" lon="13.026549729224907"><ele>550.0</ele><time>2026-04-19T13:34:01Z</time></trkpt><trkpt lat="42.27589226306787" lon="13.026387653265251"><ele>550.0</ele><time>2026-04-19T13:34:02Z</time></trkpt><trkpt lat="42.275938489606695" lon="13.026226332821965"><ele>550.0</ele><time>2026-04-19T13:34:03Z</time></trkpt><trkpt lat="42.275981965681844" lon="13.026075848733353"><ele>550.0</ele><time>2026-04-19T13:34:04Z</time></trkpt><trkpt lat="42.276024100231204" lon="13.025943265831277"><ele>550.0</ele><time>2026-04-19T13:34:05Z</time></trkpt><trkpt lat="42.27607624203635" lon="13.025819774092026"><ele>550.0</ele><time>2026-04-19T13:34:06Z</time></trkpt><trkpt lat="42.27614405129534" lon="13.025717286278903"><ele>550.0</ele><time>2026-04-19T13:34:07Z</time></trkpt><trkpt lat="42.27622909837155" lon="13.025645117450793"><ele>550.0</ele><time>2026-04-19T13:34:08Z</time></trkpt><trkpt lat="42.276324019295664" lon="13.025605637195083"><ele>550.0</ele><time>2026-04-19T13:34:09Z</time></trkpt><trkpt lat="42.27643588699928" lon="13.02558476988106"><ele>557.25</ele><time>2026-04-19T13:34:10Z</time></trkpt><trkpt lat="42.276552385484756" lon="13.025578213209974"><ele>564.5</ele><time>2026-04-19T13:34:11Z</time></trkpt><trkpt lat="42.27667286387077" lon="13.025570000216801"><ele>571.75</ele><time>2026-04-19T13:34:12Z</time></trkpt><trkpt lat="42.27679208892905" lon="13.025560154418974"><ele>579.0</ele><time>2026-04-19T13:34:13Z</time></trkpt><trkpt lat="42.27690285258405" lon="13.025540839582293"><ele>579.0</ele><time>2026-04-19T13:34:14Z</time></trkpt><trkpt lat="42.27701439283072" lon="13.025505119574396"><ele>579.0</ele><time>2026-04-19T13:34:15Z</time></trkpt><trkpt lat="42.27712615168692" lon="13.025446406134535"><ele>579.0</ele><time>2026-04-19T13:34:16Z</time></trkpt><trkpt lat="42.277244641514486" lon="13.025358477102447"><ele>579.0</ele><time>2026-04-19T13:34:17Z</time></trkpt><trkpt lat="42.277364184490864" lon="13.025260737761043"><ele>575.0</ele><time>2026-04-19T13:34:18Z</time></trkpt><trkpt lat="42.27746070564962" lon="13.025193976123491"><ele>571.0</ele><time>2026-04-19T13:34:19Z</time></trkpt><trkpt lat="42.277551690678045" lon="13.025155509596363"><ele>567.0</ele><time>2026-04-19T13:34:20Z</time></trkpt><trkpt lat="42.27763976885285" lon="13.025133317611525"><ele>563.0</ele><time>2026-04-19T13:34:21Z</time></trkpt><trkpt lat="42.27770764516635" lon="13.025088832296742"><ele>559.0</ele><time>2026-04-19T13:34:22Z</time></trkpt><trkpt lat="42.27777222984459" lon="13.025006871854584"><ele>557.6666666666667</ele><time>2026-04-19T13:34:23Z</time></trkpt><trkpt lat="42.277830704742236" lon="13.02490456881547"><ele>556.3333333333334</ele><time>2026-04-19T13:34:24Z</time></trkpt><trkpt lat="42.27788356873401" lon="13.024832898215712"><ele>555.0</ele><time>2026-04-19T13:34:25Z</time></trkpt><trkpt lat="42.27795562372551" lon="13.024793435155326"><ele>553.6666666666666</ele><time>2026-04-19T13:34:26Z</time></trkpt><trkpt lat="42.27804018774223" lon="13.024737744962552"><ele>552.3333333333333</ele><time>2026-04-19T13:34:27Z</time></trkpt><trkpt lat="42.2781176106551" lon="13.024647306963159"><ele>551.0</ele><time>2026-04-19T13:34:28Z</time></trkpt><trkpt lat="42.27817979926574" lon="13.0245191620725"><ele>551.0</ele><time>2026-04-19T13:34:29Z</time></trkpt><trkpt lat="42.27822804227455" lon="13.02435569354462"><ele>551.0</ele><time>2026-04-19T13:34:30Z</time></trkpt><trkpt lat="42.278269129799725" lon="13.024159990198648"><ele>551.0</ele><time>2026-04-19T13:34:31Z</time></trkpt><trkpt lat="42.278307033080004" lon="13.023966595595402"><ele>551.0</ele><time>2026-04-19T13:34:32Z</time></trkpt><trkpt lat="42.278342006384335" lon="13.023786278447131"><ele>560.6</ele><time>2026-04-19T13:34:33Z</time></trkpt><trkpt lat="42.278369472682634" lon="13.023638508197974"><ele>570.2</ele><time>2026-04-19T13:34:34Z</time></trkpt><trkpt lat="42.278389133423765" lon="13.023523410087714"><ele>579.8</ele><time>2026-04-19T13:34:35Z</time></trkpt><trkpt lat="42.27842844520688" lon="13.023443548569679"><ele>589.4</ele><time>2026-04-19T13:34:36Z</time></trkpt><trkpt lat="42.278500674301824" lon="13.023366150456765"><ele>599.0</ele><time>2026-04-19T13:34:37Z</time></trkpt><trkpt lat="42.27859219206557" lon="13.023307855104552"><ele>600.25</ele><time>2026-04-19T13:34:38Z</time></trkpt><trkpt lat="42.27871240568526" lon="13.023262567091049"><ele>601.5</ele><time>2026-04-19T13:34:39Z</time></trkpt><trkpt lat="42.27883298828769" lon="13.02323189392449"><ele>602.75</ele><time>2026-04-19T13:34:40Z</time></trkpt><trkpt lat="42.278947279259164" lon="13.023210872905857"><ele>604.0</ele><time>2026-04-19T13:34:41Z</time></trkpt><trkpt lat="42.27905563443502" lon="13.023211685102282"><ele>604.0</ele><time>2026-04-19T13:34:42Z</time></trkpt><trkpt lat="42.27914047050106" lon="13.023239119401431"><ele>604.0</ele><time>2026-04-19T13:34:43Z</time></trkpt><trkpt lat="42.279214638321186" lon="13.023258133202638"><ele>604.0</ele><time>2026-04-19T13:34:44Z</time></trkpt><trkpt lat="42.27928766606589" lon="13.023257112469622"><ele>604.0</ele><time>2026-04-19T13:34:45Z</time></trkpt><trkpt lat="42.279353970988616" lon="13.023243819907213"><ele>604.0</ele><time>2026-04-19T13:34:46Z</time></trkpt><trkpt lat="42.27941870157056" lon="13.023235299984783"><ele>604.0</ele><time>2026-04-19T13:34:47Z</time></trkpt><trkpt lat="42.27950321101528" lon="13.023283722017467"><ele>596.0</ele><time>2026-04-19T13:34:49Z</time></trkpt><trkpt lat="42.27949495918493" lon="13.023410782790048"><ele>588.0</ele><time>2026-04-19T13:34:51Z</time></trkpt><trkpt lat="42.279494154183695" lon="13.023514426687832"><ele>580.0</ele><time>2026-04-19T13:34:52Z</time></trkpt><trkpt lat="42.2794935865762" lon="13.023658958518896"><ele>572.0</ele><time>2026-04-19T13:34:53Z</time></trkpt><trkpt lat="42.279503602831895" lon="13.023830001064121"><ele>564.0</ele><time>2026-04-19T13:34:54Z</time></trkpt><trkpt lat="42.27953199472992" lon="13.024007670279932"><ele>555.75</ele><time>2026-04-19T13:34:55Z</time></trkpt><trkpt lat="42.27956754865847" lon="13.024167208937639"><ele>547.5</ele><time>2026-04-19T13:34:56Z</time></trkpt><trkpt lat="42.279612303117794" lon="13.024319214439824"><ele>539.25</ele><time>2026-04-19T13:34:57Z</time></trkpt><trkpt lat="42.279678808992465" lon="13.024449788832264"><ele>531.0</ele><time>2026-04-19T13:34:58Z</time></trkpt><trkpt lat="42.27972210579315" lon="13.024593529425994"><ele>530.6</ele><time>2026-04-19T13:34:59Z</time></trkpt><trkpt lat="42.279801112433866" lon="13.024701002696524"><ele>530.2</ele><time>2026-04-19T13:35:00Z</time></trkpt><trkpt lat="42.279873139287474" lon="13.024816585764372"><ele>529.8</ele><time>2026-04-19T13:35:01Z</time></trkpt><trkpt lat="42.27995134332357" lon="13.024920229448101"><ele>529.4</ele><time>2026-04-19T13:35:02Z</time></trkpt><trkpt lat="42.28003398094346" lon="13.025010130734339"><ele>529.0</ele><time>2026-04-19T13:35:03Z</time></trkpt><trkpt lat="42.280118012091016" lon="13.025087807030454"><ele>529.0</ele><time>2026-04-19T13:35:04Z</time></trkpt><trkpt lat="42.280175528668174" lon="13.025162632386253"><ele>529.0</ele><time>2026-04-19T13:35:05Z</time></trkpt><trkpt lat="42.28029921452167" lon="13.025198595753286"><ele>529.0</ele><time>2026-04-19T13:35:07Z</time></trkpt><trkpt lat="42.28036867472672" lon="13.025164565341422"><ele>529.0</ele><time>2026-04-19T13:35:08Z</time></trkpt><trkpt lat="42.28045788643202" lon="13.025139889648575"><ele>529.0</ele><time>2026-04-19T13:35:09Z</time></trkpt><trkpt lat="42.280550987837785" lon="13.025116937205924"><ele>530.0</ele><time>2026-04-19T13:35:10Z</time></trkpt><trkpt lat="42.28064135211797" lon="13.025107176897526"><ele>531.0</ele><time>2026-04-19T13:35:11Z</time></trkpt><trkpt lat="42.2807157830106" lon="13.025119202740102"><ele>532.0</ele><time>2026-04-19T13:35:12Z</time></trkpt><trkpt lat="42.28082651008221" lon="13.025148349327397"><ele>533.0</ele><time>2026-04-19T13:35:14Z</time></trkpt><trkpt lat="42.280898155412096" lon="13.025126304579137"><ele>534.0</ele><time>2026-04-19T13:35:16Z</time></trkpt><trkpt lat="42.28095944821506" lon="13.025209225932043"><ele>535.0</ele><time>2026-04-19T13:35:18Z</time></trkpt><trkpt lat="42.280890131447556" lon="13.025204078998955"><ele>535.0</ele><time>2026-04-19T13:47:34.001Z</time></trkpt><trkpt lat="42.28080687563551" lon="13.025188197797402"><ele>535.0</ele><time>2026-04-19T13:48:55.001Z</time></trkpt><trkpt lat="42.28087085692744" lon="13.02518000569666"><ele>535.0</ele><time>2026-04-19T13:49:47Z</time></trkpt><trkpt lat="42.280936228061464" lon="13.025207879322982"><ele>535.0</ele><time>2026-04-19T13:49:54Z</time></trkpt><trkpt lat="42.28087033823978" lon="13.025209593152452"><ele>535.0</ele><time>2026-04-19T13:51:33.001Z</time></trkpt><trkpt lat="42.28093541829083" lon="13.025189513375075"><ele>535.0</ele><time>2026-04-19T13:52:12.999Z</time></trkpt><trkpt lat="42.28099460363953" lon="13.02524033367677"><ele>535.0</ele><time>2026-04-19T13:53:44.001Z</time></trkpt><trkpt lat="42.28109045563948" lon="13.025300219149857"><ele>535.0</ele><time>2026-04-19T13:54:22.999Z</time></trkpt><trkpt lat="42.28119502486461" lon="13.025361699518818"><ele>535.0</ele><time>2026-04-19T13:54:24.999Z</time></trkpt><trkpt lat="42.28125460290243" lon="13.02539400363357"><ele>535.0</ele><time>2026-04-19T13:54:25.999Z</time></trkpt><trkpt lat="42.281339840470906" lon="13.025423293619916"><ele>535.0</ele><time>2026-04-19T13:54:26.999Z</time></trkpt><trkpt lat="42.28143168833083" lon="13.025448866747693"><ele>535.0</ele><time>2026-04-19T13:54:27.999Z</time></trkpt><trkpt lat="42.28149732381101" lon="13.025477798562902"><ele>535.0</ele><time>2026-04-19T13:54:28.999Z</time></trkpt><trkpt lat="42.28159780988509" lon="13.025545174021884"><ele>537.4</ele><time>2026-04-19T13:54:30.999Z</time></trkpt><trkpt lat="42.2816818500163" lon="13.025614165783074"><ele>539.8</ele><time>2026-04-19T13:54:33Z</time></trkpt><trkpt lat="42.28176730371918" lon="13.025665891614294"><ele>542.2</ele><time>2026-04-19T13:54:35Z</time></trkpt><trkpt lat="42.28183733509042" lon="13.02573758112076"><ele>544.6</ele><time>2026-04-19T13:54:37Z</time></trkpt><trkpt lat="42.281872792935935" lon="13.02583535801943"><ele>547.0</ele><time>2026-04-19T13:54:39Z</time></trkpt><trkpt lat="42.281919005717775" lon="13.025964086461126"><ele>547.0</ele><time>2026-04-19T13:54:41Z</time></trkpt><trkpt lat="42.28195134282753" lon="13.026040246372073"><ele>547.0</ele><time>2026-04-19T13:54:42Z</time></trkpt><trkpt lat="42.28198555610569" lon="13.026118940578343"><ele>547.0</ele><time>2026-04-19T13:54:43Z</time></trkpt><trkpt lat="42.282018131608666" lon="13.026193867711534"><ele>547.0</ele><time>2026-04-19T13:54:44Z</time></trkpt><trkpt lat="42.28205940879909" lon="13.026287577665352"><ele>547.0</ele><time>2026-04-19T13:54:45Z</time></trkpt><trkpt lat="42.282112424810336" lon="13.026404358266596"><ele>547.0</ele><time>2026-04-19T13:54:46Z</time></trkpt><trkpt lat="42.28216563157212" lon="13.0265280177009"><ele>545.4</ele><time>2026-04-19T13:54:47Z</time></trkpt><trkpt lat="42.282190144267226" lon="13.026645258313849"><ele>543.8000000000001</ele><time>2026-04-19T13:54:48Z</time></trkpt><trkpt lat="42.282191595750284" lon="13.026764098527828"><ele>542.2</ele><time>2026-04-19T13:54:49Z</time></trkpt><trkpt lat="42.282184027983654" lon="13.026875527865505"><ele>540.6</ele><time>2026-04-19T13:54:50Z</time></trkpt><trkpt lat="42.28216300326452" lon="13.027001351903856"><ele>539.0</ele><time>2026-04-19T13:54:51Z</time></trkpt><trkpt lat="42.28213500774431" lon="13.027152682796832"><ele>539.0</ele><time>2026-04-19T13:54:52Z</time></trkpt><trkpt lat="42.28211267504007" lon="13.027301762818153"><ele>539.0</ele><time>2026-04-19T13:54:53Z</time></trkpt><trkpt lat="42.28209561049689" lon="13.027430083979505"><ele>539.0</ele><time>2026-04-19T13:54:54Z</time></trkpt><trkpt lat="42.282088246569245" lon="13.027557485066591"><ele>539.0</ele><time>2026-04-19T13:54:55Z</time></trkpt><trkpt lat="42.28209049685492" lon="13.027698740139794"><ele>539.0</ele><time>2026-04-19T13:54:56Z</time></trkpt><trkpt lat="42.28210037990945" lon="13.027877721364963"><ele>539.0</ele><time>2026-04-19T13:54:57Z</time></trkpt><trkpt lat="42.28211660390324" lon="13.028083826779886"><ele>539.0</ele><time>2026-04-19T13:54:58Z</time></trkpt><trkpt lat="42.28212161450384" lon="13.02826203019576"><ele>539.0</ele><time>2026-04-19T13:54:59Z</time></trkpt><trkpt lat="42.28213510408678" lon="13.028408286952315"><ele>539.0</ele><time>2026-04-19T13:55:00Z</time></trkpt><trkpt lat="42.28216785634503" lon="13.028521885708228"><ele>538.8333333333333</ele><time>2026-04-19T13:55:01Z</time></trkpt><trkpt lat="42.28222008394953" lon="13.028595024191759"><ele>538.6666666666666</ele><time>2026-04-19T13:55:02Z</time></trkpt><trkpt lat="42.28227083617878" lon="13.028666542125832"><ele>538.5</ele><time>2026-04-19T13:55:03Z</time></trkpt><trkpt lat="42.28233527681427" lon="13.028728163969408"><ele>538.3333333333334</ele><time>2026-04-19T13:55:04Z</time></trkpt><trkpt lat="42.2824112488649" lon="13.028772028671607"><ele>538.1666666666667</ele><time>2026-04-19T13:55:05Z</time></trkpt><trkpt lat="42.282489731308885" lon="13.028801782527108"><ele>538.0</ele><time>2026-04-19T13:55:06Z</time></trkpt><trkpt lat="42.282568174507354" lon="13.028809370861415"><ele>540.5</ele><time>2026-04-19T13:55:07Z</time></trkpt><trkpt lat="42.28264667875787" lon="13.028798584250044"><ele>543.0</ele><time>2026-04-19T13:55:08Z</time></trkpt><trkpt lat="42.28273113122012" lon="13.028780085301891"><ele>545.5</ele><time>2026-04-19T13:55:09Z</time></trkpt><trkpt lat="42.28281596867618" lon="13.028780559411441"><ele>548.0</ele><time>2026-04-19T13:55:10Z</time></trkpt><trkpt lat="42.282899462210814" lon="13.028806106269435"><ele>550.5</ele><time>2026-04-19T13:55:11Z</time></trkpt><trkpt lat="42.282987097926735" lon="13.028854991428172"><ele>553.0</ele><time>2026-04-19T13:55:12Z</time></trkpt><trkpt lat="42.283076438411356" lon="13.028924947211639"><ele>553.25</ele><time>2026-04-19T13:55:13Z</time></trkpt><trkpt lat="42.28315284221177" lon="13.029035589271798"><ele>553.5</ele><time>2026-04-19T13:55:14Z</time></trkpt><trkpt lat="42.28323927922115" lon="13.029146722572438"><ele>553.75</ele><time>2026-04-19T13:55:15Z</time></trkpt><trkpt lat="42.283326253589244" lon="13.029257733644785"><ele>554.0</ele><time>2026-04-19T13:55:16Z</time></trkpt><trkpt lat="42.28342123330317" lon="13.029380788592073"><ele>554.0</ele><time>2026-04-19T13:55:17Z</time></trkpt><trkpt lat="42.28351708715294" lon="13.02952583476549"><ele>554.0</ele><time>2026-04-19T13:55:18.001Z</time></trkpt><trkpt lat="42.28358768108474" lon="13.02965400790647"><ele>554.0</ele><time>2026-04-19T13:55:19.001Z</time></trkpt><trkpt lat="42.28364386009444" lon="13.029773403817956"><ele>554.0</ele><time>2026-04-19T13:55:20.001Z</time></trkpt><trkpt lat="42.283680930419735" lon="13.029889257732187"><ele>552.6</ele><time>2026-04-19T13:55:21.001Z</time></trkpt><trkpt lat="42.283710295037785" lon="13.030007573811965"><ele>551.2</ele><time>2026-04-19T13:55:22.001Z</time></trkpt><trkpt lat="42.28373971313429" lon="13.03013483335112"><ele>549.8000000000001</ele><time>2026-04-19T13:55:23.001Z</time></trkpt><trkpt lat="42.28375990370871" lon="13.030282509398873"><ele>548.4</ele><time>2026-04-19T13:55:24.001Z</time></trkpt><trkpt lat="42.28379483091005" lon="13.030428893012367"><ele>547.0</ele><time>2026-04-19T13:55:25.001Z</time></trkpt><trkpt lat="42.28381245828176" lon="13.030557446747682"><ele>547.0</ele><time>2026-04-19T13:55:26.001Z</time></trkpt><trkpt lat="42.28384046105086" lon="13.030675368728685"><ele>547.0</ele><time>2026-04-19T13:55:27.001Z</time></trkpt><trkpt lat="42.28388644298521" lon="13.030790478011811"><ele>547.0</ele><time>2026-04-19T13:55:28.001Z</time></trkpt><trkpt lat="42.283944394215666" lon="13.030892867166349"><ele>547.0</ele><time>2026-04-19T13:55:29.001Z</time></trkpt><trkpt lat="42.28399331654712" lon="13.030957041502539"><ele>547.0</ele><time>2026-04-19T13:55:30.001Z</time></trkpt><trkpt lat="42.284043562479106" lon="13.031019352295747"><ele>547.0</ele><time>2026-04-19T13:55:32.001Z</time></trkpt><trkpt lat="42.284099748455766" lon="13.031075970835909"><ele>548.6</ele><time>2026-04-19T13:55:34.001Z</time></trkpt><trkpt lat="42.284205437812645" lon="13.031121532787058"><ele>550.2</ele><time>2026-04-19T13:55:36.001Z</time></trkpt><trkpt lat="42.284287773593725" lon="13.031190630668824"><ele>551.8</ele><time>2026-04-19T13:55:37.001Z</time></trkpt><trkpt lat="42.28437240476542" lon="13.031231631667541"><ele>553.4</ele><time>2026-04-19T13:55:38.001Z</time></trkpt><trkpt lat="42.2844539139494" lon="13.031264722198431"><ele>555.0</ele><time>2026-04-19T13:55:40.001Z</time></trkpt><trkpt lat="42.28438100682287" lon="13.031234265780641"><ele>555.0000000000001</ele><time>2026-04-19T13:56:07.001Z</time></trkpt><trkpt lat="42.2843210729624" lon="13.0312067630893"><ele>555.0</ele><time>2026-04-19T13:56:10.001Z</time></trkpt><trkpt lat="42.28425317276785" lon="13.031172337350172"><ele>555.0</ele><time>2026-04-19T13:56:14.001Z</time></trkpt><trkpt lat="42.28419019631027" lon="13.031134239876152"><ele>555.0</ele><time>2026-04-19T13:56:18.001Z</time></trkpt><trkpt lat="42.28413131279165" lon="13.031095333648652"><ele>555.0</ele><time>2026-04-19T13:56:21.001Z</time></trkpt><trkpt lat="42.28405711422994" lon="13.031036164073326"><ele>555.0000000000001</ele><time>2026-04-19T13:56:25.001Z</time></trkpt><trkpt lat="42.28399940812357" lon="13.030996912161823"><ele>555.0</ele><time>2026-04-19T13:56:26.001Z</time></trkpt><trkpt lat="42.28394016572535" lon="13.030967217559512"><ele>555.0</ele><time>2026-04-19T13:56:27.001Z</time></trkpt><trkpt lat="42.283934990454895" lon="13.03080802216864"><ele>555.0</ele><time>2026-04-19T13:56:28.001Z</time></trkpt><trkpt lat="42.283873042414385" lon="13.030688688205688"><ele>555.0</ele><time>2026-04-19T13:56:30.001Z</time></trkpt><trkpt lat="42.28384256910729" lon="13.03058854059711"><ele>555.0</ele><time>2026-04-19T13:56:32.001Z</time></trkpt><trkpt lat="42.283808753018015" lon="13.030385660649703"><ele>554.75</ele><time>2026-04-19T13:56:34.001Z</time></trkpt><trkpt lat="42.283795655146164" lon="13.030249692939142"><ele>554.5</ele><time>2026-04-19T13:56:35.001Z</time></trkpt><trkpt lat="42.28377206216454" lon="13.030085712461949"><ele>554.25</ele><time>2026-04-19T13:56:36.001Z</time></trkpt><trkpt lat="42.283734952759175" lon="13.02992847627082"><ele>554.0</ele><time>2026-04-19T13:56:37.001Z</time></trkpt><trkpt lat="42.28368638497292" lon="13.02977428020682"><ele>554.0</ele><time>2026-04-19T13:56:38.001Z</time></trkpt><trkpt lat="42.28361955178172" lon="13.029626452201592"><ele>554.0</ele><time>2026-04-19T13:56:39.001Z</time></trkpt><trkpt lat="42.28352942843137" lon="13.02947621745151"><ele>554.0</ele><time>2026-04-19T13:56:40.001Z</time></trkpt><trkpt lat="42.28341322729078" lon="13.02931505652248"><ele>554.0</ele><time>2026-04-19T13:56:41.001Z</time></trkpt><trkpt lat="42.28331043849298" lon="13.029179534196597"><ele>553.8333333333333</ele><time>2026-04-19T13:56:42.001Z</time></trkpt><trkpt lat="42.28323724356952" lon="13.029083148140353"><ele>553.6666666666666</ele><time>2026-04-19T13:56:43.001Z</time></trkpt><trkpt lat="42.28317898942035" lon="13.02900573698569"><ele>553.5</ele><time>2026-04-19T13:56:44.001Z</time></trkpt><trkpt lat="42.283125413857334" lon="13.028937909462089"><ele>553.3333333333334</ele><time>2026-04-19T13:56:45.001Z</time></trkpt><trkpt lat="42.283055261111166" lon="13.02887572213159"><ele>553.1666666666667</ele><time>2026-04-19T13:56:46.001Z</time></trkpt><trkpt lat="42.282972636359844" lon="13.028824908740313"><ele>553.0</ele><time>2026-04-19T13:56:47.001Z</time></trkpt><trkpt lat="42.28288593070899" lon="13.0287569575401"><ele>553.0</ele><time>2026-04-19T13:56:48.001Z</time></trkpt><trkpt lat="42.282791194445444" lon="13.028730220921487"><ele>553.0</ele><time>2026-04-19T13:56:49.001Z</time></trkpt><trkpt lat="42.28269715131237" lon="13.028724940398469"><ele>553.0</ele><time>2026-04-19T13:56:50.001Z</time></trkpt><trkpt lat="42.28261059264903" lon="13.028744071593152"><ele>553.0</ele><time>2026-04-19T13:56:51.001Z</time></trkpt><trkpt lat="42.282531444602625" lon="13.02875007357193"><ele>553.0</ele><time>2026-04-19T13:56:52.001Z</time></trkpt><trkpt lat="42.28245202907926" lon="13.028756328635522"><ele>553.0</ele><time>2026-04-19T13:56:53.001Z</time></trkpt><trkpt lat="42.28237460416234" lon="13.028712755823038"><ele>553.0</ele><time>2026-04-19T13:56:54.001Z</time></trkpt><trkpt lat="42.282301149508385" lon="13.028650689857969"><ele>553.0</ele><time>2026-04-19T13:56:55.001Z</time></trkpt><trkpt lat="42.28224143185778" lon="13.028572321683386"><ele>553.0</ele><time>2026-04-19T13:56:56.001Z</time></trkpt><trkpt lat="42.28219890406621" lon="13.028475846370648"><ele>553.0</ele><time>2026-04-19T13:56:57.001Z</time></trkpt><trkpt lat="42.2821715041673" lon="13.028370550890159"><ele>553.0</ele><time>2026-04-19T13:56:58.001Z</time></trkpt><trkpt lat="42.28215157795525" lon="13.028245737621866"><ele>553.0</ele><time>2026-04-19T13:56:59.001Z</time></trkpt><trkpt lat="42.28214035017782" lon="13.02809944610718"><ele>550.6666666666667</ele><time>2026-04-19T13:57:00.001Z</time></trkpt><trkpt lat="42.28214047974415" lon="13.027966154846068"><ele>548.3333333333334</ele><time>2026-04-19T13:57:01.001Z</time></trkpt><trkpt lat="42.28214531900154" lon="13.027843253000253"><ele>546.0</ele><time>2026-04-19T13:57:03.001Z</time></trkpt><trkpt lat="42.28214338564304" lon="13.027756600733193"><ele>543.6666666666666</ele><time>2026-04-19T13:57:05.002Z</time></trkpt><trkpt lat="42.28213666486758" lon="13.027619739747363"><ele>541.3333333333333</ele><time>2026-04-19T13:57:07.002Z</time></trkpt><trkpt lat="42.28213489782089" lon="13.027531250417626"><ele>539.0</ele><time>2026-04-19T13:57:44.002Z</time></trkpt><trkpt lat="42.28214253863876" lon="13.027422652676952"><ele>539.0</ele><time>2026-04-19T13:57:56.002Z</time></trkpt><trkpt lat="42.28216353018275" lon="13.027268151998141"><ele>539.0</ele><time>2026-04-19T13:57:58.002Z</time></trkpt><trkpt lat="42.28218429789434" lon="13.027158062549626"><ele>539.0</ele><time>2026-04-19T13:57:59.002Z</time></trkpt><trkpt lat="42.282205998133406" lon="13.027041307061344"><ele>539.0</ele><time>2026-04-19T13:58:00.002Z</time></trkpt><trkpt lat="42.2822263996603" lon="13.02691953118372"><ele>539.0</ele><time>2026-04-19T13:58:01.002Z</time></trkpt><trkpt lat="42.28223927187265" lon="13.026813501088267"><ele>539.0</ele><time>2026-04-19T13:58:02.002Z</time></trkpt><trkpt lat="42.28224822584681" lon="13.026715554374855"><ele>539.0</ele><time>2026-04-19T13:58:03.002Z</time></trkpt><trkpt lat="42.28224091210135" lon="13.02661803295996"><ele>539.0</ele><time>2026-04-19T13:58:04.002Z</time></trkpt><trkpt lat="42.28221526509158" lon="13.026528576955588"><ele>539.0</ele><time>2026-04-19T13:58:05.002Z</time></trkpt><trkpt lat="42.282183789118235" lon="13.026447536563762"><ele>539.0</ele><time>2026-04-19T13:58:06.003Z</time></trkpt><trkpt lat="42.28215126431577" lon="13.026373430013864"><ele>539.0</ele><time>2026-04-19T13:58:07.003Z</time></trkpt><trkpt lat="42.28208896650229" lon="13.026238666362687"><ele>540.6</ele><time>2026-04-19T13:58:09.003Z</time></trkpt><trkpt lat="42.28203003498702" lon="13.026108033531829"><ele>542.2</ele><time>2026-04-19T13:58:11.003Z</time></trkpt><trkpt lat="42.28197566105775" lon="13.02597853295591"><ele>543.8000000000001</ele><time>2026-04-19T13:58:13.003Z</time></trkpt><trkpt lat="42.281924031586115" lon="13.025838970615593"><ele>545.4</ele><time>2026-04-19T13:58:15.003Z</time></trkpt><trkpt lat="42.28186339413643" lon="13.025724262696052"><ele>547.0</ele><time>2026-04-19T13:58:17.003Z</time></trkpt><trkpt lat="42.28178951023618" lon="13.02563697989053"><ele>545.0</ele><time>2026-04-19T13:58:19.002Z</time></trkpt><trkpt lat="42.281688594281015" lon="13.025554787456423"><ele>543.0</ele><time>2026-04-19T13:58:21.002Z</time></trkpt><trkpt lat="42.28162435931045" lon="13.025510399134996"><ele>541.0</ele><time>2026-04-19T13:58:22.002Z</time></trkpt><trkpt lat="42.28155725303843" lon="13.025466491614768"><ele>539.0</ele><time>2026-04-19T13:58:23.002Z</time></trkpt><trkpt lat="42.28149174614075" lon="13.025427487393893"><ele>537.0</ele><time>2026-04-19T13:58:24.002Z</time></trkpt><trkpt lat="42.281417816228036" lon="13.025407856974772"><ele>535.0</ele><time>2026-04-19T13:58:25.002Z</time></trkpt><trkpt lat="42.28134428905469" lon="13.025385331883527"><ele>535.0</ele><time>2026-04-19T13:58:26.002Z</time></trkpt><trkpt lat="42.281279082184064" lon="13.025365300925566"><ele>535.0</ele><time>2026-04-19T13:58:27.002Z</time></trkpt><trkpt lat="42.281161530874016" lon="13.025318893768645"><ele>535.0</ele><time>2026-04-19T13:58:29.002Z</time></trkpt><trkpt lat="42.28107325632813" lon="13.02526047827044"><ele>535.0</ele><time>2026-04-19T13:58:31.002Z</time></trkpt><trkpt lat="42.281025104554104" lon="13.025187407594146"><ele>535.0</ele><time>2026-04-19T13:58:33.002Z</time></trkpt><trkpt lat="42.28099075972017" lon="13.025074373432675"><ele>535.0</ele><time>2026-04-19T14:03:07.001Z</time></trkpt><trkpt lat="42.28096884384106" lon="13.024988966146815"><ele>535.0</ele><time>2026-04-19T14:03:09.001Z</time></trkpt><trkpt lat="42.28099681877576" lon="13.024853245907979"><ele>535.0</ele><time>2026-04-19T14:03:11.001Z</time></trkpt><trkpt lat="42.28105482364255" lon="13.024716469960198"><ele>535.0</ele><time>2026-04-19T14:03:13.001Z</time></trkpt><trkpt lat="42.281128272869665" lon="13.024582305240806"><ele>535.0</ele><time>2026-04-19T14:03:15.001Z</time></trkpt><trkpt lat="42.2811711614889" lon="13.024516641109575"><ele>538.0</ele><time>2026-04-19T14:03:16.001Z</time></trkpt><trkpt lat="42.28121995222152" lon="13.024449031291903"><ele>541.0</ele><time>2026-04-19T14:03:17.001Z</time></trkpt><trkpt lat="42.281274180451774" lon="13.024381954223033"><ele>544.0</ele><time>2026-04-19T14:03:18.001Z</time></trkpt><trkpt lat="42.281336821015806" lon="13.024322637598118"><ele>547.0</ele><time>2026-04-19T14:03:19.001Z</time></trkpt><trkpt lat="42.281402554379824" lon="13.024261287168683"><ele>550.0</ele><time>2026-04-19T14:03:20.001Z</time></trkpt><trkpt lat="42.28147051983674" lon="13.024200705995343"><ele>553.0</ele><time>2026-04-19T14:03:21.001Z</time></trkpt><trkpt lat="42.281539963467964" lon="13.024136600164663"><ele>543.6</ele><time>2026-04-19T14:03:22.001Z</time></trkpt><trkpt lat="42.28160885626842" lon="13.02406902993053"><ele>534.1999999999999</ele><time>2026-04-19T14:03:23.001Z</time></trkpt><trkpt lat="42.28167523583325" lon="13.02399383456766"><ele>524.8</ele><time>2026-04-19T14:03:24.001Z</time></trkpt><trkpt lat="42.28174396581579" lon="13.023914545967871"><ele>515.4</ele><time>2026-04-19T14:03:25.001Z</time></trkpt><trkpt lat="42.28181920597137" lon="13.023822091208611"><ele>506.0</ele><time>2026-04-19T14:03:26.001Z</time></trkpt><trkpt lat="42.281896173691855" lon="13.023727150127065"><ele>506.0</ele><time>2026-04-19T14:03:27.001Z</time></trkpt><trkpt lat="42.28198352591638" lon="13.023622444413036"><ele>506.0</ele><time>2026-04-19T14:03:28.001Z</time></trkpt><trkpt lat="42.28211563284538" lon="13.023469763661963"><ele>506.0</ele><time>2026-04-19T14:03:29.001Z</time></trkpt><trkpt lat="42.2822535070338" lon="13.023302714073024"><ele>510.0</ele><time>2026-04-19T14:03:30.001Z</time></trkpt><trkpt lat="42.28241602138766" lon="13.023092542300303"><ele>514.0</ele><time>2026-04-19T14:03:31.001Z</time></trkpt><trkpt lat="42.28260484189247" lon="13.022840713381134"><ele>514.0</ele><time>2026-04-19T14:03:32.001Z</time></trkpt><trkpt lat="42.28280378273275" lon="13.022521603127842"><ele>514.0</ele><time>2026-04-19T14:03:33.001Z</time></trkpt><trkpt lat="42.28300417392528" lon="13.022168366609147"><ele>508.5</ele><time>2026-04-19T14:03:34.001Z</time></trkpt><trkpt lat="42.283199042010956" lon="13.021844305335287"><ele>503.0</ele><time>2026-04-19T14:03:35.001Z</time></trkpt><trkpt lat="42.28337602039639" lon="13.021554348715592"><ele>503.0</ele><time>2026-04-19T14:03:36.001Z</time></trkpt><trkpt lat="42.28352120144421" lon="13.02131508170693"><ele>503.0</ele><time>2026-04-19T14:03:37.001Z</time></trkpt><trkpt lat="42.28365240807396" lon="13.021083527860261"><ele>503.0</ele><time>2026-04-19T14:03:38.001Z</time></trkpt><trkpt lat="42.28375546869649" lon="13.020864939725742"><ele>496.66666666666663</ele><time>2026-04-19T14:03:39.001Z</time></trkpt><trkpt lat="42.28382102702389" lon="13.020582314454275"><ele>490.33333333333337</ele><time>2026-04-19T14:03:40.001Z</time></trkpt><trkpt lat="42.283883905811834" lon="13.020305162881957"><ele>484.0</ele><time>2026-04-19T14:03:41.001Z</time></trkpt><trkpt lat="42.283920465948015" lon="13.020087458102822"><ele>485.25</ele><time>2026-04-19T14:03:42.001Z</time></trkpt><trkpt lat="42.28394590428535" lon="13.019877008777351"><ele>486.5</ele><time>2026-04-19T14:03:43.001Z</time></trkpt><trkpt lat="42.283939527655356" lon="13.019662855145794"><ele>487.75</ele><time>2026-04-19T14:03:44.001Z</time></trkpt><trkpt lat="42.28393383137417" lon="13.019489155961676"><ele>489.0</ele><time>2026-04-19T14:03:45.001Z</time></trkpt><trkpt lat="42.283928165393114" lon="13.019338939380216"><ele>489.0</ele><time>2026-04-19T14:03:46.001Z</time></trkpt><trkpt lat="42.28392413893061" lon="13.01919571486661"><ele>489.0</ele><time>2026-04-19T14:03:47.001Z</time></trkpt><trkpt lat="42.28390927381568" lon="13.019037912629601"><ele>489.0</ele><time>2026-04-19T14:03:48.001Z</time></trkpt><trkpt lat="42.28387663016862" lon="13.018893804870642"><ele>489.0</ele><time>2026-04-19T14:03:49.001Z</time></trkpt><trkpt lat="42.28382625792678" lon="13.018764026253724"><ele>489.0</ele><time>2026-04-19T14:03:50.001Z</time></trkpt><trkpt lat="42.28374997903462" lon="13.01864965174352"><ele>492.4</ele><time>2026-04-19T14:03:51.001Z</time></trkpt><trkpt lat="42.28366748422826" lon="13.018546140232962"><ele>495.79999999999995</ele><time>2026-04-19T14:03:52.001Z</time></trkpt><trkpt lat="42.28359486693279" lon="13.018458384172703"><ele>499.20000000000005</ele><time>2026-04-19T14:03:53.001Z</time></trkpt><trkpt lat="42.283521223821815" lon="13.01836788523433"><ele>502.6</ele><time>2026-04-19T14:03:54.001Z</time></trkpt><trkpt lat="42.283453197125446" lon="13.018278702823377"><ele>506.0</ele><time>2026-04-19T14:03:55.001Z</time></trkpt><trkpt lat="42.2833985859115" lon="13.01817603317444"><ele>506.0</ele><time>2026-04-19T14:03:56.001Z</time></trkpt><trkpt lat="42.28336422966444" lon="13.018055358663565"><ele>506.0</ele><time>2026-04-19T14:03:57.001Z</time></trkpt><trkpt lat="42.28334436713907" lon="13.017931485879034"><ele>506.0</ele><time>2026-04-19T14:03:58.001Z</time></trkpt><trkpt lat="42.28334594192814" lon="13.017804602089248"><ele>506.0</ele><time>2026-04-19T14:03:59.001Z</time></trkpt><trkpt lat="42.28336176775474" lon="13.017669594704126"><ele>506.0</ele><time>2026-04-19T14:04:00.001Z</time></trkpt><trkpt lat="42.283395658085425" lon="13.017542256025354"><ele>499.5</ele><time>2026-04-19T14:04:01.001Z</time></trkpt><trkpt lat="42.28345453329828" lon="13.017421599347959"><ele>493.0</ele><time>2026-04-19T14:04:02.001Z</time></trkpt><trkpt lat="42.2835491024898" lon="13.017298601889424"><ele>486.5</ele><time>2026-04-19T14:04:03.001Z</time></trkpt><trkpt lat="42.283684560864955" lon="13.01716005627701"><ele>480.0</ele><time>2026-04-19T14:04:04.001Z</time></trkpt><trkpt lat="42.28381452900175" lon="13.01701722390141"><ele>482.33333333333337</ele><time>2026-04-19T14:04:05.001Z</time></trkpt><trkpt lat="42.28393588032101" lon="13.01689404846343"><ele>484.6666666666667</ele><time>2026-04-19T14:04:06.002Z</time></trkpt><trkpt lat="42.28404690717972" lon="13.016762449049086"><ele>487.0</ele><time>2026-04-19T14:04:07.002Z</time></trkpt><trkpt lat="42.28414768191591" lon="13.016610236018808"><ele>487.0</ele><time>2026-04-19T14:04:08.002Z</time></trkpt><trkpt lat="42.28423559937905" lon="13.016431257386445"><ele>487.0</ele><time>2026-04-19T14:04:09.002Z</time></trkpt><trkpt lat="42.28431071487105" lon="13.016246217624102"><ele>487.0</ele><time>2026-04-19T14:04:10.002Z</time></trkpt><trkpt lat="42.28438410032312" lon="13.016082247653218"><ele>487.0</ele><time>2026-04-19T14:04:11.002Z</time></trkpt><trkpt lat="42.28445351225093" lon="13.015922805051146"><ele>487.0</ele><time>2026-04-19T14:04:12.002Z</time></trkpt><trkpt lat="42.284516284006" lon="13.015768406010897"><ele>487.0</ele><time>2026-04-19T14:04:13.002Z</time></trkpt><trkpt lat="42.28456709666201" lon="13.015616258172232"><ele>487.0</ele><time>2026-04-19T14:04:14.002Z</time></trkpt><trkpt lat="42.28460496226438" lon="13.015461956281586"><ele>484.5</ele><time>2026-04-19T14:04:15.002Z</time></trkpt><trkpt lat="42.28462568396124" lon="13.015300853184355"><ele>482.0</ele><time>2026-04-19T14:04:16.002Z</time></trkpt><trkpt lat="42.2846181019323" lon="13.01512473742772"><ele>479.5</ele><time>2026-04-19T14:04:17.002Z</time></trkpt><trkpt lat="42.28459016602125" lon="13.01493780935086"><ele>477.0</ele><time>2026-04-19T14:04:18.002Z</time></trkpt><trkpt lat="42.28456866718791" lon="13.01474315574522"><ele>476.33333333333337</ele><time>2026-04-19T14:04:19.002Z</time></trkpt><trkpt lat="42.28456422216544" lon="13.014539161370664"><ele>475.6666666666667</ele><time>2026-04-19T14:04:20.002Z</time></trkpt><trkpt lat="42.28457168390861" lon="13.014332938576297"><ele>475.0</ele><time>2026-04-19T14:04:21.002Z</time></trkpt><trkpt lat="42.28458632047295" lon="13.014129645254892"><ele>473.6666666666667</ele><time>2026-04-19T14:04:22.002Z</time></trkpt><trkpt lat="42.28461344949268" lon="13.013916150261595"><ele>472.33333333333337</ele><time>2026-04-19T14:04:23.002Z</time></trkpt><trkpt lat="42.284652780711184" lon="13.013704732636855"><ele>471.0</ele><time>2026-04-19T14:04:24.002Z</time></trkpt><trkpt lat="42.28471945661605" lon="13.013435209340983"><ele>480.5</ele><time>2026-04-19T14:04:25.002Z</time></trkpt><trkpt lat="42.28480388088558" lon="13.013133375265374"><ele>490.0</ele><time>2026-04-19T14:04:26.002Z</time></trkpt><trkpt lat="42.28490100772832" lon="13.01282954842302"><ele>490.0</ele><time>2026-04-19T14:04:27.002Z</time></trkpt><trkpt lat="42.284989822738" lon="13.012555233924923"><ele>490.0</ele><time>2026-04-19T14:04:28.002Z</time></trkpt><trkpt lat="42.28506501115978" lon="13.01229227631773"><ele>490.0</ele><time>2026-04-19T14:04:29.001Z</time></trkpt><trkpt lat="42.2851229771989" lon="13.01202617563344"><ele>483.6666666666667</ele><time>2026-04-19T14:04:30.001Z</time></trkpt><trkpt lat="42.28516329303082" lon="13.011782278999847"><ele>477.33333333333337</ele><time>2026-04-19T14:04:31.001Z</time></trkpt><trkpt lat="42.28518985544201" lon="13.011586701917697"><ele>471.0</ele><time>2026-04-19T14:04:32.001Z</time></trkpt><trkpt lat="42.285216346478464" lon="13.01143186510318"><ele>470.75</ele><time>2026-04-19T14:04:33.001Z</time></trkpt><trkpt lat="42.285254122945744" lon="13.01130462022687"><ele>470.5</ele><time>2026-04-19T14:04:34.001Z</time></trkpt><trkpt lat="42.28532559835286" lon="13.011212303872162"><ele>470.25</ele><time>2026-04-19T14:04:35.001Z</time></trkpt><trkpt lat="42.28546179077972" lon="13.011173113915525"><ele>470.0</ele><time>2026-04-19T14:04:36.001Z</time></trkpt><trkpt lat="42.285620636595475" lon="13.01113063574945"><ele>470.0</ele><time>2026-04-19T14:04:37.001Z</time></trkpt><trkpt lat="42.28583440457395" lon="13.011089005010222"><ele>470.0</ele><time>2026-04-19T14:04:38.001Z</time></trkpt><trkpt lat="42.286059797374975" lon="13.011050449752057"><ele>470.0</ele><time>2026-04-19T14:04:39.001Z</time></trkpt><trkpt lat="42.286297371075754" lon="13.011018013224794"><ele>468.0</ele><time>2026-04-19T14:04:40.001Z</time></trkpt><trkpt lat="42.286523013467004" lon="13.011001535792374"><ele>466.0</ele><time>2026-04-19T14:04:41.001Z</time></trkpt><trkpt lat="42.286792212968585" lon="13.011017547629224"><ele>466.0</ele><time>2026-04-19T14:04:42.001Z</time></trkpt><trkpt lat="42.287056837387134" lon="13.011033209277825"><ele>466.0</ele><time>2026-04-19T14:04:43.001Z</time></trkpt><trkpt lat="42.28726171662315" lon="13.0110419283944"><ele>467.0</ele><time>2026-04-19T14:04:44.001Z</time></trkpt><trkpt lat="42.287427479521604" lon="13.01100624985583"><ele>468.0</ele><time>2026-04-19T14:04:45.001Z</time></trkpt><trkpt lat="42.28762046832749" lon="13.010941303920301"><ele>469.0</ele><time>2026-04-19T14:04:46.001Z</time></trkpt><trkpt lat="42.287832914620765" lon="13.010838979222907"><ele>465.6666666666667</ele><time>2026-04-19T14:04:47.001Z</time></trkpt><trkpt lat="42.288009118634285" lon="13.010740106172316"><ele>462.33333333333337</ele><time>2026-04-19T14:04:48.001Z</time></trkpt><trkpt lat="42.288155890805335" lon="13.010623948182891"><ele>459.0</ele><time>2026-04-19T14:04:49.001Z</time></trkpt><trkpt lat="42.288292453338244" lon="13.0104527900385"><ele>458.66666666666663</ele><time>2026-04-19T14:04:50.001Z</time></trkpt><trkpt lat="42.28842884984909" lon="13.010230095978656"><ele>458.3333333333333</ele><time>2026-04-19T14:04:51.001Z</time></trkpt><trkpt lat="42.28858436727905" lon="13.010035597730067"><ele>458.0</ele><time>2026-04-19T14:04:52.001Z</time></trkpt><trkpt lat="42.288692318036546" lon="13.009847020859137"><ele>457.0</ele><time>2026-04-19T14:04:53.001Z</time></trkpt><trkpt lat="42.288775181749855" lon="13.009680051034643"><ele>456.0</ele><time>2026-04-19T14:04:54.001Z</time></trkpt><trkpt lat="42.28882240841802" lon="13.009466299162183"><ele>455.0</ele><time>2026-04-19T14:04:55.001Z</time></trkpt><trkpt lat="42.28884691961088" lon="13.009197345232694"><ele>456.0</ele><time>2026-04-19T14:04:56.001Z</time></trkpt><trkpt lat="42.28886097502876" lon="13.008866849298515"><ele>457.0</ele><time>2026-04-19T14:04:57.001Z</time></trkpt><trkpt lat="42.288879048127704" lon="13.008529960071776"><ele>461.0</ele><time>2026-04-19T14:04:58.001Z</time></trkpt><trkpt lat="42.288940713145514" lon="13.008181471346646"><ele>465.0</ele><time>2026-04-19T14:04:59.001Z</time></trkpt><trkpt lat="42.289000560520556" lon="13.007864905611934"><ele>465.0</ele><time>2026-04-19T14:05:00.001Z</time></trkpt><trkpt lat="42.289026969330905" lon="13.00755735579246"><ele>465.0</ele><time>2026-04-19T14:05:01.001Z</time></trkpt><trkpt lat="42.289069313660555" lon="13.007280173914145"><ele>465.0</ele><time>2026-04-19T14:05:02.001Z</time></trkpt><trkpt lat="42.28913211690015" lon="13.00706340306613"><ele>461.66666666666663</ele><time>2026-04-19T14:05:03.001Z</time></trkpt><trkpt lat="42.28920780060691" lon="13.006842220597582"><ele>458.3333333333333</ele><time>2026-04-19T14:05:04.001Z</time></trkpt><trkpt lat="42.2893032849562" lon="13.006605993946083"><ele>455.0</ele><time>2026-04-19T14:05:05.001Z</time></trkpt><trkpt lat="42.28939584838443" lon="13.006409232121445"><ele>455.0</ele><time>2026-04-19T14:05:06.001Z</time></trkpt><trkpt lat="42.2894929850769" lon="13.00626588209205"><ele>455.0</ele><time>2026-04-19T14:05:07.001Z</time></trkpt><trkpt lat="42.289614742264824" lon="13.00615321351139"><ele>455.0</ele><time>2026-04-19T14:05:08.001Z</time></trkpt><trkpt lat="42.289762246147944" lon="13.006072035507412"><ele>455.3333333333333</ele><time>2026-04-19T14:05:09.001Z</time></trkpt><trkpt lat="42.28996020481247" lon="13.006035164393108"><ele>455.66666666666663</ele><time>2026-04-19T14:05:10.001Z</time></trkpt><trkpt lat="42.29018695506668" lon="13.005999968665247"><ele>456.0</ele><time>2026-04-19T14:05:11.001Z</time></trkpt><trkpt lat="42.290410001362844" lon="13.005971430245554"><ele>456.0</ele><time>2026-04-19T14:05:12.001Z</time></trkpt><trkpt lat="42.290607170261936" lon="13.005951903402723"><ele>456.0</ele><time>2026-04-19T14:05:13.001Z</time></trkpt><trkpt lat="42.2907750681047" lon="13.005944046464991"><ele>456.0</ele><time>2026-04-19T14:05:14.001Z</time></trkpt><trkpt lat="42.29094591306318" lon="13.00597144902013"><ele>456.0</ele><time>2026-04-19T14:05:15.001Z</time></trkpt><trkpt lat="42.29112357456283" lon="13.00604989688112"><ele>456.0</ele><time>2026-04-19T14:05:16.001Z</time></trkpt><trkpt lat="42.29132338831337" lon="13.00615172419107"><ele>456.0</ele><time>2026-04-19T14:05:17.001Z</time></trkpt><trkpt lat="42.29149475860413" lon="13.00626336025876"><ele>455.66666666666663</ele><time>2026-04-19T14:05:18.001Z</time></trkpt><trkpt lat="42.291649275827275" lon="13.006391249158549"><ele>455.3333333333333</ele><time>2026-04-19T14:05:19.001Z</time></trkpt><trkpt lat="42.291780381674556" lon="13.006502706877603"><ele>455.0</ele><time>2026-04-19T14:05:20.001Z</time></trkpt><trkpt lat="42.291901697779174" lon="13.006581419513529"><ele>455.0</ele><time>2026-04-19T14:05:21.001Z</time></trkpt><trkpt lat="42.292019091886836" lon="13.006584830196722"><ele>455.0</ele><time>2026-04-19T14:05:22.001Z</time></trkpt><trkpt lat="42.292134386113425" lon="13.006515131934735"><ele>455.0</ele><time>2026-04-19T14:05:23.001Z</time></trkpt><trkpt lat="42.29226265937107" lon="13.006433880621547"><ele>455.0</ele><time>2026-04-19T14:05:24.001Z</time></trkpt><trkpt lat="42.29242514664015" lon="13.006348756231848"><ele>455.3333333333333</ele><time>2026-04-19T14:05:25.001Z</time></trkpt><trkpt lat="42.292573645197216" lon="13.006285307892146"><ele>455.66666666666663</ele><time>2026-04-19T14:05:26.001Z</time></trkpt><trkpt lat="42.292735706757696" lon="13.00625707431604"><ele>456.0</ele><time>2026-04-19T14:05:27.001Z</time></trkpt><trkpt lat="42.292913098424556" lon="13.006229161385813"><ele>456.0</ele><time>2026-04-19T14:05:28.001Z</time></trkpt><trkpt lat="42.293082449343096" lon="13.006147591485554"><ele>456.0</ele><time>2026-04-19T14:05:29.001Z</time></trkpt><trkpt lat="42.29325314179434" lon="13.00601572802603"><ele>456.0</ele><time>2026-04-19T14:05:30.001Z</time></trkpt><trkpt lat="42.29341851500817" lon="13.005890801901407"><ele>455.66666666666663</ele><time>2026-04-19T14:05:31.001Z</time></trkpt><trkpt lat="42.293568930324945" lon="13.00577714614906"><ele>455.3333333333333</ele><time>2026-04-19T14:05:32.001Z</time></trkpt><trkpt lat="42.29371262405517" lon="13.005667668273878"><ele>455.0</ele><time>2026-04-19T14:05:33.001Z</time></trkpt><trkpt lat="42.2938491762342" lon="13.00556848331384"><ele>453.75</ele><time>2026-04-19T14:05:34.001Z</time></trkpt><trkpt lat="42.293974058447894" lon="13.005491546142874"><ele>452.5</ele><time>2026-04-19T14:05:35.001Z</time></trkpt><trkpt lat="42.29409546221564" lon="13.005466059047164"><ele>451.25</ele><time>2026-04-19T14:05:36.001Z</time></trkpt><trkpt lat="42.29421822261062" lon="13.005471224690394"><ele>450.0</ele><time>2026-04-19T14:05:37.001Z</time></trkpt><trkpt lat="42.29435456740279" lon="13.005499888102975"><ele>450.0</ele><time>2026-04-19T14:05:38.001Z</time></trkpt><trkpt lat="42.29447710228659" lon="13.005526358880356"><ele>450.0</ele><time>2026-04-19T14:05:39.001Z</time></trkpt><trkpt lat="42.29459273922547" lon="13.005540579691967"><ele>450.0</ele><time>2026-04-19T14:05:40.001Z</time></trkpt><trkpt lat="42.29470818056682" lon="13.005505342417107"><ele>450.0</ele><time>2026-04-19T14:05:41.001Z</time></trkpt><trkpt lat="42.294813678209664" lon="13.005439920813034"><ele>449.5</ele><time>2026-04-19T14:05:42.001Z</time></trkpt><trkpt lat="42.294884746864746" lon="13.005305243999182"><ele>449.0</ele><time>2026-04-19T14:05:43.001Z</time></trkpt><trkpt lat="42.294959882014545" lon="13.005170543614089"><ele>448.5</ele><time>2026-04-19T14:05:44.001Z</time></trkpt><trkpt lat="42.29503654382195" lon="13.005007160011452"><ele>448.0</ele><time>2026-04-19T14:05:45.001Z</time></trkpt><trkpt lat="42.29512399181029" lon="13.00482252909683"><ele>448.0</ele><time>2026-04-19T14:05:46.001Z</time></trkpt><trkpt lat="42.295211265259624" lon="13.004638065627041"><ele>448.0</ele><time>2026-04-19T14:05:47.001Z</time></trkpt><trkpt lat="42.29529610638268" lon="13.004451182047871"><ele>448.0</ele><time>2026-04-19T14:05:48.001Z</time></trkpt><trkpt lat="42.29538125055218" lon="13.004261996080656"><ele>448.5</ele><time>2026-04-19T14:05:49.001Z</time></trkpt><trkpt lat="42.29546205890435" lon="13.004085984664625"><ele>449.0</ele><time>2026-04-19T14:05:50.001Z</time></trkpt><trkpt lat="42.29553009149631" lon="13.003914029084836"><ele>449.5</ele><time>2026-04-19T14:05:51.001Z</time></trkpt><trkpt lat="42.29559083976312" lon="13.003734959309664"><ele>450.0</ele><time>2026-04-19T14:05:52.001Z</time></trkpt><trkpt lat="42.29558948574967" lon="13.00352747476669"><ele>451.0</ele><time>2026-04-19T14:05:53.001Z</time></trkpt><trkpt lat="42.29557882218343" lon="13.003314526956377"><ele>452.0</ele><time>2026-04-19T14:05:54.001Z</time></trkpt><trkpt lat="42.29554699118526" lon="13.003082322247282"><ele>453.0</ele><time>2026-04-19T14:05:55.001Z</time></trkpt><trkpt lat="42.29550545101791" lon="13.0028434020618"><ele>453.0</ele><time>2026-04-19T14:05:56.001Z</time></trkpt><trkpt lat="42.29546930888014" lon="13.002631653405937"><ele>453.0</ele><time>2026-04-19T14:05:57.001Z</time></trkpt><trkpt lat="42.295439002112566" lon="13.002426678962477"><ele>453.0</ele><time>2026-04-19T14:05:58.001Z</time></trkpt><trkpt lat="42.295412528741586" lon="13.002235767157664"><ele>452.75</ele><time>2026-04-19T14:05:59.001Z</time></trkpt><trkpt lat="42.29539367435045" lon="13.002056685004947"><ele>452.5</ele><time>2026-04-19T14:06:00.001Z</time></trkpt><trkpt lat="42.29539196811227" lon="13.001869156297237"><ele>452.25</ele><time>2026-04-19T14:06:01.001Z</time></trkpt><trkpt lat="42.29541150094935" lon="13.001675337306732"><ele>452.0</ele><time>2026-04-19T14:06:02.001Z</time></trkpt><trkpt lat="42.29544747893318" lon="13.001500101970029"><ele>451.8</ele><time>2026-04-19T14:06:03.001Z</time></trkpt><trkpt lat="42.295485574852115" lon="13.001352548540071"><ele>451.6</ele><time>2026-04-19T14:06:04.001Z</time></trkpt><trkpt lat="42.29553863230705" lon="13.001231367096324"><ele>451.40000000000003</ele><time>2026-04-19T14:06:05.001Z</time></trkpt><trkpt lat="42.295613733066105" lon="13.00113180688446"><ele>451.20000000000005</ele><time>2026-04-19T14:06:06.001Z</time></trkpt><trkpt lat="42.29571299967183" lon="13.001049226750647"><ele>451.0</ele><time>2026-04-19T14:06:07.001Z</time></trkpt><trkpt lat="42.295832948922204" lon="13.000978332428256"><ele>452.6666666666667</ele><time>2026-04-19T14:06:08.001Z</time></trkpt><trkpt lat="42.29597583114079" lon="13.000923343967298"><ele>454.33333333333337</ele><time>2026-04-19T14:06:09.001Z</time></trkpt><trkpt lat="42.29612825792001" lon="13.000890100068283"><ele>456.0</ele><time>2026-04-19T14:06:10.001Z</time></trkpt><trkpt lat="42.296298463387465" lon="13.00090689783905"><ele>457.0</ele><time>2026-04-19T14:06:11.001Z</time></trkpt><trkpt lat="42.29649749434491" lon="13.00091482728964"><ele>458.0</ele><time>2026-04-19T14:06:12.001Z</time></trkpt><trkpt lat="42.29670276365811" lon="13.000915372469722"><ele>459.0</ele><time>2026-04-19T14:06:13.001Z</time></trkpt><trkpt lat="42.29691190889777" lon="13.000891870875014"><ele>459.0</ele><time>2026-04-19T14:06:14.001Z</time></trkpt><trkpt lat="42.29712432859284" lon="13.00085288552803"><ele>459.0</ele><time>2026-04-19T14:06:15.001Z</time></trkpt><trkpt lat="42.29734378191713" lon="13.000794382623647"><ele>459.0</ele><time>2026-04-19T14:06:16.001Z</time></trkpt><trkpt lat="42.29755977074624" lon="13.00072531546448"><ele>457.0</ele><time>2026-04-19T14:06:17.001Z</time></trkpt><trkpt lat="42.297761390694504" lon="13.000634048421212"><ele>455.0</ele><time>2026-04-19T14:06:18.001Z</time></trkpt><trkpt lat="42.29795163164154" lon="13.000569558395787"><ele>453.0</ele><time>2026-04-19T14:06:19.001Z</time></trkpt><trkpt lat="42.29811999611045" lon="13.000508971239883"><ele>453.0</ele><time>2026-04-19T14:06:20.001Z</time></trkpt><trkpt lat="42.29827274022352" lon="13.000459436167297"><ele>453.0</ele><time>2026-04-19T14:06:21.001Z</time></trkpt><trkpt lat="42.29841962990271" lon="13.00042671029415"><ele>453.0</ele><time>2026-04-19T14:06:22.001Z</time></trkpt><trkpt lat="42.298580830405626" lon="13.000416357373926"><ele>453.0</ele><time>2026-04-19T14:06:23.001Z</time></trkpt><trkpt lat="42.29875173674717" lon="13.000424072347286"><ele>453.0</ele><time>2026-04-19T14:06:24.001Z</time></trkpt><trkpt lat="42.29890855288802" lon="13.000459583399492"><ele>453.0</ele><time>2026-04-19T14:06:25.001Z</time></trkpt><trkpt lat="42.29905210629608" lon="13.000475628390719"><ele>453.25</ele><time>2026-04-19T14:06:26.001Z</time></trkpt><trkpt lat="42.29918001963635" lon="13.000485889194655"><ele>453.5</ele><time>2026-04-19T14:06:27.001Z</time></trkpt><trkpt lat="42.29930969012907" lon="13.000484768843519"><ele>453.75</ele><time>2026-04-19T14:06:28.001Z</time></trkpt><trkpt lat="42.29943679459402" lon="13.000524522969414"><ele>454.0</ele><time>2026-04-19T14:06:29.001Z</time></trkpt><trkpt lat="42.299553515386926" lon="13.000605284234613"><ele>454.0</ele><time>2026-04-19T14:06:30.001Z</time></trkpt><trkpt lat="42.299672825923764" lon="13.00066984530067"><ele>454.0</ele><time>2026-04-19T14:06:31.001Z</time></trkpt><trkpt lat="42.299788564785665" lon="13.0007194488619"><ele>454.0</ele><time>2026-04-19T14:06:32.001Z</time></trkpt><trkpt lat="42.299917033521574" lon="13.000742556361573"><ele>454.0</ele><time>2026-04-19T14:06:33.001Z</time></trkpt><trkpt lat="42.30005550533415" lon="13.000740610810391"><ele>453.25</ele><time>2026-04-19T14:06:34.001Z</time></trkpt><trkpt lat="42.30017686731062" lon="13.000715957602749"><ele>452.5</ele><time>2026-04-19T14:06:35.001Z</time></trkpt><trkpt lat="42.300294059571755" lon="13.000678784302048"><ele>451.75</ele><time>2026-04-19T14:06:36.001Z</time></trkpt><trkpt lat="42.30040720412585" lon="13.000615328430762"><ele>451.0</ele><time>2026-04-19T14:06:37.001Z</time></trkpt><trkpt lat="42.30049829922569" lon="13.000503239149058"><ele>450.75</ele><time>2026-04-19T14:06:38.001Z</time></trkpt><trkpt lat="42.30059821813069" lon="13.000422472735117"><ele>450.5</ele><time>2026-04-19T14:06:39.001Z</time></trkpt><trkpt lat="42.30071335128953" lon="13.000351829609995"><ele>450.25</ele><time>2026-04-19T14:06:40.001Z</time></trkpt><trkpt lat="42.30083914467221" lon="13.000297280525814"><ele>450.0</ele><time>2026-04-19T14:06:41.001Z</time></trkpt><trkpt lat="42.30096735879402" lon="13.000254432311072"><ele>450.0</ele><time>2026-04-19T14:06:42.001Z</time></trkpt><trkpt lat="42.30109516133942" lon="13.000205398313676"><ele>450.0</ele><time>2026-04-19T14:06:43.001Z</time></trkpt><trkpt lat="42.301214743979195" lon="13.000161177069337"><ele>450.0</ele><time>2026-04-19T14:06:44.001Z</time></trkpt><trkpt lat="42.30130815204721" lon="13.000047911247826"><ele>450.0</ele><time>2026-04-19T14:06:45.001Z</time></trkpt><trkpt lat="42.30140638567305" lon="12.999942604885616"><ele>454.25</ele><time>2026-04-19T14:06:46.001Z</time></trkpt><trkpt lat="42.301478163509735" lon="12.99979738664526"><ele>458.5</ele><time>2026-04-19T14:06:47.001Z</time></trkpt><trkpt lat="42.30153158575963" lon="12.99963495726089"><ele>462.75</ele><time>2026-04-19T14:06:48.001Z</time></trkpt><trkpt lat="42.30154807874919" lon="12.999450922625542"><ele>467.0</ele><time>2026-04-19T14:06:49.001Z</time></trkpt><trkpt lat="42.30156923606792" lon="12.999266457826861"><ele>465.75</ele><time>2026-04-19T14:06:50.001Z</time></trkpt><trkpt lat="42.30158006633332" lon="12.999073895712462"><ele>464.5</ele><time>2026-04-19T14:06:51.001Z</time></trkpt><trkpt lat="42.30158362153142" lon="12.998880123283659"><ele>463.25</ele><time>2026-04-19T14:06:52.001Z</time></trkpt><trkpt lat="42.301570480691126" lon="12.998686371937474"><ele>462.0</ele><time>2026-04-19T14:06:53.001Z</time></trkpt><trkpt lat="42.301534966191994" lon="12.998496963923358"><ele>460.75</ele><time>2026-04-19T14:06:54.001Z</time></trkpt><trkpt lat="42.30148385543018" lon="12.99832026737962"><ele>459.5</ele><time>2026-04-19T14:06:55.001Z</time></trkpt><trkpt lat="42.301415513575805" lon="12.998153281859024"><ele>458.25</ele><time>2026-04-19T14:06:56.001Z</time></trkpt><trkpt lat="42.30133952443282" lon="12.997998570847146"><ele>457.0</ele><time>2026-04-19T14:06:57.001Z</time></trkpt><trkpt lat="42.30127088307942" lon="12.997863770789126"><ele>454.8</ele><time>2026-04-19T14:06:58.001Z</time></trkpt><trkpt lat="42.30120344603394" lon="12.997741122005884"><ele>452.6</ele><time>2026-04-19T14:06:59.001Z</time></trkpt><trkpt lat="42.30114838772111" lon="12.997633586578678"><ele>450.40000000000003</ele><time>2026-04-19T14:07:00.001Z</time></trkpt><trkpt lat="42.30111313603186" lon="12.997537433183506"><ele>448.20000000000005</ele><time>2026-04-19T14:07:01.001Z</time></trkpt><trkpt lat="42.301103230154965" lon="12.997452511575629"><ele>446.0</ele><time>2026-04-19T14:07:02.001Z</time></trkpt><trkpt lat="42.30117685197755" lon="12.997337442697669"><ele>446.0</ele><time>2026-04-19T14:07:04.001Z</time></trkpt><trkpt lat="42.301247291388734" lon="12.997330312659926"><ele>446.0</ele><time>2026-04-19T14:07:05.001Z</time></trkpt><trkpt lat="42.30132238919597" lon="12.997392790455029"><ele>446.0</ele><time>2026-04-19T14:07:06.001Z</time></trkpt><trkpt lat="42.301417760788254" lon="12.99746890724977"><ele>446.0</ele><time>2026-04-19T14:07:07.001Z</time></trkpt><trkpt lat="42.30155598900336" lon="12.99756005221589"><ele>446.0</ele><time>2026-04-19T14:07:08.001Z</time></trkpt><trkpt lat="42.30168925460107" lon="12.997680819258617"><ele>449.66666666666663</ele><time>2026-04-19T14:07:09.001Z</time></trkpt><trkpt lat="42.30183416041382" lon="12.997802954825904"><ele>453.33333333333337</ele><time>2026-04-19T14:07:10.001Z</time></trkpt><trkpt lat="42.301998585820975" lon="12.997953832140162"><ele>457.0</ele><time>2026-04-19T14:07:11.001Z</time></trkpt><trkpt lat="42.302144663345985" lon="12.998132978488199"><ele>456.33333333333337</ele><time>2026-04-19T14:07:12.001Z</time></trkpt><trkpt lat="42.30229715736739" lon="12.998291834364775"><ele>455.66666666666663</ele><time>2026-04-19T14:07:13.001Z</time></trkpt><trkpt lat="42.30245077330318" lon="12.998441267335973"><ele>455.0</ele><time>2026-04-19T14:07:14.001Z</time></trkpt><trkpt lat="42.302612452990836" lon="12.998556369260722"><ele>464.3333333333333</ele><time>2026-04-19T14:07:15.001Z</time></trkpt><trkpt lat="42.30275796563939" lon="12.998694150835185"><ele>473.66666666666663</ele><time>2026-04-19T14:07:16.001Z</time></trkpt><trkpt lat="42.30289480635504" lon="12.998824065285957"><ele>483.0</ele><time>2026-04-19T14:07:17.001Z</time></trkpt><trkpt lat="42.30301602467984" lon="12.99895354678602"><ele>478.75</ele><time>2026-04-19T14:07:18.001Z</time></trkpt><trkpt lat="42.30311707905332" lon="12.999075055920104"><ele>474.5</ele><time>2026-04-19T14:07:19.001Z</time></trkpt><trkpt lat="42.30320794426347" lon="12.999211353954308"><ele>470.25</ele><time>2026-04-19T14:07:20.001Z</time></trkpt><trkpt lat="42.30332636658748" lon="12.999316158420724"><ele>466.0</ele><time>2026-04-19T14:07:21.001Z</time></trkpt><trkpt lat="42.303457639937136" lon="12.999372253872691"><ele>473.5</ele><time>2026-04-19T14:07:22.001Z</time></trkpt><trkpt lat="42.30358615238722" lon="12.999423245112364"><ele>481.0</ele><time>2026-04-19T14:07:23.001Z</time></trkpt><trkpt lat="42.30370739414125" lon="12.999456084992426"><ele>488.5</ele><time>2026-04-19T14:07:24.001Z</time></trkpt><trkpt lat="42.30383021287467" lon="12.999496805214424"><ele>496.0</ele><time>2026-04-19T14:07:25.001Z</time></trkpt><trkpt lat="42.30396111324165" lon="12.999482944024104"><ele>496.0</ele><time>2026-04-19T14:07:26.001Z</time></trkpt><trkpt lat="42.30407906420585" lon="12.999410498096045"><ele>496.0</ele><time>2026-04-19T14:07:27.001Z</time></trkpt><trkpt lat="42.30419422170217" lon="12.999340386574627"><ele>496.0</ele><time>2026-04-19T14:07:28.001Z</time></trkpt><trkpt lat="42.3043135872311" lon="12.999243085169658"><ele>496.0</ele><time>2026-04-19T14:07:29.001Z</time></trkpt><trkpt lat="42.30443968533692" lon="12.999136733796409"><ele>490.25</ele><time>2026-04-19T14:07:30.001Z</time></trkpt><trkpt lat="42.304575882182554" lon="12.999047211038159"><ele>484.5</ele><time>2026-04-19T14:07:31.001Z</time></trkpt><trkpt lat="42.3046962932478" lon="12.998945524851079"><ele>478.75</ele><time>2026-04-19T14:07:32.001Z</time></trkpt><trkpt lat="42.304807194082635" lon="12.998851869965899"><ele>473.0</ele><time>2026-04-19T14:07:33.001Z</time></trkpt><trkpt lat="42.30491190332186" lon="12.998767769277455"><ele>473.0</ele><time>2026-04-19T14:07:34.001Z</time></trkpt><trkpt lat="42.30501455682874" lon="12.998683148730859"><ele>473.0</ele><time>2026-04-19T14:07:35.001Z</time></trkpt><trkpt lat="42.30510768184447" lon="12.998590545702376"><ele>473.0</ele><time>2026-04-19T14:07:36.001Z</time></trkpt><trkpt lat="42.30518167062364" lon="12.998458386842389"><ele>473.0</ele><time>2026-04-19T14:07:37.001Z</time></trkpt><trkpt lat="42.30524120641803" lon="12.99831424754099"><ele>467.75</ele><time>2026-04-19T14:07:38.001Z</time></trkpt><trkpt lat="42.30529951467782" lon="12.998154194494134"><ele>462.5</ele><time>2026-04-19T14:07:39.001Z</time></trkpt><trkpt lat="42.3053607051169" lon="12.997975870192901"><ele>457.25</ele><time>2026-04-19T14:07:40.001Z</time></trkpt><trkpt lat="42.30541680829793" lon="12.997779537275342"><ele>452.0</ele><time>2026-04-19T14:07:41.001Z</time></trkpt><trkpt lat="42.30546409971524" lon="12.997568172623447"><ele>449.3333333333333</ele><time>2026-04-19T14:07:42.001Z</time></trkpt><trkpt lat="42.30551132065492" lon="12.997357507688035"><ele>446.66666666666663</ele><time>2026-04-19T14:07:43.001Z</time></trkpt><trkpt lat="42.305557176084726" lon="12.997145245653554"><ele>444.0</ele><time>2026-04-19T14:07:44.001Z</time></trkpt><trkpt lat="42.30559490194863" lon="12.996930242319266"><ele>452.33333333333337</ele><time>2026-04-19T14:07:45.001Z</time></trkpt><trkpt lat="42.3056266008467" lon="12.996714620057855"><ele>460.6666666666667</ele><time>2026-04-19T14:07:46.001Z</time></trkpt><trkpt lat="42.305639586656774" lon="12.99650223213042"><ele>469.0</ele><time>2026-04-19T14:07:47.001Z</time></trkpt><trkpt lat="42.30565559160565" lon="12.99629612254385"><ele>469.0</ele><time>2026-04-19T14:07:48.001Z</time></trkpt><trkpt lat="42.30565860460333" lon="12.996099912788772"><ele>469.0</ele><time>2026-04-19T14:07:49.001Z</time></trkpt><trkpt lat="42.305651514530894" lon="12.995904296769178"><ele>469.0</ele><time>2026-04-19T14:07:50.001Z</time></trkpt><trkpt lat="42.30564029421721" lon="12.995710059770271"><ele>469.0</ele><time>2026-04-19T14:07:51.001Z</time></trkpt><trkpt lat="42.30561629240695" lon="12.995523308438894"><ele>468.25</ele><time>2026-04-19T14:07:52.001Z</time></trkpt><trkpt lat="42.30559427702252" lon="12.995339164388362"><ele>467.5</ele><time>2026-04-19T14:07:53.001Z</time></trkpt><trkpt lat="42.30557268735203" lon="12.995170028497292"><ele>466.75</ele><time>2026-04-19T14:07:54.001Z</time></trkpt><trkpt lat="42.30555029952783" lon="12.995026346276337"><ele>466.0</ele><time>2026-04-19T14:07:55.001Z</time></trkpt><trkpt lat="42.305538970778485" lon="12.994914748045169"><ele>466.00000000000006</ele><time>2026-04-19T14:07:56.001Z</time></trkpt><trkpt lat="42.30556178611588" lon="12.994825260902202"><ele>466.0</ele><time>2026-04-19T14:07:57.001Z</time></trkpt><trkpt lat="42.3056408935418" lon="12.994771419240053"><ele>466.0</ele><time>2026-04-19T14:07:58.001Z</time></trkpt><trkpt lat="42.30571588049083" lon="12.994796212496569"><ele>466.0</ele><time>2026-04-19T14:07:59.001Z</time></trkpt><trkpt lat="42.3057790285288" lon="12.99485685918041"><ele>466.00000000000006</ele><time>2026-04-19T14:08:00.001Z</time></trkpt><trkpt lat="42.30585565105209" lon="12.99493925095903"><ele>466.0</ele><time>2026-04-19T14:08:01.001Z</time></trkpt><trkpt lat="42.30595350923783" lon="12.995012145640787"><ele>466.0</ele><time>2026-04-19T14:08:02.001Z</time></trkpt><trkpt lat="42.30606217213743" lon="12.995011058814486"><ele>466.0</ele><time>2026-04-19T14:08:03.001Z</time></trkpt><trkpt lat="42.30616235934521" lon="12.994947380555926"><ele>466.0</ele><time>2026-04-19T14:08:04.001Z</time></trkpt><trkpt lat="42.30627696273262" lon="12.994863991056404"><ele>466.0</ele><time>2026-04-19T14:08:05.001Z</time></trkpt><trkpt lat="42.30638198936308" lon="12.994822036118892"><ele>464.75</ele><time>2026-04-19T14:08:06.001Z</time></trkpt><trkpt lat="42.30647599710653" lon="12.994863651088142"><ele>463.5</ele><time>2026-04-19T14:08:07.001Z</time></trkpt><trkpt lat="42.30656990401719" lon="12.994945486626998"><ele>462.25</ele><time>2026-04-19T14:08:08.001Z</time></trkpt><trkpt lat="42.30670397029456" lon="12.995056387295792"><ele>461.0</ele><time>2026-04-19T14:08:09.001Z</time></trkpt><trkpt lat="42.30687032209369" lon="12.995188747609383"><ele>462.66666666666663</ele><time>2026-04-19T14:08:10.001Z</time></trkpt><trkpt lat="42.3070333018312" lon="12.995321187469324"><ele>464.33333333333337</ele><time>2026-04-19T14:08:11.001Z</time></trkpt><trkpt lat="42.30716870503682" lon="12.995484625547194"><ele>466.0</ele><time>2026-04-19T14:08:12.001Z</time></trkpt><trkpt lat="42.3073116089945" lon="12.995698388177345"><ele>470.0</ele><time>2026-04-19T14:08:13.001Z</time></trkpt><trkpt lat="42.30746865704254" lon="12.99592944344553"><ele>474.0</ele><time>2026-04-19T14:08:14.001Z</time></trkpt><trkpt lat="42.307627433324605" lon="12.996165338231162"><ele>474.0</ele><time>2026-04-19T14:08:15.001Z</time></trkpt><trkpt lat="42.30778065111364" lon="12.996362411488175"><ele>474.0</ele><time>2026-04-19T14:08:16.001Z</time></trkpt><trkpt lat="42.30790650614214" lon="12.996555087969613"><ele>474.0</ele><time>2026-04-19T14:08:17.001Z</time></trkpt><trkpt lat="42.3080252662762" lon="12.996738707288243"><ele>474.66666666666663</ele><time>2026-04-19T14:08:18.001Z</time></trkpt><trkpt lat="42.308146764071516" lon="12.996923183051099"><ele>475.3333333333333</ele><time>2026-04-19T14:08:19.001Z</time></trkpt><trkpt lat="42.30826638639402" lon="12.997095781384088"><ele>476.0</ele><time>2026-04-19T14:08:20.001Z</time></trkpt><trkpt lat="42.30838658241827" lon="12.99723748882118"><ele>476.0</ele><time>2026-04-19T14:08:21.001Z</time></trkpt><trkpt lat="42.30850291067074" lon="12.997357698094094"><ele>476.0</ele><time>2026-04-19T14:08:22.001Z</time></trkpt><trkpt lat="42.30861970630033" lon="12.997474537582013"><ele>476.0</ele><time>2026-04-19T14:08:23.001Z</time></trkpt><trkpt lat="42.30872271313906" lon="12.997576644178485"><ele>476.0</ele><time>2026-04-19T14:08:24.001Z</time></trkpt><trkpt lat="42.30880400996569" lon="12.997643891284515"><ele>473.6</ele><time>2026-04-19T14:08:25.001Z</time></trkpt><trkpt lat="42.30888676439761" lon="12.997659552642842"><ele>471.20000000000005</ele><time>2026-04-19T14:08:26.001Z</time></trkpt><trkpt lat="42.30897629819906" lon="12.997621309241397"><ele>468.79999999999995</ele><time>2026-04-19T14:08:27.001Z</time></trkpt><trkpt lat="42.30907568538999" lon="12.997553010753336"><ele>466.4</ele><time>2026-04-19T14:08:28.001Z</time></trkpt><trkpt lat="42.309188164749365" lon="12.997496288597743"><ele>464.0</ele><time>2026-04-19T14:08:29.001Z</time></trkpt><trkpt lat="42.30930094529796" lon="12.99755584601089"><ele>475.66666666666663</ele><time>2026-04-19T14:08:30.001Z</time></trkpt><trkpt lat="42.30942102884988" lon="12.997641307286727"><ele>487.33333333333337</ele><time>2026-04-19T14:08:31.001Z</time></trkpt><trkpt lat="42.30955852659978" lon="12.997742743391097"><ele>499.0</ele><time>2026-04-19T14:08:32.001Z</time></trkpt><trkpt lat="42.309703765228875" lon="12.997853877522052"><ele>498.2</ele><time>2026-04-19T14:08:33.001Z</time></trkpt><trkpt lat="42.309823154264336" lon="12.997948532911073"><ele>497.4</ele><time>2026-04-19T14:08:34.001Z</time></trkpt><trkpt lat="42.309921021558736" lon="12.998022434000717"><ele>496.6</ele><time>2026-04-19T14:08:35.001Z</time></trkpt><trkpt lat="42.31000504783173" lon="12.99804807429281"><ele>495.8</ele><time>2026-04-19T14:08:36.001Z</time></trkpt><trkpt lat="42.31008012896749" lon="12.998072921730143"><ele>495.0</ele><time>2026-04-19T14:08:37.001Z</time></trkpt><trkpt lat="42.3101530431724" lon="12.998071461292316"><ele>495.0</ele><time>2026-04-19T14:08:38.001Z</time></trkpt><trkpt lat="42.31021422729868" lon="12.997958064654664"><ele>495.0</ele><time>2026-04-19T14:08:39.001Z</time></trkpt><trkpt lat="42.31028047350001" lon="12.997835880671671"><ele>495.0</ele><time>2026-04-19T14:08:40.001Z</time></trkpt><trkpt lat="42.31036665688822" lon="12.9976921606092"><ele>495.0</ele><time>2026-04-19T14:08:41.001Z</time></trkpt><trkpt lat="42.31047400594716" lon="12.99758170333784"><ele>496.6</ele><time>2026-04-19T14:08:42.001Z</time></trkpt><trkpt lat="42.31056941018195" lon="12.997500188534252"><ele>498.2</ele><time>2026-04-19T14:08:43.001Z</time></trkpt><trkpt lat="42.310667758073635" lon="12.997466579369974"><ele>499.79999999999995</ele><time>2026-04-19T14:08:44.001Z</time></trkpt><trkpt lat="42.310779764135084" lon="12.997484510488691"><ele>501.4</ele><time>2026-04-19T14:08:45.001Z</time></trkpt><trkpt lat="42.31088757515722" lon="12.997511831834602"><ele>503.0</ele><time>2026-04-19T14:08:46.001Z</time></trkpt><trkpt lat="42.31096342821571" lon="12.9975088571285"><ele>498.0</ele><time>2026-04-19T14:08:47Z</time></trkpt><trkpt lat="42.311041974757465" lon="12.997442363884238"><ele>492.99999999999994</ele><time>2026-04-19T14:08:48Z</time></trkpt><trkpt lat="42.3110626639308" lon="12.99728310465194"><ele>487.99999999999994</ele><time>2026-04-19T14:08:49Z</time></trkpt><trkpt lat="42.31109230873139" lon="12.997151267547478"><ele>483.0</ele><time>2026-04-19T14:08:50Z</time></trkpt><trkpt lat="42.31112746765299" lon="12.997021427019936"><ele>478.0</ele><time>2026-04-19T14:08:51Z</time></trkpt><trkpt lat="42.31120114238729" lon="12.99694117845418"><ele>478.0</ele><time>2026-04-19T14:08:52Z</time></trkpt><trkpt lat="42.311334783224936" lon="12.996940980568763"><ele>478.0</ele><time>2026-04-19T14:08:53Z</time></trkpt><trkpt lat="42.31146999363024" lon="12.99686700989417"><ele>478.0</ele><time>2026-04-19T14:08:54Z</time></trkpt><trkpt lat="42.311584075903404" lon="12.996738052296196"><ele>478.0</ele><time>2026-04-19T14:08:55Z</time></trkpt><trkpt lat="42.311702883456476" lon="12.996598505766084"><ele>477.5</ele><time>2026-04-19T14:08:56Z</time></trkpt><trkpt lat="42.31180168683874" lon="12.996450077135208"><ele>477.0</ele><time>2026-04-19T14:08:57Z</time></trkpt><trkpt lat="42.31190332336434" lon="12.9963443070297"><ele>476.5</ele><time>2026-04-19T14:08:58Z</time></trkpt><trkpt lat="42.3119908571379" lon="12.996241968016257"><ele>476.0</ele><time>2026-04-19T14:08:59Z</time></trkpt><trkpt lat="42.312078290622885" lon="12.996181627391449"><ele>476.0</ele><time>2026-04-19T14:09:00Z</time></trkpt><trkpt lat="42.312169156050146" lon="12.99616589367018"><ele>476.0</ele><time>2026-04-19T14:09:01Z</time></trkpt><trkpt lat="42.31228333640017" lon="12.996176867507634"><ele>476.0</ele><time>2026-04-19T14:09:02Z</time></trkpt><trkpt lat="42.31240989224229" lon="12.996198301648176"><ele>476.0</ele><time>2026-04-19T14:09:03Z</time></trkpt><trkpt lat="42.312518472110405" lon="12.996207876720044"><ele>476.0</ele><time>2026-04-19T14:09:04Z</time></trkpt><trkpt lat="42.312602048465216" lon="12.996187809245308"><ele>473.8</ele><time>2026-04-19T14:09:05Z</time></trkpt><trkpt lat="42.31266187616167" lon="12.996102208997328"><ele>471.6</ele><time>2026-04-19T14:09:06Z</time></trkpt><trkpt lat="42.31269173548222" lon="12.995982948229521"><ele>469.4</ele><time>2026-04-19T14:09:07Z</time></trkpt><trkpt lat="42.31266492153253" lon="12.995840430682815"><ele>467.2</ele><time>2026-04-19T14:09:08Z</time></trkpt><trkpt lat="42.31264927525064" lon="12.995694910792128"><ele>465.0</ele><time>2026-04-19T14:09:09Z</time></trkpt><trkpt lat="42.312671483176814" lon="12.99556098328497"><ele>465.0</ele><time>2026-04-19T14:09:10Z</time></trkpt><trkpt lat="42.31269926001065" lon="12.995441059310075"><ele>465.0</ele><time>2026-04-19T14:09:11Z</time></trkpt><trkpt lat="42.31277716740851" lon="12.9953696567305"><ele>465.0</ele><time>2026-04-19T14:09:12Z</time></trkpt><trkpt lat="42.31288029323045" lon="12.99528066484819"><ele>465.0</ele><time>2026-04-19T14:09:13Z</time></trkpt><trkpt lat="42.31301906418945" lon="12.995168047897641"><ele>465.5</ele><time>2026-04-19T14:09:14Z</time></trkpt><trkpt lat="42.31315170187012" lon="12.995057812044603"><ele>466.0</ele><time>2026-04-19T14:09:15Z</time></trkpt><trkpt lat="42.313267872500184" lon="12.99496623004844"><ele>466.5</ele><time>2026-04-19T14:09:16Z</time></trkpt><trkpt lat="42.31338340485311" lon="12.994902824001757"><ele>467.0</ele><time>2026-04-19T14:09:17Z</time></trkpt><trkpt lat="42.31350829795814" lon="12.99487816894356"><ele>467.0</ele><time>2026-04-19T14:09:18Z</time></trkpt><trkpt lat="42.31365211085428" lon="12.994891606965385"><ele>467.0</ele><time>2026-04-19T14:09:19Z</time></trkpt><trkpt lat="42.31382616310666" lon="12.99490820495248"><ele>467.0</ele><time>2026-04-19T14:09:20Z</time></trkpt><trkpt lat="42.31400752955034" lon="12.994913377919948"><ele>469.66666666666663</ele><time>2026-04-19T14:09:21Z</time></trkpt><trkpt lat="42.31417486036344" lon="12.994887647848579"><ele>472.33333333333337</ele><time>2026-04-19T14:09:22Z</time></trkpt><trkpt lat="42.31433991088176" lon="12.994817148893235"><ele>475.0</ele><time>2026-04-19T14:09:23Z</time></trkpt><trkpt lat="42.31449020272491" lon="12.994719264785513"><ele>475.0</ele><time>2026-04-19T14:09:24Z</time></trkpt><trkpt lat="42.314641116840306" lon="12.994629430237646"><ele>475.0</ele><time>2026-04-19T14:09:25Z</time></trkpt><trkpt lat="42.31479107272869" lon="12.994570250938398"><ele>475.0</ele><time>2026-04-19T14:09:26Z</time></trkpt><trkpt lat="42.314952127347226" lon="12.994529898227839"><ele>475.25</ele><time>2026-04-19T14:09:27Z</time></trkpt><trkpt lat="42.31510430046207" lon="12.994500148304516"><ele>475.5</ele><time>2026-04-19T14:09:28Z</time></trkpt><trkpt lat="42.31524774899034" lon="12.994482276161769"><ele>475.75</ele><time>2026-04-19T14:09:29Z</time></trkpt><trkpt lat="42.31538310660944" lon="12.994481735226532"><ele>476.0</ele><time>2026-04-19T14:09:30Z</time></trkpt><trkpt lat="42.315506682052266" lon="12.994521948451329"><ele>473.75</ele><time>2026-04-19T14:09:31Z</time></trkpt><trkpt lat="42.31562568974915" lon="12.994591269925943"><ele>471.5</ele><time>2026-04-19T14:09:32Z</time></trkpt><trkpt lat="42.31573942971118" lon="12.994697605463962"><ele>469.25</ele><time>2026-04-19T14:09:33Z</time></trkpt><trkpt lat="42.31585763400226" lon="12.994840350060104"><ele>467.0</ele><time>2026-04-19T14:09:34Z</time></trkpt><trkpt lat="42.31598672718589" lon="12.99496890558455"><ele>469.0</ele><time>2026-04-19T14:09:35Z</time></trkpt><trkpt lat="42.31612688065397" lon="12.9950434509382"><ele>471.0</ele><time>2026-04-19T14:09:36Z</time></trkpt><trkpt lat="42.31625460723634" lon="12.995098920309433"><ele>473.0</ele><time>2026-04-19T14:09:37Z</time></trkpt><trkpt lat="42.316366112963664" lon="12.995133517896345"><ele>475.0</ele><time>2026-04-19T14:09:38Z</time></trkpt><trkpt lat="42.316454694978205" lon="12.995142323786396"><ele>475.0</ele><time>2026-04-19T14:09:39Z</time></trkpt><trkpt lat="42.316537870112235" lon="12.995114018118896"><ele>475.0</ele><time>2026-04-19T14:09:40Z</time></trkpt><trkpt lat="42.31661698091552" lon="12.995046507054392"><ele>475.0</ele><time>2026-04-19T14:09:41Z</time></trkpt><trkpt lat="42.316693309006276" lon="12.994956417020626"><ele>475.0</ele><time>2026-04-19T14:09:42Z</time></trkpt><trkpt lat="42.316787889219384" lon="12.994894337801204"><ele>475.0</ele><time>2026-04-19T14:09:43Z</time></trkpt><trkpt lat="42.316879893199115" lon="12.994858052992058"><ele>475.0</ele><time>2026-04-19T14:09:44Z</time></trkpt><trkpt lat="42.31696839150777" lon="12.99487455472625"><ele>475.0</ele><time>2026-04-19T14:09:45Z</time></trkpt><trkpt lat="42.31705717056763" lon="12.994891830846568"><ele>475.0</ele><time>2026-04-19T14:09:46Z</time></trkpt><trkpt lat="42.317121714116645" lon="12.995000833803674"><ele>475.0</ele><time>2026-04-19T14:09:47Z</time></trkpt><trkpt lat="42.31719314057146" lon="12.995120652482743"><ele>475.0</ele><time>2026-04-19T14:09:48Z</time></trkpt><trkpt lat="42.31728212304856" lon="12.995228219356061"><ele>474.5</ele><time>2026-04-19T14:09:49Z</time></trkpt><trkpt lat="42.31738113851786" lon="12.995311980206267"><ele>474.0</ele><time>2026-04-19T14:09:50Z</time></trkpt><trkpt lat="42.317495879812846" lon="12.995341070588323"><ele>473.5</ele><time>2026-04-19T14:09:51Z</time></trkpt><trkpt lat="42.317622788570894" lon="12.99532067682875"><ele>473.0</ele><time>2026-04-19T14:09:52Z</time></trkpt><trkpt lat="42.31777166023535" lon="12.995277579619382"><ele>473.0</ele><time>2026-04-19T14:09:53Z</time></trkpt><trkpt lat="42.317943746937345" lon="12.995237329058142"><ele>473.0</ele><time>2026-04-19T14:09:54Z</time></trkpt><trkpt lat="42.31810689045551" lon="12.99521726578553"><ele>473.0</ele><time>2026-04-19T14:09:55Z</time></trkpt><trkpt lat="42.3182566562236" lon="12.9952490655406"><ele>472.3333333333333</ele><time>2026-04-19T14:09:56Z</time></trkpt><trkpt lat="42.318399676066896" lon="12.995302629870785"><ele>471.66666666666663</ele><time>2026-04-19T14:09:57Z</time></trkpt><trkpt lat="42.31854454467988" lon="12.99539681248004"><ele>471.0</ele><time>2026-04-19T14:09:58Z</time></trkpt><trkpt lat="42.31869548546124" lon="12.995506150001754"><ele>471.0</ele><time>2026-04-19T14:09:59Z</time></trkpt><trkpt lat="42.31883756491397" lon="12.99561220434891"><ele>471.0</ele><time>2026-04-19T14:10:00Z</time></trkpt><trkpt lat="42.318969354192824" lon="12.995701284291489"><ele>471.0</ele><time>2026-04-19T14:10:01Z</time></trkpt><trkpt lat="42.31907670752028" lon="12.995845685138734"><ele>471.0</ele><time>2026-04-19T14:10:02Z</time></trkpt><trkpt lat="42.319173633958805" lon="12.995992591688083"><ele>471.0</ele><time>2026-04-19T14:10:03Z</time></trkpt><trkpt lat="42.319269118848915" lon="12.996112817729125"><ele>471.0</ele><time>2026-04-19T14:10:04Z</time></trkpt><trkpt lat="42.31933749128553" lon="12.996212389419513"><ele>471.0</ele><time>2026-04-19T14:10:05Z</time></trkpt><trkpt lat="42.319417241314476" lon="12.99627821178064"><ele>471.0</ele><time>2026-04-19T14:10:06Z</time></trkpt><trkpt lat="42.31950347998231" lon="12.996308580410282"><ele>471.0</ele><time>2026-04-19T14:10:07Z</time></trkpt><trkpt lat="42.319610903969526" lon="12.9962996872875"><ele>471.0</ele><time>2026-04-19T14:10:08Z</time></trkpt><trkpt lat="42.319731032073726" lon="12.996288406612143"><ele>471.0</ele><time>2026-04-19T14:10:09Z</time></trkpt><trkpt lat="42.319844431207216" lon="12.996269589982864"><ele>471.0</ele><time>2026-04-19T14:10:10Z</time></trkpt><trkpt lat="42.31992953142824" lon="12.996233047891382"><ele>469.4</ele><time>2026-04-19T14:10:11Z</time></trkpt><trkpt lat="42.320007295878455" lon="12.99620500927839"><ele>467.8</ele><time>2026-04-19T14:10:12Z</time></trkpt><trkpt lat="42.320052668792165" lon="12.996057406160281"><ele>466.19999999999993</ele><time>2026-04-19T14:10:13Z</time></trkpt><trkpt lat="42.32008901039133" lon="12.995917651765703"><ele>464.59999999999997</ele><time>2026-04-19T14:10:14Z</time></trkpt><trkpt lat="42.32011028810791" lon="12.995751954041172"><ele>463.0</ele><time>2026-04-19T14:10:15Z</time></trkpt><trkpt lat="42.3201357597131" lon="12.99556769435502"><ele>458.6666666666667</ele><time>2026-04-19T14:10:16Z</time></trkpt><trkpt lat="42.32021707128029" lon="12.995416048235535"><ele>454.33333333333337</ele><time>2026-04-19T14:10:17Z</time></trkpt><trkpt lat="42.32031482446761" lon="12.995228788119498"><ele>450.0</ele><time>2026-04-19T14:10:18Z</time></trkpt><trkpt lat="42.32043683303062" lon="12.995042798107523"><ele>453.33333333333337</ele><time>2026-04-19T14:10:19Z</time></trkpt><trkpt lat="42.32058733182043" lon="12.994862714470406"><ele>456.6666666666667</ele><time>2026-04-19T14:10:20Z</time></trkpt><trkpt lat="42.320756977786964" lon="12.99469874183482"><ele>460.0</ele><time>2026-04-19T14:10:21Z</time></trkpt><trkpt lat="42.32089900633398" lon="12.994551980755732"><ele>460.0</ele><time>2026-04-19T14:10:22Z</time></trkpt><trkpt lat="42.321071752207146" lon="12.994461718182917"><ele>460.0</ele><time>2026-04-19T14:10:23Z</time></trkpt><trkpt lat="42.32125424617085" lon="12.994377281181231"><ele>460.0</ele><time>2026-04-19T14:10:24.001Z</time></trkpt><trkpt lat="42.321433523826904" lon="12.994299855805505"><ele>455.6666666666667</ele><time>2026-04-19T14:10:25.001Z</time></trkpt><trkpt lat="42.321600029267486" lon="12.994205015579446"><ele>451.33333333333337</ele><time>2026-04-19T14:10:26.001Z</time></trkpt><trkpt lat="42.32178016011" lon="12.994127472318313"><ele>447.0</ele><time>2026-04-19T14:10:27.001Z</time></trkpt><trkpt lat="42.32195443270398" lon="12.994073955438271"><ele>447.0</ele><time>2026-04-19T14:10:28.001Z</time></trkpt><trkpt lat="42.32211131454613" lon="12.994005921206282"><ele>447.0</ele><time>2026-04-19T14:10:29.001Z</time></trkpt><trkpt lat="42.32226153638593" lon="12.99394474767051"><ele>447.0</ele><time>2026-04-19T14:10:30.001Z</time></trkpt><trkpt lat="42.32240734819866" lon="12.993890796419223"><ele>447.66666666666663</ele><time>2026-04-19T14:10:31.001Z</time></trkpt><trkpt lat="42.322552876901" lon="12.993860106086288"><ele>448.3333333333333</ele><time>2026-04-19T14:10:32.001Z</time></trkpt><trkpt lat="42.322709378363356" lon="12.993842315515504"><ele>449.0</ele><time>2026-04-19T14:10:33.001Z</time></trkpt><trkpt lat="42.3228681265129" lon="12.993860924083073"><ele>449.0</ele><time>2026-04-19T14:10:34.001Z</time></trkpt><trkpt lat="42.323023753690904" lon="12.993900044632893"><ele>449.0</ele><time>2026-04-19T14:10:35.001Z</time></trkpt><trkpt lat="42.32318737990706" lon="12.993900658297578"><ele>449.0</ele><time>2026-04-19T14:10:36.001Z</time></trkpt><trkpt lat="42.32335641777558" lon="12.993859111146657"><ele>448.66666666666663</ele><time>2026-04-19T14:10:37.001Z</time></trkpt><trkpt lat="42.323519675714635" lon="12.993792771136384"><ele>448.33333333333337</ele><time>2026-04-19T14:10:38.001Z</time></trkpt><trkpt lat="42.323675039413935" lon="12.993708844627111"><ele>448.0</ele><time>2026-04-19T14:10:39.001Z</time></trkpt><trkpt lat="42.32383748316569" lon="12.993660358009882"><ele>450.6666666666667</ele><time>2026-04-19T14:10:40.001Z</time></trkpt><trkpt lat="42.32399813044176" lon="12.993636327684456"><ele>453.33333333333337</ele><time>2026-04-19T14:10:41.001Z</time></trkpt><trkpt lat="42.32414547851633" lon="12.993622811399707"><ele>456.0</ele><time>2026-04-19T14:10:42.001Z</time></trkpt><trkpt lat="42.32428753087734" lon="12.993577732341564"><ele>456.0</ele><time>2026-04-19T14:10:43.001Z</time></trkpt><trkpt lat="42.324423931563935" lon="12.993484997391382"><ele>456.0</ele><time>2026-04-19T14:10:44.001Z</time></trkpt><trkpt lat="42.32456409584047" lon="12.993358309956552"><ele>456.0</ele><time>2026-04-19T14:10:45.001Z</time></trkpt><trkpt lat="42.32470435698506" lon="12.993232413453487"><ele>454.33333333333337</ele><time>2026-04-19T14:10:46.001Z</time></trkpt><trkpt lat="42.32485345602036" lon="12.993119100717399"><ele>452.6666666666667</ele><time>2026-04-19T14:10:47Z</time></trkpt><trkpt lat="42.325015830117785" lon="12.993017889245788"><ele>451.0</ele><time>2026-04-19T14:10:48Z</time></trkpt><trkpt lat="42.32518893742552" lon="12.992931149152417"><ele>451.0</ele><time>2026-04-19T14:10:49Z</time></trkpt><trkpt lat="42.325369597905784" lon="12.992886774129245"><ele>451.0</ele><time>2026-04-19T14:10:50Z</time></trkpt><trkpt lat="42.32554116628476" lon="12.99285005100742"><ele>451.0</ele><time>2026-04-19T14:10:51Z</time></trkpt><trkpt lat="42.32570069649069" lon="12.992802422071975"><ele>452.25</ele><time>2026-04-19T14:10:52Z</time></trkpt><trkpt lat="42.32586220232489" lon="12.992803662509603"><ele>453.5</ele><time>2026-04-19T14:10:53Z</time></trkpt><trkpt lat="42.326009601506925" lon="12.992775315808368"><ele>454.75</ele><time>2026-04-19T14:10:54Z</time></trkpt><trkpt lat="42.326133794328385" lon="12.992706320663398"><ele>456.0</ele><time>2026-04-19T14:10:55Z</time></trkpt><trkpt lat="42.32625938373105" lon="12.992646276472087"><ele>456.0</ele><time>2026-04-19T14:10:56Z</time></trkpt><trkpt lat="42.326377506433424" lon="12.992577180644881"><ele>456.0</ele><time>2026-04-19T14:10:57Z</time></trkpt><trkpt lat="42.32646888177577" lon="12.99246018975284"><ele>456.0</ele><time>2026-04-19T14:10:58Z</time></trkpt><trkpt lat="42.32654870112896" lon="12.992315340545206"><ele>456.0</ele><time>2026-04-19T14:10:59Z</time></trkpt><trkpt lat="42.326613366665114" lon="12.992148443725666"><ele>452.0</ele><time>2026-04-19T14:11:00Z</time></trkpt><trkpt lat="42.32666631442689" lon="12.991955349414626"><ele>448.0</ele><time>2026-04-19T14:11:01Z</time></trkpt><trkpt lat="42.326719747147685" lon="12.99172623189839"><ele>444.0</ele><time>2026-04-19T14:11:02Z</time></trkpt><trkpt lat="42.32677823471222" lon="12.991481971336121"><ele>439.66666666666663</ele><time>2026-04-19T14:11:03Z</time></trkpt><trkpt lat="42.326847365478145" lon="12.991226769628092"><ele>435.3333333333333</ele><time>2026-04-19T14:11:04Z</time></trkpt><trkpt lat="42.3269221993575" lon="12.990961921334444"><ele>431.0</ele><time>2026-04-19T14:11:05Z</time></trkpt><trkpt lat="42.326991429211404" lon="12.990707438056797"><ele>430.3333333333333</ele><time>2026-04-19T14:11:06Z</time></trkpt><trkpt lat="42.327051065919704" lon="12.990475702989826"><ele>429.66666666666663</ele><time>2026-04-19T14:11:07Z</time></trkpt><trkpt lat="42.32709788505555" lon="12.990245951759913"><ele>429.0</ele><time>2026-04-19T14:11:08Z</time></trkpt><trkpt lat="42.32712362195732" lon="12.990030353307803"><ele>428.66666666666663</ele><time>2026-04-19T14:11:09Z</time></trkpt><trkpt lat="42.327128977596225" lon="12.989805167177279"><ele>428.3333333333333</ele><time>2026-04-19T14:11:10Z</time></trkpt><trkpt lat="42.32711370969883" lon="12.989581139272167"><ele>428.0</ele><time>2026-04-19T14:11:11Z</time></trkpt><trkpt lat="42.32707458205894" lon="12.989368664937562"><ele>427.66666666666663</ele><time>2026-04-19T14:11:12Z</time></trkpt><trkpt lat="42.32701539123545" lon="12.989168808368879"><ele>427.33333333333337</ele><time>2026-04-19T14:11:13Z</time></trkpt><trkpt lat="42.32693547786377" lon="12.98897556275247"><ele>427.0</ele><time>2026-04-19T14:11:14Z</time></trkpt><trkpt lat="42.32683636628281" lon="12.988789447533254"><ele>427.0</ele><time>2026-04-19T14:11:15Z</time></trkpt><trkpt lat="42.326723568307244" lon="12.988613917395243"><ele>427.0</ele><time>2026-04-19T14:11:16Z</time></trkpt><trkpt lat="42.32660884369978" lon="12.988463963504957"><ele>427.0</ele><time>2026-04-19T14:11:17Z</time></trkpt><trkpt lat="42.326515517438104" lon="12.988336295817327"><ele>427.40000000000003</ele><time>2026-04-19T14:11:18Z</time></trkpt><trkpt lat="42.3264428245688" lon="12.988213529129718"><ele>427.80000000000007</ele><time>2026-04-19T14:11:19Z</time></trkpt><trkpt lat="42.32640680985772" lon="12.988085599011127"><ele>428.2</ele><time>2026-04-19T14:11:20Z</time></trkpt><trkpt lat="42.3263964170114" lon="12.987951167537037"><ele>428.6</ele><time>2026-04-19T14:11:21Z</time></trkpt><trkpt lat="42.326407673647616" lon="12.987807310115718"><ele>429.0</ele><time>2026-04-19T14:11:22Z</time></trkpt><trkpt lat="42.32644486133257" lon="12.987630067905842"><ele>430.66666666666663</ele><time>2026-04-19T14:11:23Z</time></trkpt><trkpt lat="42.326498480960915" lon="12.987406417224218"><ele>432.3333333333333</ele><time>2026-04-19T14:11:24Z</time></trkpt><trkpt lat="42.32654540511695" lon="12.98713710820483"><ele>434.0</ele><time>2026-04-19T14:11:25Z</time></trkpt><trkpt lat="42.326607155047775" lon="12.986849507987717"><ele>436.0</ele><time>2026-04-19T14:11:26Z</time></trkpt><trkpt lat="42.32662912702916" lon="12.9865950603314"><ele>438.0</ele><time>2026-04-19T14:11:27Z</time></trkpt><trkpt lat="42.32663981641238" lon="12.986366337610859"><ele>440.0</ele><time>2026-04-19T14:11:28Z</time></trkpt><trkpt lat="42.32664308410618" lon="12.986152506113662"><ele>440.0</ele><time>2026-04-19T14:11:29Z</time></trkpt><trkpt lat="42.32663343386874" lon="12.985972041518236"><ele>440.0</ele><time>2026-04-19T14:11:30Z</time></trkpt><trkpt lat="42.32661388134293" lon="12.985823824683933"><ele>440.0</ele><time>2026-04-19T14:11:31Z</time></trkpt><trkpt lat="42.326597077704406" lon="12.98568095741538"><ele>440.0</ele><time>2026-04-19T14:11:32Z</time></trkpt><trkpt lat="42.32660174380305" lon="12.985547977137513"><ele>440.6</ele><time>2026-04-19T14:11:33Z</time></trkpt><trkpt lat="42.32664146591059" lon="12.985430285821664"><ele>441.2</ele><time>2026-04-19T14:11:34Z</time></trkpt><trkpt lat="42.32671044991606" lon="12.985351355638274"><ele>441.79999999999995</ele><time>2026-04-19T14:11:35Z</time></trkpt><trkpt lat="42.3267850570155" lon="12.985299951484597"><ele>442.4</ele><time>2026-04-19T14:11:36Z</time></trkpt><trkpt lat="42.32685598644404" lon="12.98525828369615"><ele>443.0</ele><time>2026-04-19T14:11:37Z</time></trkpt><trkpt lat="42.32695025437825" lon="12.985194094126262"><ele>442.99999999999994</ele><time>2026-04-19T14:11:39Z</time></trkpt><trkpt lat="42.32701541208533" lon="12.985131673551866"><ele>443.0</ele><time>2026-04-19T14:11:42Z</time></trkpt><trkpt lat="42.32708319524657" lon="12.985051007528885"><ele>443.0</ele><time>2026-04-19T14:11:45Z</time></trkpt><trkpt lat="42.32716630271682" lon="12.984991050051718"><ele>443.0</ele><time>2026-04-19T14:11:49Z</time></trkpt><trkpt lat="42.32725366590902" lon="12.984922424019658"><ele>442.99999999999994</ele><time>2026-04-19T14:11:51Z</time></trkpt><trkpt lat="42.32732057251924" lon="12.984865315837894"><ele>443.0</ele><time>2026-04-19T14:11:54Z</time></trkpt><trkpt lat="42.32738651515174" lon="12.984808417334646"><ele>441.8333333333333</ele><time>2026-04-19T14:11:57Z</time></trkpt><trkpt lat="42.32748318046493" lon="12.984732833380129"><ele>440.66666666666663</ele><time>2026-04-19T14:11:59Z</time></trkpt><trkpt lat="42.327542085932365" lon="12.984684670158533"><ele>439.5</ele><time>2026-04-19T14:12:00Z</time></trkpt><trkpt lat="42.327607024767914" lon="12.984632870209543"><ele>438.33333333333337</ele><time>2026-04-19T14:12:01Z</time></trkpt><trkpt lat="42.32768162686749" lon="12.984577852136844"><ele>437.1666666666667</ele><time>2026-04-19T14:12:02Z</time></trkpt><trkpt lat="42.32776262828277" lon="12.984519374467807"><ele>436.0</ele><time>2026-04-19T14:12:03Z</time></trkpt><trkpt lat="42.32784594998659" lon="12.984458741843673"><ele>436.00000000000006</ele><time>2026-04-19T14:12:04Z</time></trkpt><trkpt lat="42.32793135869189" lon="12.984393162746235"><ele>436.0</ele><time>2026-04-19T14:12:05Z</time></trkpt><trkpt lat="42.32801876244688" lon="12.984316804535393"><ele>436.0</ele><time>2026-04-19T14:12:06Z</time></trkpt><trkpt lat="42.32808976477509" lon="12.984245478060418"><ele>436.0</ele><time>2026-04-19T14:12:07Z</time></trkpt><trkpt lat="42.32814454967691" lon="12.98416714133045"><ele>436.00000000000006</ele><time>2026-04-19T14:12:08Z</time></trkpt><trkpt lat="42.328181808398725" lon="12.98407815988186"><ele>436.0</ele><time>2026-04-19T14:12:09Z</time></trkpt><trkpt lat="42.32820078480544" lon="12.983972182445399"><ele>435.5</ele><time>2026-04-19T14:12:10Z</time></trkpt><trkpt lat="42.328196147761915" lon="12.983844732956237"><ele>435.0</ele><time>2026-04-19T14:12:11Z</time></trkpt><trkpt lat="42.32816743383269" lon="12.98370162958374"><ele>434.5</ele><time>2026-04-19T14:12:12Z</time></trkpt><trkpt lat="42.32812778995376" lon="12.983536742627997"><ele>434.0</ele><time>2026-04-19T14:12:13Z</time></trkpt><trkpt lat="42.32808258353757" lon="12.98338116513211"><ele>438.0</ele><time>2026-04-19T14:12:14Z</time></trkpt><trkpt lat="42.328027080573044" lon="12.9832027513922"><ele>442.0</ele><time>2026-04-19T14:12:15Z</time></trkpt><trkpt lat="42.32796245402426" lon="12.983022251797701"><ele>446.0</ele><time>2026-04-19T14:12:16Z</time></trkpt><trkpt lat="42.32789275496085" lon="12.982863691829534"><ele>450.0</ele><time>2026-04-19T14:12:17Z</time></trkpt><trkpt lat="42.327826955083076" lon="12.982721455413055"><ele>450.0</ele><time>2026-04-19T14:12:18Z</time></trkpt><trkpt lat="42.32777542325974" lon="12.982599145462691"><ele>450.0</ele><time>2026-04-19T14:12:19Z</time></trkpt><trkpt lat="42.327746129752235" lon="12.982484103127737"><ele>450.0</ele><time>2026-04-19T14:12:20Z</time></trkpt><trkpt lat="42.3277582360991" lon="12.982365181535846"><ele>450.0</ele><time>2026-04-19T14:12:21Z</time></trkpt><trkpt lat="42.327827833930385" lon="12.982246724149395"><ele>450.0</ele><time>2026-04-19T14:12:22Z</time></trkpt><trkpt lat="42.327872976649026" lon="12.982077812061739"><ele>448.33333333333337</ele><time>2026-04-19T14:12:23Z</time></trkpt><trkpt lat="42.32790795806562" lon="12.981896497595699"><ele>446.6666666666667</ele><time>2026-04-19T14:12:24Z</time></trkpt><trkpt lat="42.32791927856655" lon="12.981670954688806"><ele>445.0</ele><time>2026-04-19T14:12:25Z</time></trkpt><trkpt lat="42.3279249102268" lon="12.981462838912751"><ele>444.75</ele><time>2026-04-19T14:12:26Z</time></trkpt><trkpt lat="42.32794369695046" lon="12.981275122047082"><ele>444.5</ele><time>2026-04-19T14:12:27Z</time></trkpt><trkpt lat="42.327990041128444" lon="12.981094249827004"><ele>444.25</ele><time>2026-04-19T14:12:28Z</time></trkpt><trkpt lat="42.328037470648304" lon="12.980946071681936"><ele>444.0</ele><time>2026-04-19T14:12:29Z</time></trkpt><trkpt lat="42.32808201020214" lon="12.980828211959578"><ele>441.79999999999995</ele><time>2026-04-19T14:12:30Z</time></trkpt><trkpt lat="42.32813563396784" lon="12.980730910520295"><ele>439.59999999999997</ele><time>2026-04-19T14:12:31Z</time></trkpt><trkpt lat="42.32820799206044" lon="12.980667988540013"><ele>437.4</ele><time>2026-04-19T14:12:32Z</time></trkpt><trkpt lat="42.328311122058864" lon="12.980671957320686"><ele>435.2</ele><time>2026-04-19T14:12:33Z</time></trkpt><trkpt lat="42.32844140512036" lon="12.980656689758336"><ele>433.0</ele><time>2026-04-19T14:12:34Z</time></trkpt><trkpt lat="42.32861029097441" lon="12.98063125895093"><ele>433.0</ele><time>2026-04-19T14:12:35Z</time></trkpt><trkpt lat="42.3288193157756" lon="12.980628065994019"><ele>433.0</ele><time>2026-04-19T14:12:36Z</time></trkpt><trkpt lat="42.32901599642124" lon="12.980608188511154"><ele>433.0</ele><time>2026-04-19T14:12:37Z</time></trkpt><trkpt lat="42.329209319079496" lon="12.980543258575594"><ele>429.0</ele><time>2026-04-19T14:12:38Z</time></trkpt><trkpt lat="42.32940655914733" lon="12.980426048402947"><ele>425.0</ele><time>2026-04-19T14:12:39Z</time></trkpt><trkpt lat="42.32961941098495" lon="12.980274865130735"><ele>424.0</ele><time>2026-04-19T14:12:40Z</time></trkpt><trkpt lat="42.32982031498806" lon="12.980131661132239"><ele>423.0</ele><time>2026-04-19T14:12:41Z</time></trkpt><trkpt lat="42.330037478198065" lon="12.980004471909497"><ele>429.0</ele><time>2026-04-19T14:12:42Z</time></trkpt><trkpt lat="42.330267159596026" lon="12.979889613405664"><ele>435.0</ele><time>2026-04-19T14:12:43Z</time></trkpt><trkpt lat="42.33052371811085" lon="12.979788615042457"><ele>431.0</ele><time>2026-04-19T14:12:44Z</time></trkpt><trkpt lat="42.33079404765885" lon="12.979703630025604"><ele>427.0</ele><time>2026-04-19T14:12:45Z</time></trkpt><trkpt lat="42.331028731955364" lon="12.979644689915604"><ele>427.0</ele><time>2026-04-19T14:12:46Z</time></trkpt><trkpt lat="42.331213579221" lon="12.979591646976505"><ele>427.0</ele><time>2026-04-19T14:12:47Z</time></trkpt><trkpt lat="42.331377813937664" lon="12.97952428016679"><ele>427.0</ele><time>2026-04-19T14:12:48Z</time></trkpt><trkpt lat="42.33153833539773" lon="12.979445780646477"><ele>426.6666666666667</ele><time>2026-04-19T14:12:49Z</time></trkpt><trkpt lat="42.33168708070898" lon="12.979394742221485"><ele>426.33333333333337</ele><time>2026-04-19T14:12:50Z</time></trkpt><trkpt lat="42.33183218764912" lon="12.979357977407723"><ele>426.0</ele><time>2026-04-19T14:12:51Z</time></trkpt><trkpt lat="42.33200777751791" lon="12.979316986177674"><ele>426.0</ele><time>2026-04-19T14:12:52Z</time></trkpt><trkpt lat="42.33216858486961" lon="12.979315271812759"><ele>426.0</ele><time>2026-04-19T14:12:53Z</time></trkpt><trkpt lat="42.33230320082906" lon="12.979281095859582"><ele>426.0</ele><time>2026-04-19T14:12:54Z</time></trkpt><trkpt lat="42.33244238397834" lon="12.979193249874204"><ele>427.0</ele><time>2026-04-19T14:12:55Z</time></trkpt><trkpt lat="42.33257246455975" lon="12.979054063754502"><ele>428.0</ele><time>2026-04-19T14:12:56Z</time></trkpt><trkpt lat="42.33271673489702" lon="12.978864139846634"><ele>429.0</ele><time>2026-04-19T14:12:57Z</time></trkpt><trkpt lat="42.332879877468194" lon="12.978648651262246"><ele>429.0</ele><time>2026-04-19T14:12:58Z</time></trkpt><trkpt lat="42.333036228509464" lon="12.97846372121165"><ele>429.0</ele><time>2026-04-19T14:12:59Z</time></trkpt><trkpt lat="42.33317519268748" lon="12.978296189602407"><ele>429.0</ele><time>2026-04-19T14:13:00Z</time></trkpt><trkpt lat="42.33329009297386" lon="12.978125887048595"><ele>427.33333333333337</ele><time>2026-04-19T14:13:01Z</time></trkpt><trkpt lat="42.333361516450005" lon="12.977960859994612"><ele>425.6666666666667</ele><time>2026-04-19T14:13:02Z</time></trkpt><trkpt lat="42.33340546219142" lon="12.977776450968552"><ele>424.0</ele><time>2026-04-19T14:13:03Z</time></trkpt><trkpt lat="42.33343726245998" lon="12.97755105113732"><ele>423.6666666666667</ele><time>2026-04-19T14:13:04Z</time></trkpt><trkpt lat="42.33346077466915" lon="12.977286779068896"><ele>423.33333333333337</ele><time>2026-04-19T14:13:05Z</time></trkpt><trkpt lat="42.33348863514831" lon="12.977029332314956"><ele>423.0</ele><time>2026-04-19T14:13:06Z</time></trkpt><trkpt lat="42.33351769067425" lon="12.976826266737069"><ele>423.0</ele><time>2026-04-19T14:13:07Z</time></trkpt><trkpt lat="42.33353815498205" lon="12.97668636362893"><ele>423.0</ele><time>2026-04-19T14:13:08Z</time></trkpt><trkpt lat="42.333549527670534" lon="12.976572064972887"><ele>423.0</ele><time>2026-04-19T14:13:09Z</time></trkpt><trkpt lat="42.33356084694581" lon="12.97646677093035"><ele>423.0</ele><time>2026-04-19T14:13:10Z</time></trkpt><trkpt lat="42.333572260223384" lon="12.97636853940856"><ele>423.0</ele><time>2026-04-19T14:13:11Z</time></trkpt><trkpt lat="42.333612341478954" lon="12.97624385880939"><ele>423.0</ele><time>2026-04-19T14:13:13Z</time></trkpt><trkpt lat="42.333664483799986" lon="12.976184672775895"><ele>422.0</ele><time>2026-04-19T14:13:15Z</time></trkpt><trkpt lat="42.33371343189237" lon="12.976130768283372"><ele>421.0</ele><time>2026-04-19T14:13:52Z</time></trkpt><trkpt lat="42.33390032347436" lon="12.976257990959333"><ele>420.0</ele><time>2026-04-19T14:14:43Z</time></trkpt><trkpt lat="42.33395911407367" lon="12.97633303865933"><ele>419.0</ele><time>2026-04-19T14:14:47Z</time></trkpt><trkpt lat="42.33405490368876" lon="12.976422183119034"><ele>419.0</ele><time>2026-04-19T14:14:49Z</time></trkpt><trkpt lat="42.33412303772093" lon="12.976484551815767"><ele>419.0</ele><time>2026-04-19T14:14:50Z</time></trkpt><trkpt lat="42.334205544885016" lon="12.97656751611061"><ele>419.0</ele><time>2026-04-19T14:14:51Z</time></trkpt><trkpt lat="42.334293549770734" lon="12.976660123885408"><ele>419.0</ele><time>2026-04-19T14:14:52Z</time></trkpt><trkpt lat="42.33439197281378" lon="12.976762121728271"><ele>419.0</ele><time>2026-04-19T14:14:53Z</time></trkpt><trkpt lat="42.334493890564254" lon="12.976882916912723"><ele>419.25</ele><time>2026-04-19T14:14:54Z</time></trkpt><trkpt lat="42.33459298007837" lon="12.977023449776949"><ele>419.5</ele><time>2026-04-19T14:14:55Z</time></trkpt><trkpt lat="42.33465851807106" lon="12.977165178923803"><ele>419.75</ele><time>2026-04-19T14:14:56Z</time></trkpt><trkpt lat="42.33469535685047" lon="12.97726332801385"><ele>420.0</ele><time>2026-04-19T14:14:57Z</time></trkpt><trkpt lat="42.33471442397961" lon="12.97742713274689"><ele>420.4</ele><time>2026-04-19T14:14:59Z</time></trkpt><trkpt lat="42.334716257478426" lon="12.977573971607542"><ele>420.8</ele><time>2026-04-19T14:15:01Z</time></trkpt><trkpt lat="42.33468917131546" lon="12.977687158153685"><ele>421.20000000000005</ele><time>2026-04-19T14:15:04Z</time></trkpt><trkpt lat="42.33465753295611" lon="12.977798331259013"><ele>421.6</ele><time>2026-04-19T14:15:07Z</time></trkpt><trkpt lat="42.33456796145306" lon="12.977923788971836"><ele>422.0</ele><time>2026-04-19T14:15:09Z</time></trkpt><trkpt lat="42.33449615106549" lon="12.977964123059765"><ele>422.0</ele><time>2026-04-19T14:15:10Z</time></trkpt><trkpt lat="42.33441340868744" lon="12.977987580285514"><ele>422.0</ele><time>2026-04-19T14:15:11Z</time></trkpt><trkpt lat="42.334324148537554" lon="12.977993165327415"><ele>422.0</ele><time>2026-04-19T14:15:12Z</time></trkpt><trkpt lat="42.3342368187824" lon="12.977969220961905"><ele>422.0</ele><time>2026-04-19T14:15:13Z</time></trkpt><trkpt lat="42.33415648281311" lon="12.977907835985397"><ele>422.0</ele><time>2026-04-19T14:15:14Z</time></trkpt><trkpt lat="42.33409088302027" lon="12.977815170578554"><ele>422.0</ele><time>2026-04-19T14:15:15Z</time></trkpt><trkpt lat="42.33404973613824" lon="12.977698367453229"><ele>422.0</ele><time>2026-04-19T14:15:16Z</time></trkpt><trkpt lat="42.334030141627466" lon="12.977566997515375"><ele>422.0</ele><time>2026-04-19T14:15:17Z</time></trkpt><trkpt lat="42.3340395175737" lon="12.977433017242651"><ele>422.0</ele><time>2026-04-19T14:15:18Z</time></trkpt><trkpt lat="42.33407707523679" lon="12.9772949131937"><ele>422.0</ele><time>2026-04-19T14:15:19Z</time></trkpt><trkpt lat="42.33413308382212" lon="12.97716662983161"><ele>421.5</ele><time>2026-04-19T14:15:20Z</time></trkpt><trkpt lat="42.33416327387729" lon="12.977006681447003"><ele>421.0</ele><time>2026-04-19T14:15:21Z</time></trkpt><trkpt lat="42.33428376311292" lon="12.976877996317537"><ele>420.5</ele><time>2026-04-19T14:15:22Z</time></trkpt><trkpt lat="42.33435716012385" lon="12.976737707453173"><ele>420.0</ele><time>2026-04-19T14:15:23Z</time></trkpt><trkpt lat="42.33441665295086" lon="12.976618471037385"><ele>419.8333333333333</ele><time>2026-04-19T14:15:24Z</time></trkpt><trkpt lat="42.33447103470366" lon="12.976506967897063"><ele>419.66666666666663</ele><time>2026-04-19T14:15:25Z</time></trkpt><trkpt lat="42.33451902438448" lon="12.976415786199277"><ele>419.5</ele><time>2026-04-19T14:15:26Z</time></trkpt><trkpt lat="42.33455827557949" lon="12.976345193079982"><ele>419.3333333333333</ele><time>2026-04-19T14:15:27Z</time></trkpt><trkpt lat="42.33461978117677" lon="12.976235600828053"><ele>419.16666666666663</ele><time>2026-04-19T14:15:29Z</time></trkpt><trkpt lat="42.33465775490145" lon="12.976159740533861"><ele>419.0</ele><time>2026-04-19T14:15:30Z</time></trkpt><trkpt lat="42.33469112285986" lon="12.97608461004197"><ele>419.5</ele><time>2026-04-19T14:15:31Z</time></trkpt><trkpt lat="42.33473008940636" lon="12.975990572164147"><ele>420.0</ele><time>2026-04-19T14:15:32Z</time></trkpt><trkpt lat="42.3347845810072" lon="12.975863014625386"><ele>420.5</ele><time>2026-04-19T14:15:33Z</time></trkpt><trkpt lat="42.33485144975708" lon="12.975724424437292"><ele>421.0</ele><time>2026-04-19T14:15:34Z</time></trkpt><trkpt lat="42.33493845514939" lon="12.975552848866274"><ele>421.0</ele><time>2026-04-19T14:15:35Z</time></trkpt><trkpt lat="42.335037029746765" lon="12.975368414322654"><ele>421.0</ele><time>2026-04-19T14:15:36Z</time></trkpt><trkpt lat="42.33513589029021" lon="12.975184585442392"><ele>421.0</ele><time>2026-04-19T14:15:37Z</time></trkpt><trkpt lat="42.335241308077066" lon="12.974993099202592"><ele>420.33333333333337</ele><time>2026-04-19T14:15:38Z</time></trkpt><trkpt lat="42.3353633966092" lon="12.97478485160579"><ele>419.66666666666663</ele><time>2026-04-19T14:15:39Z</time></trkpt><trkpt lat="42.33550929554101" lon="12.974553410706664"><ele>419.0</ele><time>2026-04-19T14:15:40Z</time></trkpt><trkpt lat="42.335667007810095" lon="12.974335091202626"><ele>420.5</ele><time>2026-04-19T14:15:41Z</time></trkpt><trkpt lat="42.335851449447084" lon="12.97411926361653"><ele>422.0</ele><time>2026-04-19T14:15:42Z</time></trkpt><trkpt lat="42.336062998090355" lon="12.97391408988793"><ele>422.0</ele><time>2026-04-19T14:15:43Z</time></trkpt><trkpt lat="42.33629715609079" lon="12.973728065340715"><ele>422.0</ele><time>2026-04-19T14:15:44Z</time></trkpt><trkpt lat="42.336540424992165" lon="12.973563733463594"><ele>421.5</ele><time>2026-04-19T14:15:45Z</time></trkpt><trkpt lat="42.33678396227323" lon="12.973420484060432"><ele>421.0</ele><time>2026-04-19T14:15:46Z</time></trkpt><trkpt lat="42.337034046982225" lon="12.973282924044439"><ele>421.5</ele><time>2026-04-19T14:15:47Z</time></trkpt><trkpt lat="42.337290558931926" lon="12.973142419874335"><ele>422.0</ele><time>2026-04-19T14:15:48Z</time></trkpt><trkpt lat="42.33755207878355" lon="12.972994387027004"><ele>422.0</ele><time>2026-04-19T14:15:49Z</time></trkpt><trkpt lat="42.33782143590983" lon="12.972842228081108"><ele>422.0</ele><time>2026-04-19T14:15:50Z</time></trkpt><trkpt lat="42.33809951196482" lon="12.972681919627806"><ele>420.5</ele><time>2026-04-19T14:15:51Z</time></trkpt><trkpt lat="42.338381718044104" lon="12.972516900513044"><ele>419.0</ele><time>2026-04-19T14:15:52Z</time></trkpt><trkpt lat="42.33866769373309" lon="12.972343464006299"><ele>423.5</ele><time>2026-04-19T14:15:53Z</time></trkpt><trkpt lat="42.33896977648984" lon="12.972187708207693"><ele>428.0</ele><time>2026-04-19T14:15:54Z</time></trkpt><trkpt lat="42.339264676101706" lon="12.97202256074762"><ele>428.0</ele><time>2026-04-19T14:15:55Z</time></trkpt><trkpt lat="42.33954290897284" lon="12.971852471157908"><ele>428.0</ele><time>2026-04-19T14:15:56Z</time></trkpt><trkpt lat="42.33982699087647" lon="12.971701400250454"><ele>425.0</ele><time>2026-04-19T14:15:57Z</time></trkpt><trkpt lat="42.34008923241813" lon="12.971556956762132"><ele>422.0</ele><time>2026-04-19T14:15:58Z</time></trkpt><trkpt lat="42.34033851259372" lon="12.971416045342428"><ele>428.0</ele><time>2026-04-19T14:15:59Z</time></trkpt><trkpt lat="42.34058661677976" lon="12.97127936574763"><ele>434.0</ele><time>2026-04-19T14:16:00Z</time></trkpt><trkpt lat="42.340836310764615" lon="12.971144045327433"><ele>434.0</ele><time>2026-04-19T14:16:01Z</time></trkpt><trkpt lat="42.34106988113168" lon="12.971015452659207"><ele>434.0</ele><time>2026-04-19T14:16:02Z</time></trkpt><trkpt lat="42.34129236535227" lon="12.970889194053486"><ele>430.3333333333333</ele><time>2026-04-19T14:16:03Z</time></trkpt><trkpt lat="42.34150481329669" lon="12.970766155301805"><ele>426.66666666666663</ele><time>2026-04-19T14:16:04Z</time></trkpt><trkpt lat="42.341704610380205" lon="12.970653423293996"><ele>423.0</ele><time>2026-04-19T14:16:05Z</time></trkpt><trkpt lat="42.34189831843078" lon="12.970542794623539"><ele>423.0</ele><time>2026-04-19T14:16:06Z</time></trkpt><trkpt lat="42.342090225902275" lon="12.97042017851455"><ele>423.0</ele><time>2026-04-19T14:16:07Z</time></trkpt><trkpt lat="42.34227619766238" lon="12.970279280101883"><ele>423.0</ele><time>2026-04-19T14:16:08Z</time></trkpt><trkpt lat="42.342460745600455" lon="12.970121326566032"><ele>421.66666666666663</ele><time>2026-04-19T14:16:09Z</time></trkpt><trkpt lat="42.34265576255184" lon="12.969973781884915"><ele>420.3333333333333</ele><time>2026-04-19T14:16:10Z</time></trkpt><trkpt lat="42.34284166826933" lon="12.969822083016789"><ele>419.0</ele><time>2026-04-19T14:16:11Z</time></trkpt><trkpt lat="42.342971719928514" lon="12.969557644774445"><ele>419.3333333333333</ele><time>2026-04-19T14:16:12Z</time></trkpt><trkpt lat="42.34313146159573" lon="12.969373779103845"><ele>419.66666666666663</ele><time>2026-04-19T14:16:13Z</time></trkpt><trkpt lat="42.3432741487632" lon="12.969161058999797"><ele>420.0</ele><time>2026-04-19T14:16:14Z</time></trkpt><trkpt lat="42.34341182197889" lon="12.968942945143379"><ele>420.0</ele><time>2026-04-19T14:16:15Z</time></trkpt><trkpt lat="42.34354729190129" lon="12.968732882774331"><ele>420.0</ele><time>2026-04-19T14:16:16Z</time></trkpt><trkpt lat="42.34368727231034" lon="12.96852679762416"><ele>420.0</ele><time>2026-04-19T14:16:17Z</time></trkpt><trkpt lat="42.34382588762742" lon="12.968323395579041"><ele>424.0</ele><time>2026-04-19T14:16:18Z</time></trkpt><trkpt lat="42.34396552855294" lon="12.968122071191182"><ele>428.0</ele><time>2026-04-19T14:16:19Z</time></trkpt><trkpt lat="42.34411069133311" lon="12.967930621435793"><ele>432.0</ele><time>2026-04-19T14:16:20Z</time></trkpt><trkpt lat="42.344260431722894" lon="12.967744350294401"><ele>432.0</ele><time>2026-04-19T14:16:21Z</time></trkpt><trkpt lat="42.34441217480912" lon="12.967569460164267"><ele>432.0</ele><time>2026-04-19T14:16:22Z</time></trkpt><trkpt lat="42.344572174325464" lon="12.967412055933808"><ele>432.0</ele><time>2026-04-19T14:16:23Z</time></trkpt><trkpt lat="42.34473992961689" lon="12.967261628485005"><ele>431.66666666666663</ele><time>2026-04-19T14:16:24Z</time></trkpt><trkpt lat="42.344918974569225" lon="12.967095505731143"><ele>431.3333333333333</ele><time>2026-04-19T14:16:25Z</time></trkpt><trkpt lat="42.34510184737633" lon="12.966915824911712"><ele>431.0</ele><time>2026-04-19T14:16:26Z</time></trkpt><trkpt lat="42.34528742003992" lon="12.96673361724505"><ele>425.0</ele><time>2026-04-19T14:16:27Z</time></trkpt><trkpt lat="42.34546583291035" lon="12.96655829866426"><ele>419.0</ele><time>2026-04-19T14:16:28Z</time></trkpt><trkpt lat="42.34565451418962" lon="12.966372227726337"><ele>419.0</ele><time>2026-04-19T14:16:29Z</time></trkpt><trkpt lat="42.34584631390081" lon="12.96618603099079"><ele>419.0</ele><time>2026-04-19T14:16:30Z</time></trkpt><trkpt lat="42.34603197345616" lon="12.966004326888127"><ele>417.5</ele><time>2026-04-19T14:16:31Z</time></trkpt><trkpt lat="42.34620939508299" lon="12.9658231875476"><ele>416.0</ele><time>2026-04-19T14:16:32Z</time></trkpt><trkpt lat="42.34639197100331" lon="12.965638605894059"><ele>415.0</ele><time>2026-04-19T14:16:33Z</time></trkpt><trkpt lat="42.34657896639668" lon="12.965452710473379"><ele>414.0</ele><time>2026-04-19T14:16:34Z</time></trkpt><trkpt lat="42.34676676177073" lon="12.965268541448946"><ele>414.0</ele><time>2026-04-19T14:16:35Z</time></trkpt><trkpt lat="42.346951713788435" lon="12.96508602961682"><ele>414.0</ele><time>2026-04-19T14:16:36Z</time></trkpt><trkpt lat="42.34713727756083" lon="12.96490724148697"><ele>413.66666666666663</ele><time>2026-04-19T14:16:37Z</time></trkpt><trkpt lat="42.34731780503545" lon="12.964732394321944"><ele>413.3333333333333</ele><time>2026-04-19T14:16:38Z</time></trkpt><trkpt lat="42.34749848472084" lon="12.96455094503874"><ele>413.0</ele><time>2026-04-19T14:16:39Z</time></trkpt><trkpt lat="42.34769407621684" lon="12.964349657197593"><ele>412.5</ele><time>2026-04-19T14:16:40Z</time></trkpt><trkpt lat="42.347899045877035" lon="12.964147301757526"><ele>412.0</ele><time>2026-04-19T14:16:41Z</time></trkpt><trkpt lat="42.34810039818962" lon="12.963963149627833"><ele>412.0</ele><time>2026-04-19T14:16:42Z</time></trkpt><trkpt lat="42.34828690163845" lon="12.963792235233187"><ele>412.0</ele><time>2026-04-19T14:16:43Z</time></trkpt><trkpt lat="42.348464263129735" lon="12.963625042430552"><ele>412.0</ele><time>2026-04-19T14:16:44Z</time></trkpt><trkpt lat="42.34863448121296" lon="12.963460166403523"><ele>412.0</ele><time>2026-04-19T14:16:45Z</time></trkpt><trkpt lat="42.348795191990384" lon="12.963304738958227"><ele>412.0</ele><time>2026-04-19T14:16:46Z</time></trkpt><trkpt lat="42.34894530855173" lon="12.963158598644199"><ele>412.0</ele><time>2026-04-19T14:16:47Z</time></trkpt><trkpt lat="42.34908527488362" lon="12.96302712843469"><ele>412.0</ele><time>2026-04-19T14:16:48Z</time></trkpt><trkpt lat="42.34922944166721" lon="12.962890449488974"><ele>412.0</ele><time>2026-04-19T14:16:49Z</time></trkpt><trkpt lat="42.349370457265714" lon="12.962754202277807"><ele>412.0</ele><time>2026-04-19T14:16:50Z</time></trkpt><trkpt lat="42.349509632749324" lon="12.962618255943557"><ele>412.0</ele><time>2026-04-19T14:16:51Z</time></trkpt><trkpt lat="42.34965779164103" lon="12.962473368947311"><ele>412.0</ele><time>2026-04-19T14:16:52Z</time></trkpt><trkpt lat="42.3498060300727" lon="12.962328426161596"><ele>412.0</ele><time>2026-04-19T14:16:53Z</time></trkpt><trkpt lat="42.34995009057885" lon="12.962186175832658"><ele>412.0</ele><time>2026-04-19T14:16:54Z</time></trkpt><trkpt lat="42.35008835763626" lon="12.962042210706697"><ele>412.0</ele><time>2026-04-19T14:16:55Z</time></trkpt><trkpt lat="42.350217236608835" lon="12.961891213726"><ele>412.0</ele><time>2026-04-19T14:16:56Z</time></trkpt><trkpt lat="42.35032769513468" lon="12.96173955251685"><ele>412.0</ele><time>2026-04-19T14:16:57Z</time></trkpt><trkpt lat="42.35043211117935" lon="12.961586633488084"><ele>412.0</ele><time>2026-04-19T14:16:58Z</time></trkpt><trkpt lat="42.35052601741444" lon="12.961435037559212"><ele>412.0</ele><time>2026-04-19T14:16:59Z</time></trkpt><trkpt lat="42.35061811018948" lon="12.961280974317578"><ele>412.0</ele><time>2026-04-19T14:17:00Z</time></trkpt><trkpt lat="42.350709468327835" lon="12.96112156907407"><ele>412.0</ele><time>2026-04-19T14:17:01Z</time></trkpt><trkpt lat="42.350801163686604" lon="12.960949750565666"><ele>412.0</ele><time>2026-04-19T14:17:02Z</time></trkpt><trkpt lat="42.350891547796145" lon="12.960765330951904"><ele>412.0</ele><time>2026-04-19T14:17:03Z</time></trkpt><trkpt lat="42.35097499738781" lon="12.960572128575551"><ele>415.6666666666667</ele><time>2026-04-19T14:17:04Z</time></trkpt><trkpt lat="42.35104753106685" lon="12.960374954576334"><ele>419.33333333333337</ele><time>2026-04-19T14:17:04.999Z</time></trkpt><trkpt lat="42.351112225836" lon="12.960177699822353"><ele>423.0</ele><time>2026-04-19T14:17:05.999Z</time></trkpt><trkpt lat="42.35117252348119" lon="12.959978078659631"><ele>429.33333333333337</ele><time>2026-04-19T14:17:06.999Z</time></trkpt><trkpt lat="42.35123029026198" lon="12.959779562903115"><ele>435.6666666666667</ele><time>2026-04-19T14:17:07.999Z</time></trkpt><trkpt lat="42.35128699292331" lon="12.959579196176977"><ele>442.0</ele><time>2026-04-19T14:17:08.999Z</time></trkpt><trkpt lat="42.351340162381035" lon="12.959376012646121"><ele>433.6666666666667</ele><time>2026-04-19T14:17:09.999Z</time></trkpt><trkpt lat="42.35139211812348" lon="12.95917198919158"><ele>425.33333333333337</ele><time>2026-04-19T14:17:10.999Z</time></trkpt><trkpt lat="42.351444678940865" lon="12.958967153395548"><ele>417.0</ele><time>2026-04-19T14:17:11.999Z</time></trkpt><trkpt lat="42.351497342070495" lon="12.95875674535755"><ele>417.0</ele><time>2026-04-19T14:17:12.999Z</time></trkpt><trkpt lat="42.351549777540384" lon="12.958553081940146"><ele>417.0</ele><time>2026-04-19T14:17:13.999Z</time></trkpt><trkpt lat="42.351598557021504" lon="12.958350604658252"><ele>417.0</ele><time>2026-04-19T14:17:14.999Z</time></trkpt><trkpt lat="42.35164997692815" lon="12.958147985463278"><ele>419.33333333333337</ele><time>2026-04-19T14:17:15.999Z</time></trkpt><trkpt lat="42.35170435053081" lon="12.957936727140307"><ele>421.6666666666667</ele><time>2026-04-19T14:17:16.999Z</time></trkpt><trkpt lat="42.35176082668081" lon="12.957716746139562"><ele>424.0</ele><time>2026-04-19T14:17:17.999Z</time></trkpt><trkpt lat="42.351819367981214" lon="12.957483922547178"><ele>430.0</ele><time>2026-04-19T14:17:18.999Z</time></trkpt><trkpt lat="42.35188314929869" lon="12.95723735711809"><ele>436.0</ele><time>2026-04-19T14:17:19.999Z</time></trkpt><trkpt lat="42.351949189619084" lon="12.95698880274791"><ele>442.0</ele><time>2026-04-19T14:17:21Z</time></trkpt><trkpt lat="42.35201691381423" lon="12.956728721692079"><ele>447.33333333333337</ele><time>2026-04-19T14:17:22Z</time></trkpt><trkpt lat="42.35208508582441" lon="12.956462744807883"><ele>452.66666666666663</ele><time>2026-04-19T14:17:23Z</time></trkpt><trkpt lat="42.35214730616634" lon="12.956189241318622"><ele>458.0</ele><time>2026-04-19T14:17:24Z</time></trkpt><trkpt lat="42.35220668045875" lon="12.955904539479242"><ele>436.0</ele><time>2026-04-19T14:17:25Z</time></trkpt><trkpt lat="42.35226641976239" lon="12.955612774802168"><ele>414.0</ele><time>2026-04-19T14:17:26Z</time></trkpt><trkpt lat="42.35232514568137" lon="12.95531403315659"><ele>414.5</ele><time>2026-04-19T14:17:27Z</time></trkpt><trkpt lat="42.352378782612966" lon="12.955018678735078"><ele>415.0</ele><time>2026-04-19T14:17:28Z</time></trkpt><trkpt lat="42.35242538368099" lon="12.954720671043578"><ele>415.0</ele><time>2026-04-19T14:17:29Z</time></trkpt><trkpt lat="42.35246755890655" lon="12.954423026040825"><ele>415.0</ele><time>2026-04-19T14:17:30Z</time></trkpt><trkpt lat="42.35250159049779" lon="12.954127625890878"><ele>415.0</ele><time>2026-04-19T14:17:31Z</time></trkpt><trkpt lat="42.352530005641626" lon="12.953830388336655"><ele>416.5</ele><time>2026-04-19T14:17:32Z</time></trkpt><trkpt lat="42.35255500716868" lon="12.95352904740543"><ele>418.0</ele><time>2026-04-19T14:17:33Z</time></trkpt><trkpt lat="42.352577364100995" lon="12.953220590615581"><ele>419.0</ele><time>2026-04-19T14:17:34Z</time></trkpt><trkpt lat="42.35259854257832" lon="12.952911450668466"><ele>420.0</ele><time>2026-04-19T14:17:35Z</time></trkpt><trkpt lat="42.352617018991864" lon="12.952593577737732"><ele>423.0</ele><time>2026-04-19T14:17:36Z</time></trkpt><trkpt lat="42.3526345129872" lon="12.952272721885892"><ele>426.0</ele><time>2026-04-19T14:17:37Z</time></trkpt><trkpt lat="42.352651455485" lon="12.951951305151724"><ele>428.0</ele><time>2026-04-19T14:17:38Z</time></trkpt><trkpt lat="42.352667683861625" lon="12.951627926316448"><ele>430.0</ele><time>2026-04-19T14:17:39Z</time></trkpt><trkpt lat="42.35268417680378" lon="12.951303082873434"><ele>430.0</ele><time>2026-04-19T14:17:40Z</time></trkpt><trkpt lat="42.35270266524969" lon="12.950980998422551"><ele>430.0</ele><time>2026-04-19T14:17:41Z</time></trkpt><trkpt lat="42.352722586418864" lon="12.950659079461992"><ele>428.5</ele><time>2026-04-19T14:17:42Z</time></trkpt><trkpt lat="42.35274373400481" lon="12.950340420209278"><ele>427.0</ele><time>2026-04-19T14:17:43Z</time></trkpt><trkpt lat="42.352766648934285" lon="12.950023414348657"><ele>426.6666666666667</ele><time>2026-04-19T14:17:44Z</time></trkpt><trkpt lat="42.35279022145922" lon="12.949718140087867"><ele>426.33333333333337</ele><time>2026-04-19T14:17:45Z</time></trkpt><trkpt lat="42.352815875121905" lon="12.94942182906404"><ele>426.0</ele><time>2026-04-19T14:17:46Z</time></trkpt><trkpt lat="42.35284371354765" lon="12.949126812808426"><ele>426.0</ele><time>2026-04-19T14:17:47Z</time></trkpt><trkpt lat="42.35287586106636" lon="12.948840750898794"><ele>426.0</ele><time>2026-04-19T14:17:48Z</time></trkpt><trkpt lat="42.352913894467655" lon="12.948552158791493"><ele>426.0</ele><time>2026-04-19T14:17:49Z</time></trkpt><trkpt lat="42.35295619445652" lon="12.948261489130187"><ele>426.66666666666663</ele><time>2026-04-19T14:17:50Z</time></trkpt><trkpt lat="42.35300062862663" lon="12.947960801147435"><ele>427.3333333333333</ele><time>2026-04-19T14:17:51Z</time></trkpt><trkpt lat="42.3530358014386" lon="12.947676060043564"><ele>428.0</ele><time>2026-04-19T14:17:52Z</time></trkpt><trkpt lat="42.35309203765626" lon="12.9473606162987"><ele>421.0</ele><time>2026-04-19T14:17:53Z</time></trkpt><trkpt lat="42.3531443996635" lon="12.947014768433414"><ele>414.0</ele><time>2026-04-19T14:17:54Z</time></trkpt><trkpt lat="42.35320904875639" lon="12.946693437973805"><ele>414.0</ele><time>2026-04-19T14:17:55Z</time></trkpt><trkpt lat="42.35327638232935" lon="12.946369707043454"><ele>414.0</ele><time>2026-04-19T14:17:56Z</time></trkpt><trkpt lat="42.353344880685704" lon="12.94605265485803"><ele>413.0</ele><time>2026-04-19T14:17:57Z</time></trkpt><trkpt lat="42.35341550767323" lon="12.945738781671842"><ele>412.0</ele><time>2026-04-19T14:17:58Z</time></trkpt><trkpt lat="42.35348564964749" lon="12.945424195615288"><ele>412.0</ele><time>2026-04-19T14:17:59Z</time></trkpt><trkpt lat="42.353554532171415" lon="12.945118545249787"><ele>412.0</ele><time>2026-04-19T14:18:00Z</time></trkpt><trkpt lat="42.35361518538196" lon="12.944813764004135"><ele>415.5</ele><time>2026-04-19T14:18:01Z</time></trkpt><trkpt lat="42.35367507862712" lon="12.944508857828845"><ele>419.0</ele><time>2026-04-19T14:18:02Z</time></trkpt><trkpt lat="42.353728620558236" lon="12.944208275802675"><ele>427.0</ele><time>2026-04-19T14:18:03Z</time></trkpt><trkpt lat="42.35377588193642" lon="12.94390803102488"><ele>435.0</ele><time>2026-04-19T14:18:04Z</time></trkpt><trkpt lat="42.35381342342186" lon="12.943600488869741"><ele>443.0</ele><time>2026-04-19T14:18:05Z</time></trkpt><trkpt lat="42.35384398238119" lon="12.943286418929452"><ele>451.0</ele><time>2026-04-19T14:18:06Z</time></trkpt><trkpt lat="42.35386938392032" lon="12.942969578074385"><ele>429.5</ele><time>2026-04-19T14:18:07Z</time></trkpt><trkpt lat="42.353889147640245" lon="12.942644372608358"><ele>408.0</ele><time>2026-04-19T14:18:08Z</time></trkpt><trkpt lat="42.353909707283776" lon="12.942320038843414"><ele>408.0</ele><time>2026-04-19T14:18:09Z</time></trkpt><trkpt lat="42.3539297211627" lon="12.941995170855579"><ele>408.0</ele><time>2026-04-19T14:18:10Z</time></trkpt><trkpt lat="42.35395113115391" lon="12.941660722997275"><ele>408.5</ele><time>2026-04-19T14:18:11Z</time></trkpt><trkpt lat="42.353981016182345" lon="12.941331298919764"><ele>409.0</ele><time>2026-04-19T14:18:12Z</time></trkpt><trkpt lat="42.35402230613381" lon="12.941001661185844"><ele>408.5</ele><time>2026-04-19T14:18:13Z</time></trkpt><trkpt lat="42.35407460317907" lon="12.940672629383402"><ele>408.0</ele><time>2026-04-19T14:18:14Z</time></trkpt><trkpt lat="42.354144479616586" lon="12.940347121040633"><ele>408.5</ele><time>2026-04-19T14:18:15Z</time></trkpt><trkpt lat="42.354224863108115" lon="12.940027224446057"><ele>409.0</ele><time>2026-04-19T14:18:16Z</time></trkpt><trkpt lat="42.354321648456335" lon="12.939713996173808"><ele>409.0</ele><time>2026-04-19T14:18:17Z</time></trkpt><trkpt lat="42.35443905749242" lon="12.939406392707287"><ele>409.0</ele><time>2026-04-19T14:18:18Z</time></trkpt><trkpt lat="42.354575010243096" lon="12.939105974426486"><ele>407.0</ele><time>2026-04-19T14:18:19Z</time></trkpt><trkpt lat="42.35472296288191" lon="12.93881593446815"><ele>405.0</ele><time>2026-04-19T14:18:20Z</time></trkpt><trkpt lat="42.354894077269364" lon="12.938536261847146"><ele>406.0</ele><time>2026-04-19T14:18:21Z</time></trkpt><trkpt lat="42.3550871308659" lon="12.938255343516069"><ele>407.0</ele><time>2026-04-19T14:18:22Z</time></trkpt><trkpt lat="42.355311682676074" lon="12.937983675948406"><ele>405.0</ele><time>2026-04-19T14:18:23Z</time></trkpt><trkpt lat="42.355559862351456" lon="12.937718744114749"><ele>403.0</ele><time>2026-04-19T14:18:24Z</time></trkpt><trkpt lat="42.355811148989794" lon="12.937468975410216"><ele>403.0</ele><time>2026-04-19T14:18:25Z</time></trkpt><trkpt lat="42.35604128333483" lon="12.937269080343441"><ele>403.0</ele><time>2026-04-19T14:18:26Z</time></trkpt><trkpt lat="42.35625400988158" lon="12.937080570498518"><ele>402.5</ele><time>2026-04-19T14:18:27Z</time></trkpt><trkpt lat="42.356460185765" lon="12.936880081886374"><ele>402.0</ele><time>2026-04-19T14:18:28Z</time></trkpt><trkpt lat="42.356674188537035" lon="12.93665336919633"><ele>402.0</ele><time>2026-04-19T14:18:29Z</time></trkpt><trkpt lat="42.356890103228" lon="12.93639378820073"><ele>402.0</ele><time>2026-04-19T14:18:30Z</time></trkpt><trkpt lat="42.3571136808447" lon="12.936088850116914"><ele>404.5</ele><time>2026-04-19T14:18:31Z</time></trkpt><trkpt lat="42.35732815769695" lon="12.935746788996891"><ele>407.0</ele><time>2026-04-19T14:18:32Z</time></trkpt><trkpt lat="42.357518056186" lon="12.935416007021818"><ele>407.0</ele><time>2026-04-19T14:18:33Z</time></trkpt><trkpt lat="42.35768228090351" lon="12.935093074458683"><ele>407.0</ele><time>2026-04-19T14:18:34Z</time></trkpt><trkpt lat="42.35782591362554" lon="12.934751408376211"><ele>404.0</ele><time>2026-04-19T14:18:35Z</time></trkpt><trkpt lat="42.357960889691824" lon="12.934380343561031"><ele>401.0</ele><time>2026-04-19T14:18:36Z</time></trkpt><trkpt lat="42.358084627428696" lon="12.933984372915637"><ele>407.5</ele><time>2026-04-19T14:18:37Z</time></trkpt><trkpt lat="42.358197110110915" lon="12.933568647542188"><ele>414.0</ele><time>2026-04-19T14:18:38Z</time></trkpt><trkpt lat="42.3582816527745" lon="12.933168876394067"><ele>414.0</ele><time>2026-04-19T14:18:39Z</time></trkpt><trkpt lat="42.35834506068184" lon="12.932813048639018"><ele>414.0</ele><time>2026-04-19T14:18:40Z</time></trkpt><trkpt lat="42.358396444441404" lon="12.93249507954504"><ele>407.5</ele><time>2026-04-19T14:18:41Z</time></trkpt><trkpt lat="42.35844454671311" lon="12.932192783332171"><ele>401.0</ele><time>2026-04-19T14:18:42Z</time></trkpt><trkpt lat="42.35849341587085" lon="12.93188653731332"><ele>401.5</ele><time>2026-04-19T14:18:43Z</time></trkpt><trkpt lat="42.35855238438454" lon="12.931571522230717"><ele>402.0</ele><time>2026-04-19T14:18:44Z</time></trkpt><trkpt lat="42.358617139766935" lon="12.931270374269122"><ele>402.0</ele><time>2026-04-19T14:18:45Z</time></trkpt><trkpt lat="42.35869101373632" lon="12.930992778526216"><ele>402.0</ele><time>2026-04-19T14:18:46Z</time></trkpt><trkpt lat="42.35877865438768" lon="12.930708929398694"><ele>402.0</ele><time>2026-04-19T14:18:47Z</time></trkpt><trkpt lat="42.35887996965989" lon="12.930439179342484"><ele>404.5</ele><time>2026-04-19T14:18:48Z</time></trkpt><trkpt lat="42.35900106234396" lon="12.93017725831173"><ele>407.0</ele><time>2026-04-19T14:18:49Z</time></trkpt><trkpt lat="42.35913949003984" lon="12.929917619409801"><ele>407.0</ele><time>2026-04-19T14:18:50Z</time></trkpt><trkpt lat="42.35929530736556" lon="12.929662969650975"><ele>407.0</ele><time>2026-04-19T14:18:51Z</time></trkpt><trkpt lat="42.359459076808086" lon="12.92943394745082"><ele>407.0</ele><time>2026-04-19T14:18:52Z</time></trkpt><trkpt lat="42.35963484249992" lon="12.929227447099327"><ele>407.0</ele><time>2026-04-19T14:18:53Z</time></trkpt><trkpt lat="42.35982570168344" lon="12.929039983269478"><ele>407.0</ele><time>2026-04-19T14:18:54Z</time></trkpt><trkpt lat="42.36003182180941" lon="12.928868055915766"><ele>407.0</ele><time>2026-04-19T14:18:55Z</time></trkpt><trkpt lat="42.36025007629909" lon="12.92871666632562"><ele>407.0</ele><time>2026-04-19T14:18:56Z</time></trkpt><trkpt lat="42.360482756323215" lon="12.928584408533046"><ele>407.0</ele><time>2026-04-19T14:18:57Z</time></trkpt><trkpt lat="42.36071561203771" lon="12.928482150016329"><ele>406.5</ele><time>2026-04-19T14:18:58Z</time></trkpt><trkpt lat="42.36094058226461" lon="12.928406147497634"><ele>406.0</ele><time>2026-04-19T14:18:59Z</time></trkpt><trkpt lat="42.36116654980867" lon="12.928351708948268"><ele>405.6666666666667</ele><time>2026-04-19T14:19:00Z</time></trkpt><trkpt lat="42.361387989707666" lon="12.928316589749649"><ele>405.33333333333337</ele><time>2026-04-19T14:19:01Z</time></trkpt><trkpt lat="42.36159886090044" lon="12.928285269783098"><ele>405.0</ele><time>2026-04-19T14:19:02Z</time></trkpt><trkpt lat="42.361813423125874" lon="12.928249157742439"><ele>405.0</ele><time>2026-04-19T14:19:03Z</time></trkpt><trkpt lat="42.36202396511186" lon="12.92820121901143"><ele>405.0</ele><time>2026-04-19T14:19:04Z</time></trkpt><trkpt lat="42.36223670328631" lon="12.928145677390198"><ele>405.0</ele><time>2026-04-19T14:19:05Z</time></trkpt><trkpt lat="42.362441354958435" lon="12.928071900487204"><ele>405.33333333333337</ele><time>2026-04-19T14:19:06Z</time></trkpt><trkpt lat="42.36264273441868" lon="12.927989214506836"><ele>405.6666666666667</ele><time>2026-04-19T14:19:07Z</time></trkpt><trkpt lat="42.36283792049361" lon="12.927887022382722"><ele>406.0</ele><time>2026-04-19T14:19:08Z</time></trkpt><trkpt lat="42.363027667646996" lon="12.927772294882024"><ele>405.0</ele><time>2026-04-19T14:19:09Z</time></trkpt><trkpt lat="42.363216867631984" lon="12.927647529487304"><ele>404.0</ele><time>2026-04-19T14:19:10Z</time></trkpt><trkpt lat="42.363406776638925" lon="12.927496642516864"><ele>403.0</ele><time>2026-04-19T14:19:10.999Z</time></trkpt><trkpt lat="42.36358827520395" lon="12.927329153056629"><ele>403.0</ele><time>2026-04-19T14:19:11.999Z</time></trkpt><trkpt lat="42.36375233236814" lon="12.927153228646464"><ele>403.0</ele><time>2026-04-19T14:19:12.999Z</time></trkpt><trkpt lat="42.36390414656038" lon="12.926991869754897"><ele>403.0</ele><time>2026-04-19T14:19:13.999Z</time></trkpt><trkpt lat="42.364054397398796" lon="12.926832232928971"><ele>403.0</ele><time>2026-04-19T14:19:14.999Z</time></trkpt><trkpt lat="42.36420791512771" lon="12.926678657830085"><ele>403.0</ele><time>2026-04-19T14:19:15.999Z</time></trkpt><trkpt lat="42.36436426841794" lon="12.9265341642883"><ele>403.0</ele><time>2026-04-19T14:19:16.999Z</time></trkpt><trkpt lat="42.364528673267735" lon="12.926401152892355"><ele>407.6666666666667</ele><time>2026-04-19T14:19:17.999Z</time></trkpt><trkpt lat="42.36469796279564" lon="12.926276763765626"><ele>412.33333333333337</ele><time>2026-04-19T14:19:18.999Z</time></trkpt><trkpt lat="42.36487527724446" lon="12.926166991047735"><ele>417.0</ele><time>2026-04-19T14:19:19.999Z</time></trkpt><trkpt lat="42.36506170841976" lon="12.926067410952465"><ele>417.0</ele><time>2026-04-19T14:19:20.999Z</time></trkpt><trkpt lat="42.365254592036564" lon="12.925979955361115"><ele>417.0</ele><time>2026-04-19T14:19:21.999Z</time></trkpt><trkpt lat="42.365451660259" lon="12.925917998886824"><ele>417.0</ele><time>2026-04-19T14:19:22.999Z</time></trkpt><trkpt lat="42.36563966809802" lon="12.925877617706028"><ele>412.66666666666663</ele><time>2026-04-19T14:19:23.999Z</time></trkpt><trkpt lat="42.36582905429609" lon="12.925869959075621"><ele>408.3333333333333</ele><time>2026-04-19T14:19:24.999Z</time></trkpt><trkpt lat="42.36601568313948" lon="12.92590100635822"><ele>404.0</ele><time>2026-04-19T14:19:25.999Z</time></trkpt><trkpt lat="42.366199252947794" lon="12.925963397637817"><ele>414.66666666666663</ele><time>2026-04-19T14:19:26.999Z</time></trkpt><trkpt lat="42.366396844161784" lon="12.926068486851712"><ele>425.33333333333337</ele><time>2026-04-19T14:19:27.999Z</time></trkpt><trkpt lat="42.36657504148237" lon="12.92612165012908"><ele>436.0</ele><time>2026-04-19T14:19:28.999Z</time></trkpt><trkpt lat="42.36674443738998" lon="12.926144362453773"><ele>436.0</ele><time>2026-04-19T14:19:29.999Z</time></trkpt><trkpt lat="42.36690937380502" lon="12.92614763222648"><ele>436.0</ele><time>2026-04-19T14:19:30.999Z</time></trkpt><trkpt lat="42.36706636220221" lon="12.926134368382831"><ele>436.0</ele><time>2026-04-19T14:19:31.999Z</time></trkpt><trkpt lat="42.36722043304817" lon="12.926109603027927"><ele>445.6666666666667</ele><time>2026-04-19T14:19:32.999Z</time></trkpt><trkpt lat="42.36737119831769" lon="12.926073662979425"><ele>455.33333333333337</ele><time>2026-04-19T14:19:33.999Z</time></trkpt><trkpt lat="42.36751923064113" lon="12.926029286492522"><ele>465.0</ele><time>2026-04-19T14:19:34.999Z</time></trkpt><trkpt lat="42.367667339819064" lon="12.92601138163789"><ele>465.0</ele><time>2026-04-19T14:19:35.999Z</time></trkpt><trkpt lat="42.36780725696924" lon="12.925973267519504"><ele>465.0</ele><time>2026-04-19T14:19:36.999Z</time></trkpt><trkpt lat="42.36794423219017" lon="12.925936602181908"><ele>465.0</ele><time>2026-04-19T14:19:37.999Z</time></trkpt><trkpt lat="42.36808180602449" lon="12.9258952557249"><ele>465.0</ele><time>2026-04-19T14:19:38.999Z</time></trkpt><trkpt lat="42.36822778484075" lon="12.925836865722351"><ele>450.0</ele><time>2026-04-19T14:19:39.999Z</time></trkpt><trkpt lat="42.368379897522495" lon="12.92575819195743"><ele>435.0</ele><time>2026-04-19T14:19:40.999Z</time></trkpt><trkpt lat="42.36852957980752" lon="12.925653845539525"><ele>420.0</ele><time>2026-04-19T14:19:41.999Z</time></trkpt><trkpt lat="42.36867707841827" lon="12.925535296676655"><ele>420.0</ele><time>2026-04-19T14:19:42.999Z</time></trkpt><trkpt lat="42.368825372618666" lon="12.925410939799177"><ele>420.0</ele><time>2026-04-19T14:19:43.999Z</time></trkpt><trkpt lat="42.368976970564475" lon="12.925282511586936"><ele>420.0</ele><time>2026-04-19T14:19:44.999Z</time></trkpt><trkpt lat="42.36913003149258" lon="12.92514941177741"><ele>416.33333333333337</ele><time>2026-04-19T14:19:45.999Z</time></trkpt><trkpt lat="42.36928418011933" lon="12.92501536743093"><ele>412.6666666666667</ele><time>2026-04-19T14:19:46.999Z</time></trkpt><trkpt lat="42.36944191748551" lon="12.924878201160027"><ele>409.0</ele><time>2026-04-19T14:19:47.999Z</time></trkpt><trkpt lat="42.36960016839586" lon="12.924740588228637"><ele>422.0</ele><time>2026-04-19T14:19:48.999Z</time></trkpt><trkpt lat="42.36975796739312" lon="12.924603368228464"><ele>435.0</ele><time>2026-04-19T14:19:49.999Z</time></trkpt><trkpt lat="42.369915327242495" lon="12.924466430131284"><ele>448.0</ele><time>2026-04-19T14:19:50.999Z</time></trkpt><trkpt lat="42.37007419752902" lon="12.924329503618639"><ele>443.6666666666667</ele><time>2026-04-19T14:19:51.999Z</time></trkpt><trkpt lat="42.37023381432422" lon="12.924192389074308"><ele>439.33333333333337</ele><time>2026-04-19T14:19:52.999Z</time></trkpt><trkpt lat="42.37039602752132" lon="12.92405327473711"><ele>435.0</ele><time>2026-04-19T14:19:53.999Z</time></trkpt><trkpt lat="42.37055841408701" lon="12.92391416094796"><ele>435.0</ele><time>2026-04-19T14:19:54.999Z</time></trkpt><trkpt lat="42.37071850074686" lon="12.923776560081006"><ele>435.0</ele><time>2026-04-19T14:19:55.999Z</time></trkpt><trkpt lat="42.370880972813794" lon="12.92363583583202"><ele>435.0</ele><time>2026-04-19T14:19:56.999Z</time></trkpt><trkpt lat="42.37104341667339" lon="12.92349513642691"><ele>432.33333333333337</ele><time>2026-04-19T14:19:57.999Z</time></trkpt><trkpt lat="42.371208252668154" lon="12.923354942520858"><ele>429.6666666666667</ele><time>2026-04-19T14:19:58.999Z</time></trkpt><trkpt lat="42.37137104344659" lon="12.92321849647537"><ele>427.0</ele><time>2026-04-19T14:19:59.999Z</time></trkpt><trkpt lat="42.371535113844814" lon="12.923091709335159"><ele>427.0</ele><time>2026-04-19T14:20:00.999Z</time></trkpt><trkpt lat="42.37170377175551" lon="12.922970100649625"><ele>427.0</ele><time>2026-04-19T14:20:01.999Z</time></trkpt><trkpt lat="42.37187343180132" lon="12.922854809995016"><ele>427.0</ele><time>2026-04-19T14:20:02.999Z</time></trkpt><trkpt lat="42.37204573992604" lon="12.922744083114893"><ele>420.6666666666667</ele><time>2026-04-19T14:20:03.999Z</time></trkpt><trkpt lat="42.37220969131005" lon="12.922604102574992"><ele>414.33333333333337</ele><time>2026-04-19T14:20:04.999Z</time></trkpt><trkpt lat="42.372381723083265" lon="12.92249061543181"><ele>408.0</ele><time>2026-04-19T14:20:05.999Z</time></trkpt><trkpt lat="42.372537969375465" lon="12.922388946115303"><ele>408.0</ele><time>2026-04-19T14:20:06.999Z</time></trkpt><trkpt lat="42.37267467580222" lon="12.922296595198604"><ele>408.0</ele><time>2026-04-19T14:20:07.999Z</time></trkpt><trkpt lat="42.37279745647712" lon="12.922205189200156"><ele>408.0</ele><time>2026-04-19T14:20:08.999Z</time></trkpt><trkpt lat="42.37291055612734" lon="12.922100522194183"><ele>408.0</ele><time>2026-04-19T14:20:09.999Z</time></trkpt><trkpt lat="42.372993339250144" lon="12.92197802139387"><ele>405.75</ele><time>2026-04-19T14:20:10.999Z</time></trkpt><trkpt lat="42.373053249230814" lon="12.92182659440213"><ele>403.5</ele><time>2026-04-19T14:20:11.999Z</time></trkpt><trkpt lat="42.373098664113996" lon="12.921668637778824"><ele>401.25</ele><time>2026-04-19T14:20:12.999Z</time></trkpt><trkpt lat="42.373135498842494" lon="12.9215047412015"><ele>399.0</ele><time>2026-04-19T14:20:13.999Z</time></trkpt><trkpt lat="42.37316459387945" lon="12.921330952515278"><ele>399.0</ele><time>2026-04-19T14:20:14.999Z</time></trkpt><trkpt lat="42.373187535731475" lon="12.921135314175228"><ele>399.0</ele><time>2026-04-19T14:20:15.999Z</time></trkpt><trkpt lat="42.37321167420901" lon="12.920930889103818"><ele>399.0</ele><time>2026-04-19T14:20:16.999Z</time></trkpt><trkpt lat="42.37323921294562" lon="12.920713927908855"><ele>399.0</ele><time>2026-04-19T14:20:17.999Z</time></trkpt><trkpt lat="42.373269451204095" lon="12.920492858342307"><ele>399.0</ele><time>2026-04-19T14:20:18.999Z</time></trkpt><trkpt lat="42.373302603954826" lon="12.920263462092517"><ele>399.0</ele><time>2026-04-19T14:20:19.999Z</time></trkpt><trkpt lat="42.373335065289105" lon="12.920022499568548"><ele>400.0</ele><time>2026-04-19T14:20:20.999Z</time></trkpt><trkpt lat="42.373367732353046" lon="12.919777727805455"><ele>401.0</ele><time>2026-04-19T14:20:21.999Z</time></trkpt><trkpt lat="42.37339761202557" lon="12.91954466728119"><ele>402.0</ele><time>2026-04-19T14:20:22.999Z</time></trkpt><trkpt lat="42.37342569350952" lon="12.919336466483433"><ele>403.75</ele><time>2026-04-19T14:20:23.999Z</time></trkpt><trkpt lat="42.373451477311434" lon="12.919146177820107"><ele>405.5</ele><time>2026-04-19T14:20:24.999Z</time></trkpt><trkpt lat="42.373485852051786" lon="12.918968858501444"><ele>407.25</ele><time>2026-04-19T14:20:25.999Z</time></trkpt><trkpt lat="42.37354051476883" lon="12.918815173665827"><ele>409.0</ele><time>2026-04-19T14:20:26.999Z</time></trkpt><trkpt lat="42.37363345299165" lon="12.918701594101393"><ele>409.0</ele><time>2026-04-19T14:20:28Z</time></trkpt><trkpt lat="42.37373478250337" lon="12.918600078124458"><ele>409.0</ele><time>2026-04-19T14:20:29Z</time></trkpt><trkpt lat="42.373854029985225" lon="12.918503014840049"><ele>409.0</ele><time>2026-04-19T14:20:30Z</time></trkpt><trkpt lat="42.374006087246975" lon="12.918427885658451"><ele>409.0</ele><time>2026-04-19T14:20:31Z</time></trkpt><trkpt lat="42.37417274640293" lon="12.918341994026147"><ele>410.0</ele><time>2026-04-19T14:20:32Z</time></trkpt><trkpt lat="42.37435037413269" lon="12.918237242285796"><ele>411.0</ele><time>2026-04-19T14:20:33Z</time></trkpt><trkpt lat="42.37453700580435" lon="12.91812215011109"><ele>412.0</ele><time>2026-04-19T14:20:34Z</time></trkpt><trkpt lat="42.37472740508254" lon="12.91799888702301"><ele>412.0</ele><time>2026-04-19T14:20:35Z</time></trkpt><trkpt lat="42.374895133374835" lon="12.91787047139135"><ele>412.0</ele><time>2026-04-19T14:20:36Z</time></trkpt><trkpt lat="42.375053416617085" lon="12.917725818930803"><ele>412.0</ele><time>2026-04-19T14:20:37Z</time></trkpt><trkpt lat="42.37518666094471" lon="12.917564692550394"><ele>412.0</ele><time>2026-04-19T14:20:38Z</time></trkpt><trkpt lat="42.37529969854279" lon="12.917384783572807"><ele>412.0</ele><time>2026-04-19T14:20:39Z</time></trkpt><trkpt lat="42.37540188130948" lon="12.91718788812817"><ele>412.0</ele><time>2026-04-19T14:20:40Z</time></trkpt><trkpt lat="42.37549571438858" lon="12.916973385071344"><ele>408.33333333333337</ele><time>2026-04-19T14:20:41Z</time></trkpt><trkpt lat="42.37558112093773" lon="12.916736102775744"><ele>404.66666666666663</ele><time>2026-04-19T14:20:42Z</time></trkpt><trkpt lat="42.375666129617336" lon="12.916493196695084"><ele>401.0</ele><time>2026-04-19T14:20:43Z</time></trkpt><trkpt lat="42.37574852891591" lon="12.916262484906408"><ele>401.0</ele><time>2026-04-19T14:20:44Z</time></trkpt><trkpt lat="42.37582782384946" lon="12.91605242417007"><ele>401.0</ele><time>2026-04-19T14:20:45Z</time></trkpt><trkpt lat="42.37590341656792" lon="12.915838958624336"><ele>401.0</ele><time>2026-04-19T14:20:46Z</time></trkpt><trkpt lat="42.375981095480824" lon="12.915628349971573"><ele>402.66666666666663</ele><time>2026-04-19T14:20:47Z</time></trkpt><trkpt lat="42.37605693381845" lon="12.915417875598612"><ele>404.33333333333337</ele><time>2026-04-19T14:20:48Z</time></trkpt><trkpt lat="42.376129631206204" lon="12.915202648614063"><ele>406.0</ele><time>2026-04-19T14:20:49Z</time></trkpt><trkpt lat="42.37620464605715" lon="12.914987332618882"><ele>406.0</ele><time>2026-04-19T14:20:50Z</time></trkpt><trkpt lat="42.37628018241353" lon="12.91477265670782"><ele>406.0</ele><time>2026-04-19T14:20:51Z</time></trkpt><trkpt lat="42.37635629863013" lon="12.914559252834085"><ele>406.0</ele><time>2026-04-19T14:20:52Z</time></trkpt><trkpt lat="42.37642608555482" lon="12.91435242636694"><ele>403.6666666666667</ele><time>2026-04-19T14:20:53Z</time></trkpt><trkpt lat="42.37649343012531" lon="12.914161101029416"><ele>401.33333333333337</ele><time>2026-04-19T14:20:54Z</time></trkpt><trkpt lat="42.37656331300357" lon="12.913974000001387"><ele>399.0</ele><time>2026-04-19T14:20:55Z</time></trkpt><trkpt lat="42.376644447842025" lon="12.913790434630444"><ele>399.0</ele><time>2026-04-19T14:20:56Z</time></trkpt><trkpt lat="42.376734090154095" lon="12.91361992291652"><ele>399.0</ele><time>2026-04-19T14:20:57Z</time></trkpt><trkpt lat="42.37683277291216" lon="12.913466459887568"><ele>399.0</ele><time>2026-04-19T14:20:58Z</time></trkpt><trkpt lat="42.37694443854762" lon="12.913313784076074"><ele>398.66666666666663</ele><time>2026-04-19T14:20:59Z</time></trkpt><trkpt lat="42.377077570652915" lon="12.913167997808868"><ele>398.3333333333333</ele><time>2026-04-19T14:21:00Z</time></trkpt><trkpt lat="42.377224403304325" lon="12.913025025795177"><ele>398.0</ele><time>2026-04-19T14:21:01Z</time></trkpt><trkpt lat="42.37738171480713" lon="12.912886542749442"><ele>398.0</ele><time>2026-04-19T14:21:02Z</time></trkpt><trkpt lat="42.377542617734875" lon="12.912746797597736"><ele>398.0</ele><time>2026-04-19T14:21:03Z</time></trkpt><trkpt lat="42.37770387925574" lon="12.912602890725205"><ele>398.0</ele><time>2026-04-19T14:21:04Z</time></trkpt><trkpt lat="42.37786230589287" lon="12.912457244597384"><ele>397.66666666666663</ele><time>2026-04-19T14:21:05Z</time></trkpt><trkpt lat="42.378013145396935" lon="12.912313945190492"><ele>397.33333333333337</ele><time>2026-04-19T14:21:06Z</time></trkpt><trkpt lat="42.37816051714968" lon="12.912182484477732"><ele>397.0</ele><time>2026-04-19T14:21:07Z</time></trkpt><trkpt lat="42.378307199497804" lon="12.912050147802079"><ele>397.0</ele><time>2026-04-19T14:21:08Z</time></trkpt><trkpt lat="42.3784590602852" lon="12.91191567434894"><ele>397.0</ele><time>2026-04-19T14:21:09Z</time></trkpt><trkpt lat="42.37861016882533" lon="12.911778096313956"><ele>397.0</ele><time>2026-04-19T14:21:10Z</time></trkpt><trkpt lat="42.37876440222054" lon="12.911641786263356"><ele>397.0</ele><time>2026-04-19T14:21:11Z</time></trkpt><trkpt lat="42.37891705611009" lon="12.911505703781994"><ele>397.0</ele><time>2026-04-19T14:21:12Z</time></trkpt><trkpt lat="42.37906813400727" lon="12.911363206175002"><ele>397.0</ele><time>2026-04-19T14:21:13Z</time></trkpt><trkpt lat="42.37922177494459" lon="12.911223943921293"><ele>397.0</ele><time>2026-04-19T14:21:14Z</time></trkpt><trkpt lat="42.3793695361989" lon="12.911091868547517"><ele>397.0</ele><time>2026-04-19T14:21:15Z</time></trkpt><trkpt lat="42.3795166720093" lon="12.910963315654723"><ele>397.0</ele><time>2026-04-19T14:21:16Z</time></trkpt><trkpt lat="42.379659971973005" lon="12.910836088752676"><ele>397.33333333333337</ele><time>2026-04-19T14:21:16.999Z</time></trkpt><trkpt lat="42.37980301034398" lon="12.910709359116051"><ele>397.66666666666663</ele><time>2026-04-19T14:21:17.999Z</time></trkpt><trkpt lat="42.37994370088961" lon="12.91057337762183"><ele>398.0</ele><time>2026-04-19T14:21:18.999Z</time></trkpt><trkpt lat="42.38007589181414" lon="12.910429402165"><ele>398.0</ele><time>2026-04-19T14:21:19.999Z</time></trkpt><trkpt lat="42.380203445746545" lon="12.910271157694512"><ele>398.0</ele><time>2026-04-19T14:21:20.999Z</time></trkpt><trkpt lat="42.380314939416216" lon="12.910099327754969"><ele>398.0</ele><time>2026-04-19T14:21:21.999Z</time></trkpt><trkpt lat="42.38040590783522" lon="12.909928412631137"><ele>398.0</ele><time>2026-04-19T14:21:22.999Z</time></trkpt><trkpt lat="42.38048255160698" lon="12.90976149453516"><ele>398.0</ele><time>2026-04-19T14:21:23.999Z</time></trkpt><trkpt lat="42.380557260895635" lon="12.909593074895225"><ele>398.0</ele><time>2026-04-19T14:21:24.999Z</time></trkpt><trkpt lat="42.380628950183755" lon="12.909428951330773"><ele>398.0</ele><time>2026-04-19T14:21:25.999Z</time></trkpt><trkpt lat="42.380703901850545" lon="12.90926946383324"><ele>398.0</ele><time>2026-04-19T14:21:26.999Z</time></trkpt><trkpt lat="42.38079465198892" lon="12.909105831035653"><ele>398.0</ele><time>2026-04-19T14:21:27.999Z</time></trkpt><trkpt lat="42.38091770676083" lon="12.908941709807088"><ele>398.0</ele><time>2026-04-19T14:21:28.999Z</time></trkpt><trkpt lat="42.38104776301555" lon="12.908789579783528"><ele>398.0</ele><time>2026-04-19T14:21:29.999Z</time></trkpt><trkpt lat="42.38118328719782" lon="12.908659405869512"><ele>398.0</ele><time>2026-04-19T14:21:30.999Z</time></trkpt><trkpt lat="42.38132091717557" lon="12.908517430032465"><ele>398.0</ele><time>2026-04-19T14:21:31.999Z</time></trkpt><trkpt lat="42.38145992114489" lon="12.908378976554063"><ele>398.3333333333333</ele><time>2026-04-19T14:21:32.999Z</time></trkpt><trkpt lat="42.38159766067773" lon="12.908243172661837"><ele>398.66666666666663</ele><time>2026-04-19T14:21:34Z</time></trkpt><trkpt lat="42.38172597155783" lon="12.90811952607815"><ele>399.0</ele><time>2026-04-19T14:21:35Z</time></trkpt><trkpt lat="42.38184543171433" lon="12.908001040057535"><ele>399.0</ele><time>2026-04-19T14:21:36Z</time></trkpt><trkpt lat="42.38195566839799" lon="12.907896911674163"><ele>399.0</ele><time>2026-04-19T14:21:37Z</time></trkpt><trkpt lat="42.38206053738034" lon="12.907797428238583"><ele>399.0</ele><time>2026-04-19T14:21:38Z</time></trkpt><trkpt lat="42.382157560571414" lon="12.90769658603681"><ele>399.0</ele><time>2026-04-19T14:21:39Z</time></trkpt><trkpt lat="42.38225550441967" lon="12.907590665900647"><ele>399.75</ele><time>2026-04-19T14:21:40Z</time></trkpt><trkpt lat="42.382360699943426" lon="12.90748011076554"><ele>400.5</ele><time>2026-04-19T14:21:41Z</time></trkpt><trkpt lat="42.38246394270424" lon="12.90736149615743"><ele>401.25</ele><time>2026-04-19T14:21:42Z</time></trkpt><trkpt lat="42.382550530430784" lon="12.907235787483971"><ele>402.0</ele><time>2026-04-19T14:21:43Z</time></trkpt><trkpt lat="42.38263387915777" lon="12.907122351963897"><ele>402.0</ele><time>2026-04-19T14:21:44Z</time></trkpt><trkpt lat="42.38271242399452" lon="12.907007551260998"><ele>402.0</ele><time>2026-04-19T14:21:45Z</time></trkpt><trkpt lat="42.38279337841303" lon="12.90688396112691"><ele>402.0</ele><time>2026-04-19T14:21:46Z</time></trkpt><trkpt lat="42.382865381603665" lon="12.906767506576792"><ele>402.0</ele><time>2026-04-19T14:21:47Z</time></trkpt><trkpt lat="42.38293356633866" lon="12.906661346194072"><ele>401.6666666666667</ele><time>2026-04-19T14:21:48Z</time></trkpt><trkpt lat="42.38300284087718" lon="12.906561867985271"><ele>401.33333333333337</ele><time>2026-04-19T14:21:49Z</time></trkpt><trkpt lat="42.383065130056586" lon="12.90647814276304"><ele>401.0</ele><time>2026-04-19T14:21:50Z</time></trkpt><trkpt lat="42.38312858888012" lon="12.906399598873143"><ele>400.6666666666667</ele><time>2026-04-19T14:21:51Z</time></trkpt><trkpt lat="42.38319109795805" lon="12.906331044857552"><ele>400.33333333333337</ele><time>2026-04-19T14:21:52Z</time></trkpt><trkpt lat="42.38325271371097" lon="12.906267478134854"><ele>400.0</ele><time>2026-04-19T14:21:53Z</time></trkpt><trkpt lat="42.38331614491049" lon="12.90620147271306"><ele>400.00000000000006</ele><time>2026-04-19T14:21:54Z</time></trkpt><trkpt lat="42.383382410148364" lon="12.90612873452425"><ele>400.0</ele><time>2026-04-19T14:21:55Z</time></trkpt><trkpt lat="42.38344650554323" lon="12.90605511129815"><ele>400.0</ele><time>2026-04-19T14:21:56Z</time></trkpt><trkpt lat="42.383506301145765" lon="12.905991167243167"><ele>400.0</ele><time>2026-04-19T14:21:57Z</time></trkpt><trkpt lat="42.38357012277215" lon="12.90592564966356"><ele>400.00000000000006</ele><time>2026-04-19T14:21:58Z</time></trkpt><trkpt lat="42.383640183450616" lon="12.905853656642682"><ele>400.0</ele><time>2026-04-19T14:21:59Z</time></trkpt><trkpt lat="42.383716138778595" lon="12.905771979117345"><ele>400.2</ele><time>2026-04-19T14:22:00Z</time></trkpt><trkpt lat="42.38379619562996" lon="12.90568849691277"><ele>400.4</ele><time>2026-04-19T14:22:01Z</time></trkpt><trkpt lat="42.3838738696603" lon="12.905603485549857"><ele>400.6</ele><time>2026-04-19T14:22:02Z</time></trkpt><trkpt lat="42.38395742600508" lon="12.905510704027497"><ele>400.8</ele><time>2026-04-19T14:22:03Z</time></trkpt><trkpt lat="42.384046419297185" lon="12.905407499224436"><ele>401.0</ele><time>2026-04-19T14:22:04Z</time></trkpt><trkpt lat="42.38413962457876" lon="12.905302985156203"><ele>400.0</ele><time>2026-04-19T14:22:05Z</time></trkpt><trkpt lat="42.384237939217826" lon="12.905190999734979"><ele>399.0</ele><time>2026-04-19T14:22:06Z</time></trkpt><trkpt lat="42.38434040631953" lon="12.905075418956502"><ele>398.0</ele><time>2026-04-19T14:22:07Z</time></trkpt><trkpt lat="42.38445255133076" lon="12.904953830938865"><ele>397.0</ele><time>2026-04-19T14:22:08Z</time></trkpt><trkpt lat="42.38457052464102" lon="12.904822761104102"><ele>396.6666666666667</ele><time>2026-04-19T14:22:09Z</time></trkpt><trkpt lat="42.38469854968523" lon="12.904684349367816"><ele>396.33333333333337</ele><time>2026-04-19T14:22:10Z</time></trkpt><trkpt lat="42.38482805832329" lon="12.904544242505406"><ele>396.0</ele><time>2026-04-19T14:22:11Z</time></trkpt><trkpt lat="42.38495726655432" lon="12.904413139983175"><ele>396.0</ele><time>2026-04-19T14:22:12Z</time></trkpt><trkpt lat="42.38508765330831" lon="12.904295268908719"><ele>396.0</ele><time>2026-04-19T14:22:13Z</time></trkpt><trkpt lat="42.38522012067102" lon="12.90419872266604"><ele>396.0</ele><time>2026-04-19T14:22:14Z</time></trkpt><trkpt lat="42.38536107476824" lon="12.904118126035785"><ele>396.33333333333337</ele><time>2026-04-19T14:22:15Z</time></trkpt><trkpt lat="42.38551463083974" lon="12.904039904497129"><ele>396.6666666666667</ele><time>2026-04-19T14:22:16Z</time></trkpt><trkpt lat="42.38567584480469" lon="12.90395898378498"><ele>397.0</ele><time>2026-04-19T14:22:17Z</time></trkpt><trkpt lat="42.38582043571487" lon="12.903874796784315"><ele>397.0</ele><time>2026-04-19T14:22:18Z</time></trkpt><trkpt lat="42.38595878912291" lon="12.903758937219871"><ele>397.0</ele><time>2026-04-19T14:22:19Z</time></trkpt><trkpt lat="42.38607405223118" lon="12.903618236794117"><ele>397.0</ele><time>2026-04-19T14:22:20Z</time></trkpt><trkpt lat="42.386176059667186" lon="12.903439335556566"><ele>396.0</ele><time>2026-04-19T14:22:21Z</time></trkpt><trkpt lat="42.386261777605505" lon="12.903224957675542"><ele>395.0</ele><time>2026-04-19T14:22:22Z</time></trkpt><trkpt lat="42.38633742466923" lon="12.903016288190345"><ele>394.0</ele><time>2026-04-19T14:22:23Z</time></trkpt><trkpt lat="42.38641492640929" lon="12.902795947880737"><ele>394.6666666666667</ele><time>2026-04-19T14:22:24Z</time></trkpt><trkpt lat="42.386497895779485" lon="12.902570139192392"><ele>395.33333333333337</ele><time>2026-04-19T14:22:25Z</time></trkpt><trkpt lat="42.38658362910028" lon="12.90233640090975"><ele>396.0</ele><time>2026-04-19T14:22:26Z</time></trkpt><trkpt lat="42.38665811669586" lon="12.902120891891357"><ele>396.0</ele><time>2026-04-19T14:22:27Z</time></trkpt><trkpt lat="42.386728789540946" lon="12.901920256850348"><ele>396.0</ele><time>2026-04-19T14:22:28Z</time></trkpt><trkpt lat="42.38679636196704" lon="12.90172448571217"><ele>396.0</ele><time>2026-04-19T14:22:29Z</time></trkpt><trkpt lat="42.38686596292481" lon="12.901520494193184"><ele>399.33333333333337</ele><time>2026-04-19T14:22:30Z</time></trkpt><trkpt lat="42.38693764128324" lon="12.901310991471263"><ele>402.6666666666667</ele><time>2026-04-19T14:22:31Z</time></trkpt><trkpt lat="42.38701013161966" lon="12.901095746716715"><ele>406.0</ele><time>2026-04-19T14:22:32Z</time></trkpt><trkpt lat="42.38708199965079" lon="12.900872909152527"><ele>401.33333333333337</ele><time>2026-04-19T14:22:33Z</time></trkpt><trkpt lat="42.38715585613133" lon="12.90064255413699"><ele>396.66666666666663</ele><time>2026-04-19T14:22:34Z</time></trkpt><trkpt lat="42.3872253946342" lon="12.900422891151125"><ele>392.0</ele><time>2026-04-19T14:22:35Z</time></trkpt><trkpt lat="42.387292837843376" lon="12.90020167826812"><ele>393.66666666666663</ele><time>2026-04-19T14:22:36Z</time></trkpt><trkpt lat="42.387360065345604" lon="12.899986784393631"><ele>395.33333333333337</ele><time>2026-04-19T14:22:37Z</time></trkpt><trkpt lat="42.38742513209621" lon="12.899775939201977"><ele>397.0</ele><time>2026-04-19T14:22:38Z</time></trkpt><trkpt lat="42.38749451196297" lon="12.899559332962713"><ele>397.0</ele><time>2026-04-19T14:22:39Z</time></trkpt><trkpt lat="42.38756746598973" lon="12.899329867053886"><ele>397.0</ele><time>2026-04-19T14:22:40Z</time></trkpt><trkpt lat="42.38764321768319" lon="12.899093503511725"><ele>397.0</ele><time>2026-04-19T14:22:41Z</time></trkpt><trkpt lat="42.38772026231514" lon="12.898849105422206"><ele>401.0</ele><time>2026-04-19T14:22:42Z</time></trkpt><trkpt lat="42.387797680050575" lon="12.898601821518406"><ele>405.0</ele><time>2026-04-19T14:22:43Z</time></trkpt><trkpt lat="42.387875270922464" lon="12.898353736056835"><ele>409.0</ele><time>2026-04-19T14:22:44Z</time></trkpt><trkpt lat="42.38795446920628" lon="12.898106122691825"><ele>405.6666666666667</ele><time>2026-04-19T14:22:45Z</time></trkpt><trkpt lat="42.388030598409706" lon="12.897861717134125"><ele>402.33333333333337</ele><time>2026-04-19T14:22:46Z</time></trkpt><trkpt lat="42.38810018728883" lon="12.897637162728287"><ele>399.0</ele><time>2026-04-19T14:22:47Z</time></trkpt><trkpt lat="42.38816749045648" lon="12.897417249596646"><ele>399.0</ele><time>2026-04-19T14:22:48Z</time></trkpt><trkpt lat="42.38823860751128" lon="12.897200879600222"><ele>399.0</ele><time>2026-04-19T14:22:49Z</time></trkpt><trkpt lat="42.38831068767148" lon="12.897006030136982"><ele>399.0</ele><time>2026-04-19T14:22:50Z</time></trkpt><trkpt lat="42.388399461275824" lon="12.896824839616068"><ele>400.5</ele><time>2026-04-19T14:22:51Z</time></trkpt><trkpt lat="42.388500273641405" lon="12.896666018003511"><ele>402.0</ele><time>2026-04-19T14:22:52Z</time></trkpt><trkpt lat="42.38860227046051" lon="12.896527211876567"><ele>403.5</ele><time>2026-04-19T14:22:53Z</time></trkpt><trkpt lat="42.38869887602338" lon="12.896394574221988"><ele>405.0</ele><time>2026-04-19T14:22:54Z</time></trkpt><trkpt lat="42.388789746887355" lon="12.896267370966225"><ele>403.5</ele><time>2026-04-19T14:22:55Z</time></trkpt><trkpt lat="42.388875194546976" lon="12.896141241835775"><ele>402.0</ele><time>2026-04-19T14:22:56Z</time></trkpt><trkpt lat="42.38895652643143" lon="12.896016139496778"><ele>400.5</ele><time>2026-04-19T14:22:57Z</time></trkpt><trkpt lat="42.3890396694338" lon="12.89589616306704"><ele>399.0</ele><time>2026-04-19T14:22:58Z</time></trkpt><trkpt lat="42.38912247824254" lon="12.89577191833509"><ele>399.0</ele><time>2026-04-19T14:22:59Z</time></trkpt><trkpt lat="42.38919349965549" lon="12.895640493448344"><ele>399.0</ele><time>2026-04-19T14:23:00Z</time></trkpt><trkpt lat="42.38924244674225" lon="12.895491538892443"><ele>399.0</ele><time>2026-04-19T14:23:01Z</time></trkpt><trkpt lat="42.38926514405278" lon="12.895321502630525"><ele>399.0</ele><time>2026-04-19T14:23:02Z</time></trkpt><trkpt lat="42.389267864764456" lon="12.895151368296668"><ele>401.5</ele><time>2026-04-19T14:23:03Z</time></trkpt><trkpt lat="42.38926403210213" lon="12.894974149447977"><ele>404.0</ele><time>2026-04-19T14:23:04Z</time></trkpt><trkpt lat="42.38926511156474" lon="12.894791386272777"><ele>406.5</ele><time>2026-04-19T14:23:05Z</time></trkpt><trkpt lat="42.38927029221516" lon="12.894603347936371"><ele>409.0</ele><time>2026-04-19T14:23:06Z</time></trkpt><trkpt lat="42.38928376820235" lon="12.894409887260709"><ele>411.5</ele><time>2026-04-19T14:23:07Z</time></trkpt><trkpt lat="42.38930138209852" lon="12.894213891458135"><ele>414.0</ele><time>2026-04-19T14:23:08Z</time></trkpt><trkpt lat="42.389321958537074" lon="12.894013140299103"><ele>416.5</ele><time>2026-04-19T14:23:09Z</time></trkpt><trkpt lat="42.38934450146881" lon="12.893809136390502"><ele>419.0</ele><time>2026-04-19T14:23:10Z</time></trkpt><trkpt lat="42.38936861323546" lon="12.89360503599963"><ele>422.0</ele><time>2026-04-19T14:23:11Z</time></trkpt><trkpt lat="42.38939241561985" lon="12.893397594415589"><ele>425.0</ele><time>2026-04-19T14:23:12Z</time></trkpt><trkpt lat="42.38940867898155" lon="12.893189545246454"><ele>428.0</ele><time>2026-04-19T14:23:13Z</time></trkpt><trkpt lat="42.38941633422299" lon="12.892978050049994"><ele>428.0</ele><time>2026-04-19T14:23:14Z</time></trkpt><trkpt lat="42.38942035962364" lon="12.892761502822681"><ele>428.0</ele><time>2026-04-19T14:23:15Z</time></trkpt><trkpt lat="42.389428013930036" lon="12.892542885871276"><ele>428.0</ele><time>2026-04-19T14:23:16Z</time></trkpt><trkpt lat="42.38944275558177" lon="12.892327723457129"><ele>428.66666666666663</ele><time>2026-04-19T14:23:17Z</time></trkpt><trkpt lat="42.38946864745124" lon="12.892114432722146"><ele>429.33333333333337</ele><time>2026-04-19T14:23:18Z</time></trkpt><trkpt lat="42.38950457032555" lon="12.891900086187906"><ele>430.0</ele><time>2026-04-19T14:23:19Z</time></trkpt><trkpt lat="42.389551516315564" lon="12.891685498579902"><ele>432.0</ele><time>2026-04-19T14:23:20Z</time></trkpt><trkpt lat="42.38960227200473" lon="12.891469168785518"><ele>434.0</ele><time>2026-04-19T14:23:21Z</time></trkpt><trkpt lat="42.38965878126372" lon="12.891256762066671"><ele>436.0</ele><time>2026-04-19T14:23:22Z</time></trkpt><trkpt lat="42.38971538994919" lon="12.891044643443026"><ele>425.33333333333337</ele><time>2026-04-19T14:23:23Z</time></trkpt><trkpt lat="42.38977886845291" lon="12.890836455819553"><ele>414.66666666666663</ele><time>2026-04-19T14:23:24Z</time></trkpt><trkpt lat="42.3898602958242" lon="12.890641011872148"><ele>404.0</ele><time>2026-04-19T14:23:25Z</time></trkpt><trkpt lat="42.38995605775045" lon="12.890463012171345"><ele>404.0</ele><time>2026-04-19T14:23:26Z</time></trkpt><trkpt lat="42.390063158715925" lon="12.890296712796557"><ele>404.0</ele><time>2026-04-19T14:23:27Z</time></trkpt><trkpt lat="42.39016951010163" lon="12.890128855064718"><ele>404.0</ele><time>2026-04-19T14:23:28Z</time></trkpt><trkpt lat="42.3902682023345" lon="12.889964696372928"><ele>409.0</ele><time>2026-04-19T14:23:29Z</time></trkpt><trkpt lat="42.39035342718245" lon="12.8897871868992"><ele>414.0</ele><time>2026-04-19T14:23:30Z</time></trkpt><trkpt lat="42.39042802436856" lon="12.889596283280678"><ele>419.0</ele><time>2026-04-19T14:23:31Z</time></trkpt><trkpt lat="42.39049802366895" lon="12.8894008940046"><ele>409.66666666666663</ele><time>2026-04-19T14:23:32Z</time></trkpt><trkpt lat="42.390565813195266" lon="12.889209215234938"><ele>400.33333333333337</ele><time>2026-04-19T14:23:33Z</time></trkpt><trkpt lat="42.39063171691538" lon="12.889027419932143"><ele>391.0</ele><time>2026-04-19T14:23:34Z</time></trkpt><trkpt lat="42.3906962517966" lon="12.888854561817968"><ele>391.0</ele><time>2026-04-19T14:23:35Z</time></trkpt><trkpt lat="42.39076298774613" lon="12.88868657680006"><ele>391.0</ele><time>2026-04-19T14:23:36Z</time></trkpt><trkpt lat="42.39083341303907" lon="12.888524679874198"><ele>391.0</ele><time>2026-04-19T14:23:37Z</time></trkpt><trkpt lat="42.39091537261812" lon="12.8883789166023"><ele>391.0</ele><time>2026-04-19T14:23:38Z</time></trkpt><trkpt lat="42.39101785057101" lon="12.888257384713665"><ele>392.0</ele><time>2026-04-19T14:23:39Z</time></trkpt><trkpt lat="42.39113629597802" lon="12.8881612625593"><ele>393.0</ele><time>2026-04-19T14:23:40Z</time></trkpt><trkpt lat="42.39125879816606" lon="12.88807107295154"><ele>394.0</ele><time>2026-04-19T14:23:41Z</time></trkpt><trkpt lat="42.39137465398374" lon="12.88796740490466"><ele>395.0</ele><time>2026-04-19T14:23:42Z</time></trkpt><trkpt lat="42.39148610603438" lon="12.887847271826836"><ele>395.0</ele><time>2026-04-19T14:23:43Z</time></trkpt><trkpt lat="42.391597962513956" lon="12.887719753856064"><ele>395.0</ele><time>2026-04-19T14:23:44Z</time></trkpt><trkpt lat="42.391705768620305" lon="12.887592723963323"><ele>395.0</ele><time>2026-04-19T14:23:45Z</time></trkpt><trkpt lat="42.39180596494864" lon="12.887470024122866"><ele>395.0</ele><time>2026-04-19T14:23:46Z</time></trkpt><trkpt lat="42.39189953949075" lon="12.887338236086268"><ele>396.5</ele><time>2026-04-19T14:23:47Z</time></trkpt><trkpt lat="42.39197420564299" lon="12.887179851491968"><ele>398.0</ele><time>2026-04-19T14:23:48Z</time></trkpt><trkpt lat="42.3920327672079" lon="12.886997915333046"><ele>399.5</ele><time>2026-04-19T14:23:49Z</time></trkpt><trkpt lat="42.39208088659141" lon="12.886805343969822"><ele>401.0</ele><time>2026-04-19T14:23:50Z</time></trkpt><trkpt lat="42.39212775239496" lon="12.886605215484689"><ele>398.0</ele><time>2026-04-19T14:23:51Z</time></trkpt><trkpt lat="42.39217577058731" lon="12.886395481556447"><ele>395.0</ele><time>2026-04-19T14:23:52Z</time></trkpt><trkpt lat="42.39221903848327" lon="12.886178288009091"><ele>392.0</ele><time>2026-04-19T14:23:53Z</time></trkpt><trkpt lat="42.392249936347184" lon="12.885946020260752"><ele>392.66666666666663</ele><time>2026-04-19T14:23:54Z</time></trkpt><trkpt lat="42.39226838709258" lon="12.885706445850525"><ele>393.33333333333337</ele><time>2026-04-19T14:23:55Z</time></trkpt><trkpt lat="42.392282592808826" lon="12.885463662601122"><ele>394.0</ele><time>2026-04-19T14:23:56Z</time></trkpt><trkpt lat="42.39230068551645" lon="12.885232804290201"><ele>395.0</ele><time>2026-04-19T14:23:57Z</time></trkpt><trkpt lat="42.392320773822064" lon="12.885018879617563"><ele>396.0</ele><time>2026-04-19T14:23:58Z</time></trkpt><trkpt lat="42.39233787984141" lon="12.884806225267035"><ele>397.0</ele><time>2026-04-19T14:23:59Z</time></trkpt><trkpt lat="42.392354603926094" lon="12.884595944141076"><ele>397.0</ele><time>2026-04-19T14:24:00Z</time></trkpt><trkpt lat="42.39237042802645" lon="12.884381110532631"><ele>397.0</ele><time>2026-04-19T14:24:01Z</time></trkpt><trkpt lat="42.39238723635716" lon="12.884158952336639"><ele>397.0</ele><time>2026-04-19T14:24:02Z</time></trkpt><trkpt lat="42.392406680759436" lon="12.883932569726912"><ele>397.0</ele><time>2026-04-19T14:24:03Z</time></trkpt><trkpt lat="42.39243627895388" lon="12.883696723009479"><ele>397.0</ele><time>2026-04-19T14:24:04Z</time></trkpt><trkpt lat="42.392480447953815" lon="12.88346065033579"><ele>397.0</ele><time>2026-04-19T14:24:05Z</time></trkpt><trkpt lat="42.39254255511723" lon="12.883223687870586"><ele>397.6666666666667</ele><time>2026-04-19T14:24:06Z</time></trkpt><trkpt lat="42.392618457519745" lon="12.882987656024827"><ele>398.33333333333337</ele><time>2026-04-19T14:24:07Z</time></trkpt><trkpt lat="42.392699079988866" lon="12.882760202603198"><ele>399.0</ele><time>2026-04-19T14:24:08Z</time></trkpt><trkpt lat="42.39277811080944" lon="12.882530664713743"><ele>403.0</ele><time>2026-04-19T14:24:09Z</time></trkpt><trkpt lat="42.3928541963085" lon="12.882312897224535"><ele>407.0</ele><time>2026-04-19T14:24:10Z</time></trkpt><trkpt lat="42.39292829296232" lon="12.88210348794127"><ele>411.0</ele><time>2026-04-19T14:24:11Z</time></trkpt><trkpt lat="42.39299940810239" lon="12.881901599744964"><ele>405.0</ele><time>2026-04-19T14:24:12Z</time></trkpt><trkpt lat="42.39306764137063" lon="12.881706968421728"><ele>399.0</ele><time>2026-04-19T14:24:13Z</time></trkpt><trkpt lat="42.39313823119207" lon="12.881523940505607"><ele>393.0</ele><time>2026-04-19T14:24:14Z</time></trkpt><trkpt lat="42.39322843344888" lon="12.88134615761958"><ele>393.0</ele><time>2026-04-19T14:24:15Z</time></trkpt><trkpt lat="42.393336156833946" lon="12.881176562798661"><ele>393.0</ele><time>2026-04-19T14:24:16Z</time></trkpt><trkpt lat="42.393451767437476" lon="12.881017740351565"><ele>393.0</ele><time>2026-04-19T14:24:17Z</time></trkpt><trkpt lat="42.39356635638357" lon="12.880856698726992"><ele>396.0</ele><time>2026-04-19T14:24:18Z</time></trkpt><trkpt lat="42.39367365043715" lon="12.88068534702287"><ele>399.0</ele><time>2026-04-19T14:24:19Z</time></trkpt><trkpt lat="42.39376013324058" lon="12.880517769098374"><ele>402.0</ele><time>2026-04-19T14:24:20Z</time></trkpt><trkpt lat="42.393830828484155" lon="12.880347373042781"><ele>399.75</ele><time>2026-04-19T14:24:21Z</time></trkpt><trkpt lat="42.393895798741646" lon="12.880169043066195"><ele>397.5</ele><time>2026-04-19T14:24:22Z</time></trkpt><trkpt lat="42.39395616920283" lon="12.879982416068154"><ele>395.25</ele><time>2026-04-19T14:24:23Z</time></trkpt><trkpt lat="42.3940108151182" lon="12.879790661642083"><ele>393.0</ele><time>2026-04-19T14:24:24Z</time></trkpt><trkpt lat="42.39405894188773" lon="12.879600028468204"><ele>393.0</ele><time>2026-04-19T14:24:25Z</time></trkpt><trkpt lat="42.39410556380928" lon="12.879412363090099"><ele>393.0</ele><time>2026-04-19T14:24:26Z</time></trkpt><trkpt lat="42.394160790696134" lon="12.879224266074573"><ele>393.0</ele><time>2026-04-19T14:24:27Z</time></trkpt><trkpt lat="42.39422824908786" lon="12.879032931891736"><ele>393.66666666666663</ele><time>2026-04-19T14:24:28Z</time></trkpt><trkpt lat="42.3943023327009" lon="12.87884207496752"><ele>394.3333333333333</ele><time>2026-04-19T14:24:29Z</time></trkpt><trkpt lat="42.394382134877965" lon="12.878653605206233"><ele>395.0</ele><time>2026-04-19T14:24:30Z</time></trkpt><trkpt lat="42.39446185420503" lon="12.878466509948591"><ele>393.5</ele><time>2026-04-19T14:24:31Z</time></trkpt><trkpt lat="42.39453675663894" lon="12.878275249691113"><ele>392.0</ele><time>2026-04-19T14:24:32Z</time></trkpt><trkpt lat="42.39460021655996" lon="12.878090890107215"><ele>390.5</ele><time>2026-04-19T14:24:33Z</time></trkpt><trkpt lat="42.394652155467114" lon="12.877918227421166"><ele>389.0</ele><time>2026-04-19T14:24:34Z</time></trkpt><trkpt lat="42.39469533776541" lon="12.87775617384656"><ele>389.0</ele><time>2026-04-19T14:24:35Z</time></trkpt><trkpt lat="42.39473371000826" lon="12.877609619218749"><ele>389.0</ele><time>2026-04-19T14:24:36Z</time></trkpt><trkpt lat="42.394769475665946" lon="12.877479049045151"><ele>389.0</ele><time>2026-04-19T14:24:37Z</time></trkpt><trkpt lat="42.39480276336" lon="12.877372190972213"><ele>389.0</ele><time>2026-04-19T14:24:38Z</time></trkpt><trkpt lat="42.39483071151898" lon="12.877278590195527"><ele>389.0</ele><time>2026-04-19T14:24:39Z</time></trkpt><trkpt lat="42.394859409614405" lon="12.877158524466475"><ele>390.0</ele><time>2026-04-19T14:24:41Z</time></trkpt></trkseg></trk></gpx>